# Wetter Temperatur Luftdruck Luftfeuchtigkeit Sichtweite Windgeschwindigkeit Windrichtung Zeit
1 Clouds 15 1014 87 10000 3.6 310 06:25 11.07.2020
2 Clouds 15 1014 87 10000 3.6 310 05:54 11.07.2020
3 Rain 14 1015 87 10000 3.1 310 05:19 11.07.2020
4 Rain 14 1016 93 8000 3.6 310 04:44 11.07.2020
5 Rain 14 1016 93 8000 3.6 310 04:19 11.07.2020
6 Rain 13 1017 93 10000 2.6 350 02:53 11.07.2020
7 Rain 13 1017 93 10000 2.6 350 02:25 11.07.2020
8 Rain 12 1018 100 10000 2.6 350 01:24 11.07.2020
9 Rain 12 1018 100 5000 2.6 340 00:57 11.07.2020
10 Rain 12 1018 100 5000 2.6 340 00:37 11.07.2020
11 Rain 12 1018 100 10000 3.4 348 00:18 11.07.2020
12 Rain 12 1018 93 8000 2.6 210 23:45 10.07.2020
13 Rain 12 1018 93 8000 2.6 210 23:26 10.07.2020
14 Rain 12 1018 100 6000 3.1 260 22:56 10.07.2020
15 Rain 12 1018 100 4500 3.6 250 22:38 10.07.2020
16 Rain 12 1018 93 5000 3.1 240 22:18 10.07.2020
17 Rain 12 1018 93 5000 2.6 330 21:39 10.07.2020
18 Rain 12 1018 93 6000 2.68 355 21:20 10.07.2020
19 Rain 12 1018 93 6000 2.68 355 20:57 10.07.2020
20 Rain 12 1018 93 8000 2.6 330 20:38 10.07.2020
21 Rain 12 1018 93 8000 2.6 330 20:38 10.07.2020
22 Rain 12 1019 93 10000 3.1 350 20:19 10.07.2020
23 Rain 12 1019 93 10000 2.6 360 19:56 10.07.2020
24 Rain 12 1019 93 10000 2.6 360 19:56 10.07.2020
25 Rain 12 1019 93 10000 2.6 360 19:38 10.07.2020
26 Clouds 12 1019 93 10000 2.6 320 19:18 10.07.2020
27 Clouds 12 1020 93 10000 2.6 310 18:41 10.07.2020
28 Clouds 12 1020 84 0 1.34 315 18:19 10.07.2020
29 Clouds 13 1020 93 10000 2.1 280 17:56 10.07.2020
30 Clouds 13 1020 93 10000 2.1 280 17:38 10.07.2020
31 Clouds 13 1021 93 10000 1.5 260 17:20 10.07.2020
32 Clouds 13 1021 87 10000 2.6 260 16:42 10.07.2020
33 Drizzle 13 1021 93 10000 2.6 290 16:20 10.07.2020
34 Rain 13 1022 83 0 0.89 45 15:45 10.07.2020
35 Rain 13 1022 82 0 1.34 290 15:23 10.07.2020
36 Rain 13 1022 82 0 1.34 290 14:55 10.07.2020
37 Rain 13 1022 82 0 1.34 290 14:37 10.07.2020
38 Clouds 13 1023 82 0 1.79 290 14:19 10.07.2020
39 Clouds 13 1023 82 0 1.79 290 13:57 10.07.2020
40 Rain 14 1022 87 10000 2.1 320 13:38 10.07.2020
41 Clouds 14 1023 80 0 0.89 270 13:20 10.07.2020
42 Clouds 14 1023 80 0 0.89 270 12:44 10.07.2020
43 Rain 14 1023 80 0 0.89 270 12:25 10.07.2020
44 Rain 14 1023 77 0 1.34 315 11:59 10.07.2020
45 Rain 15 1023 82 10000 2.6 300 11:38 10.07.2020
46 Rain 15 1023 82 10000 2.6 300 11:38 10.07.2020
47 Drizzle 15 1023 82 10000 2.6 280 11:19 10.07.2020
48 Clouds 15 1016 84 0 3.16 334 10:55 10.07.2020
49 Clouds 15 1016 85 0 2.64 1 10:37 10.07.2020
50 Rain 15 1023 67 10000 2.6 310 10:18 10.07.2020
51 Clouds 16 1015 86 0 0.45 323 09:39 10.07.2020
52 Clouds 16 1015 85 0 3.75 38 09:20 10.07.2020
53 Clouds 16 1023 72 10000 2.6 290 08:58 10.07.2020
54 Clouds 16 1015 81 0 0.45 281 08:40 10.07.2020
55 Clouds 16 1023 67 10000 2.6 310 08:21 10.07.2020
56 Clouds 17 1015 79 0 0.89 287 07:44 10.07.2020
57 Clouds 17 1015 78 0 0.45 272 07:23 10.07.2020
58 Clouds 16 1024 67 10000 3.1 280 06:52 10.07.2020
59 Clouds 16 1024 67 10000 3.1 290 06:27 10.07.2020
60 Clouds 16 1024 67 10000 3.6 290 05:19 10.07.2020
61 Clouds 15 1026 72 10000 3.6 310 03:43 10.07.2020
62 Clouds 13 1027 84 0 4.02 290 02:53 10.07.2020
63 Clouds 11 1027 87 8000 4.1 320 01:53 10.07.2020
64 Mist 10 1027 87 4000 3.6 330 00:53 10.07.2020
65 Mist 10 1027 87 4000 3.6 330 00:22 10.07.2020
66 Fog 10 1027 87 4000 2.6 310 23:55 09.07.2020
67 Mist 10 1027 93 3000 3.6 290 23:37 09.07.2020
68 Mist 10 1027 93 4000 3.1 300 23:18 09.07.2020
69 Mist 10 1027 93 4000 3.1 300 22:55 09.07.2020
70 Mist 10 1026 93 4000 3.1 300 22:37 09.07.2020
71 Mist 10 1026 100 4000 2.6 350 22:18 09.07.2020
72 Mist 11 1026 93 5000 2.6 310 21:39 09.07.2020
73 Mist 11 1026 93 5000 2.6 310 21:20 09.07.2020
74 Mist 11 1026 93 5000 2.6 310 21:20 09.07.2020
75 Clouds 11 1026 93 10000 2.1 350 20:59 09.07.2020
76 Clouds 11 1026 93 10000 2.1 360 20:39 09.07.2020
77 Clouds 11 1026 93 10000 2.1 360 20:21 09.07.2020
78 Clouds 11 1027 93 10000 2.6 350 19:43 09.07.2020
79 Clouds 11 1027 93 10000 2.6 350 19:22 09.07.2020
80 Clouds 11 1027 93 10000 2.1 350 19:22 09.07.2020
81 Clouds 11 1027 93 10000 2.1 350 18:56 09.07.2020
82 Clouds 11 1027 87 10000 3.1 260 18:38 09.07.2020
83 Clouds 11 1027 87 10000 2.6 260 18:18 09.07.2020
84 Clouds 12 1028 87 10000 1.75 281 17:43 09.07.2020
85 Clouds 12 1028 87 10000 2.77 268 17:22 09.07.2020
86 Clouds 12 1028 93 10000 2.6 280 16:56 09.07.2020
87 Clouds 12 1027 93 10000 3.1 270 16:38 09.07.2020
88 Clouds 12 1027 93 10000 3.1 270 16:19 09.07.2020
89 Clouds 12 1028 93 10000 3.6 290 15:58 09.07.2020
90 Clouds 12 1028 93 10000 2.1 210 15:37 09.07.2020
91 Clouds 12 1028 87 10000 2.46 313 15:18 09.07.2020
92 Clouds 12 1028 87 10000 2.46 313 14:57 09.07.2020
93 Clouds 12 1028 87 10000 1.5 350 14:39 09.07.2020
94 Clouds 13 1028 87 10000 3.3 6 14:20 09.07.2020
95 Clouds 13 1028 87 10000 3.3 6 13:56 09.07.2020
96 Clouds 13 1028 82 10000 3.3 6 13:38 09.07.2020
97 Clouds 13 1028 82 10000 2.1 350 13:19 09.07.2020
98 Clouds 13 1028 82 10000 2.1 30 12:42 09.07.2020
99 Clouds 13 1028 82 10000 2.1 30 12:23 09.07.2020
100 Clouds 13 1029 82 10000 2.6 30 11:57 09.07.2020
101 Clouds 13 1028 87 10000 3.1 40 11:39 09.07.2020
102 Clouds 14 1028 87 10000 3.1 50 11:19 09.07.2020
103 Clouds 14 1028 87 10000 3.1 50 10:56 09.07.2020
104 Clouds 14 1028 82 10000 3.1 40 10:38 09.07.2020
105 Clouds 14 1028 82 10000 3.6 50 10:19 09.07.2020
106 Clouds 14 1028 77 10000 3.6 60 09:43 09.07.2020
107 Clouds 15 1028 77 10000 3.6 60 09:23 09.07.2020
108 Clouds 16 1028 72 10000 4.1 60 08:52 09.07.2020
109 Clouds 16 1027 67 10000 4.6 70 08:27 09.07.2020
110 Clouds 16 1027 68 10000 5.1 70 07:58 09.07.2020
111 Clouds 17 1027 67 10000 4.6 60 07:40 09.07.2020
112 Clouds 17 1028 63 10000 3.6 70 07:21 09.07.2020
113 Rain 17 1028 59 10000 3.1 10 06:21 09.07.2020
114 Rain 17 1028 59 10000 3.1 10 05:57 09.07.2020
115 Clouds 16 1030 59 10000 2.6 290 04:29 09.07.2020
116 Clear 15 1031 59 10000 3.1 300 03:24 09.07.2020
117 Clear 12 1031 71 10000 3.1 310 01:56 09.07.2020
118 Clear 11 1031 76 10000 3.6 310 01:21 09.07.2020
119 Clouds 9 1030 81 10000 3.6 320 00:41 09.07.2020
120 Clouds 9 1030 87 10000 4.1 310 00:23 09.07.2020
121 Clouds 8 1030 93 10000 3.6 330 23:44 08.07.2020
122 Clouds 8 1030 93 10000 3.6 330 23:25 08.07.2020
123 Clouds 8 1030 93 10000 3.6 330 22:57 08.07.2020
124 Clouds 8 1030 87 10000 4.1 340 22:38 08.07.2020
125 Clouds 8 1030 87 10000 4.1 340 22:38 08.07.2020
126 Clouds 8 1030 87 10000 4.1 340 22:20 08.07.2020
127 Clouds 8 1029 93 10000 4.1 340 21:57 08.07.2020
128 Clouds 9 1029 87 10000 4.6 350 21:38 08.07.2020
129 Clouds 9 1029 87 10000 4.6 350 21:20 08.07.2020
130 Mist 8 1029 93 10000 2.6 320 20:43 08.07.2020
131 Mist 8 1029 93 10000 2.6 320 20:25 08.07.2020
132 Mist 8 1029 93 10000 2.6 320 19:58 08.07.2020
133 Clouds 9 1029 93 10000 2.6 340 19:40 08.07.2020
134 Clouds 9 1029 93 10000 3.6 320 19:21 08.07.2020
135 Clouds 9 1029 93 10000 2.6 340 18:56 08.07.2020
136 Clouds 9 1029 93 10000 2.6 340 18:38 08.07.2020
137 Clouds 10 1029 87 10000 3.1 350 18:19 08.07.2020
138 Clouds 9 1029 87 10000 3.1 350 17:55 08.07.2020
139 Clouds 10 1029 87 10000 2.6 350 17:37 08.07.2020
140 Clouds 10 1029 87 10000 2.6 350 17:18 08.07.2020
141 Clouds 10 1030 87 10000 3.1 310 16:39 08.07.2020
142 Clear 10 1030 81 10000 3.1 320 16:20 08.07.2020
143 Clear 10 1030 81 10000 3.1 320 15:58 08.07.2020
144 Clear 10 1030 87 10000 3.1 310 15:40 08.07.2020
145 Clear 10 1030 87 10000 3.1 310 15:19 08.07.2020
146 Clouds 11 1030 82 10000 2.1 280 14:49 08.07.2020
147 Clouds 11 1030 82 10000 2.1 280 14:30 08.07.2020
148 Clouds 12 1030 76 10000 2.51 29 13:59 08.07.2020
149 Clouds 12 1030 76 10000 2.51 29 13:41 08.07.2020
150 Clouds 12 1030 76 10000 3.14 44 13:22 08.07.2020
151 Clear 13 1030 76 10000 0.5 80 12:45 08.07.2020
152 Clouds 13 1030 76 10000 3.21 49 12:21 08.07.2020
153 Clouds 13 1030 76 10000 3.21 49 11:59 08.07.2020
154 Clouds 13 1029 76 10000 1.5 80 11:38 08.07.2020
155 Clouds 13 1029 76 10000 1.5 80 11:20 08.07.2020
156 Clouds 13 1029 71 10000 2.1 90 10:45 08.07.2020
157 Clouds 14 1029 71 10000 2.1 90 10:26 08.07.2020
158 Clouds 14 1029 71 10000 1.5 70 09:59 08.07.2020
159 Clouds 14 1029 71 10000 1 80 09:41 08.07.2020
160 Clouds 14 1029 71 10000 2.71 68 09:21 08.07.2020
161 Clouds 14 1029 67 10000 0.5 130 08:42 08.07.2020
162 Clouds 14 1029 67 10000 0.5 130 08:24 08.07.2020
163 Clouds 14 1029 62 10000 3.09 78 07:47 08.07.2020
164 Clouds 14 1029 62 10000 3.32 84 07:24 08.07.2020
165 Rain 14 1029 62 10000 1 330 06:55 08.07.2020
166 Drizzle 14 1029 67 10000 3.14 85 06:35 08.07.2020
167 Clouds 15 1029 67 10000 1.5 270 05:55 08.07.2020
168 Rain 15 1029 76 10000 0.5 180 05:24 08.07.2020
169 Rain 14 1030 82 10000 3.6 140 04:36 08.07.2020
170 Clouds 13 1031 86 0 3.13 290 02:42 08.07.2020
171 Rain 12 1031 87 10000 2.6 270 01:52 08.07.2020
172 Rain 12 1031 87 10000 2.6 270 01:32 08.07.2020
173 Rain 11 1030 87 10000 2.1 270 00:28 08.07.2020
174 Rain 11 1030 87 10000 2.1 270 23:59 07.07.2020
175 Rain 11 1030 82 10000 3.6 220 23:41 07.07.2020
176 Rain 11 1030 87 10000 5.1 200 23:19 07.07.2020
177 Rain 11 1030 87 10000 4.1 190 22:44 07.07.2020
178 Clouds 11 1029 93 10000 2.6 50 22:24 07.07.2020
179 Clouds 11 1029 93 10000 2.6 50 21:59 07.07.2020
180 Clouds 11 1029 93 10000 5.1 200 21:40 07.07.2020
181 Clouds 11 1029 93 10000 5.1 200 21:21 07.07.2020
182 Rain 11 1029 93 10000 3.1 230 20:57 07.07.2020
183 Clouds 11 1029 93 10000 2.6 300 20:39 07.07.2020
184 Rain 11 1030 93 10000 3.1 290 20:21 07.07.2020
185 Clouds 11 1030 93 10000 3.1 310 19:42 07.07.2020
186 Clouds 11 1030 93 10000 3.6 310 19:21 07.07.2020
187 Clouds 11 1030 93 10000 3.6 310 18:59 07.07.2020
188 Clouds 11 1030 93 10000 3.6 320 18:40 07.07.2020
189 Clouds 11 1030 93 10000 2.6 290 18:22 07.07.2020
190 Clouds 11 1030 93 10000 2.6 290 17:59 07.07.2020
191 Clouds 11 1030 93 10000 2.6 310 17:39 07.07.2020
192 Clouds 11 1030 93 10000 2.6 310 17:21 07.07.2020
193 Rain 12 1030 87 10000 2.6 320 16:58 07.07.2020
194 Rain 12 1030 93 10000 3.6 300 16:40 07.07.2020
195 Rain 12 1030 87 10000 4.1 270 16:20 07.07.2020
196 Rain 12 1030 93 10000 3.6 230 15:42 07.07.2020
197 Rain 12 1030 93 10000 3.6 230 15:21 07.07.2020
198 Rain 12 1022 94 0 5.06 142 14:56 07.07.2020
199 Rain 12 1022 94 0 5.29 146 14:38 07.07.2020
200 Rain 12 1030 93 10000 3.6 160 14:19 07.07.2020
201 Rain 12 1030 93 9000 4.6 200 13:40 07.07.2020
202 Rain 12 1030 93 6000 4.6 200 13:19 07.07.2020
203 Rain 12 1030 93 7000 4.6 210 12:43 07.07.2020
204 Rain 12 1030 93 7000 4.6 210 12:25 07.07.2020
205 Rain 13 1030 93 6000 5.1 220 11:58 07.07.2020
206 Rain 12 1030 100 6000 5.7 200 11:40 07.07.2020
207 Rain 12 1030 100 6000 5.7 200 11:20 07.07.2020
208 Rain 13 1029 87 8000 7.2 200 10:57 07.07.2020
209 Rain 14 1029 82 10000 8.7 180 10:38 07.07.2020
210 Clouds 14 1029 72 10000 5.1 200 10:19 07.07.2020
211 Clouds 14 1029 72 10000 4.1 190 09:41 07.07.2020
212 Clouds 15 1029 72 10000 4.1 190 09:21 07.07.2020
213 Clouds 15 1029 67 10000 5.1 190 08:43 07.07.2020
214 Clouds 15 1029 67 10000 5.1 190 08:24 07.07.2020
215 Clouds 16 1029 63 10000 4.6 190 07:58 07.07.2020
216 Clouds 16 1028 59 10000 3.6 220 07:37 07.07.2020
217 Clouds 15 1028 67 10000 5.1 200 07:19 07.07.2020
218 Clouds 16 1028 62 10000 4.6 190 06:40 07.07.2020
219 Clouds 16 1028 63 10000 5.7 180 06:22 07.07.2020
220 Clouds 16 1029 59 10000 4.6 200 05:24 07.07.2020
221 Clouds 16 1029 55 10000 3.1 250 04:44 07.07.2020
222 Clouds 15 1030 54 10000 3.6 290 03:42 07.07.2020
223 Clear 14 1030 58 10000 4.1 290 02:57 07.07.2020
224 Clouds 12 1030 66 10000 6.2 190 01:41 07.07.2020
225 Clouds 11 1030 71 10000 6.2 190 00:59 07.07.2020
226 Clouds 11 1029 71 10000 3.6 320 00:40 07.07.2020
227 Clouds 10 1029 81 10000 3.6 310 00:20 07.07.2020
228 Clear 10 1029 74 0 4.02 270 23:44 06.07.2020
229 Clear 10 1030 78 0 1.79 292 23:25 06.07.2020
230 Clear 10 1030 78 0 1.79 292 23:25 06.07.2020
231 Clear 10 1030 79 0 1.79 274 22:57 06.07.2020
232 Clear 10 1029 81 10000 2.6 310 22:39 06.07.2020
233 Clear 10 1029 81 10000 2.6 310 22:18 06.07.2020
234 Clear 10 1028 81 10000 2.6 280 21:56 06.07.2020
235 Clouds 11 1028 76 10000 2.6 300 21:36 06.07.2020
236 Clouds 11 1028 76 10000 2.6 300 21:18 06.07.2020
237 Clouds 11 1028 81 10000 2.6 320 20:41 06.07.2020
238 Clouds 10 1028 81 10000 2.6 310 20:21 06.07.2020
239 Clouds 11 1028 81 10000 3.1 310 19:59 06.07.2020
240 Clouds 11 1028 81 10000 3.1 310 19:41 06.07.2020
241 Clouds 11 1028 81 10000 3.1 310 19:23 06.07.2020
242 Clouds 11 1028 81 10000 3.1 320 18:58 06.07.2020
243 Clouds 11 1028 81 10000 3.6 310 18:40 06.07.2020
244 Clouds 10 1028 76 10000 3.6 310 18:22 06.07.2020
245 Clouds 10 1028 76 10000 3.6 310 17:56 06.07.2020
246 Clouds 10 1028 81 10000 3.6 320 17:37 06.07.2020
247 Clouds 10 1028 81 10000 3.6 320 17:19 06.07.2020
248 Clouds 10 1028 76 10000 2.6 310 16:43 06.07.2020
249 Clouds 11 1028 76 10000 2.6 310 16:23 06.07.2020
250 Clouds 11 1028 76 10000 2.6 310 15:57 06.07.2020
251 Clouds 11 1028 76 10000 2.6 260 15:38 06.07.2020
252 Clouds 11 1028 76 10000 2.6 260 15:19 06.07.2020
253 Clouds 10 1028 76 10000 3.1 260 14:55 06.07.2020
254 Clouds 11 1028 76 10000 3.6 250 14:36 06.07.2020
255 Clouds 11 1028 76 10000 3.1 250 14:18 06.07.2020
256 Clouds 11 1028 76 10000 2.6 210 13:40 06.07.2020
257 Clouds 11 1028 76 10000 2.6 210 13:21 06.07.2020
258 Clouds 12 1028 71 10000 3.6 150 12:45 06.07.2020
259 Clouds 12 1028 71 10000 3.6 150 12:20 06.07.2020
260 Clouds 12 1028 76 10000 4.1 140 11:59 06.07.2020
261 Clouds 12 1027 71 10000 4.6 150 11:41 06.07.2020
262 Clouds 13 1027 71 10000 4.6 140 11:23 06.07.2020
263 Clouds 13 1027 71 10000 4.6 140 10:59 06.07.2020
264 Clouds 13 1027 71 10000 4.1 150 10:40 06.07.2020
265 Clouds 13 1027 71 10000 4.1 150 10:20 06.07.2020
266 Clouds 14 1026 71 10000 4.1 150 09:55 06.07.2020
267 Clouds 14 1026 67 10000 3.6 150 09:37 06.07.2020
268 Clouds 15 1026 67 10000 4.1 150 09:18 06.07.2020
269 Clouds 16 1026 63 10000 4.6 150 08:40 06.07.2020
270 Clouds 16 1026 63 10000 4.6 150 08:22 06.07.2020
271 Clouds 16 1026 59 10000 3.6 150 07:53 06.07.2020
272 Clouds 16 1026 55 10000 4.1 160 07:31 06.07.2020
273 Clouds 16 1026 59 10000 4.1 160 06:56 06.07.2020
274 Clouds 17 1026 59 10000 4.1 160 06:37 06.07.2020
275 Clouds 17 1026 59 10000 5.1 160 05:56 06.07.2020
276 Clouds 17 1026 59 10000 5.1 160 05:29 06.07.2020
277 Clouds 16 1027 55 10000 2.1 240 04:33 06.07.2020
278 Clouds 14 1028 54 10000 6.2 190 02:50 06.07.2020
279 Clouds 13 1028 54 10000 6.2 190 02:19 06.07.2020
280 Clouds 9 1027 71 10000 6.2 190 00:52 06.07.2020
281 Clouds 9 1027 71 10000 6.2 190 00:28 06.07.2020
282 Clouds 8 1027 71 10000 6.2 190 23:58 05.07.2020
283 Clear 8 1027 74 0 5.81 270 23:40 05.07.2020
284 Clear 8 1027 74 0 5.81 270 23:21 05.07.2020
285 Clouds 8 1026 71 10000 6.2 260 22:58 05.07.2020
286 Clear 8 1026 71 0 6.71 270 22:38 05.07.2020
287 Clouds 9 1026 71 10000 5.7 270 22:19 05.07.2020
288 Clouds 9 1025 71 10000 6.7 260 21:56 05.07.2020
289 Clouds 9 1025 76 10000 7.2 260 21:37 05.07.2020
290 Clouds 9 1025 71 10000 6.2 270 21:18 05.07.2020
291 Clouds 9 1025 71 10000 6.2 260 20:55 05.07.2020
292 Clouds 9 1025 71 10000 6.2 260 20:37 05.07.2020
293 Clouds 9 1025 71 10000 6.2 270 20:19 05.07.2020
294 Clouds 10 1025 66 10000 5.1 270 19:41 05.07.2020
295 Clouds 10 1025 66 10000 4.1 290 19:21 05.07.2020
296 Rain 10 1025 66 10000 3.6 270 18:55 05.07.2020
297 Rain 11 1025 66 10000 3.6 270 18:37 05.07.2020
298 Rain 10 1025 66 10000 4.6 260 18:18 05.07.2020
299 Clouds 10 1025 62 10000 4.1 250 17:42 05.07.2020
300 Rain 10 1025 66 10000 3.1 280 17:19 05.07.2020
301 Rain 10 1025 66 10000 3.1 280 16:58 05.07.2020
302 Rain 10 1025 66 10000 3.6 290 16:40 05.07.2020
303 Rain 10 1025 66 10000 3.6 290 16:20 05.07.2020
304 Clouds 11 1025 62 10000 4.6 250 15:40 05.07.2020
305 Clouds 11 1025 62 10000 5.7 250 15:20 05.07.2020
306 Clouds 11 1025 62 10000 5.7 250 15:20 05.07.2020
307 Clouds 10 1025 62 10000 5.7 250 14:56 05.07.2020
308 Clouds 11 1024 66 10000 4.1 270 14:38 05.07.2020
309 Rain 11 1024 62 10000 5.1 260 14:20 05.07.2020
310 Clouds 11 1024 62 10000 4.6 270 13:41 05.07.2020
311 Clouds 12 1024 58 10000 5.1 280 13:23 05.07.2020
312 Clouds 12 1023 62 10000 5.1 230 12:46 05.07.2020
313 Clouds 11 1023 62 10000 5.1 230 12:22 05.07.2020
314 Clouds 11 1023 66 10000 4.1 250 11:57 05.07.2020
315 Clouds 11 1024 70 0 2.24 330 11:38 05.07.2020
316 Clouds 11 1024 70 0 2.24 330 11:38 05.07.2020
317 Clear 13 1022 62 10000 2.6 290 11:20 05.07.2020
318 Clear 13 1022 62 10000 2.6 290 10:56 05.07.2020
319 Clear 13 1022 67 10000 1 150 10:37 05.07.2020
320 Clear 13 1022 67 10000 1 150 10:18 05.07.2020
321 Clear 14 1021 58 10000 3.6 150 09:42 05.07.2020
322 Clear 15 1021 58 10000 3.6 150 09:21 05.07.2020
323 Clear 15 1021 54 10000 4.1 150 08:58 05.07.2020
324 Clear 16 1021 51 10000 4.6 150 08:38 05.07.2020
325 Clear 16 1021 51 10000 4.6 150 08:38 05.07.2020
326 Clear 16 1021 51 10000 4.6 150 08:20 05.07.2020
327 Clear 17 1021 51 10000 5.1 160 07:46 05.07.2020
328 Clear 17 1021 51 10000 4.6 170 07:27 05.07.2020
329 Clear 17 1021 48 10000 4.1 160 06:50 05.07.2020
330 Clear 17 1021 42 10000 5.7 240 05:18 05.07.2020
331 Clear 15 1022 51 10000 8.7 240 03:24 05.07.2020
332 Clear 14 1022 54 10000 9.3 240 02:41 05.07.2020
333 Clear 13 1022 54 10000 9.3 240 01:59 05.07.2020
334 Clear 12 1022 58 10000 7.2 260 01:32 05.07.2020
335 Clear 12 1022 62 10000 6.2 270 00:58 05.07.2020
336 Clear 11 1021 66 10000 5.1 280 00:38 05.07.2020
337 Clear 10 1021 66 10000 5.1 280 00:20 05.07.2020
338 Clear 9 1021 70 10000 6.2 280 23:46 04.07.2020
339 Clear 9 1021 70 10000 6.2 280 23:28 04.07.2020
340 Clear 8 1020 70 10000 4.6 290 22:55 04.07.2020
341 Clear 9 1020 66 10000 4.1 290 22:37 04.07.2020
342 Clear 9 1020 66 10000 4.1 290 22:18 04.07.2020
343 Clear 9 1019 66 10000 4.6 290 21:42 04.07.2020
344 Clear 9 1019 66 10000 4.6 290 21:23 04.07.2020
345 Clear 9 1019 70 10000 4.6 290 20:58 04.07.2020
346 Clear 9 1019 70 10000 6.7 270 20:39 04.07.2020
347 Clear 9 1019 66 10000 4.6 280 20:19 04.07.2020
348 Clear 9 1020 66 10000 4.6 290 19:45 04.07.2020
349 Clear 9 1020 66 10000 6.7 250 19:22 04.07.2020
350 Clear 9 1020 66 10000 6.2 270 18:57 04.07.2020
351 Clear 9 1020 62 0 3.13 290 18:39 04.07.2020
352 Clear 9 1019 66 10000 6.2 270 18:21 04.07.2020
353 Clear 9 1019 66 10000 6.2 280 17:44 04.07.2020
354 Clear 9 1019 66 10000 6.2 280 17:26 04.07.2020
355 Clear 9 1019 66 10000 6.7 280 16:58 04.07.2020
356 Clear 9 1019 61 10000 7.2 280 16:38 04.07.2020
357 Clear 9 1020 61 10000 7.7 280 16:20 04.07.2020
358 Clear 9 1020 61 10000 7.7 280 15:56 04.07.2020
359 Clear 9 1020 61 10000 7.7 270 15:37 04.07.2020
360 Clear 9 1020 61 10000 7.7 270 15:19 04.07.2020
361 Clear 10 1020 53 10000 6.7 270 14:38 04.07.2020
362 Clear 10 1020 57 10000 5.7 260 14:20 04.07.2020
363 Clear 10 1020 57 10000 5.7 260 13:59 04.07.2020
364 Clear 10 1020 53 10000 7.7 250 13:41 04.07.2020
365 Clear 10 1020 50 10000 7.7 260 13:18 04.07.2020
366 Clear 10 1020 50 10000 7.7 260 12:43 04.07.2020
367 Clear 10 1020 50 10000 7.7 260 12:22 04.07.2020
368 Clear 11 1020 46 10000 7.7 260 11:59 04.07.2020
369 Clear 12 1019 46 10000 7.2 260 11:40 04.07.2020
370 Clear 12 1020 56 10000 6.2 260 11:21 04.07.2020
371 Clear 12 1019 56 10000 5.7 250 10:54 04.07.2020
372 Clear 12 1019 56 10000 5.7 250 10:36 04.07.2020
373 Clear 13 1019 50 10000 4.1 240 10:18 04.07.2020
374 Clear 13 1019 54 10000 3.6 180 09:40 04.07.2020
375 Clear 13 1019 54 10000 3.6 180 09:20 04.07.2020
376 Clear 14 1018 50 10000 3.1 170 08:50 04.07.2020
377 Clear 15 1018 31 10000 3.6 180 08:32 04.07.2020
378 Clouds 15 1018 44 10000 3.6 180 07:55 04.07.2020
379 Clouds 15 1018 44 10000 3.6 180 07:36 04.07.2020
380 Clouds 15 1018 47 10000 4.6 180 06:57 04.07.2020
381 Clouds 15 1018 50 10000 6.2 190 06:23 04.07.2020
382 Clouds 15 1018 54 10000 6.2 180 05:41 04.07.2020
383 Clouds 15 1019 54 10000 7.7 200 05:19 04.07.2020
384 Clouds 13 1019 58 10000 8.7 210 03:47 04.07.2020
385 Rain 11 1020 71 10000 6.2 250 02:40 04.07.2020
386 Rain 10 1019 81 10000 5.1 270 01:39 04.07.2020
387 Rain 9 1019 76 10000 6.2 250 00:48 04.07.2020
388 Rain 9 1019 76 10000 6.2 250 00:30 04.07.2020
389 Rain 8 1018 76 10000 4.6 250 23:57 03.07.2020
390 Rain 8 1018 81 10000 5.1 250 23:38 03.07.2020
391 Clouds 8 1019 83 0 1.79 295 23:18 03.07.2020
392 Rain 8 1017 81 10000 3.6 300 22:41 03.07.2020
393 Rain 8 1017 81 10000 3.6 300 22:23 03.07.2020
394 Rain 8 1017 81 10000 7.7 240 21:58 03.07.2020
395 Rain 9 1017 76 10000 2.6 320 21:37 03.07.2020
396 Rain 9 1017 76 10000 2.6 320 21:37 03.07.2020
397 Rain 9 1017 76 10000 2.6 320 21:19 03.07.2020
398 Rain 9 1017 76 10000 3.6 350 21:19 03.07.2020
399 Rain 9 1017 71 10000 3.1 330 20:42 03.07.2020
400 Rain 9 1017 70 10000 2.6 320 20:24 03.07.2020
401 Rain 9 1017 61 10000 1 20 19:55 03.07.2020
402 Clouds 9 1017 61 10000 1 20 19:37 03.07.2020
403 Clouds 9 1017 61 10000 1 20 19:18 03.07.2020
404 Clouds 9 1017 58 0 0.89 225 18:42 03.07.2020
405 Clear 9 1017 57 10000 3.1 350 18:23 03.07.2020
406 Clear 9 1017 57 10000 3.1 300 17:47 03.07.2020
407 Clear 9 1017 57 10000 3.6 290 17:24 03.07.2020
408 Clear 9 1017 57 10000 3.6 290 16:59 03.07.2020
409 Clear 9 1018 57 10000 5.1 280 16:40 03.07.2020
410 Clear 10 1018 57 10000 5.1 280 16:20 03.07.2020
411 Clear 10 1018 53 10000 3.6 300 15:44 03.07.2020
412 Clear 10 1018 53 10000 3.6 300 15:23 03.07.2020
413 Clear 10 1018 50 10000 4.6 310 14:56 03.07.2020
414 Clear 10 1018 50 10000 4.6 300 14:38 03.07.2020
415 Clear 11 1018 50 10000 6.7 290 14:19 03.07.2020
416 Clear 11 1018 47 10000 5.7 280 13:43 03.07.2020
417 Clear 11 1019 48 0 4.47 270 13:25 03.07.2020
418 Clear 12 1019 47 10000 7.7 260 12:45 03.07.2020
419 Clear 12 1019 47 10000 7.7 260 12:24 03.07.2020
420 Clear 12 1019 43 10000 7.2 250 11:58 03.07.2020
421 Clear 13 1019 41 10000 7.7 240 11:40 03.07.2020
422 Clear 13 1019 41 10000 7.7 240 11:21 03.07.2020
423 Clear 13 1018 44 10000 7.2 230 10:55 03.07.2020
424 Clear 14 1018 44 10000 5.7 220 10:37 03.07.2020
425 Clear 14 1018 38 10000 7.2 240 10:18 03.07.2020
426 Clear 14 1018 38 10000 7.2 240 09:54 03.07.2020
427 Clear 15 1018 38 10000 7.7 260 09:36 03.07.2020
428 Clear 15 1017 38 10000 5.7 240 09:18 03.07.2020
429 Clear 16 1017 36 10000 6.7 260 08:39 03.07.2020
430 Clouds 16 1017 36 10000 6.7 260 08:18 03.07.2020
431 Clouds 16 1017 36 10000 6.7 270 07:48 03.07.2020
432 Clouds 17 1017 39 10000 4.1 240 07:26 03.07.2020
433 Clouds 17 1018 36 10000 5.1 270 06:49 03.07.2020
434 Clear 17 1017 39 10000 5.7 260 05:59 03.07.2020
435 Clear 16 1019 40 0 3.58 290 04:48 03.07.2020
436 Clear 15 1018 53 0 0.89 217 03:28 03.07.2020
437 Clear 15 1020 52 0 4.02 292 02:47 03.07.2020
438 Clear 15 1020 41 10000 4.6 260 02:25 03.07.2020
439 Clouds 13 1020 47 10000 5.1 250 01:28 03.07.2020
440 Clouds 11 1020 58 10000 5.1 240 00:49 03.07.2020
441 Clouds 11 1020 58 10000 5.1 240 00:28 03.07.2020
442 Clouds 10 1020 58 10000 5.1 240 23:47 02.07.2020
443 Clouds 11 1019 58 10000 5.7 230 23:20 02.07.2020
444 Clouds 11 1019 58 10000 5.7 230 22:58 02.07.2020
445 Clouds 11 1019 58 10000 5.1 230 22:39 02.07.2020
446 Clouds 11 1019 58 10000 5.1 230 22:20 02.07.2020
447 Clear 11 1019 58 10000 4.1 250 21:55 02.07.2020
448 Clouds 12 1018 54 10000 4.1 240 21:37 02.07.2020
449 Clouds 12 1018 54 10000 4.1 240 21:18 02.07.2020
450 Clouds 12 1018 54 10000 3.6 250 20:57 02.07.2020
451 Clouds 12 1018 58 10000 3.6 250 20:39 02.07.2020
452 Clouds 13 1018 62 10000 3.6 250 20:18 02.07.2020
453 Clouds 13 1018 62 10000 2.6 250 19:41 02.07.2020
454 Clouds 13 1018 62 10000 2.6 250 19:22 02.07.2020
455 Clouds 14 1018 62 10000 2.6 250 18:58 02.07.2020
456 Clouds 14 1018 62 10000 3.1 200 18:40 02.07.2020
457 Clouds 14 1018 67 10000 4.1 200 18:21 02.07.2020
458 Clouds 14 1018 67 10000 4.1 200 17:54 02.07.2020
459 Clouds 15 1017 67 10000 4.1 220 17:36 02.07.2020
460 Clouds 15 1017 67 10000 4.1 220 17:36 02.07.2020
461 Clouds 15 1017 63 10000 3.6 240 17:18 02.07.2020
462 Clouds 15 1017 77 10000 3.1 240 16:41 02.07.2020
463 Clouds 15 1017 77 10000 2.6 190 16:20 02.07.2020
464 Clouds 16 1017 77 10000 2.6 190 15:56 02.07.2020
465 Clear 16 1017 72 10000 4.1 180 15:37 02.07.2020
466 Clear 16 1018 64 0 1.79 257 15:18 02.07.2020
467 Clear 16 1017 63 0 2.24 240 14:44 02.07.2020
468 Clouds 16 1017 53 0 2.68 340 14:22 02.07.2020
469 Clouds 16 1017 53 0 2.68 340 13:57 02.07.2020
470 Clouds 17 1017 53 0 2.68 340 13:38 02.07.2020
471 Clouds 17 1017 61 0 3.13 345 13:18 02.07.2020
472 Clouds 18 1016 52 10000 4.1 340 12:41 02.07.2020
473 Clouds 18 1015 47 0 3.58 0 12:22 02.07.2020
474 Clouds 18 1015 49 10000 4.6 350 11:59 02.07.2020
475 Clouds 18 1015 49 10000 5.1 350 11:40 02.07.2020
476 Clouds 18 1015 49 10000 5.1 350 11:22 02.07.2020
477 Clouds 18 1019 62 0 0.45 34 10:44 02.07.2020
478 Clouds 19 1015 53 0 1.34 32 10:26 02.07.2020
479 Clouds 20 1014 40 10000 5.7 350 09:56 02.07.2020
480 Clouds 20 1014 40 10000 5.7 350 09:37 02.07.2020
481 Clouds 21 1013 40 10000 5.1 350 09:18 02.07.2020
482 Clouds 21 1006 57 0 2.68 285 08:42 02.07.2020
483 Clouds 21 1006 57 0 1.34 275 08:22 02.07.2020
484 Clouds 22 1006 56 0 2.24 278 07:43 02.07.2020
485 Clouds 22 1005 55 0 2.24 278 07:25 02.07.2020
486 Clouds 22 1005 55 0 1.79 281 06:53 02.07.2020
487 Clouds 22 1005 53 0 2.68 277 06:35 02.07.2020
488 Clouds 22 1005 55 0 1.34 270 05:50 02.07.2020
489 Clear 22 1006 53 0 2.24 283 05:29 02.07.2020
490 Clear 20 1015 43 10000 7.7 320 03:35 02.07.2020
491 Clear 18 1016 52 10000 5.7 350 01:53 02.07.2020
492 Clear 15 1016 62 10000 5.7 350 00:46 02.07.2020
493 Clear 15 1016 67 10000 4.6 340 00:22 02.07.2020
494 Clear 14 1016 67 10000 5.7 350 23:45 01.07.2020
495 Clear 13 1016 67 10000 5.7 350 23:27 01.07.2020
496 Clear 13 1016 71 10000 6.2 340 22:56 01.07.2020
497 Clear 13 1016 76 10000 2.6 330 22:38 01.07.2020
498 Clear 13 1008 73 0 2.24 314 22:19 01.07.2020
499 Clear 13 1016 76 10000 4.1 340 21:58 01.07.2020
500 Clear 13 1016 81 10000 2.6 350 21:40 01.07.2020
501 Clear 13 1016 81 10000 2.6 350 21:21 01.07.2020
502 Clear 13 1015 71 10000 2.6 340 20:55 01.07.2020
503 Clear 13 1015 71 10000 2.6 340 20:36 01.07.2020
504 Clear 12 1015 76 10000 3.6 310 20:18 01.07.2020
505 Clear 13 1016 66 10000 2.6 290 19:42 01.07.2020
506 Clear 13 1016 66 10000 3.6 330 19:24 01.07.2020
507 Clear 13 1016 66 10000 3.6 330 18:59 01.07.2020
508 Clear 13 1016 66 10000 3.6 310 18:40 01.07.2020
509 Clear 13 1016 66 10000 3.6 310 18:21 01.07.2020
510 Clear 14 1016 54 10000 5.1 330 17:56 01.07.2020
511 Clear 14 1016 54 10000 5.1 330 17:37 01.07.2020
512 Clear 14 1016 54 10000 5.1 330 17:18 01.07.2020
513 Clear 14 1016 54 10000 5.7 340 16:43 01.07.2020
514 Clear 14 1017 54 10000 5.7 350 16:24 01.07.2020
515 Clear 14 1017 58 10000 5.7 350 15:43 01.07.2020
516 Clear 14 1017 58 10000 5.7 350 15:25 01.07.2020
517 Clear 14 1017 58 10000 6.2 350 14:59 01.07.2020
518 Clear 15 1017 55 10000 6.2 360 14:41 01.07.2020
519 Clear 14 1016 65 0 0.45 348 14:21 01.07.2020
520 Clear 15 1018 55 10000 5.1 360 13:56 01.07.2020
521 Clear 15 1018 55 10000 4.6 360 13:37 01.07.2020
522 Clear 15 1018 55 10000 4.6 360 13:37 01.07.2020
523 Clear 15 1018 55 10000 5.1 360 13:19 01.07.2020
524 Clear 15 1018 51 10000 4.6 360 12:56 01.07.2020
525 Clear 15 1018 51 10000 4.6 360 12:38 01.07.2020
526 Clear 15 1018 55 10000 3.6 10 12:19 01.07.2020
527 Clear 15 1016 64 0 0.89 355 11:40 01.07.2020
528 Clear 16 1018 52 10000 3.1 20 11:21 01.07.2020
529 Clear 16 1018 52 10000 3.1 20 10:58 01.07.2020
530 Clear 17 1017 55 10000 3.6 20 10:39 01.07.2020
531 Clear 17 1017 52 10000 3.6 30 10:21 01.07.2020
532 Clear 17 1010 68 0 0.45 272 09:40 01.07.2020
533 Clear 18 1010 65 0 1.34 283 09:20 01.07.2020
534 Clear 18 1009 64 0 0.89 281 08:59 01.07.2020
535 Clear 19 1009 64 0 0.89 281 08:40 01.07.2020
536 Clear 19 1010 61 0 0.89 285 08:20 01.07.2020
537 Clear 20 1010 64 0 0.45 207 07:44 01.07.2020
538 Clear 20 1018 35 0 0.89 45 07:25 01.07.2020
539 Clear 20 1018 35 10000 5.1 30 06:59 01.07.2020
540 Clear 20 1018 37 10000 3.1 310 06:41 01.07.2020
541 Clear 20 1018 35 10000 2.6 320 06:21 01.07.2020
542 Clear 19 1020 42 10000 4.1 310 04:30 01.07.2020
543 Clear 17 1021 52 10000 4.6 310 03:44 01.07.2020
544 Clear 17 1021 52 10000 4.6 310 03:26 01.07.2020
545 Clear 15 1022 62 10000 4.6 300 02:34 01.07.2020
546 Clear 13 1022 71 10000 3.6 300 01:26 01.07.2020
547 Clear 10 1022 76 10000 4.1 300 00:40 01.07.2020
548 Clear 10 1022 87 10000 4.1 330 00:21 01.07.2020
549 Clear 9 1021 87 10000 4.6 330 23:41 30.06.2020
550 Clear 9 1021 87 10000 4.6 330 23:22 30.06.2020
551 Clouds 9 1021 87 10000 4.6 310 22:43 30.06.2020
552 Clear 9 1021 87 10000 3.6 310 22:20 30.06.2020
553 Clear 9 1021 87 10000 3.6 310 21:59 30.06.2020
554 Mist 9 1021 87 10000 4.1 320 21:40 30.06.2020
555 Mist 9 1021 87 10000 4.1 320 21:19 30.06.2020
556 Mist 9 1021 93 10000 4.1 320 20:43 30.06.2020
557 Mist 9 1021 93 10000 4.1 320 20:21 30.06.2020
558 Clear 9 1021 93 10000 3.1 310 19:59 30.06.2020
559 Clear 9 1021 93 10000 3.1 310 19:59 30.06.2020
560 Clear 9 1021 93 10000 3.1 310 19:39 30.06.2020
561 Clear 10 1021 87 10000 3.1 300 19:19 30.06.2020
562 Clear 10 1021 87 10000 2.6 320 18:42 30.06.2020
563 Clear 10 1022 87 10000 2.6 290 18:20 30.06.2020
564 Clear 10 1022 87 10000 2.6 290 17:57 30.06.2020
565 Clear 10 1022 87 10000 2.6 300 17:37 30.06.2020
566 Clear 10 1022 87 10000 1.5 310 17:18 30.06.2020
567 Clear 10 1022 87 10000 2.1 340 16:41 30.06.2020
568 Clear 11 1022 87 10000 3.6 300 16:23 30.06.2020
569 Clear 10 1022 87 10000 3.6 300 15:57 30.06.2020
570 Clear 11 1022 81 10000 2.6 340 15:39 30.06.2020
571 Clear 12 1022 81 10000 2.6 340 15:20 30.06.2020
572 Clear 12 1023 81 10000 0.5 320 14:47 30.06.2020
573 Clear 12 1023 81 10000 0.5 320 14:47 30.06.2020
574 Clear 12 1023 81 10000 0.5 320 14:23 30.06.2020
575 Clear 12 1022 82 10000 2.6 330 13:59 30.06.2020
576 Clear 12 1022 82 10000 2.6 10 13:39 30.06.2020
577 Clear 12 1022 82 10000 1.5 20 13:20 30.06.2020
578 Clear 12 1022 82 10000 1.5 20 12:57 30.06.2020
579 Clear 13 1023 82 10000 2.1 20 12:39 30.06.2020
580 Clear 13 1023 76 10000 2.1 30 12:20 30.06.2020
581 Clear 13 1023 76 10000 2.1 30 11:57 30.06.2020
582 Clear 13 1023 82 10000 1.5 30 11:38 30.06.2020
583 Clear 14 1022 77 10000 2.1 30 11:19 30.06.2020
584 Clear 14 1022 77 10000 2.1 30 10:56 30.06.2020
585 Rain 11 1027 93 10000 4.3 222 16:38 28.06.2020
586 Rain 11 1027 93 10000 4.78 212 16:20 28.06.2020
587 Rain 11 1027 87 6000 4.78 212 15:56 28.06.2020
588 Rain 11 1028 87 10000 2.6 250 15:37 28.06.2020
589 Rain 11 1028 87 10000 2.6 250 15:18 28.06.2020
590 Rain 12 1028 87 10000 4.6 220 14:44 28.06.2020
591 Rain 12 1028 87 10000 4.6 220 14:25 28.06.2020
592 Rain 12 1027 87 10000 5.7 220 13:55 28.06.2020
593 Rain 12 1027 87 10000 5.7 220 13:37 28.06.2020
594 Clouds 12 1027 82 10000 5.7 190 13:18 28.06.2020
595 Clouds 12 1027 82 10000 5.7 190 12:55 28.06.2020
596 Clouds 12 1027 82 10000 6.2 190 12:37 28.06.2020
597 Clouds 12 1027 82 10000 7.2 190 12:18 28.06.2020
598 Rain 12 1019 90 0 0.89 160 11:55 28.06.2020
599 Rain 12 1019 91 0 1.34 183 11:37 28.06.2020
600 Rain 12 1019 91 0 1.34 183 11:37 28.06.2020
601 Rain 13 1027 82 10000 8.2 180 11:19 28.06.2020
602 Rain 12 1026 82 10000 7.2 180 10:41 28.06.2020
603 Rain 12 1026 87 8000 6.2 180 10:23 28.06.2020
604 Rain 13 1026 87 8000 6.2 180 09:59 28.06.2020
605 Rain 13 1019 87 0 0.89 150 09:39 28.06.2020
606 Rain 14 1019 86 0 1.34 167 09:20 28.06.2020
607 Rain 14 1026 72 10000 7.7 180 08:44 28.06.2020
608 Rain 14 1026 72 10000 7.7 180 08:24 28.06.2020
609 Rain 15 1026 67 10000 7.7 190 07:46 28.06.2020
610 Rain 15 1026 67 10000 8.2 180 07:28 28.06.2020
611 Clouds 15 1026 67 10000 7.7 180 06:34 28.06.2020
612 Clouds 15 1026 67 10000 7.2 180 05:57 28.06.2020
613 Clouds 15 1027 67 10000 8.2 190 05:26 28.06.2020
614 Clouds 13 1028 58 10000 3.1 220 03:32 28.06.2020
615 Clouds 12 1028 66 10000 6.2 210 02:39 28.06.2020
616 Clouds 11 1028 66 10000 3.6 300 01:53 28.06.2020
617 Clouds 10 1028 76 10000 6.2 210 01:26 28.06.2020
618 Clouds 10 1028 71 10000 4.1 320 00:46 28.06.2020
619 Clouds 9 1028 76 10000 4.1 310 00:24 28.06.2020
620 Rain 9 1027 76 10000 3.6 330 23:42 27.06.2020
621 Rain 9 1027 76 10000 3.1 270 23:23 27.06.2020
622 Rain 9 1027 76 10000 3.1 270 22:58 27.06.2020
623 Rain 9 1027 76 10000 4.1 250 22:40 27.06.2020
624 Rain 9 1027 76 10000 3.6 270 22:20 27.06.2020
625 Rain 9 1027 76 10000 3.6 270 21:55 27.06.2020
626 Rain 9 1027 76 10000 3.6 330 21:37 27.06.2020
627 Rain 9 1027 76 10000 2.6 310 21:18 27.06.2020
628 Rain 10 1026 76 10000 4.1 280 20:42 27.06.2020
629 Rain 10 1026 76 10000 4.1 280 20:19 27.06.2020
630 Rain 10 1027 76 10000 3.1 320 19:55 27.06.2020
631 Rain 10 1027 76 10000 3.1 300 19:36 27.06.2020
632 Rain 10 1027 76 10000 3.6 290 19:18 27.06.2020
633 Clouds 10 1027 76 10000 4.1 290 18:45 27.06.2020
634 Clouds 10 1027 76 0 4.02 270 18:25 27.06.2020
635 Clouds 10 1027 76 0 2.68 290 17:57 27.06.2020
636 Clouds 11 1027 76 0 2.68 290 17:38 27.06.2020
637 Clouds 11 1027 75 0 1.79 315 17:19 27.06.2020
638 Clouds 11 1027 75 0 1.79 315 16:46 27.06.2020
639 Clouds 11 1027 75 0 1.79 315 16:27 27.06.2020
640 Rain 11 1027 71 10000 4.1 250 15:59 27.06.2020
641 Clouds 11 1028 77 0 3.13 270 15:39 27.06.2020
642 Drizzle 11 1027 66 10000 4.1 250 15:21 27.06.2020
643 Rain 11 1027 76 0 3.58 270 14:43 27.06.2020
644 Rain 12 1027 71 10000 5.1 210 14:24 27.06.2020
645 Rain 12 1027 71 10000 5.1 210 13:58 27.06.2020
646 Rain 12 1027 71 10000 5.1 210 13:38 27.06.2020
647 Rain 12 1027 69 0 2.24 225 13:19 27.06.2020
648 Rain 12 1027 67 10000 5.1 170 12:57 27.06.2020
649 Clouds 12 1027 67 10000 5.1 170 12:39 27.06.2020
650 Rain 12 1027 67 10000 5.1 160 12:21 27.06.2020
651 Clouds 12 1027 67 10000 4.6 160 11:55 27.06.2020
652 Clouds 12 1027 67 10000 4.6 160 11:36 27.06.2020
653 Clouds 12 1027 67 10000 4.6 160 11:18 27.06.2020
654 Rain 13 1026 67 10000 4.6 160 10:38 27.06.2020
655 Rain 13 1026 67 10000 4.6 160 10:19 27.06.2020
656 Clouds 13 1026 71 10000 4.6 160 09:41 27.06.2020
657 Clouds 14 1026 67 10000 5.1 170 09:22 27.06.2020
658 Clouds 14 1026 67 10000 5.1 170 08:58 27.06.2020
659 Clouds 14 1026 67 10000 6.7 170 08:39 27.06.2020
660 Clouds 15 1026 62 10000 6.2 170 08:20 27.06.2020
661 Clouds 15 1026 67 10000 6.7 170 07:42 27.06.2020
662 Clouds 15 1026 67 10000 6.7 170 07:42 27.06.2020
663 Clouds 15 1026 67 10000 6.2 180 07:24 27.06.2020
664 Clouds 15 1026 67 10000 6.2 180 06:45 27.06.2020
665 Clouds 15 1026 67 10000 6.2 180 06:27 27.06.2020
666 Clouds 15 1027 67 10000 8.2 170 04:23 27.06.2020
667 Rain 15 1027 67 10000 7.2 190 03:52 27.06.2020
668 Clouds 14 1028 71 10000 5.1 200 03:23 27.06.2020
669 Clouds 13 1028 66 10000 6.2 200 02:36 27.06.2020
670 Rain 11 1027 71 10000 5.1 210 01:45 27.06.2020
671 Rain 10 1027 76 10000 5.1 210 01:23 27.06.2020
672 Clouds 10 1027 81 10000 3.6 310 00:38 27.06.2020
673 Clouds 10 1027 81 10000 5.1 220 23:46 26.06.2020
674 Clouds 10 1027 81 10000 5.1 220 23:26 26.06.2020
675 Clouds 10 1027 81 10000 5.1 220 22:57 26.06.2020
676 Rain 10 1027 81 0 4.47 270 22:39 26.06.2020
677 Rain 10 1026 81 10000 5.1 220 22:20 26.06.2020
678 Rain 10 1026 81 10000 5.1 220 21:57 26.06.2020
679 Rain 10 1026 81 10000 3.1 280 21:38 26.06.2020
680 Rain 10 1026 81 10000 4.6 230 21:20 26.06.2020
681 Rain 10 1026 76 0 4.02 270 20:46 26.06.2020
682 Rain 10 1026 76 0 4.02 270 20:26 26.06.2020
683 Rain 11 1026 82 10000 4.1 220 19:47 26.06.2020
684 Rain 11 1026 82 10000 5.1 210 19:24 26.06.2020
685 Rain 11 1025 76 10000 5.7 230 18:58 26.06.2020
686 Rain 11 1025 76 10000 5.7 230 18:38 26.06.2020
687 Rain 11 1025 87 10000 3.6 250 18:20 26.06.2020
688 Rain 11 1025 82 10000 5.05 178 17:44 26.06.2020
689 Rain 11 1025 82 10000 4.67 174 17:26 26.06.2020
690 Rain 11 1025 79 0 3.13 270 16:55 26.06.2020
691 Rain 11 1025 79 0 3.13 270 16:36 26.06.2020
692 Rain 12 1025 76 10000 4.1 190 16:18 26.06.2020
693 Rain 11 1025 76 10000 4.6 230 15:41 26.06.2020
694 Drizzle 11 1025 76 10000 3.6 230 15:21 26.06.2020
695 Clouds 10 1026 79 0 4.47 290 14:58 26.06.2020
696 Clouds 10 1026 79 0 4.47 290 14:38 26.06.2020
697 Clouds 11 1025 71 10000 2.6 240 14:20 26.06.2020
698 Clouds 12 1025 71 10000 3.1 220 13:44 26.06.2020
699 Clouds 12 1025 76 10000 3.1 230 13:23 26.06.2020
700 Clouds 12 1025 76 10000 3.1 230 13:23 26.06.2020
701 Clouds 12 1025 71 10000 2.6 200 12:56 26.06.2020
702 Clouds 12 1025 71 10000 2.6 200 12:38 26.06.2020
703 Clouds 12 1025 76 10000 2.6 190 12:19 26.06.2020
704 Clouds 13 1025 76 10000 2.6 190 11:56 26.06.2020
705 Clouds 13 1025 71 10000 2.6 200 11:38 26.06.2020
706 Clouds 13 1024 71 10000 2.6 130 11:19 26.06.2020
707 Clouds 13 1024 71 10000 2.6 130 10:56 26.06.2020
708 Clouds 13 1024 72 10000 2.6 160 10:37 26.06.2020
709 Clouds 14 1024 72 10000 2.6 160 10:37 26.06.2020
710 Clouds 13 1024 72 10000 2.6 160 10:37 26.06.2020
711 Clouds 14 1024 62 10000 3.6 150 10:18 26.06.2020
712 Clouds 14 1023 58 10000 3.6 150 09:42 26.06.2020
713 Clouds 15 1023 58 10000 3.6 150 09:22 26.06.2020
714 Clouds 16 1023 59 10000 3.6 160 08:49 26.06.2020
715 Clouds 16 1015 65 0 1.34 160 08:28 26.06.2020
716 Clouds 16 1022 55 10000 5.1 170 07:49 26.06.2020
717 Clouds 16 1022 59 10000 5.1 170 07:24 26.06.2020
718 Clouds 16 1022 59 10000 5.1 170 06:57 26.06.2020
719 Clouds 17 1022 55 10000 5.1 170 06:35 26.06.2020
720 Clouds 17 1022 59 10000 5.7 170 05:57 26.06.2020
721 Clouds 17 1022 59 10000 5.7 180 05:31 26.06.2020
722 Clouds 13 1024 51 10000 6.2 240 02:42 26.06.2020
723 Clear 13 1024 63 0 3.58 244 02:22 26.06.2020
724 Clouds 11 1023 62 10000 3.6 300 00:58 26.06.2020
725 Clouds 10 1023 66 10000 5.7 270 00:39 26.06.2020
726 Clouds 9 1023 71 10000 6.2 280 00:18 26.06.2020
727 Clouds 9 1022 71 10000 5.7 280 23:39 25.06.2020
728 Clouds 8 1022 71 10000 5.7 280 23:18 25.06.2020
729 Clouds 9 1022 71 10000 5.7 280 22:54 25.06.2020
730 Clear 8 1021 71 10000 4.1 280 22:36 25.06.2020
731 Clear 9 1021 71 10000 4.6 290 22:18 25.06.2020
732 Clear 9 1021 71 10000 4.6 290 21:54 25.06.2020
733 Clear 9 1021 71 10000 4.6 300 21:36 25.06.2020
734 Clear 8 1021 71 10000 4.1 300 21:18 25.06.2020
735 Clear 9 1020 71 10000 3.6 310 20:43 25.06.2020
736 Clear 9 1020 71 10000 3.6 310 20:23 25.06.2020
737 Clear 9 1021 70 10000 4.6 300 19:57 25.06.2020
738 Clear 9 1021 66 10000 3.6 310 19:38 25.06.2020
739 Clear 9 1021 66 10000 3.6 310 19:18 25.06.2020
740 Clear 9 1020 71 10000 3.1 330 18:55 25.06.2020
741 Clear 10 1020 71 10000 3.1 330 18:36 25.06.2020
742 Clear 10 1020 71 10000 4.6 260 18:18 25.06.2020
743 Clear 10 1020 71 10000 5.7 270 17:39 25.06.2020
744 Clear 10 1020 71 10000 5.7 270 17:19 25.06.2020
745 Clear 11 1020 71 10000 5.1 280 16:55 25.06.2020
746 Clear 11 1020 71 10000 5.7 260 16:36 25.06.2020
747 Clear 11 1020 66 10000 6.7 260 16:18 25.06.2020
748 Clear 11 1020 66 10000 5.7 260 15:41 25.06.2020
749 Clear 11 1021 71 10000 4.1 260 15:19 25.06.2020
750 Clear 12 1020 66 10000 5.7 250 14:43 25.06.2020
751 Clear 12 1020 66 10000 4.6 250 14:23 25.06.2020
752 Clouds 12 1020 62 10000 5.1 250 13:56 25.06.2020
753 Clouds 12 1020 62 10000 5.1 250 13:37 25.06.2020
754 Clouds 12 1020 62 10000 5.7 250 13:19 25.06.2020
755 Clouds 12 1020 58 10000 4.1 260 12:44 25.06.2020
756 Clouds 12 1020 54 10000 4.1 260 12:20 25.06.2020
757 Clouds 13 1020 54 10000 4.1 260 11:58 25.06.2020
758 Clouds 13 1020 54 10000 5.1 240 11:38 25.06.2020
759 Clear 13 1019 58 10000 5.7 240 11:20 25.06.2020
760 Clouds 14 1019 54 10000 6.2 230 10:42 25.06.2020
761 Clouds 14 1019 54 10000 5.7 240 10:23 25.06.2020
762 Clouds 14 1019 54 10000 6.7 240 09:42 25.06.2020
763 Clouds 15 1019 54 10000 6.7 240 09:23 25.06.2020
764 Clouds 15 1019 54 10000 6.7 240 09:23 25.06.2020
765 Clouds 16 1018 48 10000 6.7 250 08:59 25.06.2020
766 Clouds 16 1018 48 10000 7.2 260 08:40 25.06.2020
767 Clouds 17 1018 45 10000 5.7 250 08:18 25.06.2020
768 Clear 17 1018 45 10000 6.2 260 07:42 25.06.2020
769 Clear 17 1018 45 10000 7.2 250 07:24 25.06.2020
770 Clear 18 1018 45 10000 6.7 270 06:44 25.06.2020
771 Clear 18 1018 48 10000 6.2 260 06:24 25.06.2020
772 Clear 17 1018 52 10000 6.2 250 05:32 25.06.2020
773 Clear 15 1019 55 10000 7.7 250 03:42 25.06.2020
774 Clear 14 1019 58 10000 6.7 260 02:58 25.06.2020
775 Clear 14 1019 58 10000 5.7 270 02:40 25.06.2020
776 Clear 12 1019 62 10000 6.7 280 01:43 25.06.2020
777 Clear 11 1019 66 10000 6.7 280 00:52 25.06.2020
778 Clear 10 1019 76 10000 6.7 280 00:25 25.06.2020
779 Clear 10 1019 76 10000 6.7 280 23:59 24.06.2020
780 Clear 10 1019 76 10000 8.7 260 23:39 24.06.2020
781 Clear 9 1019 76 10000 8.7 260 23:21 24.06.2020
782 Clear 10 1018 76 10000 8.2 250 22:54 24.06.2020
783 Clear 10 1018 71 10000 7.2 260 22:36 24.06.2020
784 Clear 10 1018 71 10000 7.2 260 22:18 24.06.2020
785 Clear 10 1018 76 10000 6.2 250 21:54 24.06.2020
786 Clear 10 1018 71 10000 7.2 250 21:36 24.06.2020
787 Clear 10 1017 71 10000 8.2 250 21:18 24.06.2020
788 Clear 10 1017 71 10000 8.2 250 20:55 24.06.2020
789 Clear 10 1017 71 10000 8.2 250 20:37 24.06.2020
790 Clear 10 1017 76 10000 6.7 260 20:18 24.06.2020
791 Clear 10 1017 76 10000 6.7 250 19:39 24.06.2020
792 Clear 11 1017 71 10000 7.2 250 19:21 24.06.2020
793 Clear 11 1017 71 10000 7.2 250 18:59 24.06.2020
794 Clear 11 1017 71 10000 6.7 250 18:41 24.06.2020
795 Clear 11 1017 71 10000 8.2 240 18:23 24.06.2020
796 Clear 11 1017 71 10000 8.2 240 17:58 24.06.2020
797 Clouds 12 1017 66 10000 7.7 250 17:40 24.06.2020
798 Clouds 12 1017 66 10000 7.7 250 17:19 24.06.2020
799 Clouds 12 1017 66 10000 7.7 250 16:56 24.06.2020
800 Clouds 12 1017 66 10000 7.7 250 16:56 24.06.2020
801 Clouds 12 1017 66 10000 7.2 250 16:38 24.06.2020
802 Clouds 12 1017 66 10000 7.7 250 16:20 24.06.2020
803 Clouds 13 1017 66 10000 7.7 250 15:56 24.06.2020
804 Rain 13 1017 62 0 5.36 270 15:38 24.06.2020
805 Rain 13 1017 63 0 2.68 270 15:19 24.06.2020
806 Rain 13 1017 63 0 2.68 270 14:43 24.06.2020
807 Rain 13 1017 63 0 2.68 270 14:43 24.06.2020
808 Rain 13 1017 67 10000 5.7 250 14:25 24.06.2020
809 Rain 13 1017 67 10000 5.7 250 13:57 24.06.2020
810 Clouds 13 1017 67 10000 5.1 250 13:38 24.06.2020
811 Clouds 13 1016 67 10000 4.6 260 13:18 24.06.2020
812 Clouds 14 1016 71 10000 5.1 250 12:41 24.06.2020
813 Clouds 14 1016 71 10000 5.1 250 12:20 24.06.2020
814 Clouds 14 1016 67 10000 4.6 250 11:57 24.06.2020
815 Clouds 15 1016 67 10000 4.6 250 11:38 24.06.2020
816 Clouds 15 1008 74 0 0.45 156 11:19 24.06.2020
817 Clouds 15 1015 72 10000 4.6 240 10:43 24.06.2020
818 Clouds 15 1015 72 10000 5.1 230 10:19 24.06.2020
819 Clouds 15 1014 72 10000 5.1 240 09:44 24.06.2020
820 Clouds 15 1014 72 10000 5.1 240 09:23 24.06.2020
821 Clouds 16 1014 72 10000 6.7 240 08:54 24.06.2020
822 Rain 16 1014 72 10000 8.7 220 08:36 24.06.2020
823 Rain 17 1014 59 10000 7.7 200 08:18 24.06.2020
824 Clouds 17 1013 55 10000 9.8 210 07:42 24.06.2020
825 Clouds 17 1013 55 10000 9.3 230 07:23 24.06.2020
826 Clouds 18 1012 48 10000 8.7 230 06:40 24.06.2020
827 Clouds 18 1012 52 10000 9.8 230 06:22 24.06.2020
828 Clouds 17 1012 55 10000 8.7 230 05:38 24.06.2020
829 Clouds 17 1013 45 10000 8.2 270 04:38 24.06.2020
830 Clear 15 1014 51 10000 4.6 270 03:38 24.06.2020
831 Clear 14 1014 58 10000 5.7 280 02:53 24.06.2020
832 Clouds 13 1014 58 10000 7.7 280 02:18 24.06.2020
833 Clouds 10 1014 66 10000 5.1 280 00:52 24.06.2020
834 Clouds 10 1014 66 10000 5.1 280 00:33 24.06.2020
835 Clouds 9 1013 71 10000 5.7 300 23:49 23.06.2020
836 Clear 8 1013 71 10000 5.7 300 23:22 23.06.2020
837 Clear 8 1013 76 10000 4.6 310 22:59 23.06.2020
838 Clear 8 1013 75 10000 3.1 330 22:41 23.06.2020
839 Clouds 8 1012 75 10000 3.6 290 22:18 23.06.2020
840 Clouds 8 1012 75 10000 3.6 290 21:56 23.06.2020
841 Clear 8 1012 81 10000 4.1 290 21:37 23.06.2020
842 Clear 8 1012 75 10000 4.1 290 21:18 23.06.2020
843 Clear 8 1012 75 10000 5.1 310 20:55 23.06.2020
844 Clear 8 1012 75 10000 5.1 310 20:36 23.06.2020
845 Clear 8 1012 75 10000 5.1 310 20:36 23.06.2020
846 Clear 8 1012 75 10000 5.1 310 20:18 23.06.2020
847 Clear 8 1012 75 10000 3.6 290 19:41 23.06.2020
848 Clear 8 1012 75 10000 5.1 290 19:23 23.06.2020
849 Clear 8 1012 70 10000 4.6 330 18:39 23.06.2020
850 Clear 8 1012 70 10000 4.6 330 18:19 23.06.2020
851 Clear 8 1012 66 10000 4.1 340 17:44 23.06.2020
852 Clear 9 1012 66 10000 3.6 330 17:25 23.06.2020
853 Clear 8 1012 66 10000 3.6 330 16:57 23.06.2020
854 Clear 9 1013 66 10000 4.6 310 16:39 23.06.2020
855 Clear 9 1013 66 10000 4.1 320 16:20 23.06.2020
856 Clear 9 1013 66 10000 4.1 320 15:59 23.06.2020
857 Clear 9 1013 62 10000 4.6 310 15:41 23.06.2020
858 Clear 9 1013 62 10000 4.6 310 15:23 23.06.2020
859 Clear 9 1013 62 10000 4.6 290 14:54 23.06.2020
860 Clear 9 1013 62 10000 5.1 280 14:36 23.06.2020
861 Clear 9 1013 62 10000 5.1 280 14:18 23.06.2020
862 Clear 9 1013 58 10000 5.1 260 13:45 23.06.2020
863 Clear 10 1013 58 10000 5.7 270 13:25 23.06.2020
864 Clear 10 1013 58 10000 4.6 280 12:55 23.06.2020
865 Clear 10 1013 58 10000 4.6 280 12:37 23.06.2020
866 Clear 11 1013 54 10000 4.6 280 12:18 23.06.2020
867 Clear 11 1012 58 10000 6.2 270 11:42 23.06.2020
868 Clear 11 1012 58 10000 6.2 270 11:22 23.06.2020
869 Clear 12 1012 54 10000 6.2 260 10:58 23.06.2020
870 Clear 12 1012 54 10000 5.7 260 10:40 23.06.2020
871 Clear 12 1012 54 10000 5.7 260 10:21 23.06.2020
872 Clouds 13 1011 50 10000 5.1 260 09:56 23.06.2020
873 Clouds 13 1011 50 10000 5.1 260 09:38 23.06.2020
874 Clouds 13 1011 50 10000 5.1 270 09:18 23.06.2020
875 Clear 14 1011 50 10000 5.7 240 08:44 23.06.2020
876 Clear 15 1011 41 10000 8.7 250 08:25 23.06.2020
877 Clear 15 1011 41 10000 7.2 250 07:46 23.06.2020
878 Clear 15 1011 41 10000 8.2 240 07:24 23.06.2020
879 Clear 15 1010 38 10000 7.2 260 06:52 23.06.2020
880 Clear 15 1010 38 10000 7.2 260 06:32 23.06.2020
881 Clear 16 1011 41 10000 8.7 260 05:54 23.06.2020
882 Clear 15 1003 57 0 0.89 200 04:52 23.06.2020
883 Clear 13 1012 50 10000 8.7 250 03:21 23.06.2020
884 Clear 13 1012 50 10000 8.7 250 02:48 23.06.2020
885 Clouds 13 1012 50 10000 8.7 250 02:29 23.06.2020
886 Clouds 11 1012 58 10000 4.6 290 01:46 23.06.2020
887 Clouds 10 1012 62 10000 8.7 250 01:22 23.06.2020
888 Clouds 9 1011 61 10000 3.6 290 00:41 23.06.2020
889 Clear 8 1011 66 10000 3.6 300 00:20 23.06.2020
890 Clouds 7 1011 66 10000 4.1 300 23:54 22.06.2020
891 Clouds 7 1011 66 10000 4.1 300 23:36 22.06.2020
892 Clear 7 1011 66 10000 4.6 310 23:18 22.06.2020
893 Clear 7 1011 66 10000 4.6 320 22:54 22.06.2020
894 Clear 7 1011 66 10000 4.6 320 22:36 22.06.2020
895 Clear 8 1010 66 10000 5.1 310 22:18 22.06.2020
896 Clear 7 1010 66 10000 5.7 290 21:41 22.06.2020
897 Clear 7 1010 66 10000 5.1 300 21:22 22.06.2020
898 -273 0 0 0 0 0 20:59 22.06.2020
899 Clear 8 1010 66 10000 5.1 300 20:59 22.06.2020
900 Clear 7 1010 70 10000 5.1 310 20:41 22.06.2020
901 Clouds 7 1010 70 10000 4.6 320 20:21 22.06.2020
902 Clouds 8 1010 70 10000 4.1 320 19:44 22.06.2020
903 Clouds 7 1011 70 10000 4.1 310 19:20 22.06.2020
904 Clouds 8 1011 70 10000 4.1 310 18:58 22.06.2020
905 Clouds 8 1011 70 10000 4.1 310 18:38 22.06.2020
906 Clouds 8 1011 74 0 1.79 307 18:20 22.06.2020
907 Clouds 8 1014 78 0 4.71 268 17:56 22.06.2020
908 Clouds 8 1011 61 10000 4.6 290 17:37 22.06.2020
909 Clouds 8 1011 61 10000 5.7 290 17:19 22.06.2020
910 Clouds 8 1011 66 10000 4.6 310 16:43 22.06.2020
911 Clouds 8 1011 66 10000 4.6 310 16:24 22.06.2020
912 Clouds 9 1011 61 10000 6.2 290 15:59 22.06.2020
913 Clouds 9 1011 57 10000 6.2 290 15:40 22.06.2020
914 Clouds 9 1011 57 10000 6.2 290 15:22 22.06.2020
915 Clouds 9 1011 57 10000 7.2 280 14:54 22.06.2020
916 Clear 9 1011 57 10000 7.2 280 14:36 22.06.2020
917 Clouds 9 1011 62 10000 8.2 270 14:18 22.06.2020
918 Clouds 10 1011 57 10000 8.2 260 13:39 22.06.2020
919 Clouds 10 1011 62 10000 6.7 260 13:21 22.06.2020
920 Clouds 10 1011 62 10000 6.7 260 12:57 22.06.2020
921 Clouds 11 1011 57 10000 5.1 280 12:39 22.06.2020
922 Clouds 11 1011 57 10000 5.1 280 12:21 22.06.2020
923 Clouds 11 1011 58 10000 5.7 280 11:37 22.06.2020
924 Clouds 11 1010 58 10000 5.1 260 11:19 22.06.2020
925 Clouds 12 1010 58 10000 3.6 250 10:57 22.06.2020
926 Clouds 12 1010 58 10000 3.6 250 10:38 22.06.2020
927 Clouds 12 1010 54 10000 6.2 270 10:19 22.06.2020
928 Clouds 12 1010 54 10000 6.2 270 09:57 22.06.2020
929 Clouds 13 1009 50 10000 6.2 270 09:38 22.06.2020
930 Clouds 13 1009 47 10000 6.2 270 09:18 22.06.2020
931 Clouds 14 1008 44 10000 6.2 270 08:56 22.06.2020
932 Clouds 14 1008 44 10000 6.2 270 08:37 22.06.2020
933 Clouds 14 1008 47 10000 6.2 270 08:18 22.06.2020
934 Clouds 14 1008 44 10000 7.7 240 07:46 22.06.2020
935 Clouds 14 1008 47 10000 6.2 250 07:25 22.06.2020
936 Clouds 15 1008 51 10000 6.2 250 06:39 22.06.2020
937 Rain 15 1008 51 10000 5.7 240 06:20 22.06.2020
938 Rain 16 1008 48 10000 5.7 260 05:42 22.06.2020
939 Clouds 14 1010 58 10000 5.1 280 03:41 22.06.2020
940 Clouds 11 1010 71 10000 6.2 290 01:48 22.06.2020
941 Clouds 10 1010 76 10000 5.7 270 00:58 22.06.2020
942 Clouds 10 1009 76 10000 4.6 280 00:29 22.06.2020
943 Clouds 9 1009 76 10000 3.1 260 23:56 21.06.2020
944 Clouds 9 1009 76 10000 3.1 260 23:37 21.06.2020
945 Clouds 9 1009 76 10000 2.6 270 23:19 21.06.2020
946 Clouds 9 1009 76 10000 1.5 330 22:56 21.06.2020
947 Clouds 9 1009 76 10000 1.5 330 22:36 21.06.2020
948 Clouds 9 1009 76 10000 2.1 290 22:18 21.06.2020
949 Clouds 8 1008 81 10000 1.5 270 21:55 21.06.2020
950 Clouds 8 1008 81 10000 1.5 270 21:37 21.06.2020
951 Clouds 8 1008 76 10000 2.6 270 21:19 21.06.2020
952 Clouds 8 1009 76 10000 3.6 270 20:56 21.06.2020
953 Clouds 9 1009 76 10000 3.6 270 20:36 21.06.2020
954 Clouds 9 1009 76 10000 2.6 240 20:18 21.06.2020
955 Clouds 9 1009 76 10000 2.6 240 20:18 21.06.2020
956 Clouds 9 1009 71 10000 3.1 270 19:41 21.06.2020
957 Clouds 9 1009 71 10000 2.6 290 19:21 21.06.2020
958 Clouds 9 1009 66 10000 3.6 320 18:56 21.06.2020
959 Clouds 9 1009 66 10000 3.6 320 18:38 21.06.2020
960 Clear 10 1009 62 10000 4.1 320 18:20 21.06.2020
961 Clear 10 1009 62 0 4.47 315 17:56 21.06.2020
962 Clear 10 1009 62 0 4.47 315 17:38 21.06.2020
963 Clear 10 1010 66 10000 2.6 280 17:19 21.06.2020
964 Clear 11 1010 66 10000 3.6 300 16:40 21.06.2020
965 Clear 11 1011 70 0 3.13 313 16:22 21.06.2020
966 Clear 11 1010 66 10000 3.6 290 15:42 21.06.2020
967 Clear 11 1010 66 10000 3.6 290 15:24 21.06.2020
968 Clouds 12 1010 62 10000 4.6 310 14:59 21.06.2020
969 Clouds 12 1010 62 10000 4.6 310 14:59 21.06.2020
970 Clouds 12 1010 62 10000 4.6 310 14:38 21.06.2020
971 Clouds 12 1010 66 10000 4.6 300 14:20 21.06.2020
972 Clouds 12 1010 66 10000 4.6 300 13:56 21.06.2020
973 Clouds 13 1010 67 10000 5.7 300 13:38 21.06.2020
974 Clouds 13 1010 72 10000 5.7 290 13:19 21.06.2020
975 Clouds 13 1010 70 0 2.24 315 12:44 21.06.2020
976 Clouds 14 1003 78 0 0.45 310 12:25 21.06.2020
977 Clouds 14 1009 77 10000 2.1 310 11:58 21.06.2020
978 Clouds 13 1010 79 0 0.89 270 11:39 21.06.2020
979 Clouds 14 1009 75 0 0.45 0 11:21 21.06.2020
980 Clouds 14 1009 82 10000 0.5 70 10:55 21.06.2020
981 Clouds 14 1009 82 10000 0.5 70 10:36 21.06.2020
982 Clouds 14 1008 77 10000 2.6 70 10:18 21.06.2020
983 Clouds 16 1008 72 10000 2.6 40 09:41 21.06.2020
984 Clouds 16 1001 83 0 0.89 311 09:19 21.06.2020
985 Clouds 16 1001 82 0 0.89 273 08:56 21.06.2020
986 Clouds 16 1001 83 0 0.45 278 08:38 21.06.2020
987 Rain 17 1008 55 10000 3.1 330 08:19 21.06.2020
988 Clouds 17 1008 55 10000 3.6 310 07:41 21.06.2020
989 Clouds 17 1009 59 10000 3.1 310 07:23 21.06.2020
990 Clouds 18 1009 59 10000 5.1 300 06:49 21.06.2020
991 Clouds 18 1009 63 10000 5.7 340 06:18 21.06.2020
992 Clouds 17 1010 67 10000 4.6 360 05:56 21.06.2020
993 Rain 14 1012 82 10000 2.6 10 03:53 21.06.2020
994 Rain 13 1013 87 10000 4.1 10 03:18 21.06.2020
995 Rain 12 1013 87 10000 4.1 360 02:20 21.06.2020
996 Rain 12 1014 87 10000 3.1 340 01:36 21.06.2020
997 Rain 12 1014 93 10000 2.6 200 01:18 21.06.2020
998 Rain 11 1014 93 10000 4.6 200 00:41 21.06.2020
999 Rain 11 1015 87 9000 7.2 250 00:23 21.06.2020
1000 Rain 12 1015 93 6000 8.2 250 23:45 20.06.2020
1001 Rain 12 1013 87 10000 3.6 210 23:22 20.06.2020
1002 Rain 13 1013 87 10000 1 180 22:57 20.06.2020
1003 Rain 13 1013 87 10000 1 180 22:39 20.06.2020
1004 Rain 13 1013 87 10000 5.51 356 22:19 20.06.2020
1005 Rain 13 1013 87 10000 5.51 356 21:57 20.06.2020
1006 Rain 13 1014 87 10000 1.5 350 21:39 20.06.2020
1007 Rain 13 1013 82 10000 2.6 350 21:20 20.06.2020
1008 Rain 13 1013 82 10000 2.6 350 21:20 20.06.2020
1009 Rain 14 1013 82 10000 2.6 350 20:58 20.06.2020
1010 Rain 14 1014 82 10000 3.1 330 20:39 20.06.2020
1011 Drizzle 14 1014 76 10000 3.6 300 20:20 20.06.2020
1012 Drizzle 14 1014 76 10000 3.6 300 19:55 20.06.2020
1013 Clouds 14 1014 72 10000 4.6 10 19:37 20.06.2020
1014 Clear 14 1014 72 10000 4.1 360 19:19 20.06.2020
1015 Clear 14 1015 76 10000 3.6 20 18:42 20.06.2020
1016 Clear 14 1015 76 10000 3.1 20 18:20 20.06.2020
1017 Clear 14 1016 71 10000 2.6 20 17:57 20.06.2020
1018 Clear 14 1016 71 10000 2.6 20 17:39 20.06.2020
1019 Clear 14 1016 67 10000 2.6 350 17:20 20.06.2020
1020 Clear 14 1017 72 10000 1.5 310 16:42 20.06.2020
1021 Clear 14 1017 67 10000 4.6 20 16:19 20.06.2020
1022 Clear 15 1017 67 10000 4.6 20 15:58 20.06.2020
1023 Clear 15 1017 63 10000 4.1 20 15:40 20.06.2020
1024 Clear 14 1018 69 0 2.24 332 15:18 20.06.2020
1025 Clear 14 1018 70 0 2.24 5 14:43 20.06.2020
1026 Clouds 15 1018 59 10000 4.6 10 14:21 20.06.2020
1027 Clouds 15 1018 63 10000 4.6 10 13:46 20.06.2020
1028 Clouds 16 1018 63 10000 4.6 10 13:26 20.06.2020
1029 Clouds 16 1011 73 0 2.24 312 12:59 20.06.2020
1030 Clouds 16 1018 59 10000 5.1 20 12:40 20.06.2020
1031 Clouds 16 1018 55 10000 6.7 30 12:20 20.06.2020
1032 Clouds 16 1018 55 10000 6.7 30 11:55 20.06.2020
1033 Clouds 16 1018 59 10000 5.7 20 11:37 20.06.2020
1034 Clouds 16 1018 63 10000 3.6 10 11:19 20.06.2020
1035 Clouds 16 1018 68 10000 3.6 20 10:46 20.06.2020
1036 Clear 16 1018 68 10000 4.6 30 10:22 20.06.2020
1037 Clear 17 1018 68 10000 4.6 30 09:55 20.06.2020
1038 Clear 17 1018 59 10000 4.1 40 09:37 20.06.2020
1039 Clear 18 1011 75 0 0.89 289 09:19 20.06.2020
1040 Clear 18 1011 78 0 0.45 322 08:46 20.06.2020
1041 Clear 19 1019 49 10000 4.1 10 08:27 20.06.2020
1042 Clear 19 1019 46 10000 4.1 360 07:52 20.06.2020
1043 Clear 19 1011 68 0 0.89 274 07:28 20.06.2020
1044 Clear 19 1020 56 10000 2.6 280 06:58 20.06.2020
1045 Clear 19 1020 60 10000 3.6 290 06:23 20.06.2020
1046 Clear 19 1020 59 10000 3.1 300 05:53 20.06.2020
1047 Clear 18 1021 63 10000 3.1 280 04:58 20.06.2020
1048 Clouds 15 1024 82 10000 3.1 320 02:53 20.06.2020
1049 Mist 11 1024 93 2000 4.1 330 01:49 20.06.2020
1050 Fog 11 1024 93 900 4.1 320 01:22 20.06.2020
1051 Fog 9 1025 93 400 3.1 320 00:22 20.06.2020
1052 Fog 9 1025 93 400 3.1 320 23:58 19.06.2020
1053 Fog 9 1025 93 700 4.6 300 23:39 19.06.2020
1054 Fog 9 1024 93 10000 4.1 290 23:18 19.06.2020
1055 Fog 9 1024 93 10000 4.1 290 22:42 19.06.2020
1056 Fog 9 1024 93 10000 4.1 290 22:23 19.06.2020
1057 -273 0 0 0 0 0 21:59 19.06.2020
1058 Rain 10 1024 93 10000 4.1 290 21:39 19.06.2020
1059 Rain 10 1025 93 10000 4.1 290 21:18 19.06.2020
1060 Rain 10 1025 93 10000 4.1 290 20:59 19.06.2020
1061 Clouds 10 1025 87 10000 2.6 330 20:40 19.06.2020
1062 Clouds 10 1025 87 10000 2.6 330 20:21 19.06.2020
1063 Clouds 10 1025 87 10000 2.6 330 20:21 19.06.2020
1064 Fog 11 1025 93 10000 2.6 320 19:58 19.06.2020
1065 Fog 11 1025 93 10000 2.6 320 19:58 19.06.2020
1066 Fog 11 1025 93 10000 2.6 320 19:40 19.06.2020
1067 Fog 12 1025 87 10000 2.6 290 19:21 19.06.2020
1068 Fog 12 1025 87 10000 2.6 290 18:57 19.06.2020
1069 Clouds 12 1025 87 10000 3.6 360 18:38 19.06.2020
1070 Clear 12 1026 87 10000 3.1 330 18:20 19.06.2020
1071 Clear 12 1026 87 10000 3.6 340 17:42 19.06.2020
1072 Clear 12 1026 87 10000 4.1 350 17:23 19.06.2020
1073 Clear 12 1026 87 10000 4.1 350 16:57 19.06.2020
1074 Clear 12 1027 82 10000 3.6 330 16:38 19.06.2020
1075 Clear 12 1027 82 10000 4.6 350 16:20 19.06.2020
1076 Clear 13 1027 82 10000 3.6 350 15:44 19.06.2020
1077 Clear 12 1025 90 0 0.45 348 15:25 19.06.2020
1078 Clear 12 1027 84 0 1.79 346 14:57 19.06.2020
1079 Clear 12 1028 84 0 1.34 5 14:39 19.06.2020
1080 Clear 13 1028 84 0 0.89 10 14:21 19.06.2020
1081 Clear 13 1028 84 0 0.89 10 14:21 19.06.2020
1082 Clear 12 1028 84 0 1.34 360 13:58 19.06.2020
1083 Clear 13 1028 84 0 1.34 10 13:39 19.06.2020
1084 Clear 13 1028 83 0 1.79 355 13:21 19.06.2020
1085 Clear 14 1028 77 10000 2.1 320 12:44 19.06.2020
1086 Clear 14 1027 77 10000 2.1 300 12:20 19.06.2020
1087 Clear 14 1027 73 0 1.34 20 11:55 19.06.2020
1088 Clear 14 1027 73 0 1.34 20 11:36 19.06.2020
1089 Clear 14 1028 81 0 1.34 355 11:18 19.06.2020
1090 Clear 15 1027 82 10000 1.5 10 10:41 19.06.2020
1091 Clear 15 1028 82 0 0.89 41 10:21 19.06.2020
1092 Clear 15 1027 77 10000 5.1 30 09:55 19.06.2020
1093 Clear 16 1027 77 10000 5.1 30 09:37 19.06.2020
1094 Clear 16 1019 85 0 0.45 279 09:18 19.06.2020
1095 Clouds 17 1027 68 10000 5.1 30 08:41 19.06.2020
1096 Clouds 18 1027 63 10000 4.6 40 08:23 19.06.2020
1097 Clouds 17 1027 63 10000 4.6 40 07:41 19.06.2020
1098 Clouds 18 1027 59 10000 4.1 60 07:22 19.06.2020
1099 Clouds 18 1028 59 10000 2.6 350 06:52 19.06.2020
1100 Clouds 18 1028 59 10000 2.6 360 06:22 19.06.2020
1101 Clouds 18 1029 63 10000 2.6 40 05:32 19.06.2020
1102 Clouds 17 1031 63 10000 2.6 270 03:50 19.06.2020
1103 Clouds 15 1032 71 10000 2.6 320 02:24 19.06.2020
1104 Clouds 11 1032 81 10000 3.1 350 00:46 19.06.2020
1105 Clouds 9 1032 87 10000 3.1 310 00:22 19.06.2020
1106 Clouds 9 1032 87 10000 2.6 310 23:58 18.06.2020
1107 Clouds 9 1032 87 10000 2.6 310 23:40 18.06.2020
1108 Clouds 9 1032 81 10000 3.1 340 23:22 18.06.2020
1109 Clouds 9 1032 87 10000 3.1 320 22:41 18.06.2020
1110 Clouds 9 1032 87 10000 3.1 320 22:41 18.06.2020
1111 Clouds 9 1031 87 10000 3.1 350 22:21 18.06.2020
1112 Clouds 9 1031 87 10000 3.1 350 21:58 18.06.2020
1113 Clouds 9 1031 87 10000 3.1 350 21:58 18.06.2020
1114 Clouds 9 1031 93 10000 2.6 330 21:38 18.06.2020
1115 Clouds 9 1031 93 10000 3.1 340 21:19 18.06.2020
1116 Clouds 9 1031 87 10000 3.6 330 20:44 18.06.2020
1117 Clouds 9 1032 93 10000 4.1 350 20:22 18.06.2020
1118 Clouds 9 1032 93 10000 3.1 330 19:58 18.06.2020
1119 Clouds 9 1032 93 10000 3.1 330 19:40 18.06.2020
1120 Rain 9 1032 93 10000 4.1 330 19:20 18.06.2020
1121 Clouds 10 1033 87 10000 3.6 350 18:44 18.06.2020
1122 Clouds 9 1033 87 10000 3.6 350 18:25 18.06.2020
1123 Clouds 10 1033 81 10000 3.1 360 17:59 18.06.2020
1124 Clouds 10 1033 87 10000 2.6 310 17:41 18.06.2020
1125 Clouds 10 1033 81 10000 4.1 340 17:23 18.06.2020
1126 Clouds 10 1033 81 10000 3.6 350 16:44 18.06.2020
1127 Clouds 10 1033 81 10000 3.6 350 16:25 18.06.2020
1128 Clouds 10 1034 81 10000 2.1 330 15:59 18.06.2020
1129 Clouds 11 1034 81 10000 3.1 300 15:40 18.06.2020
1130 Clouds 11 1034 81 10000 3.1 320 15:20 18.06.2020
1131 Clouds 11 1034 81 10000 3.1 320 14:57 18.06.2020
1132 Clouds 11 1034 81 10000 2.1 290 14:39 18.06.2020
1133 Clouds 12 1034 71 10000 2.1 300 14:20 18.06.2020
1134 Clouds 12 1034 71 10000 2.02 33 13:48 18.06.2020
1135 Clouds 12 1034 71 10000 2.08 43 13:29 18.06.2020
1136 Clouds 12 1034 71 10000 2.08 43 12:58 18.06.2020
1137 Clouds 13 1035 67 10000 2.08 43 12:40 18.06.2020
1138 Clouds 13 1034 67 10000 1.5 20 12:20 18.06.2020
1139 Clouds 13 1034 67 10000 1.5 20 11:59 18.06.2020
1140 Clouds 13 1034 71 10000 2.6 60 11:40 18.06.2020
1141 Clouds 13 1034 71 10000 2.6 60 11:20 18.06.2020
1142 Clouds 13 1034 71 10000 2.6 60 11:20 18.06.2020
1143 Clouds 14 1034 67 10000 2.1 50 10:41 18.06.2020
1144 Clouds 14 1034 67 10000 2.6 60 10:19 18.06.2020
1145 Clouds 14 1034 67 10000 2.6 60 09:56 18.06.2020
1146 Clouds 15 1034 62 10000 3.6 80 09:38 18.06.2020
1147 Clouds 15 1034 59 10000 3.6 80 09:19 18.06.2020
1148 Clouds 16 1034 55 10000 3.6 80 08:40 18.06.2020
1149 Clouds 16 1034 55 10000 3.6 80 08:21 18.06.2020
1150 Clouds 16 1035 55 10000 4.1 110 08:21 18.06.2020
1151 Clouds 16 1035 55 10000 3.6 110 07:46 18.06.2020
1152 Clouds 16 1035 48 10000 3.6 120 07:27 18.06.2020
1153 Clouds 16 1035 48 10000 3.6 120 06:59 18.06.2020
1154 Clouds 17 1026 65 0 1.79 158 06:20 18.06.2020
1155 Clouds 17 1037 59 10000 3.1 210 04:25 18.06.2020
1156 Clouds 15 1038 67 10000 4.1 80 02:51 18.06.2020
1157 Clouds 14 1038 55 10000 3.6 140 01:30 18.06.2020
1158 Clouds 13 1038 80 0 2.24 290 00:58 18.06.2020
1159 Clouds 13 1038 62 10000 4.1 140 00:39 18.06.2020
1160 Clouds 12 1037 62 10000 5.1 150 00:20 18.06.2020
1161 Clouds 12 1036 79 0 3.13 270 23:44 17.06.2020
1162 Rain 12 1036 79 0 3.13 270 23:21 17.06.2020
1163 Clouds 12 1036 58 10000 2.6 140 22:57 17.06.2020
1164 Clouds 12 1036 58 10000 2.6 140 22:39 17.06.2020
1165 Rain 12 1036 62 10000 4.1 120 22:20 17.06.2020
1166 Rain 12 1036 62 10000 4.1 120 21:55 17.06.2020
1167 Rain 12 1036 67 10000 5.7 160 21:37 17.06.2020
1168 Rain 12 1036 67 10000 5.7 130 21:19 17.06.2020
1169 Rain 13 1036 72 10000 3.6 120 20:38 17.06.2020
1170 Rain 13 1036 72 10000 3.6 120 20:38 17.06.2020
1171 Rain 13 1036 76 10000 3.6 130 20:20 17.06.2020
1172 Rain 13 1036 76 10000 3.6 130 19:57 17.06.2020
1173 Rain 14 1036 76 10000 4.1 220 19:39 17.06.2020
1174 Clouds 13 1036 76 10000 4.6 220 19:19 17.06.2020
1175 Clouds 13 1036 76 10000 3.6 210 18:45 17.06.2020
1176 Clouds 13 1036 76 10000 3.6 220 18:27 17.06.2020
1177 Clouds 13 1036 76 10000 4.1 220 17:46 17.06.2020
1178 Clouds 13 1036 76 10000 5.1 230 17:23 17.06.2020
1179 Clouds 13 1036 76 10000 5.1 230 16:58 17.06.2020
1180 Rain 13 1036 76 10000 5.1 220 16:39 17.06.2020
1181 Rain 13 1036 76 10000 5.7 170 16:21 17.06.2020
1182 Rain 13 1036 76 10000 5.7 170 15:58 17.06.2020
1183 Rain 13 1036 76 10000 4.6 230 15:39 17.06.2020
1184 Rain 13 1036 76 10000 4.1 230 15:20 17.06.2020
1185 Rain 13 1036 76 10000 4.1 230 14:58 17.06.2020
1186 Rain 13 1036 82 10000 4.6 250 14:39 17.06.2020
1187 Rain 13 1036 82 10000 4.1 250 14:19 17.06.2020
1188 Rain 13 1036 82 10000 4.1 250 13:56 17.06.2020
1189 Rain 13 1036 82 10000 4.6 230 13:38 17.06.2020
1190 Rain 14 1036 76 10000 6.7 230 13:19 17.06.2020
1191 Rain 14 1035 63 10000 6.7 130 12:43 17.06.2020
1192 Rain 14 1035 67 10000 6.7 130 12:23 17.06.2020
1193 Rain 14 1035 67 10000 6.7 130 11:58 17.06.2020
1194 Rain 14 1035 72 10000 7.7 130 11:40 17.06.2020
1195 Rain 14 1035 82 9000 8.7 180 11:21 17.06.2020
1196 Rain 14 1034 67 10000 7.2 140 10:39 17.06.2020
1197 Rain 14 1034 77 10000 7.7 140 10:19 17.06.2020
1198 Rain 15 1034 77 10000 7.7 140 10:19 17.06.2020
1199 Rain 14 1033 77 10000 7.7 160 09:58 17.06.2020
1200 Rain 14 1034 77 10000 7.7 140 09:58 17.06.2020
1201 Rain 14 1033 77 10000 7.7 160 09:40 17.06.2020
1202 Rain 14 1033 77 10000 8.2 160 09:21 17.06.2020
1203 Rain 15 1033 77 10000 7.7 150 08:55 17.06.2020
1204 Rain 15 1033 77 10000 7.7 150 08:36 17.06.2020
1205 Rain 15 1033 72 10000 7.7 140 08:18 17.06.2020
1206 Clouds 16 1032 67 10000 8.2 140 07:42 17.06.2020
1207 Rain 16 1032 67 10000 8.2 140 07:21 17.06.2020
1208 Rain 16 1032 67 10000 8.2 140 06:55 17.06.2020
1209 Rain 16 1032 67 10000 8.2 140 06:37 17.06.2020
1210 Rain 16 1032 67 10000 8.2 140 06:19 17.06.2020
1211 Rain 16 1032 72 10000 10.3 160 04:58 17.06.2020
1212 Rain 15 1032 93 10000 7.2 200 03:28 17.06.2020
1213 Rain 14 1031 67 10000 7.2 190 01:51 17.06.2020
1214 Rain 13 1031 66 10000 7.2 190 00:46 17.06.2020
1215 Rain 12 1031 66 10000 7.2 190 00:23 17.06.2020
1216 Clouds 11 1030 76 10000 7.7 190 23:56 16.06.2020
1217 Clouds 11 1029 71 10000 4.1 300 23:56 16.06.2020
1218 Clouds 11 1029 71 10000 4.1 300 23:37 16.06.2020
1219 Clouds 11 1029 71 10000 7.7 190 23:19 16.06.2020
1220 Clouds 11 1029 71 10000 7.7 190 23:19 16.06.2020
1221 Clear 11 1028 71 10000 5.1 310 22:55 16.06.2020
1222 Clear 11 1028 71 10000 5.1 310 22:37 16.06.2020
1223 Clear 11 1028 71 10000 4.6 300 22:18 16.06.2020
1224 Clear 11 1027 71 10000 4.6 310 21:47 16.06.2020
1225 Clear 11 1027 71 10000 4.1 310 21:24 16.06.2020
1226 Clear 11 1027 71 10000 4.1 310 20:58 16.06.2020
1227 Clear 11 1027 71 10000 4.1 320 20:39 16.06.2020
1228 Clouds 11 1026 71 10000 3.1 280 20:19 16.06.2020
1229 Clouds 11 1026 71 10000 3.6 280 19:58 16.06.2020
1230 Clouds 11 1026 71 10000 3.6 280 19:39 16.06.2020
1231 Clouds 12 1026 71 10000 3.6 290 19:21 16.06.2020
1232 Clouds 12 1026 71 10000 3.6 290 18:55 16.06.2020
1233 Clouds 12 1026 71 10000 2.6 310 18:36 16.06.2020
1234 Clouds 12 1026 71 10000 3.1 290 18:18 16.06.2020
1235 Clouds 12 1026 66 10000 2.6 310 17:54 16.06.2020
1236 Clouds 12 1026 66 10000 2.6 310 17:36 16.06.2020
1237 Clouds 12 1025 66 10000 3.1 330 17:18 16.06.2020
1238 Clouds 13 1025 66 10000 3.1 310 16:42 16.06.2020
1239 Clear 13 1025 62 10000 2.6 300 16:20 16.06.2020
1240 Clear 13 1025 62 10000 2.6 300 15:58 16.06.2020
1241 Clear 13 1025 62 10000 3.6 290 15:40 16.06.2020
1242 Clear 13 1025 58 10000 3.6 320 15:21 16.06.2020
1243 Clear 13 1025 58 10000 3.6 320 14:57 16.06.2020
1244 Clear 13 1025 58 10000 3.6 320 14:57 16.06.2020
1245 Clear 13 1025 55 10000 3.6 310 14:38 16.06.2020
1246 Clouds 13 1024 54 10000 4.1 300 14:20 16.06.2020
1247 Clouds 13 1025 63 0 2.24 270 13:48 16.06.2020
1248 Clouds 13 1025 63 0 2.24 270 13:26 16.06.2020
1249 Clouds 14 1024 62 0 1.79 290 12:57 16.06.2020
1250 Clouds 13 1024 62 0 1.79 290 12:38 16.06.2020
1251 Clouds 14 1024 54 0 1.79 290 12:19 16.06.2020
1252 Clouds 14 1024 54 0 1.79 290 11:54 16.06.2020
1253 Clouds 14 1024 54 0 1.79 290 11:36 16.06.2020
1254 Clouds 14 1024 54 0 1.79 290 11:36 16.06.2020
1255 Clouds 15 1023 48 10000 6.2 260 11:18 16.06.2020
1256 Clouds 16 1023 48 10000 4.6 230 10:42 16.06.2020
1257 Clouds 16 1022 51 10000 3.6 240 10:21 16.06.2020
1258 Clouds 17 1022 48 10000 4.1 230 09:57 16.06.2020
1259 Clouds 17 1022 48 10000 4.1 230 09:39 16.06.2020
1260 Clouds 18 1022 45 10000 5.1 230 09:21 16.06.2020
1261 Clear 19 1022 42 10000 5.1 240 08:43 16.06.2020
1262 Clear 19 1021 40 10000 5.1 240 08:25 16.06.2020
1263 Clear 20 1021 37 10000 6.7 250 07:47 16.06.2020
1264 Clear 20 1021 37 10000 4.1 270 07:26 16.06.2020
1265 Clear 20 1013 57 0 0.89 199 06:48 16.06.2020
1266 Clear 20 1013 57 0 0.45 197 06:26 16.06.2020
1267 Clear 20 1021 42 10000 6.2 270 06:26 16.06.2020
1268 Clear 20 1021 45 10000 6.2 280 05:38 16.06.2020
1269 Clear 19 1022 42 10000 5.1 280 04:31 16.06.2020
1270 Clear 17 1023 52 10000 5.1 310 02:58 16.06.2020
1271 Clear 16 1024 59 10000 4.6 300 01:59 16.06.2020
1272 Clear 15 1024 67 10000 4.6 310 01:27 16.06.2020
1273 Clear 13 1024 76 10000 3.6 290 00:43 16.06.2020
1274 Clear 11 1024 81 10000 3.1 290 00:19 16.06.2020
1275 Clear 10 1023 81 10000 4.6 300 23:42 15.06.2020
1276 Clear 10 1023 76 10000 4.1 290 23:22 15.06.2020
1277 Clear 10 1023 81 10000 4.6 300 22:55 15.06.2020
1278 Clear 10 1023 81 10000 4.6 300 22:37 15.06.2020
1279 Clear 10 1023 76 10000 4.6 320 22:18 15.06.2020
1280 Clear 11 1023 76 10000 4.6 320 21:55 15.06.2020
1281 Clear 11 1023 76 10000 4.6 320 21:37 15.06.2020
1282 Clear 11 1023 81 10000 4.6 310 21:19 15.06.2020
1283 Clear 10 1023 76 10000 4.6 310 20:55 15.06.2020
1284 Clear 10 1023 76 10000 4.6 310 20:37 15.06.2020
1285 Clear 11 1023 76 10000 4.6 300 20:18 15.06.2020
1286 Clear 11 1023 81 10000 4.1 290 19:54 15.06.2020
1287 Clear 11 1023 81 10000 4.1 290 19:36 15.06.2020
1288 Clear 11 1023 76 10000 4.6 290 19:18 15.06.2020
1289 Clear 11 1023 81 10000 5.1 290 18:43 15.06.2020
1290 Clear 11 1023 76 10000 5.7 300 18:22 15.06.2020
1291 Clear 11 1023 76 10000 5.7 300 18:22 15.06.2020
1292 Clear 11 1023 76 10000 5.7 300 17:59 15.06.2020
1293 Clear 11 1023 76 10000 3.6 310 17:41 15.06.2020
1294 Clear 11 1023 71 10000 4.6 290 17:20 15.06.2020
1295 Clear 12 1023 71 10000 4.6 290 16:58 15.06.2020
1296 Clear 12 1023 66 10000 4.6 320 16:39 15.06.2020
1297 Clear 12 1023 71 10000 3.6 320 16:18 15.06.2020
1298 Clear 12 1023 67 10000 3.6 310 15:55 15.06.2020
1299 Clear 13 1023 67 10000 3.6 310 15:36 15.06.2020
1300 Clear 13 1023 67 10000 5.7 300 15:18 15.06.2020
1301 Clear 13 1023 67 10000 3.6 340 14:41 15.06.2020
1302 Clear 13 1023 62 10000 5.1 310 14:20 15.06.2020
1303 Clear 13 1023 62 10000 5.1 310 14:20 15.06.2020
1304 Clear 13 1023 62 10000 5.1 310 13:58 15.06.2020
1305 Clear 13 1023 62 10000 5.1 310 13:58 15.06.2020
1306 Clear 13 1023 63 0 1.79 290 13:38 15.06.2020
1307 Clear 14 1023 59 10000 3.1 320 13:20 15.06.2020
1308 Clear 14 1023 57 0 3.58 270 12:55 15.06.2020
1309 Clear 14 1023 59 10000 2.6 320 12:36 15.06.2020
1310 Clear 14 1023 62 10000 1.5 250 12:18 15.06.2020
1311 Clear 15 1023 59 10000 4.1 240 11:42 15.06.2020
1312 Clear 15 1023 59 10000 5.7 230 11:23 15.06.2020
1313 Clear 15 1022 59 10000 5.1 230 10:44 15.06.2020
1314 Clear 16 1022 55 10000 5.7 250 10:22 15.06.2020
1315 Clear 16 1021 52 10000 5.1 260 09:47 15.06.2020
1316 Clear 17 1021 52 10000 5.1 260 09:25 15.06.2020
1317 Clear 17 1013 65 0 0.45 268 08:57 15.06.2020
1318 Clear 18 1013 64 0 0.45 157 08:39 15.06.2020
1319 Clear 18 1021 45 10000 4.6 270 08:39 15.06.2020
1320 Clouds 19 1021 43 10000 5.7 260 08:20 15.06.2020
1321 Clouds 19 1021 45 10000 6.7 260 07:45 15.06.2020
1322 Clouds 19 1021 43 10000 6.2 270 07:22 15.06.2020
1323 Clouds 19 1021 43 10000 5.1 250 06:42 15.06.2020
1324 Clouds 19 1021 40 10000 4.6 260 06:20 15.06.2020
1325 Clouds 19 1021 42 10000 4.6 260 05:43 15.06.2020
1326 Clouds 19 1021 45 10000 6.7 270 05:24 15.06.2020
1327 Clear 17 1022 48 10000 6.7 270 04:19 15.06.2020
1328 Clear 16 1022 48 10000 5.7 280 03:41 15.06.2020
1329 Clear 15 1023 48 10000 7.2 270 02:53 15.06.2020
1330 Clear 14 1023 62 10000 2.6 310 01:53 15.06.2020
1331 Clear 13 1023 62 10000 2.6 310 01:32 15.06.2020
1332 Clear 11 1023 62 10000 3.1 310 00:58 15.06.2020
1333 Clear 10 1023 62 10000 3.1 310 00:39 15.06.2020
1334 Clear 9 1023 71 10000 4.1 310 00:20 15.06.2020
1335 Clear 8 1023 73 0 3.13 348 23:46 14.06.2020
1336 Clear 8 1026 85 0 4.13 304 23:24 14.06.2020
1337 Clear 8 1022 71 10000 3.1 310 22:58 14.06.2020
1338 Clear 8 1021 69 0 2.24 20 22:39 14.06.2020
1339 Clear 9 1022 71 10000 3.6 330 22:20 14.06.2020
1340 Clear 9 1022 71 10000 3.6 330 22:20 14.06.2020
1341 Clear 9 1022 71 10000 3.6 330 21:57 14.06.2020
1342 Clear 9 1021 71 10000 4.6 340 21:57 14.06.2020
1343 Clear 9 1021 71 10000 4.6 340 21:38 14.06.2020
1344 Clear 8 1021 71 10000 4.1 310 21:19 14.06.2020
1345 Clear 9 1021 71 10000 3.1 320 20:58 14.06.2020
1346 Clear 9 1021 71 10000 3.1 320 20:38 14.06.2020
1347 Clear 9 1021 66 10000 5.1 270 20:20 14.06.2020
1348 Clear 9 1021 66 10000 5.1 270 19:59 14.06.2020
1349 Clear 9 1021 62 10000 2.1 340 19:38 14.06.2020
1350 Clear 9 1021 62 10000 4.6 290 19:19 14.06.2020
1351 Clear 9 1021 62 10000 4.6 290 18:57 14.06.2020
1352 Clear 9 1021 69 0 0.89 340 18:39 14.06.2020
1353 Clear 10 1020 62 10000 4.1 330 18:20 14.06.2020
1354 Clear 10 1020 62 10000 4.1 330 17:58 14.06.2020
1355 Clear 10 1020 58 10000 2.1 360 17:39 14.06.2020
1356 Clear 10 1020 62 10000 4.6 280 17:20 14.06.2020
1357 Clear 10 1020 62 10000 4.6 290 16:55 14.06.2020
1358 Clear 10 1020 62 10000 4.6 290 16:36 14.06.2020
1359 Clear 10 1020 62 10000 3.6 300 16:18 14.06.2020
1360 Clear 11 1020 62 10000 3.6 290 15:41 14.06.2020
1361 Clear 11 1019 62 10000 4.6 280 15:20 14.06.2020
1362 Clear 11 1019 62 10000 4.6 280 14:59 14.06.2020
1363 Clear 12 1019 62 10000 5.1 270 14:40 14.06.2020
1364 Clear 12 1019 54 10000 3.1 290 14:22 14.06.2020
1365 Clear 12 1019 54 10000 3.1 290 13:58 14.06.2020
1366 Clear 13 1019 48 0 4.92 270 13:39 14.06.2020
1367 Clear 13 1019 54 10000 4.6 290 13:21 14.06.2020
1368 Clear 13 1019 54 10000 4.6 290 13:21 14.06.2020
1369 Clear 13 1019 54 10000 4.6 280 12:56 14.06.2020
1370 Clear 13 1019 54 10000 4.6 280 12:38 14.06.2020
1371 Clear 13 1019 54 10000 6.2 270 12:18 14.06.2020
1372 Clear 14 1019 54 10000 6.2 270 11:56 14.06.2020
1373 Clear 14 1018 51 10000 4.6 250 11:38 14.06.2020
1374 Clear 14 1018 47 10000 7.7 270 11:18 14.06.2020
1375 Clear 15 1017 44 10000 6.7 250 10:42 14.06.2020
1376 Clear 15 1016 42 10000 10.3 270 10:19 14.06.2020
1377 Clear 16 1016 45 10000 7.7 250 09:48 14.06.2020
1378 Clear 17 1016 45 10000 7.7 250 09:25 14.06.2020
1379 Clear 18 1015 34 10000 6.7 240 08:58 14.06.2020
1380 Clear 18 1015 34 10000 6.7 240 08:40 14.06.2020
1381 Clouds 19 1014 34 10000 7.2 240 08:18 14.06.2020
1382 Clouds 20 1014 34 10000 7.7 250 07:51 14.06.2020
1383 Clouds 20 1014 34 10000 7.7 250 07:32 14.06.2020
1384 Clouds 21 1013 37 10000 7.2 270 06:35 14.06.2020
1385 Clouds 20 1012 46 10000 8.7 260 05:44 14.06.2020
1386 Clouds 20 1013 52 10000 6.7 270 04:59 14.06.2020
1387 Clouds 20 1013 60 10000 6.2 280 04:33 14.06.2020
1388 Rain 18 1014 82 10000 3.6 300 03:27 14.06.2020
1389 Clouds 16 1014 93 10000 3.1 290 02:30 14.06.2020
1390 Clouds 14 1014 93 10000 3.6 320 01:47 14.06.2020
1391 Rain 14 1013 100 10000 2.6 310 01:24 14.06.2020
1392 Rain 14 1013 93 10000 2.6 20 00:40 14.06.2020
1393 Drizzle 14 1013 93 10000 2.6 50 00:19 14.06.2020
1394 Rain 14 1013 100 9000 4.1 40 23:44 13.06.2020
1395 Rain 14 1014 93 7000 3.1 10 23:24 13.06.2020
1396 Rain 14 1014 100 5000 2.1 350 22:58 13.06.2020
1397 Rain 14 1014 100 5000 2.1 350 22:37 13.06.2020
1398 Rain 14 1013 93 6000 2.6 350 22:18 13.06.2020
1399 Rain 14 1013 93 6000 3.1 280 21:56 13.06.2020
1400 Rain 14 1013 93 6000 3.1 280 21:38 13.06.2020
1401 Rain 14 1013 93 9000 3.1 310 21:20 13.06.2020
1402 Rain 14 1012 87 10000 3.1 290 20:43 13.06.2020
1403 Rain 14 1012 87 10000 1.5 230 20:19 13.06.2020
1404 Rain 14 1012 87 10000 1.5 230 19:57 13.06.2020
1405 Rain 14 1013 87 10000 3.1 290 19:36 13.06.2020
1406 Clouds 14 1013 93 10000 2.6 340 19:18 13.06.2020
1407 Clouds 14 1013 93 10000 2.6 340 18:55 13.06.2020
1408 Clouds 14 1014 93 10000 2.1 340 18:37 13.06.2020
1409 Clouds 15 1014 93 10000 4.12 355 18:18 13.06.2020
1410 Clouds 15 1014 93 10000 3.6 340 17:42 13.06.2020
1411 Clouds 15 1015 87 10000 3.6 330 17:23 13.06.2020
1412 Clouds 15 1015 87 10000 3.6 330 16:58 13.06.2020
1413 Clouds 15 1015 87 10000 4.1 350 16:40 13.06.2020
1414 Clouds 15 1016 87 10000 4.6 360 16:19 13.06.2020
1415 Clouds 15 1016 87 10000 4.6 360 15:59 13.06.2020
1416 Clouds 15 1016 87 10000 4.1 360 15:39 13.06.2020
1417 Clouds 15 1016 88 10000 3.6 360 15:20 13.06.2020
1418 Clouds 15 1016 88 10000 3.6 360 15:20 13.06.2020
1419 Clouds 16 1017 93 10000 3.1 40 14:43 13.06.2020
1420 Clouds 15 1017 88 10000 2.6 10 14:22 13.06.2020
1421 Clouds 16 1017 88 10000 2.6 10 13:56 13.06.2020
1422 Clouds 16 1018 88 10000 2.6 360 13:37 13.06.2020
1423 Clouds 16 1018 88 10000 4.1 10 13:18 13.06.2020
1424 Clouds 16 1018 88 10000 2.6 340 12:42 13.06.2020
1425 Clouds 16 1018 88 10000 2.6 340 12:24 13.06.2020
1426 Clouds 16 1011 95 0 1.79 308 11:55 13.06.2020
1427 Clouds 16 1011 95 0 2.24 308 11:37 13.06.2020
1428 Clouds 16 1018 88 10000 1.5 30 11:18 13.06.2020
1429 Clouds 16 1018 88 10000 3.1 30 10:42 13.06.2020
1430 Clouds 17 1018 88 10000 3.6 30 10:23 13.06.2020
1431 Clouds 17 1018 88 10000 3.6 40 09:56 13.06.2020
1432 Clouds 17 1018 88 10000 3.6 40 09:38 13.06.2020
1433 Clouds 17 1018 77 10000 3.6 50 09:19 13.06.2020
1434 Rain 17 1018 77 10000 4.1 60 08:44 13.06.2020
1435 Rain 17 1018 77 10000 4.1 50 08:26 13.06.2020
1436 Clouds 18 1018 72 10000 5.1 50 07:45 13.06.2020
1437 Clouds 18 1018 72 10000 5.1 50 07:26 13.06.2020
1438 Clouds 19 1018 68 10000 3.6 120 06:44 13.06.2020
1439 Clouds 19 1011 88 0 0.45 273 06:26 13.06.2020
1440 Clouds 19 1020 68 10000 3.6 350 05:30 13.06.2020
1441 Clouds 19 1020 68 10000 2.6 320 04:46 13.06.2020
1442 Clouds 18 1022 77 10000 2.6 310 03:44 13.06.2020
1443 Clouds 16 1022 82 10000 3.1 340 02:53 13.06.2020
1444 Clouds 14 1023 87 10000 2.6 320 02:24 13.06.2020
1445 Clouds 13 1023 87 10000 3.1 320 01:26 13.06.2020
1446 Clouds 13 1023 93 6000 2.6 300 00:57 13.06.2020
1447 Clouds 11 1023 93 6000 2.6 300 00:37 13.06.2020
1448 Clouds 11 1023 93 7000 3.6 300 00:19 13.06.2020
1449 Rain 11 1023 93 6000 3.6 320 23:40 12.06.2020
1450 Rain 11 1022 100 800 2.6 330 23:18 12.06.2020
1451 Rain 11 1022 100 800 2.6 330 23:18 12.06.2020
1452 Mist 11 1022 93 4000 3.1 330 22:55 12.06.2020
1453 Mist 11 1022 93 4000 3.1 330 22:37 12.06.2020
1454 Mist 11 1023 93 8000 3.6 340 22:18 12.06.2020
1455 Rain 11 1023 100 9000 2.6 330 21:44 12.06.2020
1456 Rain 11 1022 100 9000 3.1 330 21:24 12.06.2020
1457 Rain 11 1022 100 9000 3.1 330 20:57 12.06.2020
1458 Rain 11 1023 100 7000 2.6 340 20:38 12.06.2020
1459 Rain 12 1023 100 5000 3.6 340 20:20 12.06.2020
1460 Mist 11 1023 100 4000 3.1 350 19:44 12.06.2020
1461 Mist 12 1023 93 5000 2.6 320 19:22 12.06.2020
1462 Mist 12 1023 93 5000 2.6 320 18:59 12.06.2020
1463 Clouds 12 1023 93 8000 3.1 340 18:37 12.06.2020
1464 Clouds 12 1023 93 8000 3.6 350 18:18 12.06.2020
1465 Clouds 12 1023 93 7000 3.6 350 17:44 12.06.2020
1466 Clouds 12 1023 93 7000 3.6 350 17:26 12.06.2020
1467 Fog 12 1023 100 400 3.1 340 16:47 12.06.2020
1468 Fog 12 1023 100 400 3.1 340 16:24 12.06.2020
1469 Fog 13 1023 100 500 3.1 330 15:59 12.06.2020
1470 Fog 12 1024 100 700 2.6 320 15:41 12.06.2020
1471 Fog 13 1024 93 900 3.6 310 15:19 12.06.2020
1472 Mist 13 1024 93 5000 3.6 320 14:42 12.06.2020
1473 Fog 13 1024 93 8000 2.6 320 14:22 12.06.2020
1474 Fog 13 1024 93 8000 2.6 320 13:58 12.06.2020
1475 Rain 13 1024 93 9000 3.1 310 13:40 12.06.2020
1476 Rain 13 1024 93 10000 2.6 310 13:19 12.06.2020
1477 Clouds 13 1024 93 10000 2.6 310 12:40 12.06.2020
1478 Clouds 13 1024 93 10000 2.6 310 12:40 12.06.2020
1479 Clouds 13 1024 93 10000 3.1 310 12:19 12.06.2020
1480 Clouds 13 1024 93 10000 3.1 310 11:56 12.06.2020
1481 Clouds 13 1024 93 10000 3.1 310 11:36 12.06.2020
1482 Clouds 13 1017 99 0 1.56 121 11:18 12.06.2020
1483 Rain 14 1024 93 10000 3.1 230 10:42 12.06.2020
1484 Rain 14 1024 93 8000 1.5 340 10:23 12.06.2020
1485 Rain 14 1024 93 10000 3.1 280 09:44 12.06.2020
1486 Rain 14 1016 99 0 3.02 149 09:21 12.06.2020
1487 Rain 15 1016 99 0 3.02 149 08:43 12.06.2020
1488 Rain 15 1016 99 0 3.36 157 08:24 12.06.2020
1489 Rain 15 1017 99 0 0.45 323 07:44 12.06.2020
1490 Rain 15 1024 87 9000 5.7 190 07:25 12.06.2020
1491 Rain 15 1017 99 0 1.34 305 06:55 12.06.2020
1492 Rain 15 1024 87 10000 5.7 190 06:26 12.06.2020
1493 Rain 15 1024 82 10000 6.7 200 05:50 12.06.2020
1494 Rain 15 1024 82 10000 6.7 200 05:29 12.06.2020
1495 Rain 15 1025 82 10000 5.1 200 04:50 12.06.2020
1496 Rain 14 1026 93 10000 3.6 240 02:55 12.06.2020
1497 Rain 13 1026 93 10000 3.6 220 01:53 12.06.2020
1498 Rain 13 1026 93 10000 4.6 200 01:26 12.06.2020
1499 Rain 13 1026 93 10000 4.1 190 00:43 12.06.2020
1500 Rain 13 1026 93 10000 4.1 190 00:24 12.06.2020
1501 Rain 12 1025 93 10000 5.7 210 23:59 11.06.2020
1502 Rain 13 1025 87 10000 7.2 200 23:41 11.06.2020
1503 Rain 13 1025 93 10000 6.7 200 23:21 11.06.2020
1504 Rain 12 1025 93 10000 6.7 200 22:59 11.06.2020
1505 Rain 13 1024 93 10000 5.1 210 22:39 11.06.2020
1506 Drizzle 13 1024 93 10000 5.7 220 22:20 11.06.2020
1507 Drizzle 13 1024 93 10000 7.2 200 21:56 11.06.2020
1508 Drizzle 12 1024 93 10000 7.2 200 21:38 11.06.2020
1509 Rain 12 1024 93 10000 7.2 200 21:20 11.06.2020
1510 Drizzle 12 1024 93 10000 6.7 200 20:45 11.06.2020
1511 Rain 12 1024 93 10000 6.7 200 20:21 11.06.2020
1512 Rain 12 1024 93 10000 6.7 200 20:21 11.06.2020
1513 Rain 13 1016 90 0 4.67 189 19:55 11.06.2020
1514 Rain 13 1016 90 0 4.76 190 19:37 11.06.2020
1515 Rain 13 1016 90 0 4.76 190 19:37 11.06.2020
1516 Rain 13 1016 90 0 4.76 190 19:18 11.06.2020
1517 Rain 12 1024 87 10000 4.6 200 18:42 11.06.2020
1518 Rain 12 1024 87 10000 3.1 250 18:24 11.06.2020
1519 Rain 12 1024 82 10000 3.6 250 17:57 11.06.2020
1520 Rain 12 1024 82 10000 3.6 250 17:38 11.06.2020
1521 Rain 12 1024 87 10000 4.1 270 17:19 11.06.2020
1522 Clouds 12 1024 82 10000 4.1 310 16:57 11.06.2020
1523 Clouds 12 1024 82 10000 4.1 310 16:38 11.06.2020
1524 Clouds 12 1025 82 10000 3.6 230 16:20 11.06.2020
1525 Clouds 13 1025 82 10000 3.6 230 15:43 11.06.2020
1526 Clouds 13 1025 82 10000 3.6 230 15:25 11.06.2020
1527 Clouds 13 1025 87 10000 4.1 230 14:58 11.06.2020
1528 Clouds 14 1024 82 10000 4.1 250 14:39 11.06.2020
1529 Clouds 14 1024 82 10000 4.1 250 14:39 11.06.2020
1530 Clouds 14 1024 82 10000 4.1 230 14:20 11.06.2020
1531 Clouds 14 1024 87 10000 4.6 200 13:55 11.06.2020
1532 Clouds 14 1024 87 10000 4.6 200 13:37 11.06.2020
1533 Clouds 14 1024 87 10000 4.6 210 13:18 11.06.2020
1534 Clouds 15 1024 87 10000 4.6 210 13:18 11.06.2020
1535 Clouds 15 1024 87 10000 6.2 200 12:55 11.06.2020
1536 Clouds 15 1024 87 10000 6.2 200 12:37 11.06.2020
1537 Clouds 15 1024 82 10000 6.7 200 12:18 11.06.2020
1538 Clouds 16 1024 82 10000 7.2 180 11:56 11.06.2020
1539 Clouds 16 1024 82 10000 7.2 180 11:37 11.06.2020
1540 Clouds 16 1016 84 0 1.34 168 11:18 11.06.2020
1541 Clouds 16 1023 77 10000 7.7 170 10:43 11.06.2020
1542 Clouds 16 1023 77 10000 7.7 170 10:20 11.06.2020
1543 Clouds 16 1023 77 10000 7.7 170 09:59 11.06.2020
1544 Rain 16 1022 72 10000 8.7 180 09:40 11.06.2020
1545 Rain 16 1022 72 10000 7.7 180 09:21 11.06.2020
1546 Clouds 17 1022 77 10000 8.7 180 08:42 11.06.2020
1547 Clouds 17 1022 77 10000 8.2 170 08:19 11.06.2020
1548 Clouds 18 1022 77 10000 8.2 170 07:42 11.06.2020
1549 Clear 18 1022 72 10000 7.7 170 07:24 11.06.2020
1550 Clear 18 1022 68 10000 7.7 170 06:38 11.06.2020
1551 Clear 19 1022 72 10000 4.6 170 06:20 11.06.2020
1552 Clear 19 1022 68 10000 2.6 170 04:52 11.06.2020
1553 Clear 17 1016 81 0 0.45 124 03:26 11.06.2020
1554 Clouds 16 1023 72 10000 6.2 210 02:50 11.06.2020
1555 Clouds 16 1016 85 0 0.45 26 02:31 11.06.2020
1556 Clouds 14 1023 87 9000 4.1 270 01:43 11.06.2020
1557 Clouds 14 1023 93 8000 3.6 310 01:22 11.06.2020
1558 Mist 13 1023 93 5000 3.1 290 00:45 11.06.2020
1559 Mist 13 1023 93 5000 3.6 300 00:26 11.06.2020
1560 Mist 13 1023 93 4000 4.6 310 23:43 10.06.2020
1561 Fog 14 1023 93 1500 4.1 290 23:24 10.06.2020
1562 Fog 14 1023 93 1500 4.1 290 22:56 10.06.2020
1563 Fog 14 1023 93 900 3.6 260 22:37 10.06.2020
1564 Fog 14 1023 100 900 3.6 290 22:19 10.06.2020
1565 Fog 14 1022 100 900 3.6 280 21:55 10.06.2020
1566 Fog 14 1022 100 900 3.6 280 21:37 10.06.2020
1567 Fog 14 1022 93 800 3.6 300 21:18 10.06.2020
1568 Fog 14 1022 93 800 3.6 300 21:18 10.06.2020
1569 Fog 14 1022 93 5000 3.1 320 20:56 10.06.2020
1570 Mist 14 1022 93 5000 3.1 320 20:38 10.06.2020
1571 Fog 14 1023 93 8000 3.1 290 20:19 10.06.2020
1572 Clouds 14 1023 100 8000 2.1 270 19:40 10.06.2020
1573 Mist 14 1023 100 9000 3.1 290 19:20 10.06.2020
1574 Clouds 14 1024 93 10000 3.1 260 18:58 10.06.2020
1575 Mist 14 1024 93 10000 3.1 290 18:40 10.06.2020
1576 Mist 14 1024 93 10000 3.1 290 18:19 10.06.2020
1577 Clouds 14 1024 86 0 1.34 290 17:55 10.06.2020
1578 Mist 14 1024 93 10000 3.1 290 17:37 10.06.2020
1579 Mist 14 1024 93 10000 3.1 290 17:37 10.06.2020
1580 Mist 15 1024 93 10000 3.1 290 17:19 10.06.2020
1581 Rain 14 1017 96 0 0.89 307 16:57 10.06.2020
1582 Rain 14 1017 96 0 0.89 301 16:39 10.06.2020
1583 Rain 14 1017 96 0 0.89 304 16:19 10.06.2020
1584 Rain 14 1017 96 0 0.45 312 15:41 10.06.2020
1585 Clouds 14 1017 96 0 0.89 309 15:22 10.06.2020
1586 Clouds 15 1018 96 0 1.34 306 14:58 10.06.2020
1587 Clouds 15 1018 96 0 0.89 319 14:39 10.06.2020
1588 Rain 15 1018 98 0 0.45 309 14:20 10.06.2020
1589 Rain 15 1025 87 10000 4.6 10 13:41 10.06.2020
1590 Rain 15 1018 96 0 0.45 315 13:21 10.06.2020
1591 Rain 15 1025 87 10000 4.1 30 12:45 10.06.2020
1592 Rain 15 1025 87 10000 3.6 10 12:23 10.06.2020
1593 Rain 15 1025 87 10000 3.6 10 11:59 10.06.2020
1594 Rain 15 1018 98 0 1.34 304 11:40 10.06.2020
1595 Rain 15 1018 98 0 0.45 319 11:19 10.06.2020
1596 Rain 15 1018 96 0 0.89 311 10:58 10.06.2020
1597 Rain 15 1018 98 0 1.34 302 10:39 10.06.2020
1598 Rain 15 1018 98 0 1.34 302 10:21 10.06.2020
1599 Clouds 15 1025 93 10000 4.6 40 09:42 10.06.2020
1600 Rain 15 1018 98 0 0.89 26 09:23 10.06.2020
1601 Rain 15 1025 93 8000 6.2 30 08:57 10.06.2020
1602 Rain 16 1025 93 8000 6.2 30 08:38 10.06.2020
1603 Rain 15 1025 93 4000 3.6 40 08:20 10.06.2020
1604 Rain 16 1026 93 3000 2.6 30 07:39 10.06.2020
1605 Rain 15 1026 93 4000 3.1 20 07:21 10.06.2020
1606 Rain 15 1026 93 4000 3.6 10 06:46 10.06.2020
1607 Rain 15 1026 93 5000 4.6 20 06:24 10.06.2020
1608 Rain 15 1026 93 5000 4.6 20 05:58 10.06.2020
1609 Rain 15 1026 93 6000 4.1 30 05:26 10.06.2020
1610 Rain 15 1019 96 0 0.45 294 04:36 10.06.2020
1611 Clouds 16 1028 88 10000 2.6 290 03:33 10.06.2020
1612 Rain 15 1030 93 10000 2.6 320 02:23 10.06.2020
1613 Rain 14 1029 93 10000 2.6 320 01:38 10.06.2020
1614 Rain 13 1022 98 0 0.45 323 00:40 10.06.2020
1615 Rain 13 1029 100 9000 2.6 350 00:22 10.06.2020
1616 Rain 13 1029 100 9000 2.6 350 23:57 09.06.2020
1617 Rain 13 1029 100 5000 2.1 340 23:39 09.06.2020
1618 Rain 13 1029 100 10000 2.1 320 23:20 09.06.2020
1619 Rain 13 1029 100 10000 2.1 320 22:56 09.06.2020
1620 Rain 13 1029 93 7000 2.6 280 22:38 09.06.2020
1621 Rain 13 1029 93 7000 2.6 280 22:19 09.06.2020
1622 Rain 13 1029 93 5000 2.6 320 21:56 09.06.2020
1623 Rain 13 1029 93 7000 2.1 240 21:38 09.06.2020
1624 Rain 13 1029 93 7000 2.1 240 21:38 09.06.2020
1625 Rain 13 1029 93 10000 3.1 230 21:20 09.06.2020
1626 Rain 13 1029 93 9000 1.5 190 20:56 09.06.2020
1627 Rain 13 1029 93 9000 1.5 190 20:38 09.06.2020
1628 Rain 13 1029 93 8000 2.1 300 20:18 09.06.2020
1629 Rain 13 1029 93 6000 2.6 250 19:57 09.06.2020
1630 Rain 13 1029 93 6000 2.6 250 19:38 09.06.2020
1631 Rain 13 1030 93 7000 3.1 290 19:20 09.06.2020
1632 Rain 13 1030 93 7000 3.1 290 19:20 09.06.2020
1633 Rain 14 1030 93 6000 3.1 250 18:56 09.06.2020
1634 Rain 14 1030 93 6000 3.1 250 18:37 09.06.2020
1635 Rain 14 1030 93 8000 0.5 310 18:18 09.06.2020
1636 Rain 14 1030 93 5000 3.1 350 17:54 09.06.2020
1637 Rain 14 1030 93 5000 3.1 350 17:36 09.06.2020
1638 Rain 14 1031 87 10000 3.1 20 17:18 09.06.2020
1639 Rain 14 1031 87 10000 2.1 250 16:42 09.06.2020
1640 Rain 14 1031 82 10000 2.1 250 16:22 09.06.2020
1641 Rain 14 1031 82 10000 2.1 250 15:55 09.06.2020
1642 Clouds 13 1031 82 10000 1 120 15:36 09.06.2020
1643 Clouds 13 1031 82 10000 3.1 130 15:18 09.06.2020
1644 Clouds 14 1031 82 0 1.34 270 14:40 09.06.2020
1645 Rain 14 1031 82 10000 3.6 80 14:20 09.06.2020
1646 Rain 14 1031 82 10000 3.6 80 13:58 09.06.2020
1647 Rain 14 1031 77 10000 3.1 90 13:58 09.06.2020
1648 Rain 14 1031 77 10000 3.1 90 13:39 09.06.2020
1649 Rain 14 1031 72 10000 2.6 90 13:20 09.06.2020
1650 Rain 14 1031 72 10000 3.1 70 12:44 09.06.2020
1651 Rain 14 1031 72 10000 3.6 70 12:21 09.06.2020
1652 Clouds 14 1031 77 10000 3.6 90 11:59 09.06.2020
1653 Clouds 15 1031 77 10000 3.6 90 11:41 09.06.2020
1654 Clouds 15 1031 93 10000 3.6 80 11:20 09.06.2020
1655 Clouds 15 1031 93 10000 2.6 170 10:58 09.06.2020
1656 Clouds 15 1031 93 10000 2.6 170 10:40 09.06.2020
1657 Clouds 15 1031 93 10000 2.6 180 10:22 09.06.2020
1658 Clouds 16 1031 87 10000 3.6 180 09:44 09.06.2020
1659 Clouds 16 1031 87 10000 4.1 180 09:24 09.06.2020
1660 Clouds 16 1031 87 10000 4.1 180 08:56 09.06.2020
1661 Clouds 16 1031 87 10000 5.1 170 08:38 09.06.2020
1662 Clouds 16 1031 87 10000 4.6 170 08:19 09.06.2020
1663 Clouds 17 1031 82 10000 5.1 160 07:38 09.06.2020
1664 Clouds 17 1031 77 10000 5.7 170 07:19 09.06.2020
1665 Clouds 17 1031 82 10000 5.7 170 06:54 09.06.2020
1666 Clouds 18 1031 82 10000 6.2 170 06:34 09.06.2020
1667 Clouds 18 1031 82 10000 6.2 170 05:35 09.06.2020
1668 Clouds 16 1032 87 10000 6.2 180 03:34 09.06.2020
1669 Clouds 14 1033 87 10000 4.1 200 01:43 09.06.2020
1670 Clouds 13 1033 87 10000 4.1 200 01:19 09.06.2020
1671 Clouds 12 1032 93 10000 1.5 300 00:55 09.06.2020
1672 Clouds 12 1032 93 10000 3.1 310 00:36 09.06.2020
1673 Clouds 11 1032 93 10000 3.1 310 00:18 09.06.2020
1674 Rain 11 1032 93 10000 4.1 220 23:40 08.06.2020
1675 Rain 12 1032 93 10000 5.1 210 23:19 08.06.2020
1676 Rain 11 1032 93 10000 5.1 210 22:54 08.06.2020
1677 Rain 11 1032 93 10000 3.1 210 22:36 08.06.2020
1678 Rain 11 1031 93 10000 1.5 300 22:18 08.06.2020
1679 Rain 11 1031 93 10000 1.5 300 21:54 08.06.2020
1680 Clouds 11 1031 93 10000 3.6 330 21:36 08.06.2020
1681 Clouds 11 1031 93 10000 2.1 290 21:18 08.06.2020
1682 Rain 11 1031 93 10000 1.5 310 20:54 08.06.2020
1683 Rain 11 1031 93 10000 1.5 310 20:36 08.06.2020
1684 Clouds 11 1031 93 10000 2.6 340 20:18 08.06.2020
1685 Clouds 11 1031 100 10000 2.1 310 19:41 08.06.2020
1686 Rain 11 1031 93 10000 3.1 300 19:20 08.06.2020
1687 Rain 12 1031 93 10000 3.1 310 18:41 08.06.2020
1688 Rain 12 1031 93 10000 3.1 310 18:20 08.06.2020
1689 Rain 12 1031 93 10000 3.6 280 17:57 08.06.2020
1690 Rain 12 1031 93 10000 3.6 280 17:39 08.06.2020
1691 Rain 12 1031 93 10000 3.1 330 17:21 08.06.2020
1692 Rain 12 1031 93 10000 3.1 330 16:56 08.06.2020
1693 Rain 12 1031 100 10000 3.6 260 16:38 08.06.2020
1694 Rain 12 1031 87 8000 5.1 210 16:20 08.06.2020
1695 Rain 12 1031 87 8000 5.1 210 16:20 08.06.2020
1696 Rain 13 1031 93 9000 5.7 210 15:42 08.06.2020
1697 Rain 13 1031 87 9000 7.2 210 15:21 08.06.2020
1698 Rain 13 1031 87 9000 7.2 210 14:57 08.06.2020
1699 Rain 13 1030 93 10000 6.2 210 14:38 08.06.2020
1700 Rain 13 1030 87 10000 7.7 210 14:18 08.06.2020
1701 Rain 13 1030 87 10000 7.7 210 14:18 08.06.2020
1702 Rain 13 1030 87 10000 7.7 210 13:42 08.06.2020
1703 Rain 13 1030 87 10000 7.7 210 13:42 08.06.2020
1704 Rain 13 1030 87 10000 8.7 210 13:23 08.06.2020
1705 Rain 13 1030 87 10000 7.2 210 12:42 08.06.2020
1706 Rain 13 1030 82 10000 6.7 210 12:20 08.06.2020
1707 Rain 13 1030 82 10000 6.7 210 11:59 08.06.2020
1708 Rain 13 1030 82 10000 7.7 210 11:40 08.06.2020
1709 Rain 14 1029 82 10000 5.1 230 11:21 08.06.2020
1710 Rain 14 1029 82 10000 8.2 200 10:58 08.06.2020
1711 Rain 14 1029 82 10000 8.2 200 10:38 08.06.2020
1712 Rain 14 1029 77 10000 7.7 200 10:20 08.06.2020
1713 Rain 14 1029 77 10000 7.7 200 09:57 08.06.2020
1714 Rain 14 1028 77 10000 8.7 200 09:39 08.06.2020
1715 Clouds 15 1028 77 10000 9.3 190 09:20 08.06.2020
1716 Clouds 15 1028 77 10000 9.8 200 08:42 08.06.2020
1717 Clouds 15 1028 72 10000 8.2 200 08:20 08.06.2020
1718 Clouds 16 1028 77 10000 8.7 190 07:43 08.06.2020
1719 Clouds 16 1027 77 10000 8.7 190 07:21 08.06.2020
1720 Clouds 16 1027 67 10000 9.8 190 06:49 08.06.2020
1721 Clouds 16 1027 72 10000 9.3 190 06:28 08.06.2020
1722 Clouds 16 1027 67 10000 8.7 190 05:46 08.06.2020
1723 Clouds 15 1027 72 10000 9.3 190 04:29 08.06.2020
1724 Rain 13 1028 71 10000 3.6 250 02:32 08.06.2020
1725 Clouds 13 1028 71 10000 5.1 260 01:45 08.06.2020
1726 Clouds 11 1028 76 10000 5.7 260 01:26 08.06.2020
1727 Clouds 10 1027 81 10000 5.7 260 00:30 08.06.2020
1728 Clouds 9 1027 86 0 5.36 270 23:42 07.06.2020
1729 Clouds 9 1026 87 10000 5.7 240 23:20 07.06.2020
1730 Clouds 9 1026 87 10000 5.7 240 22:59 07.06.2020
1731 Clouds 10 1026 87 10000 5.7 230 22:39 07.06.2020
1732 Clouds 10 1026 87 10000 4.6 230 22:19 07.06.2020
1733 Clouds 10 1026 87 10000 4.6 230 21:59 07.06.2020
1734 Clouds 10 1025 87 10000 4.6 240 21:38 07.06.2020
1735 Clouds 11 1025 81 10000 5.1 230 21:20 07.06.2020
1736 Rain 11 1025 81 10000 5.1 230 21:20 07.06.2020
1737 Rain 11 1025 81 10000 5.1 230 21:20 07.06.2020
1738 Rain 11 1025 87 10000 4.6 240 20:56 07.06.2020
1739 Rain 11 1025 87 10000 4.6 240 20:38 07.06.2020
1740 Clouds 11 1025 87 10000 5.1 220 20:18 07.06.2020
1741 Rain 11 1025 93 10000 4.6 240 19:55 07.06.2020
1742 Rain 11 1025 93 10000 4.6 240 19:37 07.06.2020
1743 Rain 11 1025 93 10000 3.6 330 19:19 07.06.2020
1744 Rain 11 1025 93 10000 4.1 10 18:54 07.06.2020
1745 Rain 11 1025 93 10000 4.1 10 18:36 07.06.2020
1746 Rain 11 1025 93 7000 4.6 320 18:18 07.06.2020
1747 Rain 11 1025 93 6000 4.6 320 17:41 07.06.2020
1748 Rain 11 1025 93 6000 3.6 290 17:23 07.06.2020
1749 Rain 11 1025 93 6000 3.6 290 16:59 07.06.2020
1750 Rain 11 1025 93 6000 2.1 310 16:41 07.06.2020
1751 Rain 11 1025 93 5000 4.6 240 16:20 07.06.2020
1752 Rain 11 1025 93 5000 4.6 240 16:20 07.06.2020
1753 Rain 12 1025 93 10000 4.1 250 15:36 07.06.2020
1754 Rain 12 1025 93 10000 4.1 250 15:18 07.06.2020
1755 Rain 12 1025 93 10000 2.6 260 14:39 07.06.2020
1756 Rain 12 1025 93 10000 2.6 260 14:39 07.06.2020
1757 Rain 12 1025 87 9000 3.1 180 14:21 07.06.2020
1758 Rain 12 1025 93 6000 6.2 180 13:47 07.06.2020
1759 Rain 12 1025 93 6000 6.2 180 13:47 07.06.2020
1760 Rain 12 1024 93 6000 5.1 190 13:21 07.06.2020
1761 Rain 12 1024 93 6000 5.1 190 12:55 07.06.2020
1762 Rain 12 1024 93 9000 6.2 190 12:36 07.06.2020
1763 Rain 12 1024 93 9000 6.2 190 12:18 07.06.2020
1764 Rain 12 1024 93 9000 6.2 190 11:55 07.06.2020
1765 Rain 12 1016 96 0 0.45 188 11:36 07.06.2020
1766 Rain 12 1016 96 0 0.45 188 11:18 07.06.2020
1767 Rain 13 1023 93 6000 2.6 220 10:42 07.06.2020
1768 Rain 12 1023 93 10000 5.7 220 10:20 07.06.2020
1769 Rain 12 1023 93 10000 5.7 220 09:57 07.06.2020
1770 Rain 12 1022 93 7000 4.6 240 09:38 07.06.2020
1771 Rain 13 1022 82 5000 7.2 180 09:20 07.06.2020
1772 Rain 14 1022 87 9000 7.7 180 08:48 07.06.2020
1773 Rain 14 1022 87 9000 4.6 150 08:24 07.06.2020
1774 Rain 14 1022 87 9000 4.6 150 07:57 07.06.2020
1775 Rain 14 1021 93 10000 5.1 170 07:32 07.06.2020
1776 Rain 15 1021 82 10000 6.7 160 06:51 07.06.2020
1777 Rain 16 1022 82 10000 6.7 180 05:52 07.06.2020
1778 Rain 15 1023 67 10000 6.7 180 04:21 07.06.2020
1779 Rain 12 1023 76 10000 3.1 310 02:57 07.06.2020
1780 Clouds 12 1023 76 10000 3.1 330 02:18 07.06.2020
1781 Clouds 10 1023 81 10000 3.6 330 01:25 07.06.2020
1782 Clouds 9 1023 87 10000 3.6 310 00:47 07.06.2020
1783 Clouds 8 1023 87 10000 3.6 320 00:20 07.06.2020
1784 Clouds 8 1022 93 10000 3.6 300 23:58 06.06.2020
1785 Clouds 8 1022 93 10000 3.6 300 23:38 06.06.2020
1786 Clouds 8 1022 93 10000 3.6 300 23:38 06.06.2020
1787 Clouds 8 1022 93 10000 4.1 310 23:19 06.06.2020
1788 Clouds 8 1022 93 10000 4.1 310 22:56 06.06.2020
1789 Clouds 8 1022 93 10000 3.6 330 22:38 06.06.2020
1790 Clouds 8 1022 93 10000 4.1 300 22:19 06.06.2020
1791 Clouds 8 1022 93 10000 4.6 320 21:47 06.06.2020
1792 Clouds 8 1022 87 10000 3.1 320 21:23 06.06.2020
1793 Clouds 8 1022 87 10000 3.1 320 20:58 06.06.2020
1794 Clouds 8 1022 87 10000 3.6 310 20:40 06.06.2020
1795 Clouds 9 1022 87 10000 3.1 320 20:19 06.06.2020
1796 Clouds 9 1022 93 10000 3.6 340 19:57 06.06.2020
1797 Clouds 9 1022 93 10000 3.6 340 19:38 06.06.2020
1798 Clouds 9 1022 87 10000 3.1 360 19:20 06.06.2020
1799 Clouds 10 1022 87 10000 3.1 330 18:55 06.06.2020
1800 Clouds 9 1022 87 10000 3.1 330 18:36 06.06.2020
1801 Clouds 10 1022 87 10000 2.6 330 18:18 06.06.2020
1802 Clouds 10 1022 81 10000 2.1 350 17:43 06.06.2020
1803 Clouds 10 1022 81 10000 2.1 360 17:20 06.06.2020
1804 Clouds 10 1022 81 10000 2.1 360 16:56 06.06.2020
1805 Clouds 11 1022 81 10000 2.1 350 16:38 06.06.2020
1806 Clouds 10 1022 81 10000 2.1 310 16:19 06.06.2020
1807 Clouds 11 1023 87 10000 2.6 280 15:44 06.06.2020
1808 Clouds 11 1023 81 10000 2.33 290 15:20 06.06.2020
1809 Clouds 11 1023 81 10000 2.33 290 14:58 06.06.2020
1810 Clouds 11 1022 81 10000 0.5 350 14:37 06.06.2020
1811 Clouds 11 1022 76 10000 2.6 340 14:19 06.06.2020
1812 Clouds 11 1022 76 10000 2.1 302 13:47 06.06.2020
1813 Clouds 12 1023 76 10000 0.5 290 13:19 06.06.2020
1814 Clouds 12 1023 71 10000 1.5 330 12:57 06.06.2020
1815 Clouds 13 1023 71 10000 1.5 330 12:57 06.06.2020
1816 Clear 13 1023 71 10000 1.5 330 12:39 06.06.2020
1817 Clear 14 1022 71 10000 2.1 360 12:19 06.06.2020
1818 Clouds 13 1022 67 10000 2.1 10 11:55 06.06.2020
1819 Clouds 13 1022 67 10000 2.1 10 11:37 06.06.2020
1820 Clouds 14 1022 67 10000 3.1 30 11:18 06.06.2020
1821 Clouds 13 1022 62 10000 3.1 40 10:56 06.06.2020
1822 Clouds 14 1022 62 10000 3.1 40 10:38 06.06.2020
1823 Clouds 14 1022 62 10000 3.6 40 10:19 06.06.2020
1824 Rain 15 1022 59 10000 3.6 30 09:44 06.06.2020
1825 Rain 15 1022 59 10000 3.6 30 09:25 06.06.2020
1826 Clear 16 1014 69 0 0.45 289 08:49 06.06.2020
1827 Clouds 16 1022 52 10000 3.6 100 08:25 06.06.2020
1828 Clouds 17 1022 48 10000 3.1 160 07:59 06.06.2020
1829 Clear 17 1014 66 0 0.45 268 07:40 06.06.2020
1830 Clouds 17 1022 45 10000 3.1 130 07:20 06.06.2020
1831 Clouds 17 1022 59 10000 2.6 160 06:46 06.06.2020
1832 Clouds 17 1022 59 10000 2.6 180 06:26 06.06.2020
1833 Clouds 17 1023 63 10000 2.1 190 05:44 06.06.2020
1834 Clouds 17 1023 63 10000 2.1 190 05:24 06.06.2020
1835 Clear 17 1024 55 10000 2.6 270 04:38 06.06.2020
1836 Clouds 13 1026 54 10000 3.6 310 02:36 06.06.2020
1837 Clouds 11 1026 58 10000 3.6 320 01:41 06.06.2020
1838 Clouds 10 1026 66 10000 3.6 320 01:18 06.06.2020
1839 Clouds 9 1026 70 10000 4.6 320 00:41 06.06.2020
1840 Clouds 8 1026 75 10000 4.6 320 00:23 06.06.2020
1841 Clouds 7 1025 75 10000 4.1 320 23:40 05.06.2020
1842 Clouds 7 1025 70 10000 4.1 320 23:21 05.06.2020
1843 Clouds 7 1025 70 10000 4.1 320 22:59 05.06.2020
1844 Clouds 8 1025 75 10000 3.6 320 22:41 05.06.2020
1845 Clouds 8 1025 75 10000 3.6 320 22:23 05.06.2020
1846 Clouds 8 1025 75 10000 3.6 320 21:58 05.06.2020
1847 Clouds 8 1025 70 10000 4.1 340 21:40 05.06.2020
1848 Clear 8 1025 75 10000 3.6 340 21:19 05.06.2020
1849 Clear 8 1025 75 10000 2.1 310 20:56 05.06.2020
1850 Clear 8 1025 75 10000 2.1 310 20:37 05.06.2020
1851 Clear 8 1025 75 10000 3.1 260 20:19 05.06.2020
1852 Clear 9 1025 66 10000 3.6 250 19:40 05.06.2020
1853 Clear 9 1025 61 10000 3.6 250 19:22 05.06.2020
1854 Clear 9 1025 66 10000 3.6 240 18:54 05.06.2020
1855 Clear 9 1025 66 10000 3.6 240 18:36 05.06.2020
1856 Clear 9 1025 66 10000 3.1 250 18:18 05.06.2020
1857 Clear 9 1025 66 10000 3.1 250 17:55 05.06.2020
1858 Clear 9 1025 66 10000 3.6 260 17:37 05.06.2020
1859 Clear 9 1025 62 10000 3.6 290 17:18 05.06.2020
1860 Clear 10 1026 62 10000 4.6 230 16:38 05.06.2020
1861 Clear 10 1026 62 10000 3.6 290 16:19 05.06.2020
1862 Clear 10 1026 62 10000 3.6 290 15:41 05.06.2020
1863 Clear 9 1024 87 0 2.99 226 15:21 05.06.2020
1864 Clear 10 1027 77 0 0.89 308 14:58 05.06.2020
1865 Clear 10 1026 76 10000 2.1 190 14:40 05.06.2020
1866 Clear 11 1026 71 10000 3.1 220 14:22 05.06.2020
1867 Clear 11 1026 71 10000 2.6 230 13:57 05.06.2020
1868 Clear 11 1026 71 10000 2.6 230 13:38 05.06.2020
1869 Clear 11 1026 76 10000 3.1 230 13:19 05.06.2020
1870 Clear 11 1026 76 10000 3.1 230 12:41 05.06.2020
1871 Clear 12 1026 82 10000 2.6 210 12:19 05.06.2020
1872 Clear 13 1026 82 10000 2.6 210 11:55 05.06.2020
1873 Clear 13 1026 71 10000 2.29 12 11:37 05.06.2020
1874 Clear 13 1025 67 10000 0.5 10 11:18 05.06.2020
1875 Clear 14 1025 63 10000 1.5 20 10:42 05.06.2020
1876 Clear 14 1025 67 10000 2.1 30 10:21 05.06.2020
1877 Clear 15 1025 67 10000 2.1 30 09:57 05.06.2020
1878 Clear 15 1025 63 10000 3.1 30 09:39 05.06.2020
1879 Clear 16 1025 55 10000 2.6 20 09:21 05.06.2020
1880 Clear 16 1025 55 10000 2.6 20 08:58 05.06.2020
1881 Clear 16 1025 55 10000 2.6 20 08:58 05.06.2020
1882 Clear 16 1025 32 10000 3.1 310 08:40 05.06.2020
1883 Clear 17 1025 30 10000 3.1 320 08:19 05.06.2020
1884 Clear 17 1025 32 10000 3.1 320 07:53 05.06.2020
1885 Clear 17 1025 32 10000 3.1 320 07:34 05.06.2020
1886 Clear 18 1026 42 10000 3.1 310 06:51 05.06.2020
1887 Clear 17 1027 48 10000 2.6 290 05:24 05.06.2020
1888 Clear 16 1028 55 10000 3.1 310 04:32 05.06.2020
1889 Clear 15 1029 54 10000 3.6 290 03:50 05.06.2020
1890 Clear 13 1030 58 10000 4.6 290 02:39 05.06.2020
1891 Clear 11 1030 66 10000 4.1 290 02:18 05.06.2020
1892 Clear 11 1030 66 10000 4.1 310 01:36 05.06.2020
1893 Clear 10 1030 66 10000 4.1 310 01:36 05.06.2020
1894 Clear 8 1030 76 10000 3.6 310 00:58 05.06.2020
1895 Clear 8 1030 76 10000 3.6 310 00:39 05.06.2020
1896 Clear 8 1030 81 10000 3.6 310 00:19 05.06.2020
1897 Rain 7 1030 81 10000 3.1 320 23:46 04.06.2020
1898 Rain 7 1030 81 10000 3.1 320 23:46 04.06.2020
1899 Clear 7 1030 81 10000 3.6 310 23:24 04.06.2020
1900 Clear 7 1030 87 10000 3.6 310 22:44 04.06.2020
1901 Clear 7 1029 81 10000 3.1 320 22:22 04.06.2020
1902 Clear 7 1029 81 10000 3.1 320 21:59 04.06.2020
1903 Clear 7 1029 81 10000 3.6 330 21:40 04.06.2020
1904 Clear 8 1029 81 10000 3.6 320 21:22 04.06.2020
1905 Clear 8 1029 81 10000 3.6 320 20:58 04.06.2020
1906 Clear 8 1029 87 10000 3.1 310 20:39 04.06.2020
1907 Clear 8 1029 87 10000 3.1 310 20:20 04.06.2020
1908 Clear 8 1030 81 10000 4.1 320 19:57 04.06.2020
1909 Clear 7 1030 81 10000 4.1 320 19:38 04.06.2020
1910 Clear 8 1030 87 10000 4.1 340 19:20 04.06.2020
1911 Clear 8 1030 81 10000 3.6 310 18:40 04.06.2020
1912 Clear 8 1030 81 10000 3.6 310 18:21 04.06.2020
1913 Clear 8 1030 81 10000 3.1 290 17:59 04.06.2020
1914 Clear 9 1030 81 10000 3.1 290 17:41 04.06.2020
1915 Clear 9 1030 76 10000 3.6 300 17:21 04.06.2020
1916 Clear 9 1031 76 10000 3.1 310 16:41 04.06.2020
1917 Clear 9 1031 76 10000 3.1 310 16:21 04.06.2020
1918 Clear 9 1031 76 10000 3.1 310 15:58 04.06.2020
1919 Clear 9 1031 76 10000 3.1 300 15:40 04.06.2020
1920 Clear 9 1031 76 10000 3.1 300 15:22 04.06.2020
1921 Clear 9 1031 76 10000 3.1 310 15:22 04.06.2020
1922 Clear 10 1031 76 10000 3.6 270 14:39 04.06.2020
1923 Clear 10 1031 71 10000 3.1 270 14:20 04.06.2020
1924 Clear 10 1031 71 10000 2.1 300 13:56 04.06.2020
1925 Clear 10 1031 71 10000 2.1 300 13:38 04.06.2020
1926 Clear 11 1031 71 10000 3.1 250 13:19 04.06.2020
1927 Clear 11 1031 71 10000 3.1 210 12:55 04.06.2020
1928 Clear 11 1031 71 10000 3.1 210 12:37 04.06.2020
1929 Clouds 12 1031 76 10000 3.1 190 12:18 04.06.2020
1930 Clouds 12 1031 71 10000 3.1 240 11:41 04.06.2020
1931 Clouds 12 1031 71 10000 3.1 220 11:20 04.06.2020
1932 Clouds 12 1031 71 10000 3.1 220 10:59 04.06.2020
1933 Clouds 13 1031 66 10000 3.6 210 10:39 04.06.2020
1934 Clouds 13 1030 71 10000 4.1 190 10:20 04.06.2020
1935 Clear 13 1030 56 0 4.02 225 09:46 04.06.2020
1936 Clouds 14 1030 62 10000 5.1 190 09:28 04.06.2020
1937 Clouds 14 1030 62 10000 5.7 200 08:57 04.06.2020
1938 Clouds 14 1030 62 10000 5.7 200 08:38 04.06.2020
1939 Clouds 15 1030 62 10000 7.2 200 08:20 04.06.2020
1940 Clouds 15 1030 62 10000 6.7 190 07:31 04.06.2020
1941 Clouds 15 1030 62 10000 7.2 190 06:57 04.06.2020
1942 Clouds 15 1031 62 10000 7.2 200 06:39 04.06.2020
1943 Clouds 15 1031 62 10000 7.2 200 06:18 04.06.2020
1944 Clouds 15 1031 62 10000 7.2 200 05:33 04.06.2020
1945 Clouds 15 1031 62 10000 7.2 200 05:33 04.06.2020
1946 Clouds 14 1032 62 10000 7.7 200 03:37 04.06.2020
1947 Clouds 13 1033 58 10000 5.1 240 02:21 04.06.2020
1948 Clouds 13 1033 58 10000 5.1 240 02:21 04.06.2020
1949 Clouds 12 1032 58 10000 5.7 250 01:39 04.06.2020
1950 Clouds 11 1032 62 10000 6.7 250 01:18 04.06.2020
1951 Clouds 10 1032 62 10000 6.2 250 00:19 04.06.2020
1952 Clouds 10 1031 57 10000 6.7 250 23:38 03.06.2020
1953 Clouds 10 1031 62 10000 7.2 240 23:19 03.06.2020
1954 Clouds 10 1031 62 10000 7.2 240 22:56 03.06.2020
1955 Clouds 10 1031 62 10000 7.7 250 22:38 03.06.2020
1956 Clouds 10 1030 62 10000 7.2 240 22:18 03.06.2020
1957 Clouds 10 1030 62 10000 6.7 250 21:55 03.06.2020
1958 Clouds 10 1030 62 10000 6.7 250 21:37 03.06.2020
1959 Clouds 10 1030 62 10000 7.7 250 21:18 03.06.2020
1960 Clouds 11 1030 57 0 5.81 270 20:42 03.06.2020
1961 Clouds 11 1029 58 10000 7.7 240 20:21 03.06.2020
1962 Clouds 11 1030 57 0 5.81 270 20:21 03.06.2020
1963 Rain 11 1029 58 10000 6.7 240 19:57 03.06.2020
1964 Rain 11 1029 58 10000 6.7 240 19:39 03.06.2020
1965 Rain 11 1029 62 10000 7.2 240 19:21 03.06.2020
1966 Rain 12 1029 58 10000 7.2 230 18:59 03.06.2020
1967 Rain 12 1029 58 10000 7.2 230 18:40 03.06.2020
1968 Rain 12 1029 58 10000 7.7 230 18:19 03.06.2020
1969 Clouds 13 1029 62 10000 8.2 230 17:45 03.06.2020
1970 Clouds 13 1029 62 10000 8.2 230 17:23 03.06.2020
1971 Clouds 13 1029 58 10000 7.7 230 16:59 03.06.2020
1972 Clouds 13 1029 58 10000 8.2 230 16:41 03.06.2020
1973 Clouds 13 1029 58 10000 8.2 220 16:20 03.06.2020
1974 Clouds 13 1029 62 10000 8.7 220 15:55 03.06.2020
1975 Clouds 13 1029 62 10000 8.7 220 15:37 03.06.2020
1976 Clouds 14 1029 67 10000 9.3 220 15:19 03.06.2020
1977 Rain 13 1029 67 10000 8.7 220 14:45 03.06.2020
1978 Clouds 14 1029 71 10000 8.7 210 14:24 03.06.2020
1979 Clouds 14 1029 71 10000 8.7 210 13:54 03.06.2020
1980 Clouds 14 1028 72 10000 9.3 190 13:36 03.06.2020
1981 Clouds 14 1028 72 10000 9.3 190 13:18 03.06.2020
1982 Rain 14 1028 76 10000 10.8 190 12:42 03.06.2020
1983 Clouds 14 1027 72 10000 8.2 200 12:20 03.06.2020
1984 Rain 14 1027 76 8000 9.8 210 11:44 03.06.2020
1985 Rain 14 1027 76 8000 9.8 210 11:26 03.06.2020
1986 Clouds 15 1026 63 10000 8.7 190 10:55 03.06.2020
1987 Clouds 15 1026 63 10000 8.7 190 10:37 03.06.2020
1988 Clouds 15 1025 59 10000 8.2 180 10:19 03.06.2020
1989 Clouds 15 1025 48 10000 9.8 180 09:41 03.06.2020
1990 Clouds 15 1024 51 10000 8.7 180 09:19 03.06.2020
1991 Clear 16 1024 51 10000 8.7 180 08:47 03.06.2020
1992 Clear 16 1024 51 10000 10.8 170 08:22 03.06.2020
1993 Clear 16 1024 51 10000 10.8 170 07:58 03.06.2020
1994 Clear 16 1023 51 10000 10.8 180 07:39 03.06.2020
1995 Clear 16 1023 51 10000 10.8 180 07:18 03.06.2020
1996 Clear 17 1023 48 10000 9.3 190 06:45 03.06.2020
1997 Clear 17 1022 48 10000 9.3 190 06:27 03.06.2020
1998 Clear 17 1022 45 10000 8.7 200 05:45 03.06.2020
1999 Clear 17 1022 45 10000 7.7 210 04:30 03.06.2020
2000 Clouds 17 1022 48 10000 8.2 210 03:42 03.06.2020
2001 Clouds 16 1022 51 10000 8.7 240 02:42 03.06.2020
2002 Clear 15 1021 51 10000 9.8 240 01:47 03.06.2020
2003 Clear 12 1020 62 10000 7.7 240 00:41 03.06.2020
2004 Clear 12 1019 66 10000 7.7 240 00:22 03.06.2020
2005 Clear 11 1019 66 10000 4.6 280 23:49 02.06.2020
2006 Clear 10 1019 66 10000 4.6 280 23:27 02.06.2020
2007 Clear 10 1018 66 10000 4.6 300 22:56 02.06.2020
2008 Clear 10 1018 66 10000 4.6 300 22:37 02.06.2020
2009 Clear 10 1018 66 10000 5.7 280 22:18 02.06.2020
2010 Clear 10 1018 76 10000 5.7 270 21:55 02.06.2020
2011 Clear 10 1018 76 10000 5.7 270 21:36 02.06.2020
2012 Clear 10 1018 70 10000 4.1 300 21:18 02.06.2020
2013 Clear 10 1018 70 10000 4.1 300 21:18 02.06.2020
2014 Clear 10 1018 70 10000 5.7 310 20:55 02.06.2020
2015 Clear 10 1018 70 10000 5.7 310 20:36 02.06.2020
2016 Clear 9 1017 70 10000 4.6 320 20:18 02.06.2020
2017 Clear 9 1018 70 10000 5.1 310 19:41 02.06.2020
2018 Clear 9 1018 70 10000 5.1 310 19:41 02.06.2020
2019 Clear 10 1017 66 10000 5.7 290 19:23 02.06.2020
2020 Clear 10 1017 66 10000 6.7 280 18:56 02.06.2020
2021 Clear 9 1017 66 10000 6.7 280 18:38 02.06.2020
2022 Clear 9 1017 66 10000 5.7 290 18:19 02.06.2020
2023 Clear 9 1017 66 10000 4.6 300 17:43 02.06.2020
2024 Clear 9 1017 66 10000 4.6 300 17:23 02.06.2020
2025 Clear 9 1017 66 10000 5.7 290 16:59 02.06.2020
2026 Clear 10 1018 66 10000 5.7 280 16:40 02.06.2020
2027 Clear 9 1018 66 10000 5.7 290 16:21 02.06.2020
2028 Clear 10 1018 66 10000 5.7 290 15:57 02.06.2020
2029 Clear 10 1018 66 10000 6.2 280 15:37 02.06.2020
2030 Clear 10 1018 66 10000 6.2 280 15:18 02.06.2020
2031 Clear 9 1018 66 10000 7.7 270 14:42 02.06.2020
2032 Clear 9 1018 66 10000 7.7 270 14:23 02.06.2020
2033 Clear 9 1018 62 10000 7.7 270 13:54 02.06.2020
2034 Clear 9 1018 62 10000 7.7 270 13:36 02.06.2020
2035 Clear 10 1017 57 10000 7.7 270 13:18 02.06.2020
2036 Clear 10 1017 62 10000 7.2 270 12:40 02.06.2020
2037 Clouds 10 1018 62 10000 8.2 260 12:22 02.06.2020
2038 Clouds 10 1018 62 10000 8.2 260 11:59 02.06.2020
2039 Clouds 11 1017 62 10000 8.2 260 11:39 02.06.2020
2040 Clouds 11 1016 58 10000 8.7 270 11:20 02.06.2020
2041 Clouds 11 1016 58 10000 7.7 270 10:50 02.06.2020
2042 Clouds 12 1016 58 10000 7.7 270 10:29 02.06.2020
2043 Clouds 13 1016 54 10000 8.7 260 09:59 02.06.2020
2044 Clear 13 1008 64 0 0.89 287 09:40 02.06.2020
2045 Clear 13 1007 63 0 0.45 180 09:20 02.06.2020
2046 Clear 14 1007 63 0 0.89 170 08:53 02.06.2020
2047 Clouds 14 1014 51 10000 5.7 250 08:27 02.06.2020
2048 Clouds 15 1014 58 10000 5.1 210 07:54 02.06.2020
2049 Clouds 15 1014 58 10000 5.1 210 07:31 02.06.2020
2050 Clouds 15 1014 54 10000 7.7 230 06:51 02.06.2020
2051 Clouds 15 1013 54 10000 7.7 240 06:31 02.06.2020
2052 Clouds 15 1013 54 10000 9.3 230 05:31 02.06.2020
2053 Clouds 13 1013 62 10000 8.2 260 03:54 02.06.2020
2054 Rain 10 1014 71 10000 7.2 260 02:31 02.06.2020
2055 Rain 9 1014 81 10000 4.1 290 01:48 02.06.2020
2056 Rain 8 1014 87 9000 7.7 260 00:40 02.06.2020
2057 Rain 8 1014 81 9000 5.7 260 00:20 02.06.2020
2058 Rain 8 1014 70 10000 6.7 260 23:39 01.06.2020
2059 Rain 9 1013 66 10000 7.7 260 23:19 01.06.2020
2060 Rain 9 1013 66 10000 7.7 260 22:56 01.06.2020
2061 Rain 9 1013 57 10000 5.7 270 22:38 01.06.2020
2062 Clouds 8 1012 57 10000 6.7 270 22:18 01.06.2020
2063 Clouds 8 1012 56 0 4.92 270 21:42 01.06.2020
2064 Clouds 8 1012 56 0 4.92 270 21:21 01.06.2020
2065 Clouds 8 1011 58 0 3.58 270 20:59 01.06.2020
2066 Clouds 8 1011 58 0 3.58 270 20:41 01.06.2020
2067 Clear 8 1011 58 0 3.58 270 20:20 01.06.2020
2068 Clear 9 1011 57 10000 7.7 290 19:58 01.06.2020
2069 Clear 9 1011 57 10000 7.7 290 19:39 01.06.2020
2070 Clear 9 1011 57 10000 7.7 300 19:20 01.06.2020
2071 Clear 9 1011 57 10000 8.2 290 18:57 01.06.2020
2072 Clear 9 1011 57 10000 8.2 290 18:38 01.06.2020
2073 Clear 9 1012 57 10000 6.2 300 18:19 01.06.2020
2074 Clear 9 1012 57 10000 6.7 290 17:41 01.06.2020
2075 Clear 9 1012 51 0 4.47 290 17:21 01.06.2020
2076 Clear 10 1012 53 10000 6.2 290 16:58 01.06.2020
2077 Clear 10 1012 53 10000 6.2 290 16:39 01.06.2020
2078 Clear 10 1012 57 10000 7.7 280 16:19 01.06.2020
2079 Clear 10 1012 57 10000 5.1 270 15:54 01.06.2020
2080 Clear 10 1012 57 10000 5.1 270 15:36 01.06.2020
2081 Clear 11 1012 57 10000 6.7 250 15:18 01.06.2020
2082 Clear 11 1012 57 10000 6.7 250 15:18 01.06.2020
2083 Clear 11 1012 57 10000 6.7 250 14:54 01.06.2020
2084 Clear 11 1012 54 10000 7.7 250 14:36 01.06.2020
2085 Clouds 11 1012 47 10000 10.3 260 14:18 01.06.2020
2086 Clouds 12 1012 47 10000 10.3 260 13:41 01.06.2020
2087 Clouds 13 1011 50 10000 7.7 260 13:21 01.06.2020
2088 Clouds 13 1011 50 10000 7.7 260 12:58 01.06.2020
2089 Clouds 13 1011 54 10000 7.7 260 12:39 01.06.2020
2090 Clouds 13 1011 54 10000 7.7 260 12:39 01.06.2020
2091 Rain 13 1011 50 10000 8.7 250 12:20 01.06.2020
2092 Clouds 14 1010 47 10000 7.2 280 11:56 01.06.2020
2093 Clouds 14 1010 47 10000 7.2 280 11:36 01.06.2020
2094 Rain 15 1009 48 10000 10.3 260 11:18 01.06.2020
2095 Clouds 15 1009 45 10000 10.3 280 10:39 01.06.2020
2096 Clouds 16 1008 39 10000 10.8 280 10:20 01.06.2020
2097 Clouds 17 1008 39 10000 10.8 280 09:57 01.06.2020
2098 Clouds 17 1007 34 10000 9.8 280 09:39 01.06.2020
2099 Clouds 18 1006 32 10000 9.3 280 09:20 01.06.2020
2100 Clouds 20 1006 28 10000 9.3 280 08:51 01.06.2020
2101 Clouds 20 1006 28 10000 9.3 280 08:28 01.06.2020
2102 Clouds 21 998 47 0 1.34 274 07:54 01.06.2020
2103 Clouds 21 998 46 0 2.68 291 07:36 01.06.2020
2104 Clouds 21 998 45 0 2.68 277 07:18 01.06.2020
2105 Clouds 22 997 46 0 3.58 276 06:43 01.06.2020
2106 Clouds 22 1005 31 10000 9.3 330 05:54 01.06.2020
2107 Clouds 21 1006 33 10000 9.3 340 04:46 01.06.2020
2108 Clouds 21 1008 40 10000 7.7 360 03:50 01.06.2020
2109 Clouds 20 1008 47 0 5.81 0 03:32 01.06.2020
2110 Clouds 19 1009 45 10000 8.7 360 02:32 01.06.2020
2111 Clouds 18 1009 48 10000 8.7 360 01:35 01.06.2020
2112 Clouds 17 1009 59 10000 7.7 360 00:58 01.06.2020
2113 Clouds 16 1009 59 10000 7.7 360 00:40 01.06.2020
2114 Clouds 16 1009 59 10000 7.7 360 00:21 01.06.2020
2115 Clouds 15 1009 63 10000 7.2 360 23:58 31.05.2020
2116 Clouds 15 1009 63 10000 5.7 360 23:39 31.05.2020
2117 Clouds 15 1010 67 10000 5.7 360 23:21 31.05.2020
2118 Clouds 15 1010 67 10000 5.7 360 22:57 31.05.2020
2119 Clouds 15 1010 72 10000 2.6 290 22:38 31.05.2020
2120 Clouds 15 1010 77 10000 4.1 340 22:20 31.05.2020
2121 Clouds 15 1010 87 10000 3.6 330 21:42 31.05.2020
2122 Clouds 15 1010 87 10000 2.1 280 21:24 31.05.2020
2123 Clouds 15 1010 87 10000 2.1 280 20:59 31.05.2020
2124 Clouds 15 1010 87 10000 5.26 337 20:58 31.05.2020
2125 Clouds 15 1010 87 10000 2.1 280 20:58 31.05.2020
2126 Clouds 15 1010 87 10000 4.81 335 20:40 31.05.2020
2127 Clouds 14 1011 82 10000 1.5 280 20:21 31.05.2020
2128 Clouds 14 1011 87 10000 4.81 335 19:56 31.05.2020
2129 Clouds 14 1011 87 10000 4.42 332 19:37 31.05.2020
2130 Clouds 14 1012 87 10000 2.6 230 19:19 31.05.2020
2131 Clouds 14 1011 87 10000 2.6 240 18:44 31.05.2020
2132 Clouds 14 1011 87 10000 2.6 240 18:25 31.05.2020
2133 Clouds 15 1012 82 10000 3.79 329 17:58 31.05.2020
2134 Clouds 15 1013 82 10000 1.5 270 17:39 31.05.2020
2135 Clouds 14 1013 82 10000 2.1 300 17:20 31.05.2020
2136 Clouds 15 1013 77 10000 3.1 330 16:41 31.05.2020
2137 Clouds 15 1014 82 10000 3.6 340 16:21 31.05.2020
2138 Clouds 15 1013 77 10000 3.1 330 16:21 31.05.2020
2139 Clouds 15 1014 77 10000 3.6 350 15:41 31.05.2020
2140 Clouds 15 1014 77 10000 3.6 350 15:23 31.05.2020
2141 Clouds 15 1014 77 10000 3.6 350 14:59 31.05.2020
2142 Clouds 15 1014 77 10000 3.6 330 14:40 31.05.2020
2143 Clouds 15 1013 79 0 3.72 332 14:19 31.05.2020
2144 Clouds 15 1015 77 10000 3.1 350 13:55 31.05.2020
2145 Clouds 15 1015 77 10000 3.1 350 13:37 31.05.2020
2146 Clouds 16 1015 72 10000 3.1 330 13:18 31.05.2020
2147 Clouds 17 1015 72 10000 3.1 330 12:42 31.05.2020
2148 Clear 17 1015 68 10000 2.6 310 12:23 31.05.2020
2149 Clear 17 1015 68 10000 2.6 310 12:23 31.05.2020
2150 Clear 17 1015 68 10000 2.6 310 11:55 31.05.2020
2151 Rain 17 1015 68 10000 2.1 330 11:36 31.05.2020
2152 Clear 17 1015 63 10000 2.6 360 11:18 31.05.2020
2153 Clear 17 1015 59 10000 4.1 30 10:43 31.05.2020
2154 Clear 18 1015 59 10000 4.1 30 10:25 31.05.2020
2155 Clear 18 1008 75 0 0.89 308 10:25 31.05.2020
2156 Clear 18 1008 73 0 1.34 335 09:58 31.05.2020
2157 Clear 18 1008 68 0 0.45 290 09:40 31.05.2020
2158 Clear 19 1015 52 10000 3.1 10 09:20 31.05.2020
2159 Clear 20 1015 46 10000 3.6 10 08:43 31.05.2020
2160 Clouds 20 1015 46 10000 4.1 350 08:24 31.05.2020
2161 Clouds 20 1015 46 10000 4.6 350 07:50 31.05.2020
2162 Clouds 20 1015 46 10000 4.6 350 07:22 31.05.2020
2163 Clouds 20 1015 43 10000 5.1 360 06:57 31.05.2020
2164 Clouds 20 1015 43 10000 5.1 360 06:57 31.05.2020
2165 Clouds 20 1015 46 10000 5.1 360 06:36 31.05.2020
2166 Clouds 20 1016 49 10000 5.7 360 05:55 31.05.2020
2167 Clouds 20 1016 52 10000 5.7 350 05:37 31.05.2020
2168 Clouds 18 1018 63 10000 6.7 330 04:18 31.05.2020
2169 Clouds 17 1018 63 10000 6.2 330 03:44 31.05.2020
2170 Clouds 17 1019 72 10000 3.1 290 02:49 31.05.2020
2171 Clouds 16 1019 77 10000 3.6 340 01:46 31.05.2020
2172 Clouds 16 1019 82 10000 4.1 340 00:46 31.05.2020
2173 Clouds 14 1019 82 10000 4.1 340 00:28 31.05.2020
2174 Clouds 13 1019 93 10000 2.6 20 23:43 30.05.2020
2175 Clouds 13 1019 93 10000 2.6 20 23:25 30.05.2020
2176 Clouds 12 1019 93 10000 2.6 10 22:58 30.05.2020
2177 Clouds 12 1020 93 10000 3.44 339 22:40 30.05.2020
2178 Clouds 12 1019 93 10000 0.5 290 22:21 30.05.2020
2179 Rain 12 1020 93 10000 2.6 290 21:55 30.05.2020
2180 Rain 12 1020 93 10000 2.6 290 21:36 30.05.2020
2181 Clouds 12 1020 93 10000 2.6 280 21:18 30.05.2020
2182 Clouds 12 1019 93 10000 2.1 270 20:54 30.05.2020
2183 Clouds 12 1019 93 10000 2.1 270 20:36 30.05.2020
2184 Clouds 12 1019 93 10000 2.1 320 20:18 30.05.2020
2185 Clouds 12 1019 87 10000 0.5 50 19:41 30.05.2020
2186 Clouds 12 1020 87 10000 3.1 330 19:21 30.05.2020
2187 Clouds 13 1020 87 10000 2.6 310 18:44 30.05.2020
2188 Clouds 13 1021 87 10000 4.6 300 18:21 30.05.2020
2189 Clouds 13 1020 87 10000 3.1 360 17:46 30.05.2020
2190 Clear 13 1020 87 10000 3.1 360 17:26 30.05.2020
2191 Clear 14 1020 93 10000 4.1 320 16:59 30.05.2020
2192 Clouds 14 1021 87 10000 3.1 310 16:41 30.05.2020
2193 Clouds 14 1021 87 10000 3.1 310 16:21 30.05.2020
2194 Clear 15 1021 82 10000 3.6 340 15:45 30.05.2020
2195 Clear 15 1021 82 10000 5.7 10 15:26 30.05.2020
2196 Clear 15 1022 82 10000 5.1 10 14:46 30.05.2020
2197 Clear 15 1022 82 10000 5.1 10 14:27 30.05.2020
2198 Clouds 15 1022 77 10000 2.1 350 13:46 30.05.2020
2199 Clouds 15 1023 77 10000 3.6 350 13:27 30.05.2020
2200 Clouds 15 1023 77 10000 3.6 350 12:55 30.05.2020
2201 Rain 15 1023 77 10000 3.6 320 12:36 30.05.2020
2202 Rain 15 1023 77 10000 3.1 340 12:18 30.05.2020
2203 Clear 16 1023 72 10000 2.6 10 11:41 30.05.2020
2204 Clear 16 1023 68 10000 3.1 10 11:23 30.05.2020
2205 Clear 16 1023 68 10000 3.1 10 10:58 30.05.2020
2206 Clear 16 1023 67 0 3.13 45 10:58 30.05.2020
2207 Clouds 16 1023 68 10000 4.1 20 10:38 30.05.2020
2208 Clouds 17 1023 72 10000 5.7 30 10:20 30.05.2020
2209 Clouds 17 1023 72 10000 5.1 30 09:44 30.05.2020
2210 Clouds 17 1023 72 10000 5.1 30 09:25 30.05.2020
2211 Clouds 17 1023 63 10000 7.2 40 08:45 30.05.2020
2212 Clouds 18 1023 63 10000 7.2 40 08:27 30.05.2020
2213 Clear 18 1016 77 0 0.89 277 07:41 30.05.2020
2214 Clear 18 1016 77 0 1.34 294 07:20 30.05.2020
2215 Clear 18 1016 73 0 1.34 230 06:31 30.05.2020
2216 Clouds 19 1025 63 10000 4.6 10 05:52 30.05.2020
2217 Clouds 19 1025 63 10000 4.6 10 05:20 30.05.2020
2218 Clouds 18 1026 68 10000 2.6 310 03:38 30.05.2020
2219 Clouds 16 1027 77 10000 3.1 320 02:29 30.05.2020
2220 Clouds 15 1027 82 10000 3.6 320 01:40 30.05.2020
2221 Clouds 12 1028 87 10000 3.1 340 00:37 30.05.2020
2222 Clouds 11 1028 93 10000 3.6 330 00:18 30.05.2020
2223 Clouds 11 1028 100 10000 3.1 320 23:42 29.05.2020
2224 Clouds 11 1028 100 10000 3.1 320 23:21 29.05.2020
2225 Clouds 11 1027 100 10000 3.6 320 22:58 29.05.2020
2226 Clouds 11 1027 93 9000 3.6 340 22:40 29.05.2020
2227 Mist 11 1027 93 8000 3.1 330 22:19 29.05.2020
2228 Mist 11 1027 93 8000 3.1 330 21:58 29.05.2020
2229 Clouds 11 1027 93 9000 3.1 330 21:36 29.05.2020
2230 Mist 11 1027 100 9000 3.1 290 21:18 29.05.2020
2231 Clouds 11 1026 100 10000 2.6 320 20:44 29.05.2020
2232 Mist 11 1026 100 9000 3.1 290 20:20 29.05.2020
2233 Mist 11 1026 100 9000 3.1 290 19:59 29.05.2020
2234 Mist 11 1026 93 10000 3.1 290 19:39 29.05.2020
2235 Mist 11 1027 93 10000 3.1 290 19:21 29.05.2020
2236 Clouds 11 1027 93 10000 2.6 310 18:46 29.05.2020
2237 Clouds 11 1027 93 10000 3.6 350 18:19 29.05.2020
2238 Clouds 12 1027 93 10000 3.6 350 17:56 29.05.2020
2239 Clouds 12 1027 93 10000 3.1 340 17:38 29.05.2020
2240 Rain 12 1027 93 10000 3.6 340 17:19 29.05.2020
2241 Rain 12 1027 93 10000 2.6 330 16:43 29.05.2020
2242 Clouds 13 1027 93 10000 3.1 340 16:25 29.05.2020
2243 Clouds 12 1028 93 10000 2.6 350 15:56 29.05.2020
2244 Clouds 13 1028 93 10000 2.6 350 15:38 29.05.2020
2245 Clouds 13 1028 87 10000 2.1 290 15:19 29.05.2020
2246 Clouds 13 1028 93 10000 3.1 290 14:49 29.05.2020
2247 Clouds 13 1028 93 10000 3.1 290 14:23 29.05.2020
2248 Clouds 13 1028 93 10000 2.6 300 13:58 29.05.2020
2249 Clouds 13 1028 87 10000 2.6 310 13:39 29.05.2020
2250 Clouds 13 1028 87 10000 1.5 350 13:18 29.05.2020
2251 Clouds 13 1028 87 10000 2.1 320 12:43 29.05.2020
2252 Clouds 13 1028 87 10000 2.1 320 12:24 29.05.2020
2253 Clouds 14 1027 87 10000 1.92 119 11:46 29.05.2020
2254 Clouds 14 1027 87 10000 1.92 119 11:46 29.05.2020
2255 Clouds 14 1027 87 10000 2.66 116 11:27 29.05.2020
2256 Clouds 14 1027 87 10000 2.66 116 11:27 29.05.2020
2257 Clouds 14 1027 87 10000 2.66 116 10:58 29.05.2020
2258 Rain 14 1027 87 10000 2.66 116 10:38 29.05.2020
2259 Rain 15 1027 87 10000 3.1 210 10:20 29.05.2020
2260 Rain 15 1027 87 10000 3.1 230 09:44 29.05.2020
2261 Rain 15 1027 87 10000 4.6 220 09:20 29.05.2020
2262 Rain 15 1027 87 10000 4.6 220 08:57 29.05.2020
2263 Rain 15 1026 93 10000 3.1 240 08:39 29.05.2020
2264 Rain 15 1026 93 10000 4.6 230 08:20 29.05.2020
2265 Drizzle 15 1026 87 10000 4.6 190 07:44 29.05.2020
2266 Drizzle 15 1026 87 10000 4.6 190 07:26 29.05.2020
2267 Rain 15 1026 93 10000 3.6 260 06:49 29.05.2020
2268 Rain 15 1026 93 10000 3.6 260 06:28 29.05.2020
2269 Rain 15 1026 93 9000 6.7 160 05:53 29.05.2020
2270 Rain 15 1019 92 0 0.45 68 03:44 29.05.2020
2271 Rain 14 1027 82 10000 3.1 320 01:47 29.05.2020
2272 Rain 14 1027 82 10000 3.1 320 01:25 29.05.2020
2273 Rain 14 1027 82 10000 3.1 320 01:25 29.05.2020
2274 Rain 13 1026 82 10000 3.6 320 00:47 29.05.2020
2275 Rain 12 1026 87 10000 3.6 340 00:22 29.05.2020
2276 Rain 11 1025 82 10000 3.1 320 23:40 28.05.2020
2277 Rain 11 1026 82 0 2.68 315 23:19 28.05.2020
2278 Rain 11 1025 87 10000 3.1 300 22:45 28.05.2020
2279 Rain 11 1024 87 10000 2.6 330 22:27 28.05.2020
2280 Rain 11 1024 87 10000 2.6 330 21:59 28.05.2020
2281 Clouds 11 1024 93 10000 2.6 240 21:40 28.05.2020
2282 Rain 12 1024 87 10000 4.1 250 21:21 28.05.2020
2283 Rain 12 1024 87 10000 4.1 250 20:58 28.05.2020
2284 Rain 12 1024 93 10000 3.6 230 20:40 28.05.2020
2285 Rain 12 1024 93 10000 2.1 270 20:19 28.05.2020
2286 Rain 12 1023 87 10000 2.6 310 19:58 28.05.2020
2287 Rain 12 1023 87 10000 2.6 310 19:40 28.05.2020
2288 Rain 12 1023 87 10000 2.6 310 19:20 28.05.2020
2289 Rain 12 1023 87 10000 2.1 350 18:55 28.05.2020
2290 Rain 12 1023 87 10000 2.1 350 18:36 28.05.2020
2291 Clouds 12 1023 87 10000 3.1 300 18:18 28.05.2020
2292 Clouds 12 1023 87 10000 2.6 330 17:40 28.05.2020
2293 Clouds 12 1023 82 10000 2.6 310 17:21 28.05.2020
2294 Clouds 12 1023 87 10000 3.1 310 16:46 28.05.2020
2295 Clouds 13 1023 82 10000 3.1 310 16:21 28.05.2020
2296 Clouds 13 1023 82 10000 3.1 310 15:56 28.05.2020
2297 Clouds 13 1023 77 10000 2.6 310 15:38 28.05.2020
2298 Clouds 13 1023 82 10000 3.1 240 15:19 28.05.2020
2299 Clouds 14 1023 82 10000 3.6 230 14:42 28.05.2020
2300 Clouds 14 1023 82 10000 4.1 220 14:23 28.05.2020
2301 Rain 14 1023 87 10000 3.1 230 13:46 28.05.2020
2302 Rain 14 1023 87 10000 3.1 230 13:28 28.05.2020
2303 Rain 15 1022 82 10000 3.6 210 12:57 28.05.2020
2304 Clouds 15 1022 82 10000 4.6 210 12:38 28.05.2020
2305 Clouds 15 1022 82 10000 4.1 220 12:18 28.05.2020
2306 Clouds 16 1021 82 10000 3.6 210 11:41 28.05.2020
2307 Clouds 16 1021 82 10000 3.6 210 11:23 28.05.2020
2308 Rain 16 1021 82 10000 2.6 210 10:56 28.05.2020
2309 Rain 17 1021 82 10000 2.6 210 10:37 28.05.2020
2310 Rain 17 1020 82 10000 2.6 190 10:18 28.05.2020
2311 Clouds 17 1020 77 10000 0.5 170 09:39 28.05.2020
2312 Clouds 18 1020 82 10000 2.1 170 09:19 28.05.2020
2313 Rain 18 1019 82 10000 2.6 150 08:45 28.05.2020
2314 Clear 18 1019 72 10000 3.6 160 08:26 28.05.2020
2315 Clouds 19 1019 68 10000 4.6 160 07:45 28.05.2020
2316 Clouds 20 1019 68 10000 4.6 160 07:25 28.05.2020
2317 Clouds 20 1019 60 10000 4.1 140 06:56 28.05.2020
2318 Clear 20 1019 56 10000 4.1 160 06:37 28.05.2020
2319 Clear 20 1019 56 10000 4.1 260 05:40 28.05.2020
2320 Clear 19 1019 52 10000 5.1 170 04:54 28.05.2020
2321 Clear 19 1020 52 10000 4.1 280 04:27 28.05.2020
2322 Clear 18 1021 59 10000 4.1 270 03:45 28.05.2020
2323 Clear 17 1021 67 10000 4.1 280 02:45 28.05.2020
2324 Clear 15 1021 72 10000 4.6 290 01:51 28.05.2020
2325 Clear 13 1021 82 10000 3.6 290 00:54 28.05.2020
2326 Clear 12 1021 93 10000 4.1 320 00:26 28.05.2020
2327 Haze 11 1020 93 10000 3.6 290 23:58 27.05.2020
2328 Haze 11 1020 93 10000 3.6 290 23:39 27.05.2020
2329 Haze 10 1020 87 10000 3.6 290 23:20 27.05.2020
2330 Haze 10 1020 87 10000 3.6 290 22:56 27.05.2020
2331 Clear 10 1020 87 10000 3.6 320 22:38 27.05.2020
2332 Mist 11 1020 87 10000 3.6 290 22:19 27.05.2020
2333 Mist 11 1019 87 10000 2.6 290 21:41 27.05.2020
2334 Rain 11 1019 93 10000 3.1 330 21:23 27.05.2020
2335 Rain 11 1019 93 10000 3.1 330 20:59 27.05.2020
2336 Clear 11 1019 93 10000 2.6 340 20:41 27.05.2020
2337 Clouds 12 1020 87 10000 3.6 350 20:21 27.05.2020
2338 Clouds 12 1020 87 10000 3.6 350 19:57 27.05.2020
2339 Clouds 12 1020 87 10000 2.6 320 19:39 27.05.2020
2340 Clouds 12 1020 87 10000 2.6 320 19:18 27.05.2020
2341 Clouds 12 1020 87 10000 3.6 350 18:40 27.05.2020
2342 Clouds 12 1020 87 10000 2.6 330 18:19 27.05.2020
2343 Clouds 12 1020 87 10000 2.6 330 18:19 27.05.2020
2344 Rain 12 1019 87 10000 2.6 320 17:56 27.05.2020
2345 Rain 12 1019 87 10000 2.6 320 17:37 27.05.2020
2346 Rain 12 1019 93 10000 2.6 330 17:18 27.05.2020
2347 Clouds 12 1020 87 10000 2.6 360 16:54 27.05.2020
2348 Clouds 12 1020 89 0 0.89 304 16:36 27.05.2020
2349 Clouds 12 1020 87 10000 2.81 288 16:18 27.05.2020
2350 Clouds 12 1020 87 10000 2.81 288 15:40 27.05.2020
2351 Clouds 12 1020 87 10000 2.1 280 15:21 27.05.2020
2352 Clouds 12 1021 88 0 0.45 344 14:43 27.05.2020
2353 Clouds 13 1020 82 10000 2.6 310 14:21 27.05.2020
2354 Clouds 13 1020 82 10000 2.6 310 13:55 27.05.2020
2355 Clouds 13 1021 82 10000 2.27 312 13:36 27.05.2020
2356 Clouds 14 1021 82 10000 1.38 338 13:18 27.05.2020
2357 Clouds 14 1020 82 10000 1.38 338 12:40 27.05.2020
2358 Clouds 14 1021 82 10000 2.1 270 12:22 27.05.2020
2359 Clouds 14 1020 87 10000 2.1 220 11:40 27.05.2020
2360 Clouds 14 1020 87 10000 2.1 190 11:22 27.05.2020
2361 Clouds 15 1020 87 10000 2.1 190 10:58 27.05.2020
2362 Clouds 15 1020 82 10000 3.1 220 10:39 27.05.2020
2363 Clouds 15 1020 82 10000 3.1 220 10:39 27.05.2020
2364 Clouds 15 1020 82 10000 3.1 220 10:39 27.05.2020
2365 Clouds 15 1020 87 10000 2.6 150 10:20 27.05.2020
2366 Clouds 16 1019 82 10000 2.6 140 09:42 27.05.2020
2367 Clouds 16 1019 82 10000 3.1 160 09:23 27.05.2020
2368 Clouds 16 1019 82 10000 3.1 160 08:58 27.05.2020
2369 Clouds 17 1019 77 10000 3.6 170 08:40 27.05.2020
2370 Clouds 17 1019 77 10000 3.6 160 08:22 27.05.2020
2371 Clouds 18 1019 68 10000 3.6 150 07:51 27.05.2020
2372 Clouds 18 1019 68 10000 3.6 150 07:51 27.05.2020
2373 Clouds 17 1019 68 10000 3.6 150 07:33 27.05.2020
2374 Clouds 17 1019 68 10000 3.6 150 07:33 27.05.2020
2375 Clouds 18 1020 77 10000 4.6 170 06:52 27.05.2020
2376 Clouds 18 1020 72 10000 4.6 160 06:24 27.05.2020
2377 Clouds 18 1020 77 10000 4.6 170 05:50 27.05.2020
2378 Clouds 18 1021 77 10000 4.6 160 05:23 27.05.2020
2379 Rain 17 1022 77 10000 5.1 170 02:46 27.05.2020
2380 Rain 16 1022 72 10000 2.6 260 02:24 27.05.2020
2381 Rain 14 1022 77 10000 3.6 290 01:31 27.05.2020
2382 Rain 14 1022 77 10000 3.6 290 01:31 27.05.2020
2383 Clouds 13 1022 87 10000 4.1 290 00:47 27.05.2020
2384 Rain 12 1022 82 10000 3.1 330 00:21 27.05.2020
2385 Rain 12 1022 82 10000 3.1 330 23:58 26.05.2020
2386 Clouds 12 1022 87 10000 2.6 270 23:39 26.05.2020
2387 Clouds 12 1022 87 10000 3.1 250 23:21 26.05.2020
2388 Clouds 12 1022 87 10000 3.1 250 22:57 26.05.2020
2389 Clouds 12 1021 87 10000 3.6 270 22:37 26.05.2020
2390 Clouds 12 1022 87 10000 4.1 300 22:19 26.05.2020
2391 Clouds 12 1022 87 10000 4.1 300 21:55 26.05.2020
2392 Clouds 12 1022 93 10000 4.6 300 21:36 26.05.2020
2393 Clouds 12 1021 93 10000 3.6 290 21:18 26.05.2020
2394 Clouds 12 1022 90 0 2.68 298 20:41 26.05.2020
2395 Rain 12 1022 91 0 1.34 300 20:20 26.05.2020
2396 Rain 13 1023 91 0 1.79 312 19:41 26.05.2020
2397 Rain 13 1022 87 10000 4.6 340 19:22 26.05.2020
2398 Rain 13 1022 87 10000 3.1 350 18:59 26.05.2020
2399 Rain 13 1022 87 10000 2.6 350 18:39 26.05.2020
2400 Rain 13 1022 87 10000 5.1 250 18:21 26.05.2020
2401 Rain 13 1022 82 10000 5.1 250 17:42 26.05.2020
2402 Rain 13 1022 82 10000 5.1 250 17:24 26.05.2020
2403 Rain 13 1022 82 10000 4.6 230 16:55 26.05.2020
2404 Clouds 13 1023 82 10000 4.6 240 16:36 26.05.2020
2405 Clear 13 1023 88 0 1.34 309 16:18 26.05.2020
2406 Clear 13 1023 88 0 1.79 322 15:41 26.05.2020
2407 Clear 13 1027 89 0 3.74 161 15:20 26.05.2020
2408 Clear 13 1023 87 0 2.24 321 14:56 26.05.2020
2409 Clouds 14 1023 77 10000 5.1 160 14:37 26.05.2020
2410 Clouds 14 1023 77 10000 3.6 230 14:18 26.05.2020
2411 Drizzle 15 1022 77 10000 5.1 230 13:41 26.05.2020
2412 Drizzle 15 1022 77 10000 5.1 230 13:41 26.05.2020
2413 Clouds 14 1023 84 0 0.89 301 13:23 26.05.2020
2414 Clouds 14 1023 82 10000 7.2 180 12:44 26.05.2020
2415 Clouds 15 1022 72 10000 5.7 170 12:23 26.05.2020
2416 Clouds 15 1022 72 10000 5.7 170 11:59 26.05.2020
2417 Clouds 15 1022 77 10000 6.7 160 11:41 26.05.2020
2418 Clouds 15 1022 82 10000 3.6 210 11:20 26.05.2020
2419 Clouds 16 1022 82 10000 3.6 210 10:57 26.05.2020
2420 Rain 16 1022 82 10000 5.7 180 10:37 26.05.2020
2421 Rain 16 1022 77 10000 7.7 160 10:18 26.05.2020
2422 Rain 17 1022 77 10000 5.7 180 09:38 26.05.2020
2423 Rain 17 1021 77 10000 6.7 170 09:19 26.05.2020
2424 Rain 17 1021 63 10000 7.7 160 08:41 26.05.2020
2425 Rain 17 1021 63 10000 7.7 150 08:22 26.05.2020
2426 Rain 17 1021 77 10000 8.2 160 07:44 26.05.2020
2427 Rain 17 1021 77 10000 8.2 160 07:44 26.05.2020
2428 Rain 18 1021 63 10000 7.7 150 07:24 26.05.2020
2429 Rain 18 1021 63 10000 7.7 150 06:54 26.05.2020
2430 Rain 18 1021 63 10000 9.8 150 06:35 26.05.2020
2431 Rain 18 1021 55 10000 8.7 150 05:48 26.05.2020
2432 Rain 18 1021 55 10000 8.7 150 05:28 26.05.2020
2433 Clouds 18 1021 59 10000 9.8 140 04:50 26.05.2020
2434 Clouds 18 1021 59 10000 9.8 140 04:31 26.05.2020
2435 Rain 17 1022 68 10000 8.7 140 03:52 26.05.2020
2436 Rain 16 1015 93 0 1.79 171 02:44 26.05.2020
2437 Rain 14 1022 93 10000 8.2 190 01:48 26.05.2020
2438 Rain 14 1022 93 10000 8.2 200 01:21 26.05.2020
2439 Rain 14 1021 100 4000 7.7 200 00:37 26.05.2020
2440 Rain 13 1021 93 8000 8.7 190 00:18 26.05.2020
2441 Rain 14 1021 93 8000 8.7 190 23:54 25.05.2020
2442 Rain 13 1021 100 6000 9.3 190 23:36 25.05.2020
2443 Rain 13 1021 93 9000 8.7 190 23:18 25.05.2020
2444 Rain 13 1021 93 9000 8.7 190 23:18 25.05.2020
2445 Rain 13 1021 93 9000 8.7 190 22:54 25.05.2020
2446 Rain 13 1021 93 6000 9.8 190 22:36 25.05.2020
2447 Rain 13 1020 93 9000 10.3 190 22:18 25.05.2020
2448 Rain 13 1020 93 4000 9.8 200 21:54 25.05.2020
2449 Rain 14 1020 93 4000 9.8 200 21:36 25.05.2020
2450 Rain 14 1020 93 10000 11.8 200 21:18 25.05.2020
2451 Rain 13 1013 99 0 1.34 228 20:41 25.05.2020
2452 Rain 14 1020 93 10000 11.8 200 20:21 25.05.2020
2453 Rain 13 1020 93 10000 11.8 200 19:59 25.05.2020
2454 Rain 13 1020 93 10000 11.8 200 19:59 25.05.2020
2455 Rain 14 1020 93 10000 11.3 210 19:39 25.05.2020
2456 Rain 14 1020 93 10000 11.8 200 19:18 25.05.2020
2457 Rain 13 1020 93 10000 11.8 200 18:45 25.05.2020
2458 Rain 13 1020 93 10000 12.9 200 18:22 25.05.2020
2459 Rain 13 1020 93 10000 12.9 200 17:59 25.05.2020
2460 Rain 13 1020 93 10000 10.8 190 17:41 25.05.2020
2461 Rain 13 1020 93 10000 12.9 190 17:23 25.05.2020
2462 Rain 13 1020 100 10000 12.3 200 16:56 25.05.2020
2463 Rain 13 1020 100 10000 12.3 200 16:38 25.05.2020
2464 Rain 13 1013 99 0 0.45 171 16:19 25.05.2020
2465 Rain 13 1020 93 8000 11.8 200 15:44 25.05.2020
2466 Rain 13 1020 93 10000 12.3 200 15:19 25.05.2020
2467 Rain 13 1020 93 10000 12.3 200 14:58 25.05.2020
2468 Rain 13 1020 93 4500 12.9 200 14:38 25.05.2020
2469 Rain 13 1019 93 10000 10.8 210 14:19 25.05.2020
2470 Rain 14 1020 93 7000 10.3 200 13:40 25.05.2020
2471 Rain 14 1019 93 5000 11.3 200 13:21 25.05.2020
2472 Rain 14 1019 93 5000 11.3 200 12:58 25.05.2020
2473 Rain 14 1018 93 5000 13.4 200 12:38 25.05.2020
2474 Rain 14 1018 93 5000 11.8 200 12:20 25.05.2020
2475 Rain 14 1018 93 4000 13.9 200 11:40 25.05.2020
2476 Rain 13 1018 100 5000 12.9 200 11:20 25.05.2020
2477 Rain 13 1018 100 5000 12.9 200 10:57 25.05.2020
2478 Rain 14 1017 93 6000 13.9 200 10:39 25.05.2020
2479 Rain 14 1017 100 5000 14.4 200 10:20 25.05.2020
2480 Rain 14 1017 100 5000 14.4 200 10:20 25.05.2020
2481 Rain 14 1010 99 0 0.89 197 09:54 25.05.2020
2482 Rain 14 1010 97 0 0.45 267 09:36 25.05.2020
2483 Rain 14 1010 97 0 0.89 195 09:18 25.05.2020
2484 Rain 14 1017 87 10000 15.4 200 08:40 25.05.2020
2485 Rain 15 1016 82 10000 14.9 200 08:21 25.05.2020
2486 Rain 15 1016 82 10000 14.9 200 07:56 25.05.2020
2487 Rain 15 1016 77 10000 14.9 200 07:38 25.05.2020
2488 Rain 15 1009 90 0 0.45 228 07:38 25.05.2020
2489 Rain 15 1009 88 0 0.89 225 07:18 25.05.2020
2490 Rain 15 1016 77 10000 14.4 200 06:38 25.05.2020
2491 Rain 15 1016 82 10000 13.9 200 06:19 25.05.2020
2492 Rain 15 1017 87 10000 13.4 200 03:31 25.05.2020
2493 Rain 14 1017 87 10000 11.8 210 02:52 25.05.2020
2494 Rain 14 1017 87 10000 11.8 210 02:34 25.05.2020
2495 Rain 14 1017 82 10000 11.3 210 01:42 25.05.2020
2496 Rain 13 1016 77 10000 12.9 210 00:47 25.05.2020
2497 Rain 13 1016 72 10000 11.3 210 00:26 25.05.2020
2498 Rain 13 1009 83 0 0.89 159 23:59 24.05.2020
2499 Rain 13 1016 76 10000 10.3 210 23:39 24.05.2020
2500 Rain 13 1009 81 0 0.89 173 23:21 24.05.2020
2501 Rain 13 1009 80 0 0.89 173 22:56 24.05.2020
2502 Clouds 13 1015 76 10000 10.8 210 22:37 24.05.2020
2503 Clouds 13 1015 76 10000 10.3 210 22:18 24.05.2020
2504 Clouds 13 1015 76 10000 9.8 210 21:55 24.05.2020
2505 Clouds 13 1015 76 10000 9.8 210 21:37 24.05.2020
2506 Clouds 13 1015 72 10000 9.8 210 21:18 24.05.2020
2507 Clouds 13 1015 71 10000 10.3 210 20:43 24.05.2020
2508 Clouds 13 1015 71 10000 10.3 210 20:21 24.05.2020
2509 Clouds 13 1015 71 10000 9.8 210 19:58 24.05.2020
2510 Clouds 13 1015 71 10000 10.3 210 19:40 24.05.2020
2511 Clouds 13 1015 76 10000 11.8 210 19:19 24.05.2020
2512 Clouds 14 1015 76 10000 11.8 210 18:44 24.05.2020
2513 Clouds 14 1015 76 10000 11.8 210 18:24 24.05.2020
2514 Clouds 14 1015 76 10000 11.3 210 17:59 24.05.2020
2515 Clouds 14 1015 76 10000 11.8 200 17:40 24.05.2020
2516 Clouds 14 1015 76 10000 11.8 200 17:21 24.05.2020
2517 Clouds 14 1015 76 10000 10.3 210 17:21 24.05.2020
2518 Clouds 14 1015 76 10000 10.3 210 16:57 24.05.2020
2519 Clouds 14 1015 67 10000 10.8 210 16:38 24.05.2020
2520 Clouds 13 1008 75 0 0.45 200 16:20 24.05.2020
2521 Clouds 14 1015 67 10000 9.3 210 15:57 24.05.2020
2522 Clouds 14 1015 67 10000 9.3 210 15:38 24.05.2020
2523 Clouds 13 1015 71 10000 9.8 210 15:19 24.05.2020
2524 Clouds 14 1015 71 10000 11.8 210 14:45 24.05.2020
2525 Clouds 14 1015 67 10000 10.8 210 14:24 24.05.2020
2526 Clouds 14 1015 67 10000 14.4 200 13:59 24.05.2020
2527 Clouds 14 1015 67 10000 14.4 200 13:41 24.05.2020
2528 Rain 14 1015 62 10000 8.7 210 13:21 24.05.2020
2529 Rain 14 1015 62 10000 8.7 210 12:59 24.05.2020
2530 Clouds 14 1015 58 10000 9.3 230 12:40 24.05.2020
2531 Clouds 14 1015 58 10000 9.3 230 12:22 24.05.2020
2532 Clouds 15 1014 55 10000 9.3 220 11:59 24.05.2020
2533 Clouds 15 1014 59 10000 10.8 210 11:41 24.05.2020
2534 Clouds 15 1014 59 10000 10.8 210 11:41 24.05.2020
2535 Clouds 15 1014 59 10000 10.8 210 11:41 24.05.2020
2536 Clouds 15 1014 59 10000 11.8 210 11:22 24.05.2020
2537 Clouds 15 1014 59 10000 11.8 210 10:58 24.05.2020
2538 Clouds 15 1014 63 10000 12.9 210 10:39 24.05.2020
2539 Clouds 15 1013 59 10000 12.3 210 10:21 24.05.2020
2540 Rain 16 1013 63 10000 9.3 220 09:41 24.05.2020
2541 Clouds 16 1012 67 10000 13.4 200 09:19 24.05.2020
2542 Clouds 16 1012 67 10000 13.4 200 08:57 24.05.2020
2543 Rain 16 1012 67 10000 14.9 200 08:39 24.05.2020
2544 Rain 16 1012 67 10000 16.5 200 08:21 24.05.2020
2545 Rain 16 1012 67 10000 16.5 200 07:51 24.05.2020
2546 Rain 16 1011 63 10000 15.9 200 07:26 24.05.2020
2547 Rain 16 1011 67 10000 14.9 200 06:57 24.05.2020
2548 Rain 16 1011 72 10000 14.9 200 06:36 24.05.2020
2549 Clouds 17 1011 72 10000 15.9 200 05:21 24.05.2020
2550 Rain 16 1011 72 10000 14.9 200 03:42 24.05.2020
2551 Clouds 16 1011 77 10000 14.4 210 02:47 24.05.2020
2552 Rain 16 1011 72 10000 14.4 210 01:54 24.05.2020
2553 Rain 15 1011 67 10000 11.8 210 00:42 24.05.2020
2554 Clouds 15 1010 67 10000 12.9 210 00:23 24.05.2020
2555 Clouds 14 1010 63 10000 11.3 210 23:54 23.05.2020
2556 Clouds 15 1010 63 10000 11.3 210 23:36 23.05.2020
2557 Clouds 14 1010 63 10000 11.8 210 23:18 23.05.2020
2558 Clouds 14 1009 63 10000 9.8 210 22:55 23.05.2020
2559 Clouds 14 1009 63 10000 9.8 210 22:36 23.05.2020
2560 Clouds 14 1009 63 10000 11.8 210 22:18 23.05.2020
2561 Clouds 14 1002 74 0 0.89 289 21:42 23.05.2020
2562 Clouds 14 1002 74 0 0.45 205 21:21 23.05.2020
2563 Clouds 14 1002 74 0 0.45 155 20:59 23.05.2020
2564 Clouds 14 1002 74 0 0.45 164 20:39 23.05.2020
2565 Clouds 14 1002 74 0 0.45 164 20:19 23.05.2020
2566 Clouds 14 1008 67 10000 5.7 250 19:58 23.05.2020
2567 Clouds 14 1009 67 10000 6.2 260 19:40 23.05.2020
2568 Clouds 14 1009 67 10000 7.2 260 19:19 23.05.2020
2569 Clouds 14 1009 67 10000 6.2 250 18:41 23.05.2020
2570 Clouds 14 1009 67 10000 6.2 250 18:41 23.05.2020
2571 Clouds 14 1009 67 10000 6.2 250 18:22 23.05.2020
2572 Clouds 14 1009 67 10000 6.2 250 18:22 23.05.2020
2573 Clouds 14 1009 67 10000 6.2 250 17:58 23.05.2020
2574 Clouds 14 1009 67 10000 6.2 250 17:58 23.05.2020
2575 Clouds 14 1009 67 10000 7.2 250 17:40 23.05.2020
2576 Clouds 14 1008 67 10000 7.2 250 17:20 23.05.2020
2577 Clouds 14 1008 67 10000 7.2 250 16:59 23.05.2020
2578 Clouds 14 1009 67 10000 7.2 250 16:41 23.05.2020
2579 Clouds 14 1008 67 10000 7.2 250 16:20 23.05.2020
2580 Clouds 14 1008 67 10000 6.2 260 15:56 23.05.2020
2581 Clouds 14 1008 67 10000 6.2 260 15:38 23.05.2020
2582 Clouds 14 1009 67 10000 6.2 250 15:20 23.05.2020
2583 Rain 14 1009 62 10000 7.2 240 14:41 23.05.2020
2584 Rain 14 1009 62 10000 6.7 240 14:23 23.05.2020
2585 Clouds 14 1008 62 10000 7.2 240 13:42 23.05.2020
2586 Clouds 14 1008 62 10000 7.2 240 13:19 23.05.2020
2587 Clouds 14 1008 62 10000 7.2 240 12:59 23.05.2020
2588 Clouds 14 1008 62 10000 8.2 240 12:41 23.05.2020
2589 Clouds 14 1008 62 10000 7.7 240 12:19 23.05.2020
2590 Clouds 14 1008 62 10000 7.7 240 11:57 23.05.2020
2591 Clouds 14 1008 67 10000 6.7 240 11:37 23.05.2020
2592 Clouds 14 1007 67 10000 6.2 240 11:18 23.05.2020
2593 Rain 14 1007 67 10000 6.7 250 10:54 23.05.2020
2594 Clouds 14 1007 72 0 4.47 270 10:36 23.05.2020
2595 Clouds 13 1008 80 0 3.58 254 10:18 23.05.2020
2596 Clouds 13 1007 71 0 5.36 270 09:41 23.05.2020
2597 Rain 14 1007 67 10000 8.2 260 09:23 23.05.2020
2598 Rain 14 1006 72 10000 6.7 260 08:56 23.05.2020
2599 Rain 14 1006 72 10000 6.7 260 08:37 23.05.2020
2600 Rain 14 1007 72 10000 6.2 270 08:18 23.05.2020
2601 Rain 15 1007 67 10000 8.2 250 07:43 23.05.2020
2602 Rain 15 1007 63 10000 7.2 250 07:22 23.05.2020
2603 Clouds 16 1006 63 10000 7.7 250 06:42 23.05.2020
2604 Clouds 15 1006 63 10000 8.7 240 05:51 23.05.2020
2605 Rain 17 1007 55 10000 8.7 230 03:52 23.05.2020
2606 Rain 17 1007 55 10000 8.7 230 03:23 23.05.2020
2607 Rain 17 1007 55 10000 8.7 230 03:23 23.05.2020
2608 Clouds 17 1007 51 10000 8.2 250 02:31 23.05.2020
2609 Rain 16 1007 59 10000 8.7 260 01:46 23.05.2020
2610 Clouds 15 1007 62 10000 8.7 270 01:18 23.05.2020
2611 Clouds 14 1007 62 10000 8.2 270 00:41 23.05.2020
2612 Clouds 13 1007 62 10000 7.7 260 23:59 22.05.2020
2613 Clouds 12 1006 66 10000 8.2 260 23:40 22.05.2020
2614 Clouds 12 1006 66 10000 7.7 260 23:20 22.05.2020
2615 Clouds 12 1006 66 10000 7.7 260 22:58 22.05.2020
2616 Clouds 12 1006 66 10000 8.2 250 22:39 22.05.2020
2617 Clouds 12 1006 66 10000 8.2 250 22:20 22.05.2020
2618 Rain 13 1006 66 10000 8.7 250 21:46 22.05.2020
2619 Rain 13 1006 66 10000 8.2 250 21:22 22.05.2020
2620 Rain 12 1006 66 10000 8.2 250 20:59 22.05.2020
2621 Rain 12 1006 66 10000 8.7 260 20:40 22.05.2020
2622 Rain 12 1006 66 10000 8.7 250 20:20 22.05.2020
2623 Rain 12 1006 66 10000 8.7 250 19:44 22.05.2020
2624 Rain 12 1006 66 10000 8.7 250 19:26 22.05.2020
2625 Drizzle 12 1006 66 10000 9.3 250 18:55 22.05.2020
2626 Drizzle 12 1006 66 10000 9.3 250 18:37 22.05.2020
2627 Drizzle 12 1006 66 10000 9.3 250 18:37 22.05.2020
2628 Rain 12 1006 71 10000 9.8 250 18:19 22.05.2020
2629 Rain 12 1006 76 10000 8.2 250 17:40 22.05.2020
2630 Rain 11 1007 76 10000 7.7 260 17:20 22.05.2020
2631 Rain 11 1007 76 10000 7.7 260 16:57 22.05.2020
2632 Rain 11 1007 76 10000 8.2 270 16:39 22.05.2020
2633 Rain 11 1007 75 0 8.05 270 16:19 22.05.2020
2634 Rain 11 1008 81 10000 9.8 270 15:54 22.05.2020
2635 Rain 11 1008 81 10000 9.8 270 15:36 22.05.2020
2636 Rain 11 1008 76 10000 8.7 250 15:18 22.05.2020
2637 Rain 14 1008 66 9000 9.3 240 14:39 22.05.2020
2638 Rain 14 1008 58 10000 10.3 260 14:20 22.05.2020
2639 Rain 14 1009 61 0 6.71 263 13:42 22.05.2020
2640 Rain 14 1009 61 0 6.71 263 13:42 22.05.2020
2641 Clouds 14 1009 61 0 6.26 281 13:19 22.05.2020
2642 Clouds 14 1009 61 0 5.36 283 12:43 22.05.2020
2643 Rain 14 1012 68 0 9.64 248 12:24 22.05.2020
2644 Rain 14 1009 54 0 5.81 270 11:55 22.05.2020
2645 Rain 14 1009 58 10000 7.7 250 11:36 22.05.2020
2646 Rain 14 1009 62 10000 8.2 250 11:18 22.05.2020
2647 Rain 15 1009 62 10000 6.2 250 10:40 22.05.2020
2648 Rain 15 1009 62 10000 6.2 250 10:22 22.05.2020
2649 Rain 15 1009 62 10000 7.7 230 09:59 22.05.2020
2650 Drizzle 15 1008 62 10000 7.2 240 09:40 22.05.2020
2651 Clouds 15 1002 71 0 0.45 183 09:18 22.05.2020
2652 Clouds 15 1002 72 0 0.89 206 08:43 22.05.2020
2653 Clouds 15 1002 72 0 0.45 191 08:20 22.05.2020
2654 Clouds 15 1001 73 0 0.45 191 07:54 22.05.2020
2655 Clouds 15 1001 74 0 0.89 190 07:24 22.05.2020
2656 Clouds 15 1008 63 10000 12.9 220 06:55 22.05.2020
2657 Clouds 15 1008 63 10000 12.9 220 06:33 22.05.2020
2658 Clouds 15 1008 63 10000 12.3 210 05:38 22.05.2020
2659 Clouds 15 1008 63 10000 12.3 210 04:51 22.05.2020
2660 Clouds 15 1010 63 10000 11.8 210 04:20 22.05.2020
2661 Clouds 15 1010 58 10000 8.7 240 03:47 22.05.2020
2662 Rain 14 1010 62 10000 10.3 250 02:59 22.05.2020
2663 Clouds 12 1010 66 10000 8.7 250 01:53 22.05.2020
2664 Clouds 12 1010 71 10000 8.7 250 01:25 22.05.2020
2665 Clouds 11 1010 76 10000 7.2 250 00:40 22.05.2020
2666 Clouds 10 1010 81 10000 7.2 260 00:22 22.05.2020
2667 Rain 10 1010 87 10000 7.7 260 23:42 21.05.2020
2668 Rain 10 1010 87 10000 7.7 260 23:24 21.05.2020
2669 Rain 9 1009 87 10000 7.7 250 22:58 21.05.2020
2670 Rain 10 1009 87 10000 7.7 250 22:38 21.05.2020
2671 Rain 9 1009 87 10000 9.8 270 22:20 21.05.2020
2672 Rain 9 1009 87 10000 9.8 270 21:58 21.05.2020
2673 Rain 9 1009 93 10000 9.3 270 21:39 21.05.2020
2674 Rain 9 1009 93 10000 10.3 270 21:19 21.05.2020
2675 Rain 9 1009 87 8000 11.8 260 20:43 21.05.2020
2676 Rain 9 1009 87 8000 12.3 260 20:22 21.05.2020
2677 Rain 9 1009 93 8000 11.8 260 19:41 21.05.2020
2678 Rain 9 1009 93 5000 13.4 250 19:21 21.05.2020
2679 Rain 9 1009 93 5000 13.4 250 18:59 21.05.2020
2680 Rain 9 1010 93 5000 13.4 260 18:39 21.05.2020
2681 Rain 9 1009 87 8000 15.4 240 18:19 21.05.2020
2682 Rain 9 1009 87 8000 15.4 240 17:58 21.05.2020
2683 Rain 9 1010 87 6000 12.9 250 17:39 21.05.2020
2684 Rain 9 1011 87 0 6.26 252 17:21 21.05.2020
2685 Rain 9 1010 93 6000 14.4 230 16:46 21.05.2020
2686 Rain 10 1010 93 6000 14.9 210 16:24 21.05.2020
2687 Rain 10 1011 93 10000 9.3 230 15:47 21.05.2020
2688 Drizzle 10 1011 93 10000 9.3 230 15:24 21.05.2020
2689 Rain 11 1011 93 10000 10.3 220 14:57 21.05.2020
2690 Rain 11 1011 93 10000 8.2 260 14:38 21.05.2020
2691 Rain 11 1011 93 10000 10.3 220 14:18 21.05.2020
2692 Rain 11 1011 93 10000 10.3 220 13:41 21.05.2020
2693 Rain 12 1010 93 10000 10.3 220 13:22 21.05.2020
2694 Rain 12 1010 87 8000 5.1 280 12:57 21.05.2020
2695 Rain 12 1010 87 8000 5.1 280 12:37 21.05.2020
2696 Rain 12 1009 87 6000 8.7 250 12:18 21.05.2020
2697 Rain 14 1010 87 3000 7.2 240 11:42 21.05.2020
2698 Rain 14 1010 87 3000 7.2 240 11:23 21.05.2020
2699 Thunderstorm 15 1009 87 3500 7.7 260 10:58 21.05.2020
2700 Thunderstorm 15 1009 93 10000 3.1 100 10:39 21.05.2020
2701 Rain 15 1009 93 10000 3.6 140 10:19 21.05.2020
2702 Clouds 15 1009 87 10000 3.6 140 09:54 21.05.2020
2703 Clouds 15 1009 87 10000 3.6 140 09:36 21.05.2020
2704 Clouds 16 1009 82 10000 3.6 140 09:18 21.05.2020
2705 Clouds 16 1009 82 10000 2.6 130 08:42 21.05.2020
2706 Rain 16 1009 77 10000 5.1 160 08:23 21.05.2020
2707 Rain 17 1009 77 10000 5.1 160 07:44 21.05.2020
2708 Rain 17 1009 77 10000 5.1 160 07:25 21.05.2020
2709 Rain 16 1010 87 10000 2.6 340 06:52 21.05.2020
2710 Rain 15 1010 93 10000 5.1 160 05:54 21.05.2020
2711 Rain 15 1012 87 9000 3.1 300 04:58 21.05.2020
2712 Rain 17 1013 72 10000 3.6 260 03:22 21.05.2020
2713 Rain 16 1013 72 10000 4.1 240 03:22 21.05.2020
2714 Rain 17 1013 72 10000 2.6 270 02:42 21.05.2020
2715 Rain 17 1013 72 10000 2.6 270 02:21 21.05.2020
2716 Rain 17 1013 72 10000 2.6 290 01:43 21.05.2020
2717 Clouds 16 1014 77 10000 3.1 320 01:19 21.05.2020
2718 Clouds 15 1014 76 0 0.45 45 00:48 21.05.2020
2719 Clouds 15 1014 76 0 0.45 45 00:23 21.05.2020
2720 Clouds 15 1013 82 10000 2.6 30 23:41 20.05.2020
2721 Clouds 15 1014 76 0 1.34 20 23:20 20.05.2020
2722 Clouds 15 1014 72 0 2.24 270 22:58 20.05.2020
2723 Clouds 15 1014 72 0 2.24 270 22:39 20.05.2020
2724 Rain 15 1013 82 10000 3.6 290 22:20 20.05.2020
2725 Rain 16 1013 82 10000 5.7 260 21:40 20.05.2020
2726 Clouds 16 1013 72 10000 4.6 300 21:21 20.05.2020
2727 Clouds 16 1013 72 10000 5.1 350 20:45 20.05.2020
2728 Clouds 16 1013 72 10000 5.1 350 20:26 20.05.2020
2729 Clouds 16 1013 68 10000 4.6 340 19:58 20.05.2020
2730 Clouds 16 1014 65 0 1.79 20 19:38 20.05.2020
2731 Clouds 16 1014 72 10000 4.1 350 19:20 20.05.2020
2732 Clouds 17 1014 72 10000 4.1 350 18:47 20.05.2020
2733 Clouds 17 1014 68 10000 4.6 350 18:28 20.05.2020
2734 Clouds 17 1014 68 10000 4.1 350 17:57 20.05.2020
2735 Clouds 17 1014 68 10000 4.1 350 17:37 20.05.2020
2736 Clouds 17 1015 68 10000 4.6 350 17:19 20.05.2020
2737 Clouds 17 1015 68 10000 5.1 350 16:41 20.05.2020
2738 Clouds 17 1015 63 10000 4.6 330 16:22 20.05.2020
2739 Clouds 17 1016 73 0 3.13 319 15:56 20.05.2020
2740 Clouds 17 1016 68 10000 4.6 340 15:38 20.05.2020
2741 Clouds 17 1016 68 10000 4.6 340 15:20 20.05.2020
2742 Clear 17 1016 63 10000 4.1 350 14:42 20.05.2020
2743 Clear 18 1016 63 10000 4.6 340 14:20 20.05.2020
2744 Clear 18 1016 60 10000 4.6 350 13:41 20.05.2020
2745 Clear 18 1016 60 10000 5.1 350 13:19 20.05.2020
2746 Clear 18 1016 60 10000 3.6 10 12:56 20.05.2020
2747 Clear 18 1016 60 10000 3.6 10 12:37 20.05.2020
2748 Clear 18 1016 56 10000 4.1 10 12:18 20.05.2020
2749 Clear 19 1016 60 10000 4.6 10 11:36 20.05.2020
2750 Clear 19 1016 64 0 1.79 47 11:18 20.05.2020
2751 Clear 19 1016 64 0 2.24 21 11:18 20.05.2020
2752 Clear 19 1015 56 10000 5.7 360 10:42 20.05.2020
2753 Clear 19 1015 56 10000 5.7 360 10:20 20.05.2020
2754 Clear 20 1015 53 10000 5.1 360 09:44 20.05.2020
2755 Clear 21 1015 46 10000 6.7 340 09:21 20.05.2020
2756 Clear 21 1008 65 0 1.34 293 08:57 20.05.2020
2757 Clear 21 1008 63 0 1.34 283 08:39 20.05.2020
2758 Clear 22 1008 61 0 1.79 284 08:18 20.05.2020
2759 Clear 22 1014 44 10000 7.2 350 07:46 20.05.2020
2760 Clear 22 1008 61 0 1.34 291 07:20 20.05.2020
2761 Clear 22 1014 41 10000 7.7 320 06:36 20.05.2020
2762 Clear 23 1015 44 10000 7.2 310 05:24 20.05.2020
2763 Clear 24 1015 41 10000 7.7 320 05:24 20.05.2020
2764 Clear 23 1017 46 10000 5.7 320 04:27 20.05.2020
2765 Clear 22 1017 53 10000 5.7 330 03:51 20.05.2020
2766 Clouds 19 1018 60 10000 6.2 350 02:30 20.05.2020
2767 Clouds 17 1019 68 10000 5.7 350 01:29 20.05.2020
2768 Clouds 16 1020 72 10000 2.6 360 00:45 20.05.2020
2769 Clouds 15 1020 82 10000 3.6 10 00:24 20.05.2020
2770 Clouds 13 1020 87 10000 4.1 350 23:42 19.05.2020
2771 Clouds 13 1020 82 10000 3.6 320 23:19 19.05.2020
2772 Clouds 13 1019 87 10000 3.6 350 22:56 19.05.2020
2773 Clouds 13 1019 87 10000 3.6 350 22:38 19.05.2020
2774 Clouds 13 1019 87 10000 1.5 350 22:19 19.05.2020
2775 Clouds 13 1019 87 10000 1.5 10 21:58 19.05.2020
2776 Clouds 13 1019 87 10000 1.5 10 21:38 19.05.2020
2777 Clouds 13 1019 93 10000 2.1 360 21:20 19.05.2020
2778 Clouds 13 1020 93 10000 3.1 350 20:57 19.05.2020
2779 Clouds 13 1020 93 10000 3.1 350 20:39 19.05.2020
2780 Clouds 13 1020 87 10000 2.1 310 20:21 19.05.2020
2781 Clouds 13 1020 87 10000 2.1 310 20:21 19.05.2020
2782 Clouds 13 1020 87 10000 2.1 310 19:55 19.05.2020
2783 Clouds 13 1021 87 10000 2.6 320 19:37 19.05.2020
2784 Clouds 13 1021 87 10000 2.6 320 19:37 19.05.2020
2785 Clouds 14 1021 87 10000 2.1 360 19:19 19.05.2020
2786 Clouds 14 1021 87 10000 2.1 350 18:42 19.05.2020
2787 Clouds 15 1022 87 10000 2.1 310 18:20 19.05.2020
2788 Clouds 15 1022 87 10000 2.6 300 17:44 19.05.2020
2789 Clouds 15 1022 82 10000 2.6 330 17:22 19.05.2020
2790 Clouds 15 1022 82 10000 2.6 330 16:59 19.05.2020
2791 Clouds 15 1023 87 10000 2.6 300 16:39 19.05.2020
2792 Clouds 15 1023 87 10000 3.1 300 16:21 19.05.2020
2793 Clouds 15 1023 87 10000 3.1 300 15:56 19.05.2020
2794 Clouds 15 1023 82 10000 4.1 290 15:37 19.05.2020
2795 Clouds 15 1024 77 10000 3.6 350 15:19 19.05.2020
2796 Clouds 15 1024 77 10000 3.1 350 14:43 19.05.2020
2797 Clouds 16 1024 77 10000 3.1 350 14:21 19.05.2020
2798 Clouds 15 1024 77 10000 1.5 20 13:59 19.05.2020
2799 Clouds 15 1024 77 10000 1.5 20 13:40 19.05.2020
2800 Clouds 15 1024 72 10000 3.1 350 13:22 19.05.2020
2801 Clouds 16 1024 72 10000 3.1 350 12:59 19.05.2020
2802 Clouds 15 1025 70 0 1.34 340 12:40 19.05.2020
2803 Clouds 15 1024 69 0 1.79 20 12:22 19.05.2020
2804 Clouds 16 1024 68 10000 4.1 30 11:58 19.05.2020
2805 Clouds 16 1024 72 10000 3.6 40 11:39 19.05.2020
2806 Clouds 16 1025 68 10000 3.6 40 11:21 19.05.2020
2807 Clouds 16 1025 68 10000 3.1 30 10:46 19.05.2020
2808 Clouds 17 1025 68 10000 3.1 30 10:28 19.05.2020
2809 Clouds 17 1025 65 0 1.79 20 09:58 19.05.2020
2810 Clouds 18 1025 63 10000 3.6 30 09:40 19.05.2020
2811 Clouds 18 1025 59 10000 5.1 30 09:22 19.05.2020
2812 Clouds 19 1025 52 10000 5.7 40 08:43 19.05.2020
2813 Clouds 19 1025 52 10000 5.7 40 08:24 19.05.2020
2814 Clouds 20 1025 52 10000 4.1 40 07:44 19.05.2020
2815 Clouds 20 1025 52 10000 4.6 50 07:26 19.05.2020
2816 Clouds 20 1026 56 10000 3.6 40 06:51 19.05.2020
2817 Clouds 21 1026 60 10000 3.1 30 06:25 19.05.2020
2818 Clouds 21 1027 53 10000 3.6 330 05:41 19.05.2020
2819 Clouds 20 1028 52 10000 4.1 300 04:56 19.05.2020
2820 Clouds 21 1028 52 10000 4.1 300 04:32 19.05.2020
2821 Fog 16 1030 77 10000 2.6 290 01:32 19.05.2020
2822 Clouds 14 1030 82 10000 3.1 310 00:47 19.05.2020
2823 Clouds 14 1030 85 0 3.13 270 00:25 19.05.2020
2824 Rain 14 1030 88 0 2.68 290 23:58 18.05.2020
2825 Rain 14 1030 88 0 2.68 290 23:58 18.05.2020
2826 Rain 14 1030 87 10000 3.1 320 23:39 18.05.2020
2827 Rain 13 1029 87 10000 2.6 290 23:19 18.05.2020
2828 Clouds 14 1029 88 0 1.34 290 22:41 18.05.2020
2829 Rain 14 1029 93 10000 2.6 290 22:22 18.05.2020
2830 Mist 14 1029 93 10000 2.6 290 21:58 18.05.2020
2831 Clouds 14 1029 87 10000 2.6 300 21:39 18.05.2020
2832 Mist 14 1029 93 10000 2.6 290 21:19 18.05.2020
2833 Clouds 14 1029 93 10000 3.6 270 20:56 18.05.2020
2834 Rain 14 1029 87 0 1.79 290 20:36 18.05.2020
2835 Rain 14 1029 87 0 3.58 270 20:18 18.05.2020
2836 Rain 14 1029 87 0 3.58 270 19:41 18.05.2020
2837 Rain 14 1030 93 10000 3.6 320 19:19 18.05.2020
2838 Rain 14 1030 87 10000 3.1 330 18:46 18.05.2020
2839 Rain 14 1030 87 10000 3.1 330 18:25 18.05.2020
2840 Rain 14 1030 87 10000 2.6 320 17:55 18.05.2020
2841 Clouds 14 1030 87 10000 2.6 310 17:37 18.05.2020
2842 Rain 14 1030 85 0 3.13 270 17:18 18.05.2020
2843 Rain 14 1031 89 0 0.89 342 16:55 18.05.2020
2844 Clouds 14 1030 87 10000 2.6 310 16:36 18.05.2020
2845 Rain 14 1031 83 0 4.02 290 16:18 18.05.2020
2846 Clouds 15 1031 82 10000 3.6 310 15:42 18.05.2020
2847 Rain 15 1031 77 10000 3.6 320 15:23 18.05.2020
2848 Clouds 15 1031 77 10000 2.6 330 14:59 18.05.2020
2849 Clouds 15 1031 77 10000 2.6 330 14:39 18.05.2020
2850 Clouds 15 1031 77 10000 2.6 340 14:21 18.05.2020
2851 Clouds 15 1031 77 10000 2.6 340 13:54 18.05.2020
2852 Clouds 15 1031 68 10000 3.1 40 13:36 18.05.2020
2853 Clouds 15 1032 85 0 1.34 346 13:18 18.05.2020
2854 Clouds 16 1031 72 10000 2.6 30 12:54 18.05.2020
2855 Clouds 16 1031 72 10000 2.6 30 12:36 18.05.2020
2856 Clouds 16 1031 72 10000 2.1 360 12:18 18.05.2020
2857 Clouds 17 1031 68 10000 2.1 10 11:42 18.05.2020
2858 Rain 17 1031 68 10000 2.1 10 11:23 18.05.2020
2859 Rain 17 1031 72 10000 3.1 50 10:47 18.05.2020
2860 Rain 17 1031 72 10000 3.1 50 10:27 18.05.2020
2861 Rain 17 1030 68 10000 2.6 120 09:54 18.05.2020
2862 Rain 17 1030 68 10000 2.6 120 09:36 18.05.2020
2863 Rain 17 1030 68 10000 3.1 80 09:18 18.05.2020
2864 Clouds 18 1030 68 10000 4.1 70 08:41 18.05.2020
2865 Clouds 18 1030 68 10000 4.1 70 08:41 18.05.2020
2866 Clouds 18 1030 68 10000 3.6 50 08:23 18.05.2020
2867 Clouds 18 1030 72 10000 4.1 40 07:48 18.05.2020
2868 Clouds 18 1030 72 10000 4.1 40 07:25 18.05.2020
2869 Clouds 18 1031 77 10000 4.1 80 06:48 18.05.2020
2870 Rain 18 1031 82 10000 5.1 70 06:24 18.05.2020
2871 Rain 17 1031 82 10000 5.1 80 05:45 18.05.2020
2872 Clouds 19 1024 76 0 1.34 180 04:26 18.05.2020
2873 Rain 18 1032 82 10000 3.6 220 03:30 18.05.2020
2874 Rain 15 1033 93 10000 3.6 240 01:57 18.05.2020
2875 Rain 13 1033 87 10000 3.6 290 00:50 18.05.2020
2876 Rain 12 1033 87 10000 3.1 330 00:19 18.05.2020
2877 Rain 12 1032 87 10000 3.1 330 23:56 17.05.2020
2878 Rain 12 1032 87 10000 3.1 330 23:38 17.05.2020
2879 Rain 12 1032 87 10000 3.6 340 23:19 17.05.2020
2880 Rain 12 1032 87 10000 3.1 350 22:55 17.05.2020
2881 Rain 12 1032 87 10000 3.1 350 22:36 17.05.2020
2882 Rain 11 1031 93 10000 3.1 330 22:18 17.05.2020
2883 Rain 12 1031 93 10000 3.6 330 21:41 17.05.2020
2884 Clouds 12 1031 93 10000 3.1 350 21:20 17.05.2020
2885 Clouds 12 1031 93 10000 3.1 350 20:58 17.05.2020
2886 Rain 12 1031 93 10000 2.6 320 20:40 17.05.2020
2887 Rain 12 1031 93 10000 3.1 350 20:19 17.05.2020
2888 Rain 12 1031 93 10000 3.1 350 19:55 17.05.2020
2889 Rain 12 1031 93 10000 2.6 300 19:37 17.05.2020
2890 Rain 12 1031 93 10000 2.6 320 19:18 17.05.2020
2891 Clouds 12 1031 93 10000 2.6 340 18:39 17.05.2020
2892 Clouds 12 1031 87 10000 2.1 330 18:21 17.05.2020
2893 Clouds 12 1031 87 10000 2.1 330 17:56 17.05.2020
2894 Clouds 13 1031 93 10000 2.6 270 17:37 17.05.2020
2895 Rain 12 1032 93 10000 3.1 200 17:18 17.05.2020
2896 Rain 13 1032 87 10000 2.1 350 16:40 17.05.2020
2897 Clouds 13 1032 87 10000 3.1 220 16:20 17.05.2020
2898 Clouds 13 1032 87 10000 3.1 220 16:20 17.05.2020
2899 Clouds 13 1032 82 10000 3.1 240 15:57 17.05.2020
2900 Clouds 13 1032 82 10000 3.1 240 15:38 17.05.2020
2901 Clouds 13 1032 82 10000 3.1 230 15:20 17.05.2020
2902 Clouds 13 1032 82 10000 2.6 240 14:43 17.05.2020
2903 Clouds 13 1032 77 10000 1.59 125 14:24 17.05.2020
2904 Clouds 14 1031 77 10000 1.59 125 13:58 17.05.2020
2905 Clouds 14 1031 77 10000 2.03 122 13:40 17.05.2020
2906 Clouds 14 1031 77 10000 1 190 13:19 17.05.2020
2907 Rain 19 1030 77 10000 3.1 190 04:47 17.05.2020
2908 Clouds 17 1031 67 10000 3.6 320 02:46 17.05.2020
2909 Clouds 15 1031 77 10000 3.6 330 02:20 17.05.2020
2910 Clouds 14 1031 76 10000 3.1 320 01:47 17.05.2020
2911 Clouds 11 1031 87 10000 3.6 330 00:40 17.05.2020
2912 Clouds 10 1030 87 10000 3.6 320 00:21 17.05.2020
2913 Clouds 10 1030 93 10000 3.1 320 23:40 16.05.2020
2914 Clouds 10 1030 93 10000 3.6 330 23:21 16.05.2020
2915 Clouds 10 1030 93 10000 3.6 330 22:58 16.05.2020
2916 Clouds 10 1030 93 10000 3.1 330 22:40 16.05.2020
2917 Clouds 10 1029 93 10000 3.6 340 22:20 16.05.2020
2918 Clouds 10 1029 93 10000 3.6 340 21:55 16.05.2020
2919 Clouds 10 1029 93 10000 3.6 340 21:37 16.05.2020
2920 Clouds 10 1029 87 10000 3.6 340 21:18 16.05.2020
2921 Clouds 11 1029 93 10000 3.1 350 20:54 16.05.2020
2922 Clouds 10 1029 93 10000 3.1 350 20:36 16.05.2020
2923 Clouds 10 1029 93 10000 3.1 330 20:18 16.05.2020
2924 Clouds 10 1029 93 10000 3.6 350 19:40 16.05.2020
2925 Clouds 10 1029 93 10000 3.1 330 19:22 16.05.2020
2926 Clouds 11 1030 93 10000 3.6 330 18:55 16.05.2020
2927 Clouds 11 1030 93 10000 3.6 330 18:36 16.05.2020
2928 Clouds 11 1030 93 10000 3.1 340 18:18 16.05.2020
2929 Clouds 11 1030 87 10000 3.1 330 17:40 16.05.2020
2930 Clouds 11 1030 93 10000 3.6 340 17:20 16.05.2020
2931 Clouds 11 1030 87 10000 3.1 350 16:42 16.05.2020
2932 Clouds 12 1030 82 10000 0.77 106 16:23 16.05.2020
2933 Clouds 12 1030 82 10000 0.77 106 15:59 16.05.2020
2934 Clouds 12 1030 82 10000 2.1 330 15:41 16.05.2020
2935 Clouds 12 1030 87 10000 1.5 260 15:20 16.05.2020
2936 Clouds 12 1030 87 10000 1.5 260 14:56 16.05.2020
2937 Clouds 12 1030 82 10000 2.1 250 14:37 16.05.2020
2938 Clouds 13 1030 82 10000 2.6 240 14:19 16.05.2020
2939 Clouds 13 1030 82 10000 2.6 230 13:42 16.05.2020
2940 Clouds 13 1030 82 10000 2.6 220 13:23 16.05.2020
2941 Clouds 13 1030 77 10000 2.6 230 12:58 16.05.2020
2942 Clouds 14 1030 77 10000 2.6 230 12:39 16.05.2020
2943 Clouds 13 1030 72 10000 1.13 120 12:18 16.05.2020
2944 Clouds 14 1030 67 10000 1.13 120 11:41 16.05.2020
2945 Clouds 15 1030 67 10000 2.1 90 11:23 16.05.2020
2946 Clouds 15 1030 67 10000 2.1 90 10:58 16.05.2020
2947 Clouds 15 1030 67 10000 2.1 90 10:58 16.05.2020
2948 Clouds 15 1030 67 10000 2.1 90 10:39 16.05.2020
2949 Clouds 15 1029 67 10000 2.6 90 10:20 16.05.2020
2950 Clouds 16 1029 67 10000 3.1 80 09:46 16.05.2020
2951 Clouds 16 1029 67 10000 3.1 80 09:28 16.05.2020
2952 Clouds 17 1029 68 10000 3.1 150 08:55 16.05.2020
2953 Clouds 17 1029 77 10000 2.6 150 08:36 16.05.2020
2954 Rain 18 1029 68 10000 3.1 160 08:18 16.05.2020
2955 Rain 18 1029 59 10000 3.6 150 07:43 16.05.2020
2956 Clouds 18 1029 63 10000 3.6 170 07:21 16.05.2020
2957 Clouds 17 1029 63 10000 3.1 150 06:47 16.05.2020
2958 Clouds 18 1029 63 10000 3.6 160 06:21 16.05.2020
2959 Rain 18 1030 63 10000 3.6 140 05:49 16.05.2020
2960 Rain 17 1030 68 10000 6.2 120 05:27 16.05.2020
2961 Clouds 17 1031 77 10000 2.6 230 03:33 16.05.2020
2962 Rain 16 1031 87 10000 3.6 230 02:49 16.05.2020
2963 Rain 15 1031 93 10000 4.1 300 02:20 16.05.2020
2964 Rain 14 1032 93 9000 3.6 20 01:43 16.05.2020
2965 Rain 13 1031 93 10000 4.1 310 00:59 16.05.2020
2966 Rain 12 1031 100 9000 4.6 350 00:41 16.05.2020
2967 Clouds 11 1031 100 10000 3.1 340 00:20 16.05.2020
2968 Rain 11 1030 100 10000 3.1 330 23:40 15.05.2020
2969 Clouds 11 1030 100 10000 3.1 350 23:20 15.05.2020
2970 Clouds 11 1030 100 10000 3.1 350 22:56 15.05.2020
2971 Clouds 11 1030 100 10000 2.6 330 22:38 15.05.2020
2972 Clouds 11 1030 100 10000 3.1 330 22:18 15.05.2020
2973 Clouds 11 1030 100 10000 3.1 330 21:39 15.05.2020
2974 Rain 11 1029 93 8000 4.1 340 21:21 15.05.2020
2975 Rain 11 1029 100 8000 3.6 350 20:58 15.05.2020
2976 Rain 11 1029 100 8000 3.6 350 20:40 15.05.2020
2977 Clouds 11 1029 100 9000 3.6 350 20:22 15.05.2020
2978 Clouds 11 1029 93 10000 3.6 330 19:55 15.05.2020
2979 Clouds 11 1029 93 10000 3.6 330 19:37 15.05.2020
2980 Clouds 11 1029 93 10000 3.6 340 19:18 15.05.2020
2981 Clouds 12 1030 93 10000 3.1 350 18:42 15.05.2020
2982 Rain 12 1030 93 10000 3.1 350 18:23 15.05.2020
2983 Rain 12 1030 100 10000 3.1 340 17:39 15.05.2020
2984 Clouds 12 1030 93 10000 2.6 300 17:19 15.05.2020
2985 Clouds 12 1030 100 10000 3.6 310 16:57 15.05.2020
2986 Rain 12 1030 100 10000 3.6 310 16:38 15.05.2020
2987 Rain 12 1030 100 10000 3.1 310 16:19 15.05.2020
2988 Rain 12 1030 100 10000 3.1 280 15:54 15.05.2020
2989 Rain 13 1030 100 10000 3.1 280 15:36 15.05.2020
2990 Rain 13 1030 93 10000 4.6 250 15:18 15.05.2020
2991 Rain 13 1030 93 10000 4.6 250 15:18 15.05.2020
2992 Rain 13 1030 100 10000 3.6 260 14:41 15.05.2020
2993 Rain 13 1030 93 10000 3.6 250 14:23 15.05.2020
2994 Rain 13 1030 93 10000 3.6 250 13:58 15.05.2020
2995 Rain 13 1030 93 6000 3.1 260 13:39 15.05.2020
2996 Rain 13 1030 100 10000 3.6 250 13:19 15.05.2020
2997 Rain 13 1030 100 10000 2.6 230 12:39 15.05.2020
2998 Rain 13 1030 93 7000 4.6 220 12:18 15.05.2020
2999 Rain 13 1030 93 7000 4.6 220 11:57 15.05.2020
3000 Rain 13 1030 93 10000 5.1 240 11:38 15.05.2020
3001 Rain 13 1030 93 5000 2.1 230 11:20 15.05.2020
3002 Rain 13 1029 93 10000 4.1 240 10:58 15.05.2020
3003 Rain 13 1029 93 10000 4.1 240 10:39 15.05.2020
3004 Rain 13 1029 93 9000 4.1 220 10:20 15.05.2020
3005 Rain 14 1029 93 9000 4.1 220 09:58 15.05.2020
3006 Rain 13 1029 93 10000 2.6 220 09:37 15.05.2020
3007 Rain 14 1029 93 6000 2.1 210 09:18 15.05.2020
3008 Rain 14 1029 93 6000 2.1 210 08:54 15.05.2020
3009 Rain 14 1028 93 10000 8.2 200 08:36 15.05.2020
3010 Rain 14 1028 93 10000 7.7 210 08:18 15.05.2020
3011 Drizzle 14 1028 87 10000 8.7 190 07:42 15.05.2020
3012 Rain 14 1028 82 10000 9.3 180 07:23 15.05.2020
3013 Rain 14 1028 87 10000 8.7 190 06:35 15.05.2020
3014 Drizzle 14 1028 93 7000 8.7 190 05:40 15.05.2020
3015 Rain 15 1029 93 7000 7.7 190 04:25 15.05.2020
3016 Rain 14 1029 82 5000 9.8 180 03:40 15.05.2020
3017 Clouds 14 1029 62 10000 6.7 210 01:38 15.05.2020
3018 Rain 13 1029 66 10000 7.7 200 01:19 15.05.2020
3019 Clouds 12 1029 66 10000 4.1 310 00:45 15.05.2020
3020 Rain 11 1029 76 10000 6.2 210 00:25 15.05.2020
3021 Clouds 10 1029 76 10000 3.6 300 23:43 14.05.2020
3022 Clouds 10 1028 76 10000 3.6 300 23:21 14.05.2020
3023 Clouds 10 1028 76 10000 3.6 300 22:56 14.05.2020
3024 Clouds 10 1028 76 10000 4.1 290 22:37 14.05.2020
3025 Clouds 10 1028 76 10000 4.1 280 22:19 14.05.2020
3026 Clouds 10 1028 76 10000 4.1 280 21:55 14.05.2020
3027 Clouds 10 1028 71 10000 3.6 250 21:37 14.05.2020
3028 Clouds 10 1027 71 10000 5.1 210 21:18 14.05.2020
3029 Clouds 10 1028 73 0 4.02 270 20:42 14.05.2020
3030 Clouds 11 1020 77 0 4.98 194 20:20 14.05.2020
3031 Clouds 11 1020 77 0 4.98 194 20:20 14.05.2020
3032 Clouds 11 1020 77 0 4.98 194 19:59 14.05.2020
3033 Clouds 11 1027 73 0 4.47 270 19:39 14.05.2020
3034 Clouds 11 1031 80 0 4.64 189 19:20 14.05.2020
3035 Clouds 12 1028 72 10000 7.7 190 18:58 14.05.2020
3036 Clouds 12 1020 79 0 4.64 189 18:38 14.05.2020
3037 Clouds 12 1028 69 0 3.13 270 18:20 14.05.2020
3038 Clouds 12 1028 71 10000 8.2 190 17:58 14.05.2020
3039 Clouds 12 1028 71 10000 8.2 190 17:37 14.05.2020
3040 Clouds 13 1028 77 10000 6.7 200 17:19 14.05.2020
3041 Rain 13 1028 71 10000 6.7 220 16:57 14.05.2020
3042 Rain 13 1028 71 10000 6.7 220 16:38 14.05.2020
3043 Clouds 13 1028 76 10000 7.2 200 16:19 14.05.2020
3044 Clouds 13 1028 76 10000 7.2 200 15:56 14.05.2020
3045 Clouds 14 1028 72 10000 6.2 200 15:37 14.05.2020
3046 Rain 14 1028 72 10000 7.2 200 15:18 14.05.2020
3047 Rain 14 1028 77 10000 7.2 200 14:40 14.05.2020
3048 Rain 14 1028 77 10000 6.7 210 14:21 14.05.2020
3049 Rain 14 1028 77 10000 7.2 200 13:59 14.05.2020
3050 Rain 14 1028 77 10000 7.2 200 13:59 14.05.2020
3051 Rain 14 1028 77 10000 7.2 200 13:41 14.05.2020
3052 Rain 14 1028 77 10000 6.7 210 13:20 14.05.2020
3053 Rain 14 1028 77 10000 6.7 210 12:59 14.05.2020
3054 Rain 14 1028 77 10000 8.7 190 12:39 14.05.2020
3055 Rain 14 1028 77 10000 8.7 190 12:39 14.05.2020
3056 Rain 14 1028 82 10000 8.2 200 12:20 14.05.2020
3057 Rain 14 1028 82 10000 8.2 200 11:58 14.05.2020
3058 Rain 14 1028 72 10000 7.7 190 11:39 14.05.2020
3059 Rain 14 1027 77 10000 9.3 180 11:21 14.05.2020
3060 Rain 14 1027 77 10000 9.3 180 10:56 14.05.2020
3061 Rain 14 1027 82 10000 5.1 200 10:38 14.05.2020
3062 Drizzle 14 1027 82 10000 6.2 140 10:20 14.05.2020
3063 Clouds 14 1027 82 10000 6.7 170 09:42 14.05.2020
3064 Rain 14 1027 93 10000 5.7 190 09:23 14.05.2020
3065 Rain 14 1026 93 10000 5.7 230 08:42 14.05.2020
3066 Rain 14 1026 93 10000 6.7 200 08:21 14.05.2020
3067 Rain 14 1026 87 8000 7.2 180 07:47 14.05.2020
3068 Rain 16 1026 67 10000 7.7 180 07:25 14.05.2020
3069 Rain 16 1026 67 10000 8.7 190 06:55 14.05.2020
3070 Rain 16 1026 67 10000 8.7 190 06:34 14.05.2020
3071 Clouds 17 1026 67 10000 8.2 190 05:58 14.05.2020
3072 Clouds 16 1026 63 10000 9.8 190 05:36 14.05.2020
3073 Clouds 16 1026 67 10000 9.8 170 04:34 14.05.2020
3074 Rain 15 1027 77 10000 9.3 190 03:30 14.05.2020
3075 Rain 13 1027 82 10000 8.2 170 02:43 14.05.2020
3076 Rain 13 1027 82 10000 9.3 200 02:19 14.05.2020
3077 Clouds 12 1027 82 10000 7.7 200 01:35 14.05.2020
3078 Thunderstorm 12 1026 82 10000 8.2 200 00:50 14.05.2020
3079 Rain 11 1027 76 0 5.36 270 00:25 14.05.2020
3080 Rain 10 1026 76 0 4.47 270 23:45 13.05.2020
3081 Rain 10 1025 73 0 4.02 290 23:22 13.05.2020
3082 Rain 10 1025 73 0 4.02 290 22:58 13.05.2020
3083 Rain 10 1025 73 0 4.02 290 22:39 13.05.2020
3084 Rain 10 1025 73 0 5.36 270 22:21 13.05.2020
3085 Clouds 10 1025 81 10000 8.7 190 21:57 13.05.2020
3086 Clouds 10 1025 81 10000 8.7 190 21:38 13.05.2020
3087 Clouds 10 1025 81 10000 8.7 190 21:38 13.05.2020
3088 Clouds 10 1024 81 10000 8.2 200 21:19 13.05.2020
3089 Clouds 10 1024 81 10000 7.2 200 20:41 13.05.2020
3090 Rain 10 1024 81 10000 8.7 200 20:23 13.05.2020
3091 Rain 10 1024 81 10000 8.7 200 19:57 13.05.2020
3092 Thunderstorm 10 1024 81 10000 7.7 200 19:39 13.05.2020
3093 Clouds 10 1024 81 10000 7.2 200 19:21 13.05.2020
3094 Clouds 10 1024 81 10000 3.1 310 18:42 13.05.2020
3095 Rain 10 1024 81 10000 3.6 320 18:21 13.05.2020
3096 Clouds 10 1024 81 10000 3.1 310 18:21 13.05.2020
3097 Rain 10 1024 81 10000 3.6 320 18:21 13.05.2020
3098 Rain 10 1024 76 10000 4.1 330 17:39 13.05.2020
3099 Rain 10 1024 76 10000 4.1 330 17:39 13.05.2020
3100 Rain 10 1024 76 10000 4.1 330 17:20 13.05.2020
3101 Rain 10 1024 76 10000 3.6 330 16:56 13.05.2020
3102 Rain 11 1024 76 10000 3.1 330 16:38 13.05.2020
3103 Clear 11 1024 71 10000 3.1 310 16:18 13.05.2020
3104 Clear 12 1024 71 10000 3.6 270 15:42 13.05.2020
3105 Clear 12 1024 71 10000 3.6 270 15:42 13.05.2020
3106 Clear 12 1024 67 10000 3.6 250 15:20 13.05.2020
3107 Clear 12 1024 69 0 4.02 290 14:57 13.05.2020
3108 Clouds 12 1024 62 10000 4.1 230 14:39 13.05.2020
3109 Clouds 13 1024 62 10000 3.1 240 14:21 13.05.2020
3110 Clouds 12 1024 62 10000 3.1 240 13:57 13.05.2020
3111 Clouds 13 1024 62 10000 3.1 250 13:39 13.05.2020
3112 Clouds 13 1024 58 10000 2.6 250 13:20 13.05.2020
3113 Clouds 13 1024 58 10000 3.1 230 12:54 13.05.2020
3114 Clouds 13 1024 58 10000 3.1 230 12:36 13.05.2020
3115 Clouds 14 1023 54 10000 3.1 230 12:18 13.05.2020
3116 Clouds 14 1023 54 10000 3.1 240 11:54 13.05.2020
3117 Clouds 14 1023 54 10000 3.1 240 11:36 13.05.2020
3118 Clouds 14 1023 54 10000 3.1 240 11:18 13.05.2020
3119 Clouds 14 1022 58 10000 3.1 230 10:54 13.05.2020
3120 Clouds 15 1022 58 10000 3.1 230 10:36 13.05.2020
3121 Clouds 15 1022 55 10000 3.1 220 10:18 13.05.2020
3122 Clouds 16 1022 48 10000 3.6 210 09:41 13.05.2020
3123 Clouds 16 1022 45 10000 3.6 230 09:22 13.05.2020
3124 Clouds 17 1021 39 10000 4.1 210 08:43 13.05.2020
3125 Clouds 18 1021 32 10000 5.1 190 08:22 13.05.2020
3126 Clouds 18 1021 32 10000 5.1 190 07:59 13.05.2020
3127 Clouds 18 1014 52 0 0.45 299 07:39 13.05.2020
3128 Clouds 18 1021 39 10000 5.7 250 07:21 13.05.2020
3129 Clouds 18 1021 34 10000 4.6 270 06:43 13.05.2020
3130 Clouds 18 1021 39 10000 5.1 190 05:54 13.05.2020
3131 Clouds 18 1022 42 10000 4.1 310 04:49 13.05.2020
3132 Clouds 16 1023 51 10000 5.1 250 03:26 13.05.2020
3133 Clouds 15 1023 54 10000 4.1 290 02:27 13.05.2020
3134 Clouds 13 1023 71 10000 3.1 320 01:28 13.05.2020
3135 Clouds 13 1023 76 10000 3.6 300 00:47 13.05.2020
3136 Clouds 11 1023 81 10000 5.1 310 00:20 13.05.2020
3137 Clouds 10 1023 81 10000 3.6 320 23:40 12.05.2020
3138 Clouds 10 1023 81 10000 3.6 320 23:40 12.05.2020
3139 Clouds 10 1023 81 10000 3.6 320 23:40 12.05.2020
3140 Clouds 10 1023 81 10000 3.6 320 23:21 12.05.2020
3141 Clouds 10 1022 87 10000 4.1 300 22:58 12.05.2020
3142 Clouds 10 1022 87 10000 3.6 320 22:39 12.05.2020
3143 Clouds 10 1022 81 10000 3.1 300 22:20 12.05.2020
3144 Clouds 10 1022 81 10000 3.1 300 21:55 12.05.2020
3145 Clouds 10 1022 76 10000 4.1 320 21:37 12.05.2020
3146 Clouds 10 1022 81 10000 3.6 300 21:18 12.05.2020
3147 Clouds 10 1022 81 10000 3.6 300 20:57 12.05.2020
3148 Clouds 10 1022 81 10000 3.6 300 20:38 12.05.2020
3149 Clouds 10 1022 81 10000 3.6 310 20:20 12.05.2020
3150 Clouds 11 1022 81 10000 3.6 310 19:56 12.05.2020
3151 Clouds 11 1022 87 10000 3.6 290 19:37 12.05.2020
3152 Clouds 11 1022 81 10000 3.1 310 19:19 12.05.2020
3153 Clouds 12 1022 81 10000 3.1 330 18:42 12.05.2020
3154 Clouds 12 1022 81 10000 3.1 290 18:24 12.05.2020
3155 Clouds 12 1022 81 10000 3.1 290 17:58 12.05.2020
3156 Clouds 12 1022 82 10000 3.1 280 17:39 12.05.2020
3157 Clouds 12 1022 82 10000 3.1 280 17:21 12.05.2020
3158 Clouds 13 1022 76 10000 3.6 300 16:43 12.05.2020
3159 Clouds 13 1023 76 10000 3.6 320 16:23 12.05.2020
3160 Clouds 14 1023 72 10000 4.1 350 15:56 12.05.2020
3161 Clouds 14 1023 72 10000 4.1 350 15:37 12.05.2020
3162 Clouds 14 1026 79 0 4.37 326 15:18 12.05.2020
3163 Clouds 14 1023 67 10000 4.1 360 14:55 12.05.2020
3164 Clouds 15 1023 67 10000 3.1 360 14:36 12.05.2020
3165 Clouds 15 1023 67 10000 3.6 360 14:18 12.05.2020
3166 Clouds 15 1023 67 10000 3.6 360 13:56 12.05.2020
3167 Clouds 15 1024 64 0 3.58 0 13:37 12.05.2020
3168 Clouds 15 1024 72 0 1.34 346 13:18 12.05.2020
3169 Clouds 15 1024 72 0 1.79 49 12:57 12.05.2020
3170 Clouds 16 1023 63 10000 5.1 10 12:38 12.05.2020
3171 Clouds 16 1023 63 10000 5.1 10 12:38 12.05.2020
3172 Clouds 15 1016 74 0 1.79 310 12:20 12.05.2020
3173 Clouds 15 1024 61 0 3.13 0 11:57 12.05.2020
3174 Clouds 15 1024 61 0 3.13 0 11:37 12.05.2020
3175 Clouds 16 1023 63 10000 4.1 10 11:19 12.05.2020
3176 Clouds 16 1023 59 0 2.68 20 10:56 12.05.2020
3177 Clouds 16 1023 59 0 2.68 20 10:37 12.05.2020
3178 Clouds 16 1023 59 10000 5.7 30 10:18 12.05.2020
3179 Clouds 16 1023 59 10000 5.7 30 09:57 12.05.2020
3180 Clouds 17 1023 56 0 3.13 45 09:38 12.05.2020
3181 Clouds 17 1023 48 10000 7.2 30 09:19 12.05.2020
3182 Clouds 18 1023 48 10000 6.7 30 08:41 12.05.2020
3183 Clear 18 1023 45 10000 5.7 30 08:21 12.05.2020
3184 Clear 19 1023 42 10000 4.6 20 07:55 12.05.2020
3185 Clear 19 1023 42 10000 4.6 20 07:37 12.05.2020
3186 Clear 19 1023 40 10000 4.6 30 07:18 12.05.2020
3187 Clear 19 1015 61 0 1.34 249 06:37 12.05.2020
3188 Clouds 20 1024 37 10000 3.6 10 06:19 12.05.2020
3189 Clouds 20 1024 40 10000 4.1 350 05:45 12.05.2020
3190 Clear 17 1026 42 10000 4.1 300 03:55 12.05.2020
3191 Clear 16 1027 45 10000 4.1 310 03:19 12.05.2020
3192 Clouds 14 1027 51 10000 4.6 300 02:27 12.05.2020
3193 Clouds 13 1027 54 10000 4.1 310 01:40 12.05.2020
3194 Clouds 11 1027 66 10000 4.1 330 00:59 12.05.2020
3195 Clouds 9 1027 71 10000 4.1 330 00:24 12.05.2020
3196 Clouds 9 1027 71 10000 4.1 330 23:57 11.05.2020
3197 Clouds 8 1027 76 10000 4.6 320 23:38 11.05.2020
3198 Clouds 8 1027 76 10000 4.6 330 23:19 11.05.2020
3199 Clouds 8 1027 76 10000 4.6 320 22:57 11.05.2020
3200 Clouds 8 1027 76 10000 4.6 320 22:39 11.05.2020
3201 Clear 8 1027 76 10000 3.6 330 22:19 11.05.2020
3202 Clear 8 1027 76 10000 3.6 330 21:55 11.05.2020
3203 Clear 8 1027 76 10000 3.6 330 21:37 11.05.2020
3204 Clear 8 1027 81 10000 3.6 310 21:18 11.05.2020
3205 Clear 8 1027 81 10000 3.6 310 20:54 11.05.2020
3206 Clear 8 1027 81 10000 3.6 330 20:36 11.05.2020
3207 Clear 8 1027 76 10000 3.6 330 20:18 11.05.2020
3208 Clear 9 1027 81 10000 3.6 330 19:41 11.05.2020
3209 Clear 9 1027 81 10000 3.6 340 19:22 11.05.2020
3210 Clear 9 1027 81 10000 3.6 340 18:58 11.05.2020
3211 Clear 9 1027 76 10000 3.6 310 18:39 11.05.2020
3212 Clear 9 1027 76 10000 4.1 330 18:20 11.05.2020
3213 Clear 10 1027 76 10000 4.1 330 17:57 11.05.2020
3214 Clear 10 1027 76 10000 4.1 310 17:39 11.05.2020
3215 Clear 9 1027 71 10000 3.6 310 17:21 11.05.2020
3216 Clear 9 1027 71 10000 3.6 340 16:57 11.05.2020
3217 Clear 10 1027 71 10000 3.6 340 16:38 11.05.2020
3218 Clear 10 1027 66 10000 2.6 330 16:19 11.05.2020
3219 Clear 10 1027 66 10000 3.1 290 15:42 11.05.2020
3220 Clear 10 1027 66 10000 4.1 300 15:21 11.05.2020
3221 Clear 11 1027 66 10000 4.1 300 14:59 11.05.2020
3222 Clear 11 1027 66 10000 3.1 320 14:41 11.05.2020
3223 Clear 11 1027 66 10000 2.1 340 14:22 11.05.2020
3224 Clear 12 1027 66 10000 2.1 340 13:55 11.05.2020
3225 Clear 12 1027 66 10000 3.1 240 13:55 11.05.2020
3226 Clear 11 1027 66 10000 3.1 240 13:37 11.05.2020
3227 Clear 12 1027 62 10000 3.1 230 13:18 11.05.2020
3228 Clear 12 1027 62 10000 3.1 230 12:55 11.05.2020
3229 Clear 12 1027 66 10000 2.6 240 12:37 11.05.2020
3230 Clear 12 1027 67 10000 2.6 210 12:19 11.05.2020
3231 Clear 13 1027 62 10000 3.1 200 11:41 11.05.2020
3232 Clear 13 1027 58 10000 3.1 160 11:22 11.05.2020
3233 Clear 13 1027 58 10000 3.1 160 10:58 11.05.2020
3234 Clouds 13 1026 55 10000 2.6 170 10:40 11.05.2020
3235 Clear 14 1026 58 10000 3.1 150 10:21 11.05.2020
3236 Clear 15 1026 58 10000 3.1 150 09:59 11.05.2020
3237 Clear 15 1026 55 10000 4.1 150 09:41 11.05.2020
3238 Clear 15 1026 55 10000 4.6 170 09:19 11.05.2020
3239 Clear 16 1026 55 10000 4.6 170 08:56 11.05.2020
3240 Clear 16 1026 48 10000 5.7 160 08:37 11.05.2020
3241 Clear 16 1026 51 10000 6.2 170 08:18 11.05.2020
3242 Clear 17 1026 48 10000 6.7 160 07:46 11.05.2020
3243 Clear 17 1026 48 10000 6.7 160 07:27 11.05.2020
3244 Clear 18 1025 51 10000 6.2 160 06:43 11.05.2020
3245 Clear 18 1025 45 10000 5.1 170 05:58 11.05.2020
3246 Clear 18 1026 48 10000 5.7 170 05:25 11.05.2020
3247 Clear 17 1026 42 10000 5.1 170 04:32 11.05.2020
3248 Clear 16 1027 42 10000 4.1 210 03:29 11.05.2020
3249 Clear 14 1028 52 0 2.68 255 02:29 11.05.2020
3250 Clear 13 1027 47 10000 4.1 290 01:40 11.05.2020
3251 Clouds 10 1027 53 10000 4.6 310 00:53 11.05.2020
3252 Clouds 9 1027 57 10000 3.6 340 00:20 11.05.2020
3253 Clouds 8 1026 61 10000 5.1 300 23:44 10.05.2020
3254 Clouds 8 1026 61 10000 4.1 330 23:26 10.05.2020
3255 Clouds 8 1026 61 10000 3.6 310 22:57 10.05.2020
3256 Clouds 8 1026 61 10000 3.6 310 22:38 10.05.2020
3257 Clear 8 1025 65 10000 4.1 300 22:20 10.05.2020
3258 Clear 8 1025 66 10000 4.6 310 21:44 10.05.2020
3259 Clear 8 1025 61 10000 4.1 310 21:20 10.05.2020
3260 Clear 8 1025 61 10000 4.1 310 20:56 10.05.2020
3261 Clear 8 1025 66 10000 4.1 300 20:38 10.05.2020
3262 Clear 8 1024 66 10000 3.6 300 20:19 10.05.2020
3263 Clear 9 1024 66 10000 2.6 290 19:41 10.05.2020
3264 Clear 9 1024 66 10000 2.6 290 19:23 10.05.2020
3265 Clear 9 1024 61 10000 3.6 310 18:57 10.05.2020
3266 Clouds 9 1024 61 10000 3.1 280 18:38 10.05.2020
3267 Clear 9 1024 57 10000 3.6 280 18:19 10.05.2020
3268 Clear 9 1024 57 10000 4.6 260 17:59 10.05.2020
3269 Clear 9 1024 57 10000 4.6 260 17:41 10.05.2020
3270 Clouds 10 1024 57 10000 3.6 280 17:22 10.05.2020
3271 Clouds 10 1024 57 10000 3.6 280 16:59 10.05.2020
3272 Clouds 10 1024 57 10000 4.6 270 16:40 10.05.2020
3273 Clouds 10 1024 53 10000 4.6 270 16:19 10.05.2020
3274 Clouds 10 1024 53 10000 4.6 270 16:19 10.05.2020
3275 Clouds 10 1024 53 10000 4.6 270 15:55 10.05.2020
3276 Clouds 10 1024 53 10000 6.2 250 15:36 10.05.2020
3277 Clouds 10 1024 53 10000 6.2 250 15:36 10.05.2020
3278 Clouds 10 1024 53 10000 6.7 260 15:18 10.05.2020
3279 Clouds 11 1025 50 10000 5.7 250 14:39 10.05.2020
3280 Clouds 11 1024 50 10000 6.7 250 14:20 10.05.2020
3281 Clouds 11 1024 50 10000 6.7 250 13:59 10.05.2020
3282 Clouds 12 1024 47 10000 6.7 250 13:39 10.05.2020
3283 Clouds 12 1024 47 10000 6.7 250 13:21 10.05.2020
3284 Clouds 12 1024 47 10000 6.7 250 12:59 10.05.2020
3285 Clouds 12 1024 47 10000 7.2 240 12:41 10.05.2020
3286 Clouds 12 1024 47 10000 7.2 240 12:21 10.05.2020
3287 Clouds 12 1023 41 10000 5.1 240 11:58 10.05.2020
3288 Clouds 12 1023 41 10000 5.1 240 11:39 10.05.2020
3289 Clouds 13 1022 41 10000 5.1 240 11:20 10.05.2020
3290 Clouds 13 1022 41 10000 3.6 220 10:48 10.05.2020
3291 Clouds 14 1022 41 10000 3.6 220 10:29 10.05.2020
3292 Clouds 14 1021 41 10000 5.1 180 09:59 10.05.2020
3293 Clouds 14 1022 46 0 1.34 192 09:41 10.05.2020
3294 Clouds 15 1020 41 10000 5.1 200 09:22 10.05.2020
3295 Clouds 16 1020 41 10000 5.1 200 08:53 10.05.2020
3296 Clouds 16 1020 41 10000 5.1 200 08:24 10.05.2020
3297 Clouds 16 1020 38 10000 7.7 170 07:59 10.05.2020
3298 Clouds 17 1019 36 10000 5.1 200 07:38 10.05.2020
3299 Clouds 17 1019 29 10000 4.6 150 07:19 10.05.2020
3300 Clouds 17 1019 34 10000 4.6 210 06:50 10.05.2020
3301 Clouds 17 1019 32 10000 4.6 210 06:23 10.05.2020
3302 Clouds 17 1019 29 10000 6.2 230 05:44 10.05.2020
3303 Clouds 17 1019 29 10000 7.2 260 04:42 10.05.2020
3304 Clouds 17 1019 29 10000 7.2 260 04:23 10.05.2020
3305 Clouds 16 1019 33 10000 8.2 250 03:43 10.05.2020
3306 Clouds 14 1020 36 10000 9.3 260 02:55 10.05.2020
3307 Clouds 14 1020 44 10000 9.3 260 02:24 10.05.2020
3308 Clouds 13 1019 41 10000 9.8 260 01:57 10.05.2020
3309 Clouds 14 1019 41 10000 8.2 270 01:57 10.05.2020
3310 Clouds 13 1019 41 10000 8.2 270 01:39 10.05.2020
3311 Clouds 13 1019 43 10000 9.3 270 01:18 10.05.2020
3312 Clouds 13 1019 47 10000 9.3 280 00:42 10.05.2020
3313 Clouds 12 1019 50 10000 9.3 270 00:20 10.05.2020
3314 Clouds 11 1018 50 10000 7.2 270 23:40 09.05.2020
3315 Clouds 11 1018 50 10000 7.2 270 23:21 09.05.2020
3316 Clouds 11 1018 50 10000 6.7 280 22:57 09.05.2020
3317 Clear 11 1018 50 10000 6.2 280 22:39 09.05.2020
3318 Clear 12 1017 50 10000 8.2 270 22:21 09.05.2020
3319 Clear 12 1017 47 10000 7.7 260 21:56 09.05.2020
3320 Clear 12 1017 47 10000 7.7 260 21:37 09.05.2020
3321 Clear 12 1017 43 10000 10.8 250 21:19 09.05.2020
3322 Clear 12 1017 43 10000 10.8 250 20:56 09.05.2020
3323 Clear 12 1017 43 10000 10.3 250 20:37 09.05.2020
3324 Clear 12 1017 47 10000 7.7 250 20:19 09.05.2020
3325 Clear 13 1017 50 10000 5.1 230 19:40 09.05.2020
3326 Clear 13 1016 50 10000 4.6 240 19:20 09.05.2020
3327 Clear 13 1016 43 0 4.92 250 18:58 09.05.2020
3328 Clear 13 1016 51 10000 6.2 220 18:40 09.05.2020
3329 Clear 14 1016 51 10000 8.7 230 18:21 09.05.2020
3330 Clear 15 1016 44 10000 9.3 220 17:44 09.05.2020
3331 Clear 15 1016 44 10000 9.3 220 17:23 09.05.2020
3332 Clear 15 1015 44 10000 9.8 230 16:55 09.05.2020
3333 Clear 16 1015 45 10000 8.7 230 16:37 09.05.2020
3334 Clear 16 1015 48 10000 8.7 230 16:18 09.05.2020
3335 Clear 17 1014 52 10000 7.7 230 15:41 09.05.2020
3336 Clear 17 1013 45 10000 5.7 240 15:22 09.05.2020
3337 Clear 17 1013 48 10000 6.2 270 14:55 09.05.2020
3338 Clear 17 1013 48 10000 6.2 270 14:37 09.05.2020
3339 Clouds 18 1013 45 10000 4.1 260 14:18 09.05.2020
3340 Clouds 18 1012 56 0 5.36 315 13:43 09.05.2020
3341 Clouds 18 1011 56 0 2.24 315 13:22 09.05.2020
3342 Clouds 18 1011 56 10000 7.2 260 12:59 09.05.2020
3343 Clouds 19 1011 56 10000 7.7 260 12:39 09.05.2020
3344 Clouds 19 1011 56 10000 7.7 260 12:39 09.05.2020
3345 Clouds 19 1011 49 10000 4.6 350 12:21 09.05.2020
3346 Clouds 19 1011 50 0 8.49 340 11:45 09.05.2020
3347 Clouds 20 1010 46 10000 7.7 260 11:20 09.05.2020
3348 Clouds 20 1010 46 10000 7.7 260 10:54 09.05.2020
3349 Clouds 21 1009 43 10000 5.1 360 10:36 09.05.2020
3350 Clouds 21 1009 40 10000 6.7 350 10:18 09.05.2020
3351 Clouds 22 1009 36 10000 8.2 330 09:43 09.05.2020
3352 Clouds 22 1009 35 0 5.36 0 09:20 09.05.2020
3353 Clouds 23 1009 35 0 5.36 0 08:57 09.05.2020
3354 Clouds 23 1009 35 0 5.36 0 08:38 09.05.2020
3355 Rain 23 1001 53 0 3.13 291 08:20 09.05.2020
3356 Rain 24 1002 53 0 2.24 299 07:43 09.05.2020
3357 Rain 24 1001 53 0 2.68 300 07:25 09.05.2020
3358 Rain 25 1009 31 10000 9.8 340 06:40 09.05.2020
3359 Clouds 25 1009 33 10000 8.7 350 06:18 09.05.2020
3360 Clouds 24 1002 52 0 2.24 288 05:39 09.05.2020
3361 Clouds 23 1012 36 10000 8.2 340 03:40 09.05.2020
3362 Clouds 22 1005 53 0 1.34 286 02:54 09.05.2020
3363 Clouds 22 1005 53 0 0.89 274 02:30 09.05.2020
3364 Clear 22 1013 43 10000 5.1 320 01:51 09.05.2020
3365 Clear 22 1013 49 10000 6.2 330 01:22 09.05.2020
3366 Clear 22 1013 49 10000 6.2 330 01:22 09.05.2020
3367 Clear 20 1013 55 10000 5.1 340 00:43 09.05.2020
3368 Clouds 18 1013 55 10000 4.1 340 00:20 09.05.2020
3369 Clouds 18 1013 55 10000 4.1 10 23:45 08.05.2020
3370 Clear 18 1013 55 10000 4.1 10 23:27 08.05.2020
3371 Clear 17 1012 56 0 1.34 90 22:56 08.05.2020
3372 Clouds 17 1013 67 10000 3.1 250 22:38 08.05.2020
3373 Clear 17 1012 59 10000 3.1 10 22:19 08.05.2020
3374 Clear 16 1012 59 10000 3.1 10 21:58 08.05.2020
3375 Clear 17 1012 63 10000 3.1 20 21:38 08.05.2020
3376 Clear 16 1013 63 10000 3.6 10 21:18 08.05.2020
3377 Clear 16 1013 63 10000 3.6 10 20:56 08.05.2020
3378 Clear 17 1013 63 10000 3.6 360 20:38 08.05.2020
3379 Clear 17 1013 63 10000 4.1 360 20:20 08.05.2020
3380 Clear 17 1013 59 10000 4.1 360 19:43 08.05.2020
3381 Clear 17 1013 59 10000 4.1 360 19:23 08.05.2020
3382 Clear 17 1014 59 10000 4.6 360 18:50 08.05.2020
3383 Clear 17 1014 59 10000 4.6 360 18:31 08.05.2020
3384 Clear 18 1014 63 10000 4.6 350 17:59 08.05.2020
3385 Clear 18 1014 55 10000 4.6 330 17:40 08.05.2020
3386 Clear 18 1015 55 10000 4.6 330 17:18 08.05.2020
3387 Clear 18 1015 55 10000 5.1 340 16:42 08.05.2020
3388 Clear 18 1015 55 10000 5.1 350 16:24 08.05.2020
3389 Clear 19 1015 52 10000 4.6 340 15:55 08.05.2020
3390 Clear 19 1015 52 10000 4.6 340 15:37 08.05.2020
3391 Clear 19 1016 52 10000 5.1 340 15:18 08.05.2020
3392 Clear 19 1016 49 10000 5.1 340 14:41 08.05.2020
3393 Clear 19 1016 49 10000 4.6 350 14:21 08.05.2020
3394 Clear 19 1016 49 10000 4.6 350 13:59 08.05.2020
3395 Clear 19 1016 46 0 3.58 340 13:39 08.05.2020
3396 Clear 20 1016 46 10000 4.6 350 13:19 08.05.2020
3397 Clear 20 1015 46 10000 4.1 360 12:45 08.05.2020
3398 Clear 20 1015 46 10000 4.1 360 12:25 08.05.2020
3399 Clear 21 1015 53 10000 4.1 20 11:59 08.05.2020
3400 Clear 21 1015 53 10000 4.6 30 11:41 08.05.2020
3401 Clear 21 1015 56 10000 5.1 30 11:21 08.05.2020
3402 Clear 22 1015 53 10000 5.1 30 10:57 08.05.2020
3403 Clear 22 1015 53 10000 5.1 30 10:39 08.05.2020
3404 Clear 22 1015 49 10000 5.1 20 10:18 08.05.2020
3405 Clear 22 1015 47 10000 5.1 30 09:42 08.05.2020
3406 Clear 23 1014 41 10000 5.1 30 09:20 08.05.2020
3407 Clear 24 1014 41 10000 5.1 30 08:58 08.05.2020
3408 Clear 25 1014 32 10000 3.6 30 08:40 08.05.2020
3409 Clear 25 1014 30 10000 4.1 350 08:20 08.05.2020
3410 Clear 25 1007 61 0 0.89 33 07:40 08.05.2020
3411 Clear 26 1015 32 10000 3.6 350 07:20 08.05.2020
3412 Clear 26 1015 32 10000 2.6 330 06:49 08.05.2020
3413 Clear 26 1015 32 10000 3.6 310 06:20 08.05.2020
3414 Clear 26 1015 32 10000 4.6 320 05:35 08.05.2020
3415 Clear 24 1017 34 10000 5.7 320 04:21 08.05.2020
3416 Clear 21 1018 50 0 6.26 315 02:32 08.05.2020
3417 Clear 21 1018 46 10000 5.7 310 01:44 08.05.2020
3418 Clear 20 1018 52 10000 5.1 320 01:21 08.05.2020
3419 Clear 18 1018 59 10000 3.1 350 00:51 08.05.2020
3420 Clear 18 1018 59 10000 3.1 350 00:29 08.05.2020
3421 Clear 17 1018 67 10000 4.6 340 23:58 07.05.2020
3422 Clear 17 1018 67 10000 4.6 340 23:40 07.05.2020
3423 Clear 16 1018 77 10000 4.6 350 23:21 07.05.2020
3424 Clear 16 1018 77 10000 4.6 350 22:55 07.05.2020
3425 Clear 16 1018 67 10000 4.6 320 22:37 07.05.2020
3426 Clear 16 1018 67 10000 5.1 310 22:18 07.05.2020
3427 Clear 16 1017 67 10000 4.6 320 21:55 07.05.2020
3428 Clear 16 1017 67 10000 4.6 320 21:36 07.05.2020
3429 Clear 16 1017 67 10000 3.6 340 21:18 07.05.2020
3430 Clear 16 1017 72 10000 4.6 320 20:42 07.05.2020
3431 Clear 16 1017 67 10000 4.6 340 20:21 07.05.2020
3432 Clear 16 1017 67 10000 4.6 340 20:21 07.05.2020
3433 Clear 16 1017 67 10000 5.7 340 19:54 07.05.2020
3434 Clear 16 1017 67 10000 5.7 340 19:36 07.05.2020
3435 Clear 16 1018 67 10000 5.1 330 19:18 07.05.2020
3436 Clear 16 1018 67 10000 4.6 330 18:41 07.05.2020
3437 Clear 16 1018 67 10000 6.2 340 18:23 07.05.2020
3438 Clear 16 1019 67 10000 5.7 350 17:43 07.05.2020
3439 Clear 16 1019 65 0 3.58 340 17:21 07.05.2020
3440 Clear 16 1019 72 10000 3.1 320 16:59 07.05.2020
3441 Clear 16 1019 72 10000 3.1 320 16:40 07.05.2020
3442 Clear 17 1019 63 10000 4.1 330 16:18 07.05.2020
3443 Clear 16 1019 65 0 3.58 340 16:18 07.05.2020
3444 Clear 17 1019 68 10000 5.1 340 15:55 07.05.2020
3445 Clear 17 1019 68 10000 5.1 340 15:37 07.05.2020
3446 Clear 17 1019 63 10000 4.6 350 15:18 07.05.2020
3447 Clear 18 1019 68 10000 5.7 350 14:43 07.05.2020
3448 Clouds 18 1019 63 10000 6.2 350 14:20 07.05.2020
3449 Clouds 17 1019 59 10000 4.6 350 13:44 07.05.2020
3450 Clouds 18 1019 59 10000 4.1 350 13:25 07.05.2020
3451 Clouds 18 1019 56 10000 3.6 330 12:45 07.05.2020
3452 Clouds 18 1019 56 10000 4.1 350 12:20 07.05.2020
3453 Clouds 18 1019 52 10000 5.7 340 11:59 07.05.2020
3454 Clouds 19 1019 52 10000 5.7 340 11:39 07.05.2020
3455 Clouds 19 1019 52 10000 5.1 350 11:21 07.05.2020
3456 Clouds 19 1018 49 10000 4.6 350 10:43 07.05.2020
3457 Clouds 19 1011 63 0 0.89 302 10:24 07.05.2020
3458 Clouds 20 1011 63 0 1.34 309 09:56 07.05.2020
3459 Clouds 20 1011 63 0 1.34 309 09:38 07.05.2020
3460 Clouds 21 1018 40 10000 7.2 310 09:18 07.05.2020
3461 Clouds 21 1018 40 10000 7.2 310 09:18 07.05.2020
3462 Clouds 22 1011 60 0 1.34 280 08:42 07.05.2020
3463 Clouds 22 1011 62 0 1.34 271 08:22 07.05.2020
3464 Clouds 22 1011 60 0 1.34 288 07:57 07.05.2020
3465 Clouds 22 1011 60 0 0.89 272 07:39 07.05.2020
3466 Clouds 22 1011 62 0 0.89 287 07:19 07.05.2020
3467 Clouds 23 1018 41 10000 4.1 10 06:37 07.05.2020
3468 Clouds 23 1019 43 10000 4.1 340 05:56 07.05.2020
3469 Clouds 21 1021 52 10000 4.6 350 04:27 07.05.2020
3470 Clouds 19 1021 55 10000 3.6 320 03:31 07.05.2020
3471 Clouds 18 1022 59 10000 4.1 310 02:59 07.05.2020
3472 Clouds 17 1022 67 10000 3.6 310 02:26 07.05.2020
3473 Clouds 14 1022 67 10000 3.6 310 01:27 07.05.2020
3474 Clouds 13 1022 76 10000 3.1 310 00:55 07.05.2020
3475 Clouds 13 1022 76 10000 3.1 310 00:37 07.05.2020
3476 Clouds 12 1022 82 0 4.02 290 00:18 07.05.2020
3477 Clouds 12 1022 76 10000 4.1 310 23:41 06.05.2020
3478 Clouds 11 1022 76 10000 4.1 300 23:22 06.05.2020
3479 Clouds 11 1022 76 10000 4.1 300 22:55 06.05.2020
3480 Clouds 11 1022 82 10000 3.1 320 22:37 06.05.2020
3481 Clouds 11 1022 82 10000 3.6 310 22:18 06.05.2020
3482 Clouds 11 1021 82 10000 3.6 290 21:55 06.05.2020
3483 Clouds 12 1021 82 10000 3.6 290 21:36 06.05.2020
3484 Clouds 11 1022 82 10000 4.1 300 21:18 06.05.2020
3485 Clouds 12 1022 82 10000 4.1 290 20:39 06.05.2020
3486 Clouds 12 1022 87 10000 3.6 300 20:21 06.05.2020
3487 Clouds 12 1022 87 10000 3.6 300 19:56 06.05.2020
3488 Clouds 13 1022 87 10000 3.1 300 19:38 06.05.2020
3489 Clouds 13 1022 82 10000 3.6 310 19:18 06.05.2020
3490 Clouds 12 1022 82 10000 3.6 310 19:18 06.05.2020
3491 Clouds 13 1023 82 10000 3.6 300 18:58 06.05.2020
3492 Clouds 13 1023 82 10000 3.6 300 18:58 06.05.2020
3493 Clouds 13 1023 82 10000 3.6 300 18:38 06.05.2020
3494 Clouds 13 1023 82 10000 3.6 300 18:38 06.05.2020
3495 Clouds 13 1023 82 10000 3.6 300 18:20 06.05.2020
3496 Clouds 13 1023 77 10000 4.1 300 17:55 06.05.2020
3497 Clouds 14 1023 77 10000 4.1 300 17:37 06.05.2020
3498 Clouds 14 1023 77 10000 4.1 300 17:37 06.05.2020
3499 Clouds 14 1023 77 10000 4.1 300 17:37 06.05.2020
3500 Clouds 14 1023 77 10000 4.1 320 17:18 06.05.2020
3501 Clouds 14 1023 77 10000 3.1 320 16:58 06.05.2020
3502 Clouds 14 1023 77 10000 3.1 320 16:40 06.05.2020
3503 Clouds 14 1023 77 10000 3.1 320 16:20 06.05.2020
3504 Clouds 14 1024 77 10000 3.6 310 15:56 06.05.2020
3505 Clouds 14 1024 77 10000 3.6 310 15:38 06.05.2020
3506 Clouds 14 1024 77 10000 4.1 340 15:18 06.05.2020
3507 Clouds 15 1024 77 10000 2.6 360 14:40 06.05.2020
3508 Clouds 15 1024 77 10000 2.6 360 14:19 06.05.2020
3509 Clouds 15 1025 82 10000 2.6 30 13:59 06.05.2020
3510 Clouds 16 1024 77 10000 2.6 30 13:39 06.05.2020
3511 Clouds 16 1024 77 10000 3.1 40 13:19 06.05.2020
3512 Clouds 16 1024 77 10000 3.6 30 12:44 06.05.2020
3513 Clouds 16 1029 81 0 3.96 9 12:26 06.05.2020
3514 Clouds 17 1024 72 10000 2.6 10 11:59 06.05.2020
3515 Clouds 17 1024 68 10000 2.6 30 11:39 06.05.2020
3516 Clouds 17 1024 63 10000 3.6 20 11:21 06.05.2020
3517 Clouds 18 1024 68 10000 3.6 30 10:56 06.05.2020
3518 Clouds 18 1024 68 10000 3.6 30 10:37 06.05.2020
3519 Clouds 19 1024 64 10000 3.1 20 10:18 06.05.2020
3520 Clouds 19 1024 64 10000 4.1 30 09:39 06.05.2020
3521 Clear 20 1024 56 10000 4.1 40 09:21 06.05.2020
3522 Clear 20 1024 33 10000 3.6 20 08:45 06.05.2020
3523 Clouds 21 1024 33 10000 3.1 330 08:22 06.05.2020
3524 Clouds 21 1024 33 10000 3.1 330 07:58 06.05.2020
3525 Clouds 21 1024 31 10000 3.1 310 07:39 06.05.2020
3526 Clouds 22 1024 33 10000 3.6 330 07:20 06.05.2020
3527 Clouds 22 1025 31 10000 5.1 340 06:51 06.05.2020
3528 Clouds 22 1025 33 10000 4.1 330 06:21 06.05.2020
3529 Clouds 22 1025 35 10000 4.6 330 05:52 06.05.2020
3530 Clouds 22 1025 35 10000 4.6 330 05:34 06.05.2020
3531 Clouds 21 1027 46 10000 4.6 320 04:31 06.05.2020
3532 Clouds 20 1028 52 10000 4.1 310 03:38 06.05.2020
3533 Clouds 19 1029 59 10000 4.6 300 03:19 06.05.2020
3534 Clouds 17 1029 63 10000 4.6 300 02:30 06.05.2020
3535 Clouds 16 1029 67 10000 3.6 300 01:54 06.05.2020
3536 Rain 14 1029 67 10000 3.6 300 01:31 06.05.2020
3537 Rain 13 1030 76 10000 3.6 310 00:53 06.05.2020
3538 Clear 12 1030 76 10000 3.6 310 00:26 06.05.2020
3539 Rain 11 1029 87 10000 3.6 310 23:56 05.05.2020
3540 Rain 11 1029 87 10000 3.6 310 23:37 05.05.2020
3541 Rain 11 1029 87 10000 3.6 310 23:18 05.05.2020
3542 Clear 10 1029 87 10000 3.1 330 22:41 05.05.2020
3543 Mist 11 1029 87 10000 4.1 290 22:19 05.05.2020
3544 Mist 11 1029 87 10000 4.1 290 22:19 05.05.2020
3545 Mist 11 1029 87 10000 4.1 290 21:57 05.05.2020
3546 Clear 11 1029 93 10000 3.1 320 21:38 05.05.2020
3547 Mist 11 1029 87 10000 1.5 0 21:20 05.05.2020
3548 Mist 11 1029 87 10000 1.5 0 20:57 05.05.2020
3549 Rain 11 1029 87 10000 1.5 0 20:39 05.05.2020
3550 Rain 11 1029 87 10000 3.6 320 20:18 05.05.2020
3551 Clear 11 1029 93 10000 4.1 320 19:54 05.05.2020
3552 Clear 11 1029 93 10000 4.1 320 19:36 05.05.2020
3553 Clear 11 1029 87 10000 3.6 330 19:18 05.05.2020
3554 Clear 11 1029 87 10000 3.6 330 19:18 05.05.2020
3555 Clear 12 1029 87 10000 2.6 340 18:42 05.05.2020
3556 Clouds 12 1029 87 10000 3.1 340 18:20 05.05.2020
3557 Clouds 12 1029 87 10000 3.1 340 17:58 05.05.2020
3558 Clouds 12 1030 87 10000 2.6 330 17:40 05.05.2020
3559 Clouds 12 1030 87 10000 2.6 330 17:40 05.05.2020
3560 Clouds 12 1030 87 10000 3.1 340 17:21 05.05.2020
3561 Clouds 12 1030 87 10000 3.1 330 16:56 05.05.2020
3562 Clouds 12 1030 87 10000 3.1 330 16:36 05.05.2020
3563 Clouds 13 1030 82 10000 3.1 320 16:18 05.05.2020
3564 Clouds 13 1030 82 10000 3.1 320 16:18 05.05.2020
3565 Clouds 13 1030 87 10000 3.1 300 15:41 05.05.2020
3566 Clouds 13 1030 87 10000 3.6 290 15:22 05.05.2020
3567 Clouds 13 1030 87 10000 3.6 290 14:58 05.05.2020
3568 Clouds 13 1030 82 10000 3.6 320 14:39 05.05.2020
3569 Clouds 13 1030 82 10000 3.6 320 14:39 05.05.2020
3570 Clouds 13 1030 82 10000 1.5 320 14:21 05.05.2020
3571 Clouds 13 1030 82 10000 1.5 320 13:58 05.05.2020
3572 Clouds 14 1030 82 10000 2.1 320 13:39 05.05.2020
3573 Clouds 14 1030 82 10000 2.1 320 13:21 05.05.2020
3574 Clouds 14 1029 82 10000 2.1 270 12:58 05.05.2020
3575 Clouds 14 1029 82 10000 2.6 280 12:39 05.05.2020
3576 Clouds 14 1029 82 10000 2.1 270 12:20 05.05.2020
3577 Clouds 15 1029 82 10000 2.1 270 11:55 05.05.2020
3578 Clouds 15 1029 82 10000 2.6 150 11:36 05.05.2020
3579 Clouds 15 1029 82 10000 3.1 150 11:18 05.05.2020
3580 Clouds 16 1029 77 10000 3.6 140 10:39 05.05.2020
3581 Clouds 16 1029 77 10000 3.6 150 10:19 05.05.2020
3582 Clouds 16 1029 77 10000 3.6 150 10:19 05.05.2020
3583 Clouds 16 1029 77 10000 3.6 150 09:59 05.05.2020
3584 Clouds 17 1028 72 10000 4.6 150 09:40 05.05.2020
3585 Clouds 17 1028 72 10000 5.1 160 09:22 05.05.2020
3586 Clouds 18 1028 72 10000 5.7 170 08:41 05.05.2020
3587 Clouds 18 1028 72 10000 5.7 170 08:21 05.05.2020
3588 Clouds 18 1028 72 10000 5.7 170 07:58 05.05.2020
3589 Clouds 18 1028 72 10000 5.7 170 07:39 05.05.2020
3590 Clouds 18 1028 72 10000 5.7 170 07:19 05.05.2020
3591 Clouds 19 1028 77 10000 5.7 170 06:49 05.05.2020
3592 Clouds 19 1029 72 10000 6.2 170 06:22 05.05.2020
3593 Clouds 19 1029 72 10000 6.7 170 05:39 05.05.2020
3594 Clouds 18 1030 77 10000 7.2 190 03:36 05.05.2020
3595 Rain 16 1030 82 10000 5.1 240 01:51 05.05.2020
3596 Clouds 14 1030 82 10000 5.1 240 00:54 05.05.2020
3597 Rain 13 1030 87 10000 5.1 240 00:22 05.05.2020
3598 Rain 12 1029 93 10000 4.6 330 23:46 04.05.2020
3599 Rain 12 1021 95 0 0.45 278 23:23 04.05.2020
3600 Rain 12 1029 87 8000 4.6 330 22:57 04.05.2020
3601 Rain 12 1021 95 0 5.48 206 22:38 04.05.2020
3602 Rain 12 1029 93 5000 3.6 320 22:20 04.05.2020
3603 Rain 12 1029 93 6000 3.1 350 21:56 04.05.2020
3604 Rain 12 1029 93 6000 3.1 350 21:35 04.05.2020
3605 Rain 12 1028 87 10000 3.6 310 21:03 04.05.2020
3606 Rain 12 1028 93 10000 4.1 280 21:03 04.05.2020
3607 Rain 12 1028 93 10000 4.1 280 21:03 04.05.2020
3608 Rain 12 1028 93 10000 4.1 280 21:03 04.05.2020
3609 Rain 12 1028 87 10000 3.6 310 21:03 04.05.2020
3610 Rain 12 1028 87 10000 3.6 310 20:38 04.05.2020
3611 Rain 12 1028 93 10000 3.6 280 20:18 04.05.2020
3612 Rain 12 1028 87 8000 5.1 350 19:43 04.05.2020
3613 Rain 12 1028 87 8000 5.1 350 19:23 04.05.2020
3614 Rain 12 1028 93 8000 4.6 280 19:23 04.05.2020
3615 Rain 12 1028 87 8000 4.6 240 18:58 04.05.2020
3616 Rain 12 1028 87 8000 4.6 240 18:38 04.05.2020
3617 Rain 13 1028 82 10000 6.7 230 18:19 04.05.2020
3618 Rain 12 1028 73 0 3.58 290 18:19 04.05.2020
3619 Rain 13 1028 82 10000 6.7 230 17:56 04.05.2020
3620 Rain 12 1028 73 0 3.58 290 17:37 04.05.2020
3621 Rain 13 1028 76 10000 6.7 250 17:19 04.05.2020
3622 Rain 13 1028 76 10000 6.2 250 16:43 04.05.2020
3623 Rain 13 1028 67 10000 5.7 250 16:22 04.05.2020
3624 Clouds 13 1028 67 10000 5.7 250 15:57 04.05.2020
3625 Clouds 13 1028 67 10000 5.7 250 15:38 04.05.2020
3626 Rain 13 1028 71 10000 4.6 250 15:20 04.05.2020
3627 Clouds 14 1028 67 10000 5.7 240 14:48 04.05.2020
3628 Clouds 14 1028 67 10000 5.7 240 14:48 04.05.2020
3629 Clouds 14 1028 67 10000 5.7 240 14:48 04.05.2020
3630 Clouds 14 1028 67 10000 5.7 240 14:48 04.05.2020
3631 Rain 14 1028 67 10000 6.2 240 14:20 04.05.2020
3632 Rain 14 1027 63 10000 6.2 230 13:20 04.05.2020
3633 Rain 14 1027 63 10000 6.2 230 13:20 04.05.2020
3634 Rain 14 1027 63 10000 6.2 230 13:20 04.05.2020
3635 Rain 14 1027 63 10000 6.2 230 13:20 04.05.2020
3636 Rain 14 1027 63 10000 6.2 230 13:20 04.05.2020
3637 Rain 14 1027 67 10000 5.7 220 12:43 04.05.2020
3638 Rain 15 1027 67 10000 5.7 220 12:43 04.05.2020
3639 Rain 15 1027 67 10000 5.7 220 12:43 04.05.2020
3640 Rain 14 1027 67 10000 5.7 220 12:43 04.05.2020
3641 Rain 14 1027 67 10000 5.7 220 12:43 04.05.2020
3642 Clouds 15 1026 67 10000 8.2 190 10:42 04.05.2020
3643 Clouds 15 1026 67 10000 8.2 190 10:42 04.05.2020
3644 Clouds 15 1026 67 10000 8.2 190 10:42 04.05.2020
3645 Clouds 15 1026 67 10000 8.2 190 10:42 04.05.2020
3646 Clouds 15 1026 67 10000 8.2 190 10:42 04.05.2020
3647 Clouds 15 1025 67 10000 8.2 180 09:26 04.05.2020
3648 Clouds 15 1025 67 10000 8.2 180 09:26 04.05.2020
3649 Clouds 15 1025 67 10000 8.2 180 09:26 04.05.2020
3650 Clouds 15 1025 67 10000 8.2 180 09:26 04.05.2020
3651 Clouds 15 1025 67 10000 8.2 180 09:26 04.05.2020
3652 Clouds 17 1024 59 10000 8.7 180 07:53 04.05.2020
3653 Clouds 17 1024 59 10000 8.7 180 07:33 04.05.2020
3654 Clouds 17 1024 59 10000 8.7 180 07:33 04.05.2020
3655 Clouds 17 1024 59 10000 8.7 180 07:33 04.05.2020
3656 Clouds 18 1024 59 10000 8.2 170 05:24 04.05.2020
3657 Clouds 18 1025 55 10000 7.7 160 04:48 04.05.2020
3658 Clouds 16 1025 55 10000 5.1 180 02:42 04.05.2020
3659 Clouds 14 1025 62 10000 3.1 290 01:22 04.05.2020
3660 Clouds 10 1025 66 10000 3.6 300 23:59 03.05.2020
3661 Clouds 10 1024 76 10000 4.6 300 23:41 03.05.2020
3662 Clouds 9 1024 71 10000 4.1 320 23:23 03.05.2020
3663 Clouds 9 1024 71 10000 3.6 340 22:43 03.05.2020
3664 Clouds 9 1024 71 10000 3.6 340 22:43 03.05.2020
3665 Clouds 9 1024 71 10000 3.6 340 22:43 03.05.2020
3666 Clear 9 1023 71 10000 5.1 260 22:24 03.05.2020
3667 Clear 9 1023 71 10000 5.1 260 22:24 03.05.2020
3668 Clear 9 1023 71 10000 5.7 260 21:42 03.05.2020
3669 Clear 9 1023 71 10000 5.7 260 21:22 03.05.2020
3670 Clear 9 1023 71 10000 5.7 260 20:58 03.05.2020
3671 Clear 9 1023 71 10000 5.7 260 20:58 03.05.2020
3672 Clear 9 1023 71 10000 6.2 260 20:58 03.05.2020
3673 Clear 9 1023 71 10000 5.7 260 20:58 03.05.2020
3674 Clear 9 1023 71 10000 5.7 260 20:58 03.05.2020
3675 Clear 10 1023 71 10000 6.2 260 20:39 03.05.2020
3676 Clouds 10 1022 71 10000 6.2 270 20:20 03.05.2020
3677 Clouds 10 1022 71 10000 6.2 270 20:20 03.05.2020
3678 Clouds 10 1022 71 10000 6.2 270 20:20 03.05.2020
3679 Clouds 10 1022 71 10000 7.2 270 19:47 03.05.2020
3680 Clouds 10 1022 71 10000 7.2 270 19:29 03.05.2020
3681 Clouds 10 1023 71 10000 6.7 270 18:56 03.05.2020
3682 Clouds 10 1023 71 10000 4.1 270 18:56 03.05.2020
3683 Clouds 10 1023 71 10000 6.7 270 18:56 03.05.2020
3684 Clouds 10 1023 71 10000 4.1 270 18:36 03.05.2020
3685 Clouds 10 1023 71 10000 4.1 270 18:18 03.05.2020
3686 Clouds 10 1023 71 10000 4.1 270 18:18 03.05.2020
3687 Clouds 11 1023 71 10000 4.1 270 18:18 03.05.2020
3688 Clouds 10 1023 71 10000 4.1 290 17:40 03.05.2020
3689 Clouds 11 1023 71 10000 3.6 300 17:21 03.05.2020
3690 Clouds 11 1023 66 10000 4.1 300 16:45 03.05.2020
3691 Clouds 11 1023 66 10000 3.6 340 16:20 03.05.2020
3692 Clouds 12 1023 66 10000 3.6 340 15:58 03.05.2020
3693 Clouds 12 1023 66 10000 3.6 340 15:58 03.05.2020
3694 Clouds 12 1023 66 10000 3.6 260 15:40 03.05.2020
3695 Clouds 12 1023 62 10000 4.6 250 15:20 03.05.2020
3696 Clouds 12 1023 62 10000 4.6 250 14:58 03.05.2020
3697 Clouds 12 1023 62 10000 5.7 250 14:40 03.05.2020
3698 Clouds 12 1023 62 10000 5.7 250 14:40 03.05.2020
3699 Clouds 12 1023 62 10000 5.7 250 14:21 03.05.2020
3700 Clouds 12 1022 62 10000 4.6 260 13:53 03.05.2020
3701 Clouds 12 1022 62 10000 3.6 260 13:20 03.05.2020
3702 Clouds 12 1022 62 10000 3.6 260 13:20 03.05.2020
3703 Clouds 12 1022 62 10000 3.6 260 13:20 03.05.2020
3704 Clouds 12 1022 62 10000 3.6 260 13:20 03.05.2020
3705 Clouds 12 1022 62 10000 3.6 260 13:20 03.05.2020
3706 Clouds 12 1022 62 10000 4.1 250 12:44 03.05.2020
3707 Clear 13 1021 58 10000 3.6 220 12:18 03.05.2020
3708 Clear 13 1021 58 10000 3.6 220 11:56 03.05.2020
3709 Clear 14 1021 63 10000 3.6 200 11:37 03.05.2020
3710 Clear 14 1020 63 10000 2.6 180 11:19 03.05.2020
3711 Clear 14 1020 59 10000 3.1 180 10:46 03.05.2020
3712 Clear 14 1020 59 10000 3.1 180 10:46 03.05.2020
3713 Clear 14 1020 59 10000 3.1 180 10:46 03.05.2020
3714 Clear 14 1020 59 10000 3.1 180 10:46 03.05.2020
3715 Clear 15 1019 51 10000 3.1 160 09:58 03.05.2020
3716 Clear 15 1019 51 10000 3.1 160 09:58 03.05.2020
3717 Clouds 16 1019 48 10000 3.6 150 09:36 03.05.2020
3718 Clouds 17 1019 48 10000 4.6 170 08:56 03.05.2020
3719 Clouds 17 1019 48 10000 4.6 170 08:56 03.05.2020
3720 Clouds 17 1019 48 10000 4.6 170 08:56 03.05.2020
3721 Clouds 17 1018 48 10000 6.2 160 08:26 03.05.2020
3722 Clouds 18 1018 55 10000 7.7 170 07:40 03.05.2020
3723 Clouds 18 1017 45 10000 8.2 190 06:21 03.05.2020
3724 Clouds 18 1017 48 10000 8.2 190 05:49 03.05.2020
3725 Clouds 18 1017 52 10000 8.2 200 04:56 03.05.2020
3726 Clouds 18 1018 48 10000 9.3 200 04:27 03.05.2020
3727 Clouds 16 1017 42 10000 6.7 250 03:00 03.05.2020
3728 Clouds 15 1017 47 10000 8.7 260 02:24 03.05.2020
3729 Clouds 15 1017 47 10000 8.7 260 01:46 03.05.2020
3730 Clouds 15 1017 47 10000 8.7 260 01:27 03.05.2020
3731 Clouds 14 1016 50 10000 8.2 260 00:56 03.05.2020
3732 Clouds 13 1016 54 10000 7.2 260 00:37 03.05.2020
3733 Clouds 12 1015 58 10000 7.7 250 00:19 03.05.2020
3734 Clouds 11 1014 58 10000 8.2 250 23:43 02.05.2020
3735 Clouds 10 1014 58 10000 8.2 250 23:25 02.05.2020
3736 Clouds 10 1013 58 10000 8.2 250 22:44 02.05.2020
3737 Clear 10 1013 58 10000 7.2 250 22:24 02.05.2020
3738 Clear 11 1013 58 10000 7.2 250 21:58 02.05.2020
3739 Clear 11 1012 62 10000 6.7 260 21:40 02.05.2020
3740 Clear 11 1011 62 10000 4.6 260 21:19 02.05.2020
3741 Clear 11 1011 62 10000 4.6 260 20:57 02.05.2020
3742 Clear 11 1011 58 10000 5.1 260 20:37 02.05.2020
3743 Clear 11 1010 58 10000 4.1 260 20:19 02.05.2020
3744 Clear 11 1010 58 10000 5.7 260 19:57 02.05.2020
3745 Clear 11 1010 58 10000 5.7 260 19:38 02.05.2020
3746 Clear 11 1010 58 10000 5.7 260 19:38 02.05.2020
3747 Clear 11 1010 58 10000 5.7 260 19:38 02.05.2020
3748 Clear 11 1010 52 0 3.58 315 19:19 02.05.2020
3749 Clear 11 1010 52 0 3.58 315 18:56 02.05.2020
3750 Clear 11 1010 52 0 3.58 315 18:37 02.05.2020
3751 Clear 11 1010 51 0 4.47 290 18:19 02.05.2020
3752 Clear 11 1009 50 10000 8.7 270 17:54 02.05.2020
3753 Clear 11 1009 50 10000 8.7 270 17:36 02.05.2020
3754 Clear 11 1009 46 0 4.02 315 17:18 02.05.2020
3755 Clear 11 1009 46 0 4.02 315 16:43 02.05.2020
3756 Clear 12 1009 47 10000 8.7 270 16:25 02.05.2020
3757 Clear 12 1009 47 10000 8.7 270 15:44 02.05.2020
3758 Clear 12 1009 43 10000 8.2 270 15:21 02.05.2020
3759 Clear 12 1009 43 10000 9.3 270 14:59 02.05.2020
3760 Clear 12 1009 43 10000 9.3 270 14:41 02.05.2020
3761 Clouds 12 1009 47 10000 9.3 270 14:22 02.05.2020
3762 Clouds 12 1009 43 10000 8.7 260 13:55 02.05.2020
3763 Clouds 12 1009 43 10000 8.7 260 13:37 02.05.2020
3764 Clouds 13 1009 41 10000 9.3 270 13:18 02.05.2020
3765 Clouds 13 1009 41 10000 9.3 270 13:18 02.05.2020
3766 Clouds 13 1008 44 10000 8.7 260 12:40 02.05.2020
3767 Clouds 13 1008 50 10000 6.7 240 12:20 02.05.2020
3768 Clouds 13 1008 50 10000 6.7 240 11:56 02.05.2020
3769 Clouds 14 1008 47 10000 8.7 240 11:38 02.05.2020
3770 Clouds 14 1007 44 10000 5.7 230 11:19 02.05.2020
3771 Clouds 14 1006 41 10000 7.2 250 10:40 02.05.2020
3772 Clear 14 1005 38 10000 8.7 260 10:22 02.05.2020
3773 Clear 15 1004 35 0 8.49 270 09:58 02.05.2020
3774 Clear 15 1004 35 0 8.49 270 09:40 02.05.2020
3775 Clear 15 997 51 0 0.45 209 09:21 02.05.2020
3776 Clear 16 996 48 0 0.45 261 08:55 02.05.2020
3777 Clear 16 996 46 0 0.89 294 08:37 02.05.2020
3778 Clear 17 1003 41 10000 13.4 280 08:18 02.05.2020
3779 Clear 17 995 45 0 0.89 204 07:42 02.05.2020
3780 Clear 18 1002 41 10000 12.9 270 07:22 02.05.2020
3781 Clear 18 1002 41 10000 12.9 270 06:42 02.05.2020
3782 Clear 18 1003 39 10000 12.9 250 05:28 02.05.2020
3783 Clear 17 1003 27 10000 11.3 280 04:27 02.05.2020
3784 Clear 16 1004 39 10000 11.3 280 03:40 02.05.2020
3785 Clear 15 1005 36 10000 11.8 290 02:42 02.05.2020
3786 Clouds 15 1005 38 10000 11.3 290 01:58 02.05.2020
3787 Clouds 15 1005 44 10000 10.3 280 01:26 02.05.2020
3788 Clouds 14 1004 44 10000 10.3 280 00:43 02.05.2020
3789 Clouds 14 1004 50 10000 10.3 280 00:22 02.05.2020
3790 Clouds 14 1004 50 10000 10.3 280 23:55 01.05.2020
3791 Clouds 13 1004 50 10000 3.6 350 23:37 01.05.2020
3792 Clouds 13 1004 50 10000 6.7 300 23:18 01.05.2020
3793 Clouds 13 997 65 0 1.34 308 22:39 01.05.2020
3794 Clouds 13 996 65 0 1.34 303 22:20 01.05.2020
3795 Clouds 13 996 65 0 0.89 304 21:57 01.05.2020
3796 Clouds 13 1003 54 10000 7.7 300 21:39 01.05.2020
3797 Clouds 12 1003 54 10000 7.7 320 21:20 01.05.2020
3798 Clouds 12 1003 54 10000 7.7 320 20:58 01.05.2020
3799 Clouds 12 1002 54 10000 9.3 310 20:40 01.05.2020
3800 Clouds 12 1003 54 10000 8.2 330 20:20 01.05.2020
3801 Clouds 12 996 66 0 2.24 304 19:58 01.05.2020
3802 Clouds 12 996 66 0 2.68 291 19:40 01.05.2020
3803 Clouds 12 1003 54 10000 6.7 320 19:20 01.05.2020
3804 Clouds 12 1003 54 10000 7.2 320 18:56 01.05.2020
3805 Clouds 12 1003 54 10000 7.2 320 18:37 01.05.2020
3806 Clouds 12 1004 50 10000 9.3 310 18:19 01.05.2020
3807 Clouds 12 1004 54 10000 7.7 320 17:40 01.05.2020
3808 Clouds 12 1005 58 10000 5.7 320 17:22 01.05.2020
3809 Clouds 12 1005 58 10000 5.7 320 16:57 01.05.2020
3810 Clouds 13 1005 54 10000 5.1 320 16:39 01.05.2020
3811 Clouds 13 1005 50 10000 7.2 320 16:20 01.05.2020
3812 Clouds 13 1005 50 10000 7.2 320 15:57 01.05.2020
3813 Clouds 13 1005 54 10000 8.7 320 15:39 01.05.2020
3814 Clouds 13 1005 54 10000 9.8 320 15:19 01.05.2020
3815 Clouds 12 1005 54 10000 10.3 330 14:44 01.05.2020
3816 Clear 12 1005 54 10000 10.3 330 14:25 01.05.2020
3817 Clear 12 998 65 0 3.58 295 13:56 01.05.2020
3818 Clear 12 998 64 0 2.68 304 13:38 01.05.2020
3819 Clear 12 1007 48 0 4.47 340 13:20 01.05.2020
3820 Clear 12 1007 48 0 4.47 340 13:20 01.05.2020
3821 Clear 12 1007 48 0 4.47 340 12:55 01.05.2020
3822 Clear 12 1007 48 0 4.47 340 12:37 01.05.2020
3823 Clear 12 1007 44 0 4.92 315 12:18 01.05.2020
3824 Clear 12 1007 44 0 4.92 315 12:18 01.05.2020
3825 Clear 13 1007 44 0 4.92 315 11:42 01.05.2020
3826 Clear 13 1007 44 0 4.92 315 11:23 01.05.2020
3827 Clear 13 1007 41 10000 6.2 310 10:58 01.05.2020
3828 Clear 13 1007 38 10000 8.7 300 10:39 01.05.2020
3829 Clear 13 1000 53 0 1.34 307 10:20 01.05.2020
3830 Clear 14 1006 34 0 4.47 315 09:44 01.05.2020
3831 Clear 15 1006 48 10000 11.8 290 09:20 01.05.2020
3832 Clear 15 1006 48 10000 11.8 290 08:58 01.05.2020
3833 Clear 15 1006 31 10000 11.3 290 08:40 01.05.2020
3834 Clear 15 1006 44 10000 13.4 310 08:21 01.05.2020
3835 Clear 16 1005 44 10000 12.9 310 07:44 01.05.2020
3836 Clear 16 1005 43 10000 11.8 290 07:22 01.05.2020
3837 Clear 16 1006 33 10000 11.3 310 06:42 01.05.2020
3838 Clouds 16 1006 29 10000 9.3 300 05:35 01.05.2020
3839 Clear 16 1007 33 10000 13.4 300 04:39 01.05.2020
3840 Clear 15 1007 36 10000 11.8 310 03:24 01.05.2020
3841 Clear 14 1008 40 10000 10.3 310 02:45 01.05.2020
3842 Clear 14 1008 41 10000 12.3 310 02:19 01.05.2020
3843 Clear 14 1009 41 10000 8.2 310 01:28 01.05.2020
3844 Clear 14 1008 47 10000 7.2 310 00:59 01.05.2020
3845 Clear 13 1009 50 10000 5.7 310 00:37 01.05.2020
3846 Clear 12 1008 54 10000 6.2 310 00:18 01.05.2020
3847 Clear 11 1008 54 10000 6.2 310 23:54 30.04.2020
3848 Clear 10 1008 58 10000 5.7 330 23:36 30.04.2020
3849 Clear 10 1008 59 0 5.36 340 23:18 30.04.2020
3850 Clouds 10 1007 62 10000 4.6 350 22:41 30.04.2020
3851 Clear 10 1007 71 10000 4.1 10 22:20 30.04.2020
3852 Clear 10 1007 71 10000 4.1 10 21:56 30.04.2020
3853 Clouds 10 1008 62 10000 4.6 20 21:37 30.04.2020
3854 Rain 10 1008 66 10000 5.1 360 21:19 30.04.2020
3855 Rain 10 1007 62 10000 6.2 340 20:54 30.04.2020
3856 Rain 9 1007 62 10000 6.2 340 20:36 30.04.2020
3857 Rain 10 1007 62 10000 4.6 20 20:18 30.04.2020
3858 Clear 10 1007 62 10000 4.1 360 19:42 30.04.2020
3859 Clear 10 1007 66 10000 4.6 340 19:23 30.04.2020
3860 Clear 10 1007 66 10000 4.6 350 18:56 30.04.2020
3861 Clear 10 1007 66 10000 4.6 350 18:37 30.04.2020
3862 Clear 11 1007 62 10000 4.1 330 18:19 30.04.2020
3863 Clear 11 1007 62 10000 4.6 310 17:55 30.04.2020
3864 Clear 11 1007 62 10000 4.6 310 17:37 30.04.2020
3865 Clear 11 1007 66 10000 5.7 310 17:18 30.04.2020
3866 Clear 11 1007 66 10000 5.7 310 16:54 30.04.2020
3867 Clear 11 1008 66 0 5.36 290 16:36 30.04.2020
3868 Clouds 11 1008 66 10000 6.2 320 16:18 30.04.2020
3869 Rain 11 1008 71 10000 4.6 320 15:44 30.04.2020
3870 Rain 11 1008 71 10000 4.6 330 15:21 30.04.2020
3871 Clear 11 1008 76 10000 5.7 340 14:42 30.04.2020
3872 Rain 11 1008 76 10000 7.2 330 14:22 30.04.2020
3873 Rain 11 1008 76 10000 7.2 330 13:59 30.04.2020
3874 Rain 11 1008 81 10000 5.7 330 13:40 30.04.2020
3875 Clouds 11 1008 76 0 2.68 290 13:22 30.04.2020
3876 Clouds 11 1008 76 0 2.68 290 12:59 30.04.2020
3877 Clouds 11 1008 76 0 2.68 290 12:40 30.04.2020
3878 Clouds 11 1009 80 0 3.13 315 12:19 30.04.2020
3879 Clouds 12 1009 80 0 3.13 315 11:38 30.04.2020
3880 Rain 12 1008 87 10000 6.2 300 11:19 30.04.2020
3881 Rain 12 1008 87 10000 6.2 300 10:58 30.04.2020
3882 Rain 12 1007 87 10000 5.7 290 10:39 30.04.2020
3883 Rain 12 1007 87 10000 5.1 310 10:20 30.04.2020
3884 Rain 12 1007 87 10000 5.1 310 09:56 30.04.2020
3885 Rain 12 1008 79 0 5.36 290 09:37 30.04.2020
3886 Rain 12 1007 78 0 5.36 290 09:18 30.04.2020
3887 Rain 13 1007 78 0 5.36 290 08:44 30.04.2020
3888 Rain 13 1006 93 7000 2.1 270 08:24 30.04.2020
3889 Rain 14 1007 93 6000 3.6 220 07:44 30.04.2020
3890 Rain 14 1007 93 6000 3.6 220 07:44 30.04.2020
3891 Rain 14 1006 93 4000 4.6 230 07:25 30.04.2020
3892 Rain 14 1006 93 4000 3.6 220 06:52 30.04.2020
3893 Rain 14 1005 93 2000 2.6 250 06:19 30.04.2020
3894 Rain 14 1005 93 2000 2.6 230 05:45 30.04.2020
3895 Rain 14 1006 87 5000 9.3 240 04:39 30.04.2020
3896 Rain 14 1005 93 10000 6.7 220 04:19 30.04.2020
3897 Rain 20 1006 88 6000 2.6 190 02:48 30.04.2020
3898 Rain 20 1006 88 7000 1 190 02:26 30.04.2020
3899 Rain 20 1006 82 10000 1 310 01:36 30.04.2020
3900 Rain 19 1006 88 10000 1 350 00:42 30.04.2020
3901 Rain 19 1006 82 10000 1.5 280 00:20 30.04.2020
3902 Rain 19 1006 88 10000 2.1 280 23:58 29.04.2020
3903 Rain 19 1006 88 10000 2.1 280 23:39 29.04.2020
3904 Rain 19 1006 88 10000 5.1 310 23:21 29.04.2020
3905 Rain 19 1006 88 10000 5.1 310 22:56 29.04.2020
3906 Clouds 19 1006 88 10000 3.6 290 22:38 29.04.2020
3907 Clouds 19 1006 82 10000 3.1 350 22:18 29.04.2020
3908 Clouds 19 1006 88 10000 3.6 350 21:38 29.04.2020
3909 Clouds 19 1006 82 10000 2.6 360 21:20 29.04.2020
3910 Clouds 19 1006 82 10000 2.6 360 20:58 29.04.2020
3911 Clouds 19 1006 88 10000 3.1 320 20:39 29.04.2020
3912 Clouds 19 1007 88 10000 2.6 300 20:19 29.04.2020
3913 Clouds 19 1007 88 10000 2.6 300 20:19 29.04.2020
3914 Clouds 19 1007 82 10000 2.6 320 19:43 29.04.2020
3915 Clouds 19 1007 82 10000 2.6 240 19:22 29.04.2020
3916 Clouds 19 1007 82 10000 2.6 240 18:58 29.04.2020
3917 Clouds 19 1007 82 10000 6.33 21 18:40 29.04.2020
3918 Clouds 19 1008 77 10000 2.1 350 18:19 29.04.2020
3919 Clouds 19 1008 77 10000 2.1 20 17:44 29.04.2020
3920 Rain 19 1008 77 10000 2.1 10 17:22 29.04.2020
3921 Rain 19 1008 77 10000 2.1 10 16:59 29.04.2020
3922 Rain 19 1009 77 10000 2.1 20 16:37 29.04.2020
3923 Rain 19 1009 82 10000 3.6 40 16:18 29.04.2020
3924 Rain 19 1010 77 10000 3.1 50 15:55 29.04.2020
3925 Rain 19 1010 77 10000 3.1 50 15:37 29.04.2020
3926 Rain 19 1010 77 10000 3.1 50 15:37 29.04.2020
3927 Clouds 19 1011 77 10000 2.1 350 15:19 29.04.2020
3928 Clouds 20 1012 77 10000 3.6 330 14:44 29.04.2020
3929 Clouds 20 1012 77 10000 3.6 330 14:26 29.04.2020
3930 Rain 20 1013 77 10000 4.1 300 13:58 29.04.2020
3931 Rain 20 1013 82 10000 5.1 300 13:39 29.04.2020
3932 Rain 21 1013 88 10000 4.1 280 13:19 29.04.2020
3933 Rain 21 1013 88 10000 4.1 280 12:56 29.04.2020
3934 Rain 21 1013 77 10000 7.7 270 12:37 29.04.2020
3935 Rain 22 1012 67 0 4.02 20 12:18 29.04.2020
3936 Rain 22 1012 67 0 4.02 20 11:39 29.04.2020
3937 Rain 22 1012 73 0 3.13 21 11:20 29.04.2020
3938 Rain 22 1012 73 0 3.13 59 10:55 29.04.2020
3939 Rain 22 1012 73 0 2.68 53 10:37 29.04.2020
3940 Rain 22 1012 73 0 3.13 57 10:18 29.04.2020
3941 Clouds 22 1012 62 0 5.81 20 09:41 29.04.2020
3942 Clouds 22 1012 62 0 5.81 20 09:22 29.04.2020
3943 Clouds 23 1011 64 10000 8.7 30 08:55 29.04.2020
3944 Clouds 23 1011 69 10000 8.2 30 08:36 29.04.2020
3945 Clouds 23 1011 69 10000 8.7 30 08:18 29.04.2020
3946 Clouds 24 1011 65 10000 8.2 30 07:39 29.04.2020
3947 Clouds 24 1011 64 10000 7.7 30 07:18 29.04.2020
3948 Clouds 24 1012 65 10000 8.2 30 06:48 29.04.2020
3949 Clouds 25 1012 65 10000 8.2 30 06:30 29.04.2020
3950 Clouds 25 1012 57 10000 7.2 30 05:21 29.04.2020
3951 Clouds 25 1013 44 10000 7.7 350 04:21 29.04.2020
3952 Clouds 25 1014 50 10000 4.6 30 03:59 29.04.2020
3953 Clouds 23 1015 64 10000 5.1 10 02:39 29.04.2020
3954 Clouds 21 1016 73 10000 4.1 10 01:44 29.04.2020
3955 Clouds 21 1016 77 10000 5.7 10 01:21 29.04.2020
3956 Clouds 19 1016 86 0 2.24 290 00:40 29.04.2020
3957 Clouds 19 1016 88 10000 4.1 10 00:19 29.04.2020
3958 Clouds 18 1016 88 10000 3.6 350 23:48 28.04.2020
3959 Clouds 17 1016 86 0 2.24 290 23:24 28.04.2020
3960 Clouds 17 1016 88 10000 3.1 350 22:55 28.04.2020
3961 Rain 17 1016 88 10000 3.1 350 22:37 28.04.2020
3962 Rain 17 1016 91 0 1.34 346 22:18 28.04.2020
3963 Rain 17 1017 91 0 1.34 5 21:54 28.04.2020
3964 Rain 17 1017 91 0 1.34 71 21:54 28.04.2020
3965 Rain 17 1016 91 0 1.34 28 21:36 28.04.2020
3966 Clouds 17 1016 93 10000 5.1 10 21:18 28.04.2020
3967 Clouds 17 1016 90 0 0.45 36 20:54 28.04.2020
3968 Clouds 17 1017 90 0 1.34 41 20:36 28.04.2020
3969 Clouds 17 1017 93 10000 4.6 350 20:18 28.04.2020
3970 Clouds 18 1018 84 0 1.79 0 19:42 28.04.2020
3971 Clouds 18 1017 93 10000 3.1 360 19:22 28.04.2020
3972 Clouds 18 1017 93 10000 3.1 360 18:59 28.04.2020
3973 Clouds 18 1018 93 10000 4.1 350 18:40 28.04.2020
3974 Clouds 18 1018 88 10000 3.6 310 18:19 28.04.2020
3975 Clouds 18 1018 88 10000 3.6 310 18:19 28.04.2020
3976 Clouds 18 1018 88 10000 3.6 310 18:19 28.04.2020
3977 Clouds 18 1018 88 10000 3.6 310 18:19 28.04.2020
3978 Clouds 18 1018 88 10000 2.1 350 17:57 28.04.2020
3979 Clouds 18 1018 88 10000 2.1 350 17:36 28.04.2020
3980 Clouds 18 1018 88 10000 2.6 290 17:18 28.04.2020
3981 Clouds 18 1019 88 10000 2.1 320 16:42 28.04.2020
3982 Clouds 18 1019 88 10000 2.6 330 16:23 28.04.2020
3983 Clouds 18 1019 88 10000 2.6 330 15:58 28.04.2020
3984 Clouds 19 1019 81 0 1.34 20 15:39 28.04.2020
3985 Clouds 19 1020 88 10000 3.6 10 15:21 28.04.2020
3986 Rain 19 1020 82 0 1.79 0 14:59 28.04.2020
3987 Rain 19 1020 82 0 1.79 0 14:40 28.04.2020
3988 Rain 19 1020 82 0 1.79 0 14:21 28.04.2020
3989 Rain 19 1020 82 0 1.34 45 13:58 28.04.2020
3990 Clouds 19 1020 88 10000 1.5 350 13:38 28.04.2020
3991 Rain 19 1021 88 10000 1.5 350 13:19 28.04.2020
3992 Rain 19 1021 83 6000 4.1 20 12:46 28.04.2020
3993 Rain 19 1021 83 6000 4.1 20 12:26 28.04.2020
3994 Rain 19 1021 68 10000 3.1 30 11:56 28.04.2020
3995 Rain 20 1021 68 10000 3.1 30 11:37 28.04.2020
3996 Clouds 20 1020 73 10000 3.6 30 11:18 28.04.2020
3997 Clouds 20 1021 66 0 3.13 45 10:39 28.04.2020
3998 Clouds 20 1020 73 10000 6.2 30 10:19 28.04.2020
3999 Clouds 20 1020 73 10000 6.2 30 09:59 28.04.2020
4000 Clouds 20 1020 64 10000 6.7 30 09:40 28.04.2020
4001 Clouds 21 1021 60 10000 6.2 30 09:21 28.04.2020
4002 Clouds 21 1021 60 10000 7.7 30 08:46 28.04.2020
4003 Clouds 21 1021 60 0 4.47 45 08:27 28.04.2020
4004 Clouds 21 1021 60 10000 7.7 30 07:46 28.04.2020
4005 Clouds 21 1022 71 0 2.24 34 07:21 28.04.2020
4006 Clouds 22 1021 60 10000 7.2 30 06:55 28.04.2020
4007 Clouds 22 1021 56 10000 7.7 30 06:28 28.04.2020
4008 Clouds 22 1022 56 10000 6.7 30 05:44 28.04.2020
4009 Clouds 22 1022 56 10000 6.7 30 05:25 28.04.2020
4010 Clouds 22 1023 53 10000 8.2 30 04:33 28.04.2020
4011 Rain 22 1024 56 10000 5.7 30 02:36 28.04.2020
4012 Clouds 20 1024 56 10000 6.2 30 01:25 28.04.2020
4013 Clouds 20 1024 60 10000 6.2 30 00:59 28.04.2020
4014 Clouds 19 1024 68 10000 4.1 30 00:26 28.04.2020
4015 Clouds 18 1024 72 10000 4.1 30 23:48 27.04.2020
4016 Clouds 18 1024 64 10000 4.6 30 23:25 27.04.2020
4017 Clouds 18 1024 64 10000 4.6 30 22:57 27.04.2020
4018 Clouds 18 1024 64 10000 5.1 40 22:38 27.04.2020
4019 Clouds 18 1023 64 10000 5.7 40 22:20 27.04.2020
4020 Clouds 18 1023 64 10000 5.7 40 21:56 27.04.2020
4021 Clouds 18 1023 64 10000 5.1 40 21:38 27.04.2020
4022 Clouds 18 1023 64 10000 5.7 40 21:18 27.04.2020
4023 Clouds 18 1023 64 10000 5.7 40 21:18 27.04.2020
4024 Clouds 19 1023 64 10000 4.6 40 20:55 27.04.2020
4025 Clouds 18 1023 64 10000 4.6 40 20:37 27.04.2020
4026 Clouds 18 1023 68 10000 5.7 40 20:18 27.04.2020
4027 Clouds 18 1023 68 10000 6.2 40 19:40 27.04.2020
4028 Drizzle 18 1023 72 10000 6.7 50 19:22 27.04.2020
4029 Rain 18 1023 72 10000 6.7 50 18:59 27.04.2020
4030 Rain 18 1024 72 10000 4.6 50 18:40 27.04.2020
4031 Rain 18 1024 68 10000 6.2 30 18:19 27.04.2020
4032 Rain 18 1024 68 10000 6.2 30 18:19 27.04.2020
4033 Rain 18 1024 64 10000 5.7 40 17:58 27.04.2020
4034 Rain 18 1024 64 10000 5.7 40 17:39 27.04.2020
4035 Rain 18 1024 68 10000 6.2 50 17:19 27.04.2020
4036 Drizzle 18 1024 72 10000 6.7 50 16:40 27.04.2020
4037 Drizzle 18 1024 72 10000 6.7 40 16:22 27.04.2020
4038 Rain 19 1025 72 10000 5.7 50 15:57 27.04.2020
4039 Rain 19 1025 72 10000 5.7 50 15:38 27.04.2020
4040 Rain 18 1025 72 10000 4.6 40 15:19 27.04.2020
4041 Rain 19 1025 72 10000 4.1 50 14:58 27.04.2020
4042 Rain 18 1025 72 10000 4.1 50 14:40 27.04.2020
4043 Rain 19 1025 72 10000 4.6 50 14:19 27.04.2020
4044 Rain 19 1025 72 10000 4.6 50 13:56 27.04.2020
4045 Rain 19 1025 72 10000 5.1 50 13:36 27.04.2020
4046 Rain 19 1024 77 10000 5.7 50 13:18 27.04.2020
4047 Rain 19 1024 77 10000 5.1 50 12:42 27.04.2020
4048 Rain 19 1024 68 10000 5.1 50 12:21 27.04.2020
4049 Rain 20 1024 68 10000 4.6 50 11:42 27.04.2020
4050 Rain 19 1024 68 10000 3.1 40 11:22 27.04.2020
4051 -273 0 0 0 0 0 10:59 27.04.2020
4052 Rain 19 1023 72 10000 3.92 69 10:41 27.04.2020
4053 Rain 19 1023 72 10000 3.92 69 10:23 27.04.2020
4054 Clouds 19 1023 72 10000 2.6 50 09:56 27.04.2020
4055 Rain 19 1015 76 0 0.45 259 09:36 27.04.2020
4056 Drizzle 19 1023 68 10000 3.6 50 09:18 27.04.2020
4057 Clouds 20 1023 64 10000 3.1 40 08:46 27.04.2020
4058 Clouds 20 1023 64 10000 3.1 40 08:27 27.04.2020
4059 Clouds 20 1023 82 10000 3.6 180 07:45 27.04.2020
4060 Clouds 20 1022 77 10000 4.1 170 07:24 27.04.2020
4061 Clouds 20 1022 77 10000 4.1 170 06:58 27.04.2020
4062 Rain 20 1022 77 10000 4.1 170 06:30 27.04.2020
4063 Clouds 20 1022 77 10000 4.6 170 05:56 27.04.2020
4064 Drizzle 20 1023 77 10000 4.1 170 05:18 27.04.2020
4065 Clouds 21 1023 72 10000 3.6 170 04:39 27.04.2020
4066 Drizzle 21 1023 72 10000 3.6 190 03:45 27.04.2020
4067 Drizzle 21 1023 72 10000 3.6 190 03:45 27.04.2020
4068 Clouds 19 1023 82 10000 3.6 200 02:30 27.04.2020
4069 Clouds 18 1023 82 10000 3.6 230 01:20 27.04.2020
4070 Clouds 16 1023 82 10000 3.6 240 00:40 27.04.2020
4071 Clouds 16 1023 88 10000 3.1 240 00:18 27.04.2020
4072 Clouds 15 1022 88 10000 3.6 240 23:55 26.04.2020
4073 Clouds 15 1022 88 10000 3.6 240 23:36 26.04.2020
4074 Clouds 15 1022 88 10000 3.6 240 23:36 26.04.2020
4075 Clouds 15 1022 88 10000 3.6 230 23:18 26.04.2020
4076 Rain 15 1022 88 10000 3.6 230 22:40 26.04.2020
4077 Rain 15 1021 88 10000 4.6 200 22:21 26.04.2020
4078 Rain 15 1021 88 10000 4.6 200 21:59 26.04.2020
4079 Rain 15 1021 88 10000 4.6 200 21:59 26.04.2020
4080 Rain 16 1021 88 10000 4.1 200 21:41 26.04.2020
4081 Rain 16 1021 88 10000 4.6 220 21:19 26.04.2020
4082 Rain 16 1021 88 10000 4.6 220 20:59 26.04.2020
4083 Rain 16 1021 82 10000 4.1 230 20:39 26.04.2020
4084 Rain 16 1020 82 10000 4.6 170 20:20 26.04.2020
4085 Rain 16 1020 82 10000 4.6 170 19:58 26.04.2020
4086 Rain 16 1020 82 10000 4.6 180 19:38 26.04.2020
4087 Rain 16 1020 88 10000 7.2 160 19:19 26.04.2020
4088 Rain 16 1020 77 10000 6.7 190 18:44 26.04.2020
4089 Rain 16 1020 68 10000 3.6 220 18:25 26.04.2020
4090 Rain 16 1020 68 10000 5.1 220 17:56 26.04.2020
4091 Rain 16 1020 68 10000 5.1 220 17:38 26.04.2020
4092 Clouds 16 1020 63 10000 5.1 220 17:18 26.04.2020
4093 Clouds 16 1020 63 10000 5.7 220 16:40 26.04.2020
4094 Clouds 17 1019 59 10000 6.2 220 16:22 26.04.2020
4095 Clouds 17 1019 59 10000 6.2 220 15:59 26.04.2020
4096 Clouds 17 1019 63 10000 4.6 230 15:40 26.04.2020
4097 Clouds 17 1019 63 10000 4.6 230 15:21 26.04.2020
4098 Clouds 18 1019 55 10000 4.1 240 14:56 26.04.2020
4099 Clouds 18 1019 55 10000 4.1 240 14:38 26.04.2020
4100 Clouds 18 1018 55 10000 4.6 250 14:18 26.04.2020
4101 Clouds 19 1018 55 10000 4.6 250 13:54 26.04.2020
4102 Clouds 19 1018 52 10000 5.1 250 13:36 26.04.2020
4103 Clouds 19 1017 56 10000 6.7 270 13:18 26.04.2020
4104 Clouds 20 1017 52 10000 7.7 260 12:40 26.04.2020
4105 Clouds 20 1017 52 10000 7.7 260 12:40 26.04.2020
4106 Clouds 20 1017 56 10000 7.2 260 12:21 26.04.2020
4107 Clouds 21 1017 56 10000 7.2 260 11:59 26.04.2020
4108 Clouds 21 1016 53 10000 8.7 240 11:40 26.04.2020
4109 Clouds 22 1015 56 10000 9.3 220 11:21 26.04.2020
4110 Clouds 22 1015 56 10000 9.3 220 11:21 26.04.2020
4111 Clouds 22 1015 43 0 4.02 270 10:56 26.04.2020
4112 Clouds 22 1015 43 0 4.02 270 10:38 26.04.2020
4113 Clouds 23 1016 51 0 6.26 279 10:20 26.04.2020
4114 Clouds 23 1014 44 10000 3.6 230 09:40 26.04.2020
4115 Rain 24 1013 36 10000 7.2 270 09:22 26.04.2020
4116 Rain 24 1013 36 10000 7.2 270 08:58 26.04.2020
4117 Clouds 24 1006 49 0 4.09 229 08:40 26.04.2020
4118 Clouds 24 1005 48 0 0.45 31 08:20 26.04.2020
4119 Clouds 24 1012 31 10000 5.7 310 07:46 26.04.2020
4120 Clouds 25 1004 45 0 0.45 241 07:21 26.04.2020
4121 Clouds 25 1004 44 0 0.89 287 06:44 26.04.2020
4122 Clouds 26 1004 45 0 1.34 299 05:58 26.04.2020
4123 Clouds 26 1012 30 10000 10.3 290 05:39 26.04.2020
4124 Clouds 27 1012 30 10000 8.7 310 04:58 26.04.2020
4125 Clouds 27 1013 32 10000 5.7 330 04:23 26.04.2020
4126 Clouds 24 1014 36 10000 5.7 350 02:53 26.04.2020
4127 Clouds 24 1014 36 10000 5.7 350 02:32 26.04.2020
4128 Clouds 22 1015 52 10000 4.6 330 01:51 26.04.2020
4129 Clouds 22 1015 52 10000 4.6 330 01:27 26.04.2020
4130 Clouds 19 1015 63 10000 3.1 310 00:40 26.04.2020
4131 Clouds 18 1014 72 10000 2.6 260 00:19 26.04.2020
4132 Clouds 16 1014 82 10000 2.1 280 23:39 25.04.2020
4133 Clouds 15 1014 82 10000 2.1 330 23:21 25.04.2020
4134 Clouds 15 1014 82 10000 2.1 330 22:58 25.04.2020
4135 Clouds 15 1013 82 10000 3.1 310 22:40 25.04.2020
4136 Clouds 15 1014 82 10000 2.6 280 22:19 25.04.2020
4137 Clouds 15 1014 77 10000 3.1 280 21:56 25.04.2020
4138 Clouds 15 1014 77 10000 3.1 280 21:36 25.04.2020
4139 Clouds 16 1014 77 10000 2.6 290 21:18 25.04.2020
4140 Clouds 16 1014 72 10000 2.6 340 20:42 25.04.2020
4141 Clouds 16 1015 77 10000 3.1 270 20:22 25.04.2020
4142 Clouds 16 1015 77 10000 3.1 270 19:58 25.04.2020
4143 Clouds 16 1014 77 10000 3.6 340 19:38 25.04.2020
4144 Clouds 16 1015 72 10000 3.1 350 19:19 25.04.2020
4145 Clouds 16 1016 72 10000 3.1 350 18:43 25.04.2020
4146 Clear 16 1016 68 10000 2.6 330 18:21 25.04.2020
4147 Clear 16 1016 68 10000 2.6 330 17:59 25.04.2020
4148 Clear 16 1016 72 10000 3.1 290 17:39 25.04.2020
4149 Clear 17 1016 68 10000 3.6 330 17:20 25.04.2020
4150 Clear 17 1016 68 10000 3.6 330 16:59 25.04.2020
4151 Clear 17 1016 68 10000 3.6 330 16:41 25.04.2020
4152 Clear 17 1017 72 10000 3.6 330 16:21 25.04.2020
4153 Clear 17 1017 68 10000 3.6 340 15:55 25.04.2020
4154 Clear 18 1017 68 10000 3.6 340 15:36 25.04.2020
4155 Clear 18 1017 68 10000 3.6 350 15:18 25.04.2020
4156 Clear 18 1017 60 0 1.34 340 14:40 25.04.2020
4157 Clouds 19 1018 64 10000 4.1 350 14:21 25.04.2020
4158 Clouds 19 1018 64 10000 4.1 350 13:59 25.04.2020
4159 Clouds 19 1018 68 10000 3.6 340 13:41 25.04.2020
4160 Clouds 20 1017 64 10000 7.2 20 13:18 25.04.2020
4161 Clouds 20 1017 64 10000 7.7 20 12:55 25.04.2020
4162 Clouds 20 1017 64 10000 7.7 20 12:37 25.04.2020
4163 Clear 21 1010 72 0 2.24 313 12:18 25.04.2020
4164 Clear 21 1010 72 0 2.24 313 12:18 25.04.2020
4165 Clear 21 1010 70 0 3.13 307 11:42 25.04.2020
4166 Clear 21 1017 61 0 5.81 20 11:24 25.04.2020
4167 Clear 21 1017 61 0 5.81 20 10:57 25.04.2020
4168 Clear 22 1016 64 10000 8.2 30 10:38 25.04.2020
4169 Clear 22 1009 74 0 2.24 304 10:20 25.04.2020
4170 Clouds 22 1016 60 10000 7.7 30 09:43 25.04.2020
4171 Clear 23 1017 57 10000 8.7 30 09:22 25.04.2020
4172 Clear 24 1017 53 10000 7.7 40 08:56 25.04.2020
4173 Clear 24 1017 53 10000 7.7 40 08:38 25.04.2020
4174 Clear 25 1017 53 10000 6.7 40 08:19 25.04.2020
4175 Clear 25 1017 53 10000 6.7 40 07:44 25.04.2020
4176 Clear 25 1017 53 10000 6.7 40 07:23 25.04.2020
4177 Clouds 26 1017 50 10000 7.2 60 06:44 25.04.2020
4178 Clouds 26 1018 44 10000 3.1 30 05:48 25.04.2020
4179 Clear 26 1019 42 10000 4.6 10 05:30 25.04.2020
4180 Clouds 25 1020 44 10000 4.1 350 04:29 25.04.2020
4181 Clear 23 1021 46 10000 3.6 300 02:44 25.04.2020
4182 Clear 21 1021 53 10000 3.1 310 02:19 25.04.2020
4183 Clear 21 1022 60 10000 3.1 320 01:50 25.04.2020
4184 Clear 20 1022 60 10000 3.1 320 01:27 25.04.2020
4185 Clear 17 1022 72 10000 3.6 330 00:50 25.04.2020
4186 Clear 16 1022 72 10000 3.6 330 00:29 25.04.2020
4187 Clear 14 1021 82 10000 4.1 290 23:43 24.04.2020
4188 Clear 13 1022 82 0 2.68 322 23:22 24.04.2020
4189 Clear 13 1020 77 10000 3.1 320 22:56 24.04.2020
4190 Clear 13 1020 77 10000 3.1 320 22:37 24.04.2020
4191 Clear 13 1020 77 10000 3.1 330 22:19 24.04.2020
4192 Clear 14 1020 82 10000 3.1 320 21:54 24.04.2020
4193 Clear 14 1020 82 10000 3.1 320 21:36 24.04.2020
4194 Clear 14 1020 82 10000 3.6 330 21:18 24.04.2020
4195 Clear 14 1020 77 10000 2.6 350 20:54 24.04.2020
4196 Clear 14 1020 77 10000 2.6 350 20:36 24.04.2020
4197 Clear 14 1020 77 10000 2.6 360 20:18 24.04.2020
4198 Clear 15 1020 77 10000 0.5 310 19:39 24.04.2020
4199 Clear 15 1020 82 10000 2.6 310 19:20 24.04.2020
4200 Clear 15 1020 82 10000 2.6 310 18:44 24.04.2020
4201 Clear 15 1020 82 10000 2.6 310 18:25 24.04.2020
4202 Clear 15 1020 82 10000 3.1 350 17:55 24.04.2020
4203 Clear 15 1020 82 10000 3.24 246 17:37 24.04.2020
4204 Clear 15 1020 82 10000 3.24 246 17:19 24.04.2020
4205 Clear 15 1020 82 10000 3.24 246 16:57 24.04.2020
4206 Clear 15 1020 77 10000 3.24 246 16:38 24.04.2020
4207 Clear 16 1020 82 10000 3.24 246 16:20 24.04.2020
4208 Clear 16 1020 77 10000 3.24 246 15:42 24.04.2020
4209 Clear 17 1020 77 10000 3.92 237 15:21 24.04.2020
4210 Clear 16 1020 77 10000 3.92 237 14:56 24.04.2020
4211 Clear 16 1020 82 10000 0.5 40 14:37 24.04.2020
4212 Clear 17 1019 82 10000 0.5 190 14:18 24.04.2020
4213 Clear 18 1019 82 10000 0.5 220 13:41 24.04.2020
4214 Clear 18 1019 82 10000 2.1 210 13:21 24.04.2020
4215 Clear 18 1019 82 10000 2.1 210 12:58 24.04.2020
4216 Clear 19 1019 72 10000 1.5 160 12:40 24.04.2020
4217 Clear 19 1018 72 10000 1 160 12:20 24.04.2020
4218 Clear 20 1018 77 10000 1.5 160 11:43 24.04.2020
4219 Clear 20 1018 77 10000 1.5 160 11:23 24.04.2020
4220 Clear 21 1018 77 10000 2.6 150 10:59 24.04.2020
4221 Clear 21 1017 68 10000 3.1 130 10:38 24.04.2020
4222 Clear 22 1017 60 10000 3.1 130 10:20 24.04.2020
4223 Clear 23 1016 56 10000 3.1 130 09:57 24.04.2020
4224 Clear 23 1016 56 10000 3.1 130 09:39 24.04.2020
4225 Clear 24 1016 50 10000 4.1 130 09:20 24.04.2020
4226 Clear 26 1016 44 10000 4.6 120 08:43 24.04.2020
4227 Clear 27 1016 34 10000 4.1 130 08:21 24.04.2020
4228 Clear 27 1016 34 10000 4.1 130 07:59 24.04.2020
4229 Clear 27 1015 32 10000 4.6 120 07:41 24.04.2020
4230 Clear 27 1015 32 10000 4.6 210 07:22 24.04.2020
4231 Clear 27 1015 31 10000 4.6 230 06:45 24.04.2020
4232 Clear 27 1015 34 10000 4.1 240 06:23 24.04.2020
4233 Clear 27 1015 30 10000 5.1 230 05:39 24.04.2020
4234 Clear 25 1016 29 10000 5.7 270 03:41 24.04.2020
4235 Clear 24 1017 36 10000 5.7 290 02:55 24.04.2020
4236 Clear 24 1017 33 10000 5.7 280 02:37 24.04.2020
4237 Clear 23 1017 43 10000 3.6 300 01:47 24.04.2020
4238 Clear 22 1017 49 10000 3.6 310 00:56 24.04.2020
4239 Clouds 18 1016 55 10000 2.6 310 00:20 24.04.2020
4240 Clouds 17 1016 59 10000 3.6 290 23:54 23.04.2020
4241 Clouds 17 1016 59 10000 3.6 290 23:36 23.04.2020
4242 Clouds 17 1016 59 10000 0.5 330 23:18 23.04.2020
4243 Clouds 17 1016 59 10000 0.5 330 22:54 23.04.2020
4244 Rain 17 1016 59 10000 3.6 310 22:36 23.04.2020
4245 Clouds 17 1015 59 10000 4.1 300 22:18 23.04.2020
4246 Clouds 17 1015 59 10000 4.1 300 21:54 23.04.2020
4247 Clouds 17 1015 59 10000 3.6 290 21:36 23.04.2020
4248 Clouds 17 1015 63 10000 3.6 260 21:18 23.04.2020
4249 Clouds 17 1015 59 10000 3.1 280 20:41 23.04.2020
4250 Clouds 17 1015 63 10000 1 290 20:21 23.04.2020
4251 Clouds 17 1015 63 10000 1 290 19:57 23.04.2020
4252 Clouds 17 1015 63 10000 2.82 305 19:39 23.04.2020
4253 Clouds 17 1015 63 10000 2.6 280 19:21 23.04.2020
4254 Clouds 17 1015 63 10000 2.6 280 18:56 23.04.2020
4255 Clouds 17 1015 63 10000 0.5 240 18:36 23.04.2020
4256 Clouds 17 1015 59 10000 1.5 240 18:18 23.04.2020
4257 Clouds 17 1015 55 10000 3.6 330 17:55 23.04.2020
4258 Clouds 18 1015 55 10000 3.6 330 17:36 23.04.2020
4259 Clouds 18 1015 55 10000 3.6 330 17:36 23.04.2020
4260 Clouds 18 1015 59 10000 3.6 350 17:18 23.04.2020
4261 Clouds 18 1015 52 10000 1 10 16:43 23.04.2020
4262 Clouds 18 1015 59 10000 3.1 320 16:19 23.04.2020
4263 Clouds 18 1016 53 0 2.24 270 15:43 23.04.2020
4264 Clouds 18 1016 53 0 2.24 270 15:23 23.04.2020
4265 Clouds 18 1016 52 0 1.79 270 14:59 23.04.2020
4266 Clouds 18 1016 52 0 1.79 270 14:39 23.04.2020
4267 Clouds 18 1016 52 0 1.79 270 14:39 23.04.2020
4268 Clouds 18 1016 63 10000 2.6 250 14:20 23.04.2020
4269 Clouds 18 1016 63 10000 2.6 250 13:57 23.04.2020
4270 Clouds 19 1017 68 10000 2.1 210 13:38 23.04.2020
4271 Clouds 19 1016 56 10000 2.6 250 13:19 23.04.2020
4272 Clouds 19 1016 56 10000 2.6 250 12:55 23.04.2020
4273 Clouds 19 1016 47 0 3.13 0 12:37 23.04.2020
4274 Clouds 19 1016 52 10000 3.6 10 12:18 23.04.2020
4275 Clouds 19 1009 63 0 0.89 340 11:43 23.04.2020
4276 Clouds 19 1009 63 0 0.89 317 11:25 23.04.2020
4277 Clouds 20 1016 56 10000 4.6 30 10:56 23.04.2020
4278 Clouds 20 1016 56 10000 4.6 30 10:56 23.04.2020
4279 Clouds 20 1016 53 0 3.58 20 10:38 23.04.2020
4280 Clouds 20 1016 53 10000 5.7 30 10:19 23.04.2020
4281 Clouds 21 1016 53 10000 6.7 30 09:37 23.04.2020
4282 Clouds 21 1015 49 10000 6.7 30 09:18 23.04.2020
4283 Clouds 23 1015 46 10000 6.7 40 08:46 23.04.2020
4284 Clouds 23 1015 46 10000 6.7 40 08:27 23.04.2020
4285 Clouds 24 1016 27 10000 5.7 10 07:44 23.04.2020
4286 Clouds 24 1016 27 10000 5.7 10 07:24 23.04.2020
4287 Clouds 24 1016 27 10000 4.6 10 06:50 23.04.2020
4288 Clouds 24 1016 27 10000 4.6 10 06:28 23.04.2020
4289 Clouds 24 1018 27 10000 4.6 310 05:32 23.04.2020
4290 Clouds 24 1019 29 10000 4.1 300 04:54 23.04.2020
4291 Clouds 20 1020 46 10000 4.6 310 02:40 23.04.2020
4292 Clouds 20 1021 49 10000 4.1 310 02:22 23.04.2020
4293 Clouds 18 1021 48 10000 4.1 310 01:35 23.04.2020
4294 Clouds 16 1021 55 10000 3.1 350 00:49 23.04.2020
4295 Clouds 14 1020 59 10000 4.1 310 00:25 23.04.2020
4296 Clouds 13 1020 62 10000 3.6 300 23:53 22.04.2020
4297 Clouds 12 1020 67 10000 4.6 300 23:26 22.04.2020
4298 Clouds 12 1020 67 10000 4.6 300 22:59 22.04.2020
4299 Clouds 12 1020 62 10000 4.1 320 22:39 22.04.2020
4300 Clouds 12 1020 58 10000 2.6 350 22:19 22.04.2020
4301 Clouds 12 1020 67 10000 2.6 20 21:57 22.04.2020
4302 Clouds 13 1020 67 10000 2.6 20 21:39 22.04.2020
4303 Clouds 13 1019 71 10000 3.1 310 21:20 22.04.2020
4304 Clouds 13 1019 71 10000 3.1 310 21:20 22.04.2020
4305 Clouds 12 1019 76 10000 3.6 320 20:55 22.04.2020
4306 Clouds 12 1019 76 10000 3.6 320 20:37 22.04.2020
4307 Clouds 13 1019 76 10000 3.1 350 20:18 22.04.2020
4308 Clouds 12 1019 76 10000 3.1 350 19:55 22.04.2020
4309 Clouds 12 1019 76 10000 3.6 320 19:36 22.04.2020
4310 Clouds 12 1019 77 10000 2.6 340 19:18 22.04.2020
4311 Clouds 12 1019 82 10000 2.6 320 18:55 22.04.2020
4312 Clear 13 1019 82 10000 2.6 320 18:37 22.04.2020
4313 Clear 13 1019 77 10000 0.5 240 18:18 22.04.2020
4314 Clear 14 1019 77 10000 3.83 242 17:42 22.04.2020
4315 Clear 14 1019 77 10000 3.1 230 17:23 22.04.2020
4316 Clear 14 1019 82 10000 3.1 230 16:47 22.04.2020
4317 Clear 14 1019 82 10000 3.1 230 16:28 22.04.2020
4318 Clear 14 1019 77 10000 2.1 210 15:59 22.04.2020
4319 Clear 14 1019 77 10000 3.83 242 15:38 22.04.2020
4320 Clear 15 1019 72 10000 0.5 350 15:19 22.04.2020
4321 Clear 15 1019 72 10000 0.5 350 14:56 22.04.2020
4322 Clear 15 1019 68 10000 2.1 320 14:36 22.04.2020
4323 Clear 15 1023 80 0 3.06 254 14:18 22.04.2020
4324 Clear 15 1019 68 10000 2.1 270 13:43 22.04.2020
4325 Clear 16 1018 68 10000 1.5 50 13:20 22.04.2020
4326 Clear 17 1018 63 10000 1.5 50 12:44 22.04.2020
4327 Clear 17 1018 59 10000 0.43 123 12:24 22.04.2020
4328 Clear 17 1018 59 10000 0.43 123 11:58 22.04.2020
4329 Clear 17 1018 59 10000 0.43 123 11:58 22.04.2020
4330 Clear 18 1018 56 10000 1.5 50 11:39 22.04.2020
4331 Clear 18 1018 56 10000 1.5 50 11:39 22.04.2020
4332 Clear 18 1017 56 10000 1 50 11:20 22.04.2020
4333 Clear 19 1017 52 10000 2.6 50 10:45 22.04.2020
4334 Clear 20 1017 52 10000 3.1 40 10:25 22.04.2020
4335 Clear 21 1017 52 10000 3.1 40 09:56 22.04.2020
4336 Clear 21 1016 49 10000 2.1 80 09:37 22.04.2020
4337 Clear 22 1016 49 10000 4.1 120 09:19 22.04.2020
4338 Clear 23 1016 46 10000 4.6 120 08:54 22.04.2020
4339 Clear 24 1016 46 10000 4.6 120 08:36 22.04.2020
4340 Clear 24 1016 46 10000 4.1 130 08:18 22.04.2020
4341 Clear 24 1016 40 10000 4.6 110 07:44 22.04.2020
4342 Clear 25 1016 38 10000 4.6 120 07:21 22.04.2020
4343 Clear 25 1016 38 10000 3.6 130 06:44 22.04.2020
4344 Clear 25 1017 33 10000 4.6 230 05:45 22.04.2020
4345 Clear 25 1017 33 10000 4.6 230 05:23 22.04.2020
4346 Clear 24 1018 36 10000 5.1 230 03:54 22.04.2020
4347 Clear 22 1018 43 10000 6.2 240 02:37 22.04.2020
4348 Clear 21 1019 49 10000 7.7 250 01:42 22.04.2020
4349 Clear 21 1018 59 10000 6.2 240 01:23 22.04.2020
4350 Clear 18 1018 67 10000 4.1 290 00:45 22.04.2020
4351 Clear 17 1017 67 10000 3.6 280 00:21 22.04.2020
4352 Clear 15 1017 67 10000 3.6 280 23:56 21.04.2020
4353 Clear 14 1017 77 10000 4.1 260 23:36 21.04.2020
4354 Clear 14 1017 72 10000 2.6 280 23:18 21.04.2020
4355 Clear 14 1016 72 10000 2.6 290 22:39 21.04.2020
4356 Clear 14 1016 72 10000 4.1 340 22:21 21.04.2020
4357 Clear 14 1016 72 10000 4.1 340 21:58 21.04.2020
4358 Clear 14 1016 72 10000 4.1 340 21:58 21.04.2020
4359 Clear 14 1016 72 10000 3.6 350 21:40 21.04.2020
4360 Clear 14 1016 72 10000 4.1 320 21:22 21.04.2020
4361 Clear 15 1015 72 10000 4.1 300 20:41 21.04.2020
4362 Clear 15 1016 77 10000 4.6 270 20:23 21.04.2020
4363 Clear 15 1016 77 10000 4.6 270 19:59 21.04.2020
4364 Clear 15 1015 77 10000 4.6 270 19:40 21.04.2020
4365 Clear 16 1015 77 10000 3.6 270 19:19 21.04.2020
4366 Clear 16 1015 77 10000 3.6 270 19:19 21.04.2020
4367 Clear 16 1015 77 10000 3.6 270 18:56 21.04.2020
4368 Clear 16 1015 82 10000 3.1 320 18:38 21.04.2020
4369 Clear 16 1016 77 10000 2.1 350 18:18 21.04.2020
4370 Clear 16 1016 77 10000 2.1 350 18:18 21.04.2020
4371 Clear 16 1016 77 10000 3.6 350 17:41 21.04.2020
4372 Clear 16 1016 72 10000 2.6 340 17:22 21.04.2020
4373 Clear 16 1016 63 10000 3.31 282 16:59 21.04.2020
4374 Clear 17 1016 63 10000 3.31 282 16:38 21.04.2020
4375 Clear 17 1016 72 10000 1.5 270 16:19 21.04.2020
4376 Clear 17 1016 72 10000 1.5 270 15:56 21.04.2020
4377 Clear 18 1016 68 10000 2.6 270 15:38 21.04.2020
4378 Clouds 18 1016 63 10000 3.6 270 15:19 21.04.2020
4379 Clouds 19 1016 64 10000 3.1 300 14:45 21.04.2020
4380 Clouds 19 1016 64 10000 3.1 310 14:25 21.04.2020
4381 Clouds 19 1016 64 10000 3.1 310 13:59 21.04.2020
4382 Clouds 19 1015 64 10000 3.6 340 13:40 21.04.2020
4383 Clouds 19 1015 64 10000 3.6 340 13:22 21.04.2020
4384 Clouds 19 1015 64 10000 4.1 10 12:54 21.04.2020
4385 Clouds 19 1015 64 10000 4.1 10 12:36 21.04.2020
4386 Clouds 19 1016 64 0 1.79 5 12:18 21.04.2020
4387 Clouds 19 1015 59 0 1.34 45 12:18 21.04.2020
4388 Clouds 20 1015 57 0 2.68 20 11:54 21.04.2020
4389 Clouds 20 1015 57 0 2.68 20 11:36 21.04.2020
4390 Clouds 20 1008 70 0 0.45 12 11:18 21.04.2020
4391 Clouds 20 1008 70 0 0.45 1 10:54 21.04.2020
4392 Clouds 20 1014 60 10000 5.7 30 10:36 21.04.2020
4393 Clouds 20 1014 56 10000 6.7 40 10:18 21.04.2020
4394 Clouds 21 1014 56 10000 6.7 40 09:37 21.04.2020
4395 Clouds 21 1014 53 10000 7.2 30 09:18 21.04.2020
4396 Clouds 22 1014 46 10000 7.7 30 08:55 21.04.2020
4397 Clouds 22 1014 46 10000 7.7 30 08:37 21.04.2020
4398 Clouds 23 1014 44 10000 6.7 40 08:18 21.04.2020
4399 Clouds 24 1014 41 10000 6.7 70 07:43 21.04.2020
4400 Clouds 24 1014 44 10000 6.7 80 07:20 21.04.2020
4401 Clouds 24 1015 41 10000 5.7 90 06:44 21.04.2020
4402 Clouds 24 1015 31 10000 1.5 150 06:19 21.04.2020
4403 Clouds 24 1015 33 10000 2.1 330 05:45 21.04.2020
4404 Clouds 23 1018 40 10000 2.1 270 03:48 21.04.2020
4405 Clouds 23 1018 43 10000 2.1 270 03:27 21.04.2020
4406 Clouds 20 1019 52 10000 3.1 290 01:40 21.04.2020
4407 Clouds 18 1019 59 10000 2.6 280 00:52 21.04.2020
4408 Clouds 17 1019 59 10000 2.6 280 00:31 21.04.2020
4409 Clouds 14 1018 63 10000 3.6 300 23:44 20.04.2020
4410 Clouds 14 1018 63 10000 3.6 300 23:23 20.04.2020
4411 Clouds 13 1017 67 10000 2.1 270 22:57 20.04.2020
4412 Clouds 14 1017 67 10000 2.1 270 22:38 20.04.2020
4413 Clouds 14 1017 77 10000 5.7 310 22:19 20.04.2020
4414 Clouds 14 1017 77 10000 5.7 310 22:19 20.04.2020
4415 Clouds 14 1017 77 10000 5.7 310 22:19 20.04.2020
4416 Clouds 14 1017 77 10000 5.7 310 22:19 20.04.2020
4417 Clouds 14 1017 77 10000 5.7 310 21:56 20.04.2020
4418 Clouds 14 1017 72 10000 3.6 350 21:38 20.04.2020
4419 Clouds 14 1017 72 10000 4.1 280 21:19 20.04.2020
4420 Clouds 14 1016 72 10000 4.1 290 20:56 20.04.2020
4421 Clouds 14 1016 72 10000 4.1 290 20:37 20.04.2020
4422 Clouds 14 1016 67 10000 5.1 290 20:18 20.04.2020
4423 Clouds 15 1016 67 10000 4.6 290 19:55 20.04.2020
4424 Clouds 15 1016 67 10000 4.6 290 19:37 20.04.2020
4425 Clouds 15 1016 67 10000 5.1 300 19:18 20.04.2020
4426 Clouds 15 1017 72 10000 5.7 290 18:42 20.04.2020
4427 Clouds 15 1017 72 10000 5.7 290 18:22 20.04.2020
4428 Clouds 15 1017 72 10000 5.1 280 18:22 20.04.2020
4429 Clouds 16 1016 72 10000 5.1 290 17:55 20.04.2020
4430 Clouds 16 1016 72 10000 5.1 290 17:37 20.04.2020
4431 Clouds 16 1016 72 10000 3.1 320 17:19 20.04.2020
4432 Clouds 16 1016 72 10000 3.1 300 16:57 20.04.2020
4433 Clouds 16 1016 72 10000 3.1 300 16:38 20.04.2020
4434 Clouds 16 1016 67 10000 3.6 290 16:18 20.04.2020
4435 Clouds 16 1016 67 10000 4.1 280 15:42 20.04.2020
4436 Clouds 17 1016 63 10000 4.6 290 15:23 20.04.2020
4437 Clouds 17 1016 63 10000 4.6 290 14:55 20.04.2020
4438 Clouds 17 1016 63 10000 4.6 280 14:36 20.04.2020
4439 Clouds 18 1016 59 10000 5.7 280 14:18 20.04.2020
4440 Clouds 18 1016 59 10000 6.2 270 13:41 20.04.2020
4441 Clouds 18 1015 59 10000 5.7 280 13:23 20.04.2020
4442 Clouds 19 1015 59 10000 5.7 280 12:58 20.04.2020
4443 Clouds 19 1015 55 10000 6.2 280 12:39 20.04.2020
4444 Clouds 19 1015 52 10000 5.1 280 12:18 20.04.2020
4445 Clouds 19 1014 52 10000 4.1 290 11:40 20.04.2020
4446 Clouds 19 1014 49 10000 3.6 310 11:22 20.04.2020
4447 Clouds 19 1014 49 10000 3.6 310 10:57 20.04.2020
4448 Clouds 19 1013 52 10000 2.6 290 10:39 20.04.2020
4449 Clouds 19 1013 52 10000 3.1 290 10:19 20.04.2020
4450 Clouds 19 1013 52 10000 3.1 290 09:58 20.04.2020
4451 Clouds 19 1005 59 0 0.45 169 09:39 20.04.2020
4452 Clouds 19 1012 45 10000 3.6 310 09:20 20.04.2020
4453 Clouds 18 1005 61 0 0.89 278 08:41 20.04.2020
4454 Clouds 18 1005 61 0 0.89 284 08:23 20.04.2020
4455 Rain 19 1012 45 10000 3.6 330 07:53 20.04.2020
4456 Rain 19 1005 59 0 1.34 284 07:29 20.04.2020
4457 Rain 19 1005 59 0 1.34 280 07:29 20.04.2020
4458 Clouds 19 1005 58 0 0.89 290 06:58 20.04.2020
4459 Clouds 19 1005 57 0 1.34 279 06:37 20.04.2020
4460 Clouds 19 1005 65 0 1.79 280 05:44 20.04.2020
4461 Clouds 19 1014 63 10000 3.6 290 04:33 20.04.2020
4462 Clouds 17 1015 77 10000 4.1 270 02:47 20.04.2020
4463 Clouds 17 1015 72 10000 3.6 320 02:19 20.04.2020
4464 Clouds 16 1016 82 10000 4.1 270 01:29 20.04.2020
4465 Clouds 16 1016 82 10000 3.1 300 00:44 20.04.2020
4466 Clouds 15 1015 87 10000 3.6 290 00:20 20.04.2020
4467 Clouds 15 1015 87 10000 3.6 290 23:39 19.04.2020
4468 Clouds 14 1015 87 10000 3.6 290 23:21 19.04.2020
4469 Clouds 14 1015 87 10000 3.6 290 22:55 19.04.2020
4470 Clouds 14 1015 87 10000 3.6 290 22:55 19.04.2020
4471 Clouds 14 1014 87 10000 3.1 330 22:37 19.04.2020
4472 Clouds 14 1014 87 10000 4.1 310 22:19 19.04.2020
4473 Clouds 13 1014 87 10000 3.6 320 21:42 19.04.2020
4474 Clouds 13 1014 87 10000 3.6 320 21:23 19.04.2020
4475 Clouds 13 1014 87 10000 2.6 330 20:58 19.04.2020
4476 Clouds 13 1014 87 10000 2.6 320 20:39 19.04.2020
4477 Clouds 13 1013 93 10000 3.1 310 20:20 19.04.2020
4478 Clouds 13 1013 93 10000 3.1 350 19:56 19.04.2020
4479 Clouds 13 1013 93 10000 3.1 350 19:38 19.04.2020
4480 Clouds 13 1014 87 10000 3.6 310 19:20 19.04.2020
4481 Clouds 13 1014 87 10000 3.6 310 18:56 19.04.2020
4482 Clouds 13 1014 93 10000 3.1 330 18:38 19.04.2020
4483 Clear 14 1014 87 10000 2.6 330 18:18 19.04.2020
4484 Rain 14 1014 87 10000 3.6 330 17:56 19.04.2020
4485 Rain 14 1014 87 10000 3.6 330 17:37 19.04.2020
4486 Rain 14 1014 87 10000 2.6 330 17:19 19.04.2020
4487 Clouds 14 1014 82 10000 2.6 320 16:40 19.04.2020
4488 Clouds 14 1014 82 10000 3.6 310 16:21 19.04.2020
4489 Clouds 15 1014 87 10000 2.6 360 15:58 19.04.2020
4490 Clouds 15 1014 87 10000 2.6 360 15:40 19.04.2020
4491 Clouds 15 1015 82 10000 2.1 230 15:19 19.04.2020
4492 Clouds 15 1015 82 10000 2.6 220 14:39 19.04.2020
4493 Clouds 15 1015 88 10000 2.1 180 14:21 19.04.2020
4494 Clouds 16 1015 88 10000 1.5 210 13:57 19.04.2020
4495 Clouds 16 1015 88 10000 1.5 210 13:37 19.04.2020
4496 Clouds 16 1015 82 10000 2.6 190 13:18 19.04.2020
4497 Clouds 17 1015 77 10000 2.1 130 12:44 19.04.2020
4498 Clouds 17 1015 77 10000 2.1 130 12:24 19.04.2020
4499 Clouds 17 1014 77 10000 2.6 140 11:55 19.04.2020
4500 Clouds 17 1014 77 10000 2.6 140 11:37 19.04.2020
4501 Clouds 18 1014 77 10000 3.1 110 11:18 19.04.2020
4502 Clouds 18 1013 77 10000 3.1 140 10:41 19.04.2020
4503 Clouds 19 1012 72 10000 3.6 130 10:21 19.04.2020
4504 Clouds 19 1012 72 10000 3.6 130 09:59 19.04.2020
4505 Clouds 19 1012 72 10000 3.6 130 09:59 19.04.2020
4506 Clouds 19 1012 72 10000 4.1 130 09:41 19.04.2020
4507 Clouds 20 1012 68 10000 4.1 130 09:20 19.04.2020
4508 Clouds 20 1013 68 10000 4.6 160 08:40 19.04.2020
4509 Rain 20 1005 70 0 0.89 187 08:21 19.04.2020
4510 Clouds 20 1013 64 10000 4.1 150 07:58 19.04.2020
4511 Clouds 20 1013 68 10000 4.6 160 07:39 19.04.2020
4512 Clouds 21 1013 72 10000 5.1 170 07:21 19.04.2020
4513 Clouds 21 1012 68 10000 4.1 160 06:27 19.04.2020
4514 Rain 21 1013 68 10000 4.1 120 05:43 19.04.2020
4515 Clouds 19 1013 72 10000 6.2 170 04:22 19.04.2020
4516 Rain 20 1014 72 10000 6.7 170 02:55 19.04.2020
4517 Rain 20 1014 63 0 1.34 290 02:20 19.04.2020
4518 Rain 17 1014 72 10000 3.6 290 01:37 19.04.2020
4519 Clouds 15 1014 77 10000 2.6 320 00:42 19.04.2020
4520 Clouds 14 1014 82 10000 3.6 310 00:22 19.04.2020
4521 Clouds 13 1013 81 10000 4.1 310 23:46 18.04.2020
4522 Clouds 14 1013 76 10000 3.1 330 23:22 18.04.2020
4523 Clouds 13 1013 76 10000 3.1 330 22:58 18.04.2020
4524 Clouds 13 1013 81 10000 3.6 310 22:38 18.04.2020
4525 Clouds 13 1013 87 10000 3.6 330 22:20 18.04.2020
4526 Clouds 13 1013 87 10000 3.1 310 21:56 18.04.2020
4527 Clouds 13 1013 87 10000 3.1 310 21:37 18.04.2020
4528 Clouds 13 1013 82 10000 3.1 310 21:19 18.04.2020
4529 Clouds 13 1012 82 10000 3.1 320 20:42 18.04.2020
4530 Clouds 13 1012 82 10000 2.6 330 20:22 18.04.2020
4531 Clouds 13 1012 82 10000 2.6 330 19:56 18.04.2020
4532 Clouds 13 1012 82 10000 3.1 330 19:56 18.04.2020
4533 Clouds 13 1012 82 10000 3.1 330 19:37 18.04.2020
4534 Clouds 13 1012 82 10000 3.1 320 19:19 18.04.2020
4535 Clouds 14 1012 76 10000 4.1 320 18:38 18.04.2020
4536 Rain 14 1012 76 10000 3.1 310 18:19 18.04.2020
4537 Rain 14 1013 77 10000 3.1 300 17:45 18.04.2020
4538 Rain 14 1013 77 10000 1.5 320 17:22 18.04.2020
4539 Rain 14 1013 77 10000 1.5 320 16:58 18.04.2020
4540 Rain 14 1013 77 10000 2.1 300 16:39 18.04.2020
4541 Rain 15 1013 72 10000 2.6 330 16:21 18.04.2020
4542 Rain 15 1013 77 10000 1.5 240 15:40 18.04.2020
4543 Clouds 16 1013 77 10000 2.1 230 15:22 18.04.2020
4544 Clouds 16 1013 77 10000 2.1 230 14:54 18.04.2020
4545 Clouds 16 1013 67 10000 2.1 220 14:36 18.04.2020
4546 Clouds 16 1013 72 10000 2.6 240 14:18 18.04.2020
4547 Clouds 16 1013 67 10000 2.6 230 13:42 18.04.2020
4548 Clouds 16 1013 67 10000 2.1 10 13:20 18.04.2020
4549 Rain 17 1013 59 10000 1.78 104 12:43 18.04.2020
4550 Clear 17 1012 55 10000 2.1 10 12:24 18.04.2020
4551 Clear 17 1012 59 10000 2.6 60 11:57 18.04.2020
4552 Clear 17 1012 59 10000 2.6 60 11:39 18.04.2020
4553 Clear 18 1012 55 10000 3.6 90 11:20 18.04.2020
4554 Clear 18 1011 55 10000 3.6 80 10:42 18.04.2020
4555 Clear 18 1011 55 10000 3.6 80 10:22 18.04.2020
4556 Clear 19 1011 55 10000 3.6 70 09:59 18.04.2020
4557 Clear 19 1011 49 10000 3.6 80 09:40 18.04.2020
4558 Clear 20 1011 43 10000 4.1 120 09:20 18.04.2020
4559 Clear 20 1011 46 10000 5.1 120 08:43 18.04.2020
4560 Clear 21 1011 40 10000 5.1 120 08:22 18.04.2020
4561 Clear 21 1011 30 10000 5.1 120 07:48 18.04.2020
4562 Clear 21 1011 30 10000 5.1 120 07:28 18.04.2020
4563 Clear 22 1011 31 10000 5.7 120 06:42 18.04.2020
4564 Clear 22 1011 33 10000 4.6 150 05:49 18.04.2020
4565 Clear 22 1012 35 10000 2.6 220 04:55 18.04.2020
4566 Clear 22 1012 35 10000 2.6 220 04:31 18.04.2020
4567 Clear 20 1012 37 10000 5.1 260 03:34 18.04.2020
4568 Clear 19 1013 42 10000 7.2 250 02:40 18.04.2020
4569 Clear 18 1013 45 10000 6.7 270 02:21 18.04.2020
4570 Clear 17 1013 45 10000 4.1 290 01:45 18.04.2020
4571 Clear 17 1013 45 10000 4.1 290 01:22 18.04.2020
4572 Clear 16 1013 51 10000 4.1 310 00:37 18.04.2020
4573 Clear 15 1013 51 10000 5.7 260 00:18 18.04.2020
4574 Clear 14 1012 58 10000 6.2 260 23:41 17.04.2020
4575 Clear 14 1012 58 10000 5.7 250 23:20 17.04.2020
4576 Clear 14 1012 58 10000 6.2 260 22:59 17.04.2020
4577 Clear 14 1012 58 10000 6.2 260 22:40 17.04.2020
4578 Clear 14 1012 58 10000 6.7 250 22:20 17.04.2020
4579 Clear 14 1012 58 10000 6.7 250 21:58 17.04.2020
4580 Clear 14 1011 54 10000 6.7 250 21:39 17.04.2020
4581 Clear 14 1011 58 10000 7.2 250 21:19 17.04.2020
4582 Clear 14 1011 58 10000 7.2 250 20:55 17.04.2020
4583 Clear 14 1011 58 10000 6.2 250 20:36 17.04.2020
4584 Clear 15 1011 58 10000 4.6 250 20:18 17.04.2020
4585 Clear 15 1011 54 10000 5.1 240 19:46 17.04.2020
4586 Clear 15 1011 54 10000 6.7 250 19:24 17.04.2020
4587 Clear 15 1011 54 10000 6.7 250 18:55 17.04.2020
4588 Clear 15 1012 51 10000 6.2 260 18:36 17.04.2020
4589 Clear 16 1012 47 10000 4.6 260 18:18 17.04.2020
4590 Clear 16 1012 44 10000 6.7 240 17:38 17.04.2020
4591 Clear 16 1012 45 10000 7.7 250 17:20 17.04.2020
4592 Clear 16 1012 45 10000 7.7 250 17:20 17.04.2020
4593 Clear 16 1012 45 10000 7.7 250 16:58 17.04.2020
4594 Clear 16 1012 48 10000 4.1 230 16:39 17.04.2020
4595 Clear 17 1012 39 10000 5.1 240 16:21 17.04.2020
4596 Clear 17 1012 33 10000 6.7 240 15:39 17.04.2020
4597 Clouds 17 1012 48 10000 3.1 290 15:21 17.04.2020
4598 Clouds 18 1012 49 10000 3.1 250 14:42 17.04.2020
4599 Clouds 18 1012 49 10000 3.1 250 14:24 17.04.2020
4600 Clouds 19 1012 49 10000 3.1 280 13:59 17.04.2020
4601 Clouds 18 1011 25 10000 2.6 280 13:39 17.04.2020
4602 Clouds 18 1011 21 10000 4.1 280 13:20 17.04.2020
4603 Clouds 19 1011 19 10000 5.1 290 12:48 17.04.2020
4604 Clouds 19 1011 19 10000 5.1 290 12:27 17.04.2020
4605 Clouds 19 1010 19 10000 5.7 280 11:59 17.04.2020
4606 Clouds 20 1010 19 10000 5.7 280 11:39 17.04.2020
4607 Clouds 20 1010 17 10000 6.7 260 11:19 17.04.2020
4608 Clouds 21 1010 32 10000 5.1 280 10:40 17.04.2020
4609 Clouds 22 1009 17 10000 5.7 260 10:20 17.04.2020
4610 Clouds 23 1009 17 10000 5.7 260 09:55 17.04.2020
4611 Clouds 24 1009 17 10000 5.1 250 09:36 17.04.2020
4612 Clouds 25 1009 16 10000 7.7 240 09:18 17.04.2020
4613 Clouds 25 1009 16 10000 7.7 240 08:46 17.04.2020
4614 Clouds 26 1008 15 10000 7.2 250 08:27 17.04.2020
4615 Clouds 27 1008 14 10000 6.7 250 07:57 17.04.2020
4616 Clouds 27 1008 14 10000 6.7 250 07:39 17.04.2020
4617 Clouds 27 1008 21 10000 8.7 240 07:18 17.04.2020
4618 Clouds 27 1008 33 10000 6.2 250 06:43 17.04.2020
4619 Clouds 27 1009 19 10000 7.2 250 05:58 17.04.2020
4620 Clouds 24 1011 31 10000 7.7 260 03:23 17.04.2020
4621 Clouds 23 1010 33 10000 7.7 260 02:50 17.04.2020
4622 Clouds 21 1011 40 10000 8.7 270 01:30 17.04.2020
4623 -273 0 0 0 0 0 00:59 17.04.2020
4624 Clouds 19 1011 45 10000 8.2 250 00:21 17.04.2020
4625 Clouds 18 1011 45 10000 8.2 250 23:55 16.04.2020
4626 Clouds 17 1010 52 10000 8.7 250 23:36 16.04.2020
4627 Clouds 17 1010 68 10000 3.1 280 23:18 16.04.2020
4628 Clouds 17 1010 93 10000 0.5 230 22:39 16.04.2020
4629 Clouds 17 1010 88 10000 2.6 160 22:21 16.04.2020
4630 Clouds 17 1010 88 10000 2.6 160 21:58 16.04.2020
4631 Clouds 17 1010 88 10000 3.6 180 21:40 16.04.2020
4632 Clouds 17 1009 88 10000 3.6 180 21:19 16.04.2020
4633 Clouds 18 1009 88 10000 6.2 190 20:42 16.04.2020
4634 Clouds 18 1009 88 10000 6.2 190 20:42 16.04.2020
4635 Clouds 18 1009 88 10000 6.7 190 20:23 16.04.2020
4636 Clouds 18 1009 93 10000 6.7 190 19:59 16.04.2020
4637 Clouds 18 1009 93 10000 6.7 190 19:39 16.04.2020
4638 Clouds 19 1009 93 9000 7.2 180 19:19 16.04.2020
4639 Clouds 19 1009 88 9000 8.2 180 18:56 16.04.2020
4640 Clouds 20 1009 88 9000 8.2 180 18:37 16.04.2020
4641 Clouds 20 1009 77 10000 4.6 180 18:19 16.04.2020
4642 Clouds 21 1008 53 10000 7.7 200 17:43 16.04.2020
4643 Clouds 20 1008 53 10000 7.7 200 17:24 16.04.2020
4644 Clouds 21 1008 49 10000 7.7 200 16:59 16.04.2020
4645 Clouds 21 1008 49 10000 7.7 200 16:41 16.04.2020
4646 Clouds 21 1008 47 10000 5.1 220 16:19 16.04.2020
4647 Clear 21 1008 47 10000 5.1 350 15:42 16.04.2020
4648 Clouds 22 1009 44 10000 6.2 350 15:19 16.04.2020
4649 Clouds 22 1009 44 10000 6.2 350 15:19 16.04.2020
4650 Clouds 22 1009 44 10000 6.2 350 14:58 16.04.2020
4651 Clouds 23 1009 41 10000 6.7 340 14:39 16.04.2020
4652 Clouds 23 1009 41 10000 7.7 340 14:19 16.04.2020
4653 Clouds 23 1009 41 10000 5.1 340 13:56 16.04.2020
4654 Clouds 23 1009 41 10000 5.1 340 13:36 16.04.2020
4655 Clouds 23 1009 44 10000 4.6 340 13:18 16.04.2020
4656 Clouds 23 1009 44 10000 5.1 340 12:56 16.04.2020
4657 Clouds 23 1009 44 10000 5.1 340 12:56 16.04.2020
4658 Clouds 23 1009 44 10000 5.1 340 12:37 16.04.2020
4659 Clouds 24 1009 47 10000 5.1 350 12:18 16.04.2020
4660 Clouds 23 1009 44 10000 5.1 340 11:54 16.04.2020
4661 Clouds 23 1009 44 10000 5.1 340 11:36 16.04.2020
4662 Clouds 24 1009 47 10000 5.1 340 11:18 16.04.2020
4663 Clouds 24 1009 41 10000 5.1 340 10:39 16.04.2020
4664 Clouds 24 1008 44 10000 5.7 340 10:19 16.04.2020
4665 Clouds 24 1008 44 10000 5.7 340 09:58 16.04.2020
4666 Clouds 25 1008 41 10000 7.2 350 09:38 16.04.2020
4667 Rain 25 1008 41 10000 5.7 350 09:19 16.04.2020
4668 Rain 25 1008 41 10000 5.7 350 09:19 16.04.2020
4669 Clouds 25 1009 57 10000 2.6 20 08:42 16.04.2020
4670 Clouds 25 1009 57 10000 3.1 20 08:23 16.04.2020
4671 Rain 25 1009 44 10000 4.6 350 07:46 16.04.2020
4672 Rain 25 1009 44 10000 5.1 340 07:28 16.04.2020
4673 Rain 25 1009 44 10000 4.6 350 07:28 16.04.2020
4674 Rain 25 1009 57 10000 3.6 20 06:46 16.04.2020
4675 Clouds 25 1010 50 10000 4.6 10 06:27 16.04.2020
4676 Clouds 25 1010 39 10000 7.2 310 05:59 16.04.2020
4677 Clouds 26 1011 42 10000 7.2 310 04:44 16.04.2020
4678 Clouds 25 1012 47 10000 5.7 330 03:25 16.04.2020
4679 Clouds 24 1013 50 10000 4.6 350 02:55 16.04.2020
4680 Clouds 23 1013 50 10000 4.6 350 02:33 16.04.2020
4681 Clouds 22 1013 60 10000 3.6 360 01:22 16.04.2020
4682 Clouds 19 1014 68 10000 3.6 360 00:39 16.04.2020
4683 Clouds 19 1014 68 10000 3.6 340 00:18 16.04.2020
4684 Clouds 18 1014 72 10000 2.6 340 23:43 15.04.2020
4685 Clouds 18 1014 72 10000 3.1 300 23:24 15.04.2020
4686 Clouds 18 1014 72 10000 2.1 310 22:58 15.04.2020
4687 Clouds 17 1014 72 10000 2.1 310 22:37 15.04.2020
4688 Clouds 17 1014 77 10000 3.1 260 22:19 15.04.2020
4689 Clouds 18 1014 77 10000 3.1 260 21:54 15.04.2020
4690 Clouds 18 1014 77 10000 3.1 270 21:36 15.04.2020
4691 Clouds 17 1013 77 10000 3.6 310 21:18 15.04.2020
4692 Clouds 18 1013 82 10000 2.6 300 20:41 15.04.2020
4693 Clouds 17 1013 77 10000 2.6 330 20:22 15.04.2020
4694 Clouds 17 1013 77 10000 2.6 330 19:59 15.04.2020
4695 Clouds 17 1013 82 10000 3.1 280 19:40 15.04.2020
4696 Clouds 17 1014 82 10000 2.1 310 19:20 15.04.2020
4697 Clouds 17 1014 77 10000 2.82 315 18:41 15.04.2020
4698 Clouds 18 1014 77 10000 3.29 324 18:22 15.04.2020
4699 Clouds 18 1015 72 10000 3.29 324 17:58 15.04.2020
4700 Clouds 18 1015 72 10000 3.29 324 17:39 15.04.2020
4701 Clouds 18 1015 72 10000 2.1 290 17:20 15.04.2020
4702 Clouds 18 1015 72 10000 0.5 270 16:56 15.04.2020
4703 Clouds 18 1015 72 10000 0.5 270 16:37 15.04.2020
4704 Clouds 18 1015 72 10000 0.5 270 16:37 15.04.2020
4705 Clouds 18 1015 77 10000 3.29 324 16:19 15.04.2020
4706 Clouds 18 1015 77 10000 3.29 324 15:57 15.04.2020
4707 Clouds 19 1016 77 10000 1.5 270 15:38 15.04.2020
4708 Clear 19 1016 73 10000 4.2 357 15:19 15.04.2020
4709 Clear 19 1017 73 10000 0.5 20 14:57 15.04.2020
4710 Clouds 19 1017 73 10000 0.5 20 14:38 15.04.2020
4711 Clouds 19 1017 77 10000 4.86 1 14:20 15.04.2020
4712 Clouds 20 1017 77 10000 4.86 1 13:57 15.04.2020
4713 Clouds 20 1017 68 10000 1.5 340 13:38 15.04.2020
4714 Clouds 20 1017 88 10000 4.86 1 13:19 15.04.2020
4715 Clouds 20 1017 88 10000 4.86 1 12:42 15.04.2020
4716 Clouds 21 1018 73 10000 5.1 30 12:23 15.04.2020
4717 Clouds 21 1018 73 10000 5.1 30 12:23 15.04.2020
4718 Clouds 21 1017 64 10000 5.1 20 11:59 15.04.2020
4719 Clouds 21 1017 64 10000 5.1 20 11:59 15.04.2020
4720 Clouds 21 1017 64 10000 5.1 20 11:40 15.04.2020
4721 Clouds 21 1017 64 10000 5.1 20 11:22 15.04.2020
4722 Clouds 22 1017 60 10000 5.7 30 10:40 15.04.2020
4723 Clouds 23 1017 60 10000 5.7 30 10:22 15.04.2020
4724 Clouds 23 1017 57 10000 7.2 30 09:58 15.04.2020
4725 Clouds 23 1017 57 10000 7.2 30 09:40 15.04.2020
4726 Clouds 25 1017 57 10000 7.2 30 09:22 15.04.2020
4727 Clouds 26 1017 57 10000 7.2 30 08:58 15.04.2020
4728 Clouds 26 1017 53 10000 7.7 30 08:40 15.04.2020
4729 Clouds 26 1017 50 10000 6.7 40 08:19 15.04.2020
4730 Clouds 27 1018 50 10000 6.7 50 07:54 15.04.2020
4731 Clouds 27 1018 50 10000 6.7 50 07:32 15.04.2020
4732 Clouds 27 1018 47 10000 6.2 50 06:34 15.04.2020
4733 Clouds 28 1019 51 10000 5.1 60 05:51 15.04.2020
4734 Clouds 28 1020 42 10000 4.1 120 05:19 15.04.2020
4735 Clouds 27 1020 42 10000 3.1 360 04:44 15.04.2020
4736 Clouds 24 1021 47 10000 4.1 300 03:40 15.04.2020
4737 Clouds 24 1022 53 10000 3.6 320 03:18 15.04.2020
4738 Clouds 22 1022 56 10000 3.1 310 02:30 15.04.2020
4739 Clouds 21 1023 64 10000 3.6 310 01:44 15.04.2020
4740 Clouds 20 1023 72 10000 4.1 310 01:19 15.04.2020
4741 Clouds 17 1023 77 10000 4.1 310 00:37 15.04.2020
4742 Clouds 16 1023 77 10000 3.1 320 00:18 15.04.2020
4743 Clouds 15 1023 77 10000 3.1 320 23:54 14.04.2020
4744 Clouds 15 1023 77 10000 3.1 320 23:36 14.04.2020
4745 Clouds 15 1023 77 10000 3.1 320 23:36 14.04.2020
4746 Clouds 14 1023 87 10000 3.1 310 23:18 14.04.2020
4747 Clouds 14 1023 87 10000 3.1 310 22:55 14.04.2020
4748 Clouds 14 1022 82 10000 3.1 330 22:36 14.04.2020
4749 Clouds 14 1022 87 10000 3.1 320 22:18 14.04.2020
4750 Clouds 14 1023 87 10000 3.1 300 21:55 14.04.2020
4751 Clouds 14 1023 87 10000 3.1 300 21:36 14.04.2020
4752 Clouds 14 1022 87 10000 3.1 330 21:18 14.04.2020
4753 Rain 14 1022 87 10000 3.6 350 20:40 14.04.2020
4754 Rain 14 1022 87 10000 3.6 350 20:40 14.04.2020
4755 Rain 14 1023 87 10000 2.6 310 20:22 14.04.2020
4756 Rain 14 1022 87 10000 2.6 310 19:58 14.04.2020
4757 Rain 14 1022 87 10000 2.6 310 19:39 14.04.2020
4758 Clouds 14 1022 87 10000 2.6 260 19:20 14.04.2020
4759 Clouds 14 1023 88 10000 2.6 230 18:56 14.04.2020
4760 Clear 14 1023 88 10000 2.6 230 18:37 14.04.2020
4761 Clear 15 1023 88 10000 1.5 230 18:18 14.04.2020
4762 Clear 15 1023 93 10000 2.15 304 17:55 14.04.2020
4763 Clear 15 1023 93 10000 1.96 301 17:37 14.04.2020
4764 Clear 15 1023 93 10000 1.96 301 17:18 14.04.2020
4765 Clear 15 1023 93 10000 1 230 16:41 14.04.2020
4766 Clear 15 1023 88 10000 2.1 240 16:23 14.04.2020
4767 Clear 15 1023 88 10000 2.1 240 15:58 14.04.2020
4768 Clear 16 1023 88 10000 2.6 230 15:39 14.04.2020
4769 Clear 16 1024 88 10000 2.6 220 15:20 14.04.2020
4770 Clear 16 1024 88 10000 2.6 220 14:58 14.04.2020
4771 Clear 16 1023 88 10000 2.1 260 14:40 14.04.2020
4772 Clear 17 1024 82 10000 2.6 230 14:21 14.04.2020
4773 Clear 17 1024 77 10000 2.03 354 13:56 14.04.2020
4774 Clear 17 1024 77 10000 2.03 354 13:37 14.04.2020
4775 Clear 17 1023 87 10000 2.03 354 13:19 14.04.2020
4776 Clear 18 1023 82 10000 2.03 354 12:41 14.04.2020
4777 Clear 18 1023 77 10000 2.9 33 12:20 14.04.2020
4778 Clear 18 1023 77 10000 2.1 30 11:55 14.04.2020
4779 Clear 18 1023 77 10000 2.1 30 11:37 14.04.2020
4780 Clear 19 1023 77 10000 2.1 20 11:18 14.04.2020
4781 Clear 20 1022 73 10000 3.1 40 10:43 14.04.2020
4782 Clear 20 1022 73 10000 3.1 40 10:23 14.04.2020
4783 Clear 21 1021 60 10000 5.7 50 09:43 14.04.2020
4784 Clear 22 1022 1 0 3.22 64 09:25 14.04.2020
4785 Clear 22 1022 53 0 3.22 64 08:59 14.04.2020
4786 Clear 24 1021 56 10000 6.2 70 08:41 14.04.2020
4787 Clear 24 1021 56 10000 6.2 70 08:22 14.04.2020
4788 Clear 22 1022 53 0 3.22 64 07:53 14.04.2020
4789 Clear 24 1021 47 10000 5.1 80 07:53 14.04.2020
4790 Clear 25 1021 47 10000 5.1 80 07:30 14.04.2020
4791 Clear 25 1021 44 10000 5.7 80 06:49 14.04.2020
4792 Clear 25 1021 34 10000 3.6 130 06:18 14.04.2020
4793 Clear 23 1023 44 10000 3.6 300 03:52 14.04.2020
4794 Clear 21 1024 53 10000 4.1 320 02:56 14.04.2020
4795 Clear 18 1025 63 10000 3.6 310 01:46 14.04.2020
4796 Clear 18 1025 72 10000 3.1 330 01:24 14.04.2020
4797 Clear 15 1024 77 10000 3.1 310 00:38 14.04.2020
4798 Clear 14 1024 82 10000 3.6 330 00:18 14.04.2020
4799 Clear 13 1024 82 10000 3.6 330 23:44 13.04.2020
4800 Clear 12 1024 82 10000 3.6 330 23:25 13.04.2020
4801 Clear 11 1023 87 10000 3.6 320 22:58 13.04.2020
4802 Clear 12 1023 82 10000 3.6 340 22:40 13.04.2020
4803 Clear 12 1023 87 10000 3.1 330 22:22 13.04.2020
4804 Clear 11 1023 87 10000 3.1 330 21:56 13.04.2020
4805 Clear 11 1023 87 10000 4.1 320 21:37 13.04.2020
4806 Clear 11 1023 87 10000 3.1 330 21:19 13.04.2020
4807 Clear 12 1023 87 10000 3.1 330 20:54 13.04.2020
4808 Clear 12 1022 87 10000 3.6 340 20:54 13.04.2020
4809 Clear 12 1022 87 10000 3.6 340 20:36 13.04.2020
4810 Clear 12 1022 87 10000 3.1 330 20:18 13.04.2020
4811 Clear 12 1022 87 10000 3.1 330 20:18 13.04.2020
4812 Clear 12 1022 82 10000 2.6 310 19:39 13.04.2020
4813 Clear 12 1022 87 10000 2.6 330 19:20 13.04.2020
4814 Clear 12 1022 87 10000 2.6 330 18:59 13.04.2020
4815 Clear 12 1022 82 10000 2.6 350 18:39 13.04.2020
4816 Clear 12 1022 100 600 1.62 332 18:20 13.04.2020
4817 Clear 13 1022 100 600 1.62 332 17:58 13.04.2020
4818 Clear 13 1022 82 10000 1.62 332 17:39 13.04.2020
4819 Clear 13 1022 87 10000 1.62 332 17:20 13.04.2020
4820 Clear 13 1022 87 10000 1.62 332 16:59 13.04.2020
4821 Clear 13 1022 82 10000 2.1 270 16:41 13.04.2020
4822 Clear 13 1022 82 10000 1.5 270 16:21 13.04.2020
4823 Clear 13 1022 93 10000 1.62 332 15:59 13.04.2020
4824 Clear 14 1022 82 10000 2.1 220 15:41 13.04.2020
4825 Clouds 14 1022 82 10000 2.6 220 15:23 13.04.2020
4826 Clouds 14 1022 82 10000 2.6 220 14:56 13.04.2020
4827 Clouds 15 1022 100 10000 2.02 19 14:38 13.04.2020
4828 Clouds 15 1022 77 10000 1.5 220 14:20 13.04.2020
4829 Clouds 15 1022 77 10000 1.5 220 13:55 13.04.2020
4830 Clouds 15 1022 77 10000 1.5 220 13:55 13.04.2020
4831 Clouds 15 1022 72 10000 2.02 19 13:37 13.04.2020
4832 Clouds 16 1021 68 10000 2.1 360 13:18 13.04.2020
4833 Clouds 16 1022 63 10000 2.02 19 12:56 13.04.2020
4834 Clouds 16 1022 63 10000 2.02 19 12:38 13.04.2020
4835 Clouds 16 1021 82 10000 2.45 48 12:19 13.04.2020
4836 Clouds 17 1021 77 10000 2.1 90 11:43 13.04.2020
4837 Clouds 17 1021 63 10000 2.1 30 11:19 13.04.2020
4838 Clouds 18 1021 63 10000 2.1 30 10:56 13.04.2020
4839 Clouds 18 1020 68 10000 3.6 40 10:38 13.04.2020
4840 Rain 18 1020 63 10000 4.1 50 10:20 13.04.2020
4841 Rain 18 1020 63 10000 4.1 50 09:55 13.04.2020
4842 Rain 19 1020 60 10000 5.1 50 09:36 13.04.2020
4843 Clouds 20 1020 52 10000 5.1 50 09:18 13.04.2020
4844 Clouds 20 1019 49 10000 6.2 50 08:43 13.04.2020
4845 Clouds 20 1019 49 10000 6.2 50 08:25 13.04.2020
4846 Clouds 21 1019 43 10000 5.1 50 07:42 13.04.2020
4847 Clouds 21 1019 46 10000 4.6 50 07:24 13.04.2020
4848 Clouds 21 1019 43 10000 4.1 60 06:47 13.04.2020
4849 Clouds 21 1019 49 10000 4.6 140 06:26 13.04.2020
4850 Clouds 21 1020 49 10000 4.1 150 05:38 13.04.2020
4851 Clouds 21 1020 49 10000 3.6 130 05:18 13.04.2020
4852 Clouds 21 1020 46 10000 1.5 10 04:24 13.04.2020
4853 Clouds 21 1021 46 10000 2.1 260 03:50 13.04.2020
4854 Clouds 20 1021 46 10000 2.1 260 03:31 13.04.2020
4855 Clouds 19 1021 48 10000 2.6 300 02:39 13.04.2020
4856 Clouds 17 1022 59 10000 2.6 300 01:45 13.04.2020
4857 Clouds 16 1021 63 10000 3.1 310 01:25 13.04.2020
4858 Clouds 14 1021 71 10000 3.1 310 00:44 13.04.2020
4859 Clouds 12 1021 76 10000 2.6 310 00:23 13.04.2020
4860 Clouds 11 1020 81 10000 3.6 310 23:49 12.04.2020
4861 Clouds 10 1020 81 10000 3.6 310 23:26 12.04.2020
4862 Clouds 10 1020 81 10000 3.6 310 22:59 12.04.2020
4863 Clouds 9 1019 87 10000 3.1 310 22:38 12.04.2020
4864 Clouds 9 1019 81 10000 2.6 330 22:19 12.04.2020
4865 Clouds 10 1019 81 10000 3.1 310 21:57 12.04.2020
4866 Clouds 10 1019 81 10000 3.1 310 21:36 12.04.2020
4867 Clouds 10 1019 81 10000 4.1 310 21:18 12.04.2020
4868 Clouds 10 1019 81 10000 4.6 310 20:42 12.04.2020
4869 Clouds 10 1019 81 10000 3.6 330 20:23 12.04.2020
4870 Clouds 10 1018 81 10000 3.6 330 19:57 12.04.2020
4871 Clouds 10 1018 81 10000 3.1 330 19:39 12.04.2020
4872 Clouds 10 1018 81 10000 3.1 330 19:19 12.04.2020
4873 Clouds 10 1018 81 10000 3.1 320 18:56 12.04.2020
4874 Clouds 10 1019 100 10000 2.62 284 18:37 12.04.2020
4875 Clear 10 1019 76 10000 3.6 340 18:18 12.04.2020
4876 Clear 11 1018 76 10000 2.6 330 17:41 12.04.2020
4877 Clear 11 1018 76 10000 2.6 320 17:23 12.04.2020
4878 Clear 11 1018 76 10000 2.6 320 16:59 12.04.2020
4879 Clear 11 1019 93 10000 2.77 269 16:39 12.04.2020
4880 Clear 11 1019 71 10000 3.6 340 16:20 12.04.2020
4881 Clear 11 1019 87 10000 2.77 269 15:49 12.04.2020
4882 Clear 12 1019 87 10000 1.37 231 15:31 12.04.2020
4883 Clear 12 1019 87 10000 1.37 231 14:56 12.04.2020
4884 Clear 12 1019 93 10000 1.53 232 14:37 12.04.2020
4885 Clear 12 1019 72 10000 3.6 240 14:19 12.04.2020
4886 Clear 13 1018 72 10000 3.1 240 13:43 12.04.2020
4887 Clear 13 1018 72 10000 3.1 240 13:43 12.04.2020
4888 Clear 13 1018 76 10000 1.5 250 13:25 12.04.2020
4889 Clear 13 1018 76 10000 1.5 250 13:25 12.04.2020
4890 Clear 13 1017 76 10000 1.5 250 12:56 12.04.2020
4891 Clear 14 1017 76 10000 1.5 250 12:38 12.04.2020
4892 Clear 14 1017 76 10000 1.38 108 12:19 12.04.2020
4893 Clear 14 1016 67 10000 1.5 100 11:57 12.04.2020
4894 Clear 15 1016 59 10000 2.6 110 11:37 12.04.2020
4895 Clear 15 1016 59 10000 3.1 120 11:18 12.04.2020
4896 Clear 15 1016 59 10000 3.1 120 11:18 12.04.2020
4897 Clear 16 1016 59 10000 3.1 120 10:55 12.04.2020
4898 Clear 16 1016 55 10000 3.6 100 10:55 12.04.2020
4899 Clear 16 1016 55 10000 3.6 100 10:37 12.04.2020
4900 Clear 17 1016 55 10000 4.1 110 10:18 12.04.2020
4901 Clear 17 1016 55 10000 4.1 110 09:54 12.04.2020
4902 Clear 18 1015 52 10000 4.6 120 09:36 12.04.2020
4903 Clouds 19 1015 48 10000 5.1 120 09:18 12.04.2020
4904 Clouds 19 1015 48 10000 5.1 120 09:18 12.04.2020
4905 Clouds 19 1015 45 10000 5.1 120 08:46 12.04.2020
4906 Clouds 20 1015 42 10000 5.1 130 08:27 12.04.2020
4907 Clouds 20 1015 42 10000 4.1 150 07:45 12.04.2020
4908 Clouds 21 1015 40 10000 4.1 140 07:19 12.04.2020
4909 Clouds 21 1015 42 10000 5.1 150 06:36 12.04.2020
4910 Clouds 21 1015 45 10000 6.2 160 05:58 12.04.2020
4911 Clouds 21 1015 48 10000 6.7 160 05:37 12.04.2020
4912 Clouds 19 1016 48 10000 6.2 200 03:48 12.04.2020
4913 Clouds 19 1016 45 10000 4.1 240 03:25 12.04.2020
4914 Clouds 18 1016 39 10000 3.6 220 02:35 12.04.2020
4915 Clouds 16 1016 44 10000 6.2 260 01:53 12.04.2020
4916 Clouds 16 1015 47 10000 6.2 270 01:21 12.04.2020
4917 Clouds 14 1015 50 10000 6.2 270 00:42 12.04.2020
4918 Clouds 13 1014 54 10000 8.2 250 00:21 12.04.2020
4919 Clouds 11 1014 58 10000 8.7 250 23:47 11.04.2020
4920 Clouds 11 1014 62 10000 7.2 260 23:26 11.04.2020
4921 Clouds 10 1014 62 10000 7.2 260 22:58 11.04.2020
4922 Clouds 10 1013 62 10000 6.7 260 22:37 11.04.2020
4923 Clear 10 1013 58 10000 5.7 280 22:18 11.04.2020
4924 Clear 11 1013 58 10000 6.2 250 21:55 11.04.2020
4925 Clear 11 1013 58 10000 6.2 250 21:36 11.04.2020
4926 Clear 11 1013 58 10000 7.2 250 21:18 11.04.2020
4927 Clear 11 1013 58 10000 7.2 250 20:55 11.04.2020
4928 Clear 11 1012 54 10000 8.7 250 20:37 11.04.2020
4929 Clear 11 1012 54 10000 8.7 250 20:37 11.04.2020
4930 Clear 11 1012 54 10000 6.7 260 20:19 11.04.2020
4931 Clear 12 1012 54 10000 6.7 260 19:56 11.04.2020
4932 Clear 12 1011 54 10000 6.2 270 19:37 11.04.2020
4933 Clear 12 1011 54 10000 7.2 270 19:18 11.04.2020
4934 Clear 12 1011 54 10000 7.2 270 18:55 11.04.2020
4935 Clear 13 1011 54 10000 5.7 270 18:37 11.04.2020
4936 Clear 13 1011 47 10000 4.6 290 18:18 11.04.2020
4937 Clear 13 1011 47 10000 4.6 290 17:57 11.04.2020
4938 Clear 13 1010 44 10000 7.7 250 17:57 11.04.2020
4939 Clear 14 1010 44 10000 7.7 250 17:37 11.04.2020
4940 Clear 14 1010 44 10000 7.2 240 17:19 11.04.2020
4941 Clear 14 1010 41 10000 6.7 250 16:42 11.04.2020
4942 Clear 15 1010 41 10000 8.7 250 16:21 11.04.2020
4943 Clear 15 1010 41 10000 8.7 250 16:21 11.04.2020
4944 Clear 15 1009 38 10000 9.8 250 15:42 11.04.2020
4945 Clear 15 1009 36 10000 11.3 240 15:21 11.04.2020
4946 Clear 16 1009 36 10000 11.3 240 14:59 11.04.2020
4947 Clear 16 1009 33 10000 10.3 250 14:40 11.04.2020
4948 Clear 16 1009 33 10000 10.3 250 14:22 11.04.2020
4949 Clear 17 1007 31 10000 8.7 250 13:46 11.04.2020
4950 Clear 17 1007 34 10000 11.8 250 13:26 11.04.2020
4951 Clear 17 1006 36 10000 12.3 260 12:59 11.04.2020
4952 Clear 18 1006 36 10000 12.3 260 12:38 11.04.2020
4953 Clouds 18 1005 39 10000 9.3 270 12:18 11.04.2020
4954 Clouds 18 1005 42 10000 8.7 260 11:55 11.04.2020
4955 Clouds 19 1005 42 10000 8.7 260 11:37 11.04.2020
4956 Clouds 19 1004 39 10000 10.8 240 11:18 11.04.2020
4957 Rain 20 1004 34 10000 12.3 230 10:42 11.04.2020
4958 Rain 20 1004 34 10000 12.3 230 10:42 11.04.2020
4959 Rain 20 1004 34 10000 12.3 230 10:22 11.04.2020
4960 Clear 21 1002 30 10000 13.4 240 09:58 11.04.2020
4961 Clear 21 1002 30 10000 13.4 240 09:39 11.04.2020
4962 Clear 22 1001 33 10000 13.4 250 09:20 11.04.2020
4963 Clouds 22 1002 37 10000 10.8 250 08:46 11.04.2020
4964 Clear 23 1001 29 10000 12.9 240 08:27 11.04.2020
4965 Clear 24 1000 27 10000 14.9 260 07:50 11.04.2020
4966 Clear 24 1000 27 10000 14.9 260 07:28 11.04.2020
4967 Clear 25 999 27 10000 13.9 250 06:49 11.04.2020
4968 Clear 25 999 26 10000 11.3 280 06:18 11.04.2020
4969 Clear 26 999 26 10000 11.3 290 05:24 11.04.2020
4970 Clear 24 1002 38 10000 9.3 320 03:40 11.04.2020
4971 Clear 21 1005 46 10000 6.7 320 01:59 11.04.2020
4972 Clear 21 1005 52 10000 7.2 290 01:24 11.04.2020
4973 Clear 19 1006 68 10000 3.6 350 00:44 11.04.2020
4974 Clear 17 1006 72 10000 4.1 350 00:20 11.04.2020
4975 Clear 16 1006 72 10000 4.1 350 23:57 10.04.2020
4976 Clear 15 1006 72 10000 4.6 350 23:38 10.04.2020
4977 Clear 14 1006 82 10000 4.1 350 23:19 10.04.2020
4978 Clear 13 1006 77 10000 4.6 330 22:44 10.04.2020
4979 Clear 13 1006 77 10000 4.6 330 22:22 10.04.2020
4980 Clouds 13 1006 77 10000 2.6 320 21:58 10.04.2020
4981 Clouds 13 1006 77 10000 2.6 320 21:40 10.04.2020
4982 Clouds 13 1006 82 10000 4.6 330 21:20 10.04.2020
4983 Clouds 13 1006 82 10000 4.6 330 20:55 10.04.2020
4984 Clear 13 1006 87 10000 4.1 290 20:37 10.04.2020
4985 Clear 14 1007 82 10000 5.1 320 20:18 10.04.2020
4986 Clear 13 1007 82 10000 5.7 310 19:41 10.04.2020
4987 Clear 14 1007 82 10000 6.2 300 19:22 10.04.2020
4988 Clear 14 1007 82 10000 6.2 300 18:58 10.04.2020
4989 Clear 14 1007 87 10000 5.7 300 18:40 10.04.2020
4990 Rain 14 1008 87 10000 7.2 290 18:22 10.04.2020
4991 Rain 14 1008 87 10000 7.2 290 17:59 10.04.2020
4992 Rain 14 1009 87 10000 7.2 290 17:40 10.04.2020
4993 Clear 14 1009 82 10000 6.2 310 17:21 10.04.2020
4994 Clear 14 1009 82 10000 6.2 310 16:59 10.04.2020
4995 Clear 14 1009 77 10000 4.6 300 16:41 10.04.2020
4996 Clouds 15 1009 82 10000 3.6 310 16:21 10.04.2020
4997 Clouds 15 1009 82 10000 3.6 310 15:58 10.04.2020
4998 Clouds 14 1010 82 10000 3.6 320 15:38 10.04.2020
4999 Clouds 14 1010 87 10000 4.1 310 15:20 10.04.2020
5000 Rain 15 1011 87 10000 5.7 310 14:58 10.04.2020
5001 Rain 15 1011 87 10000 5.7 310 14:39 10.04.2020
5002 Rain 15 1011 87 10000 4.6 310 14:19 10.04.2020
5003 Rain 15 1011 87 10000 3.6 300 13:44 10.04.2020
5004 Rain 15 1011 87 10000 4.1 320 13:22 10.04.2020
5005 Rain 15 1011 87 10000 4.1 320 12:55 10.04.2020
5006 Rain 15 1011 87 10000 4.1 320 12:36 10.04.2020
5007 Clouds 15 1012 93 10000 4.1 330 12:18 10.04.2020
5008 Rain 15 1012 93 10000 2.6 60 11:42 10.04.2020
5009 Rain 15 1011 87 10000 1.5 10 11:23 10.04.2020
5010 Rain 15 1011 87 10000 1.5 10 10:56 10.04.2020
5011 Thunderstorm 15 1012 93 5000 4.1 330 10:37 10.04.2020
5012 Thunderstorm 16 1013 82 3000 9.8 270 10:19 10.04.2020
5013 Thunderstorm 18 1012 64 10000 11.8 230 09:43 10.04.2020
5014 Thunderstorm 19 1012 64 10000 11.8 230 09:21 10.04.2020
5015 Clouds 21 1011 60 10000 6.2 360 08:48 10.04.2020
5016 Clouds 21 1011 60 10000 6.2 360 08:27 10.04.2020
5017 Clouds 21 1011 60 10000 5.7 340 08:27 10.04.2020
5018 Clouds 21 1012 60 10000 5.7 350 07:55 10.04.2020
5019 Clouds 21 1012 60 10000 5.7 350 07:37 10.04.2020
5020 Clouds 21 1012 64 10000 6.2 10 07:19 10.04.2020
5021 Clouds 22 1013 69 10000 5.1 360 06:38 10.04.2020
5022 Clouds 21 1014 77 10000 5.1 360 06:19 10.04.2020
5023 Clouds 19 1014 82 10000 4.1 20 05:30 10.04.2020
5024 Clouds 19 1015 82 10000 5.1 360 04:55 10.04.2020
5025 Clouds 18 1018 93 10000 3.6 50 03:35 10.04.2020
5026 Rain 18 1019 88 10000 5.7 10 02:51 10.04.2020
5027 Rain 18 1019 88 10000 5.7 10 02:33 10.04.2020
5028 Rain 18 1020 100 10000 2.6 60 01:50 10.04.2020
5029 Rain 17 1020 100 10000 2.6 60 01:28 10.04.2020
5030 Clouds 17 1020 93 10000 6.11 5 00:47 10.04.2020
5031 Rain 17 1020 100 10000 3.9 2 00:21 10.04.2020
5032 Rain 17 1020 93 10000 2.6 340 23:44 09.04.2020
5033 Rain 17 1020 93 10000 2.6 340 23:24 09.04.2020
5034 Rain 17 1020 93 10000 2.1 350 22:59 09.04.2020
5035 Rain 17 1020 88 10000 2.6 350 22:40 09.04.2020
5036 Rain 17 1020 88 10000 2.6 350 22:22 09.04.2020
5037 Rain 17 1021 88 10000 2.6 310 21:42 09.04.2020
5038 Rain 17 1021 88 10000 2.1 300 21:24 09.04.2020
5039 Clouds 17 1021 88 10000 2.6 300 20:55 09.04.2020
5040 Clouds 17 1021 88 10000 2.6 300 20:37 09.04.2020
5041 Rain 17 1021 88 10000 2.6 290 20:18 09.04.2020
5042 Rain 17 1021 88 10000 3.48 16 19:40 09.04.2020
5043 Rain 17 1022 88 10000 3.48 16 19:22 09.04.2020
5044 Clouds 17 1022 88 10000 3.48 16 18:42 09.04.2020
5045 Clouds 17 1022 88 10000 3.48 16 18:42 09.04.2020
5046 Clouds 17 1022 88 10000 3.38 23 18:21 09.04.2020
5047 Clouds 17 1022 88 10000 3.38 23 17:59 09.04.2020
5048 Clouds 17 1022 88 10000 3.38 23 17:59 09.04.2020
5049 Rain 17 1023 88 10000 3.38 23 17:39 09.04.2020
5050 Rain 17 1023 88 10000 3.38 23 17:19 09.04.2020
5051 Rain 16 1023 88 10000 1.5 190 16:41 09.04.2020
5052 Rain 16 1024 88 10000 4.1 20 16:20 09.04.2020
5053 Rain 17 1024 88 10000 4.1 20 15:57 09.04.2020
5054 Clouds 17 1024 93 10000 3.38 23 15:39 09.04.2020
5055 Clouds 17 1024 88 10000 4.1 20 15:20 09.04.2020
5056 Clouds 17 1024 93 10000 4.1 20 14:59 09.04.2020
5057 Clouds 17 1024 93 10000 4.1 20 14:38 09.04.2020
5058 Clouds 17 1024 88 10000 4.1 20 14:20 09.04.2020
5059 Clouds 17 1025 93 10000 3.68 22 13:42 09.04.2020
5060 Clouds 17 1024 88 10000 4.1 20 13:24 09.04.2020
5061 Clouds 17 1024 88 10000 4.1 20 12:59 09.04.2020
5062 Clouds 18 1025 88 10000 2.5 38 12:39 09.04.2020
5063 Clouds 18 1024 82 10000 4.1 50 12:20 09.04.2020
5064 Clouds 18 1024 82 10000 4.1 50 12:20 09.04.2020
5065 Clouds 18 1024 82 10000 4.1 50 11:55 09.04.2020
5066 Clouds 18 1024 82 10000 4.1 50 11:36 09.04.2020
5067 Clouds 19 1024 88 10000 4.1 50 11:18 09.04.2020
5068 Clouds 19 1024 82 10000 2.6 190 10:41 09.04.2020
5069 Clouds 19 1024 82 10000 2.6 180 10:22 09.04.2020
5070 Clouds 19 1024 82 10000 3.1 170 09:58 09.04.2020
5071 Clouds 20 1024 82 10000 3.1 170 09:40 09.04.2020
5072 Clouds 20 1024 77 10000 3.1 190 09:21 09.04.2020
5073 Clouds 20 1024 77 10000 3.1 190 08:56 09.04.2020
5074 Clouds 20 1024 77 10000 4.1 170 08:37 09.04.2020
5075 Clouds 21 1024 77 10000 3.6 170 08:18 09.04.2020
5076 Clouds 21 1024 82 10000 4.6 170 07:37 09.04.2020
5077 Clouds 21 1024 82 10000 4.6 170 07:18 09.04.2020
5078 Clouds 21 1025 82 10000 5.1 170 06:35 09.04.2020
5079 Clouds 21 1025 77 10000 6.2 170 05:49 09.04.2020
5080 Clouds 22 1025 77 10000 6.7 180 05:24 09.04.2020
5081 Clouds 20 1027 77 10000 5.1 190 02:36 09.04.2020
5082 Clouds 19 1027 77 10000 5.1 200 01:46 09.04.2020
5083 Clouds 18 1027 82 10000 4.6 220 01:27 09.04.2020
5084 Clouds 17 1027 77 10000 5.1 220 00:54 09.04.2020
5085 Clouds 17 1027 77 10000 5.1 220 00:36 09.04.2020
5086 Clouds 17 1026 82 10000 5.1 210 00:18 09.04.2020
5087 Clouds 17 1026 82 10000 5.1 210 00:18 09.04.2020
5088 Clouds 16 1026 88 10000 5.1 210 23:41 08.04.2020
5089 Clouds 16 1026 88 10000 5.1 210 23:22 08.04.2020
5090 Clouds 15 1026 88 10000 5.1 210 22:54 08.04.2020
5091 Clouds 16 1025 88 10000 4.6 210 22:36 08.04.2020
5092 Clouds 15 1025 88 10000 4.6 210 22:18 08.04.2020
5093 Rain 16 1025 88 10000 4.6 210 21:54 08.04.2020
5094 Rain 16 1025 88 10000 4.6 210 21:36 08.04.2020
5095 Rain 16 1025 88 10000 4.6 210 21:18 08.04.2020
5096 Rain 16 1025 88 10000 4.1 210 20:40 08.04.2020
5097 Rain 16 1025 88 10000 4.1 210 20:21 08.04.2020
5098 Clouds 16 1025 93 10000 3.47 170 19:59 08.04.2020
5099 Clouds 16 1025 93 10000 2.6 220 19:40 08.04.2020
5100 Clouds 16 1025 93 10000 2.6 220 19:21 08.04.2020
5101 Clouds 16 1025 93 10000 1.5 270 18:45 08.04.2020
5102 Clouds 16 1025 82 10000 5.7 160 18:27 08.04.2020
5103 Rain 16 1025 82 10000 6.2 160 17:57 08.04.2020
5104 Rain 17 1025 82 10000 6.2 160 17:39 08.04.2020
5105 Rain 16 1025 82 10000 6.7 160 17:20 08.04.2020
5106 Clouds 17 1025 82 10000 6.7 160 16:56 08.04.2020
5107 Rain 16 1025 82 10000 7.7 150 16:37 08.04.2020
5108 Rain 16 1025 82 10000 7.7 150 16:19 08.04.2020
5109 Rain 17 1025 88 10000 7.2 180 15:38 08.04.2020
5110 Rain 17 1025 88 10000 7.2 180 15:20 08.04.2020
5111 Rain 17 1025 88 10000 5.7 180 14:55 08.04.2020
5112 Rain 17 1025 88 10000 5.7 180 14:37 08.04.2020
5113 Clouds 17 1024 82 10000 5.1 190 14:19 08.04.2020
5114 Rain 17 1024 82 10000 6.7 190 13:44 08.04.2020
5115 Rain 17 1024 88 10000 8.7 170 13:21 08.04.2020
5116 Rain 17 1024 88 10000 7.2 190 12:54 08.04.2020
5117 Rain 17 1024 88 10000 7.2 190 12:36 08.04.2020
5118 Rain 17 1023 82 10000 6.2 180 12:18 08.04.2020
5119 Clouds 17 1023 93 10000 2.1 250 11:41 08.04.2020
5120 Clouds 17 1023 93 10000 2.1 250 11:41 08.04.2020
5121 Rain 17 1023 88 10000 6.2 190 11:22 08.04.2020
5122 Clouds 17 1023 82 10000 6.7 190 10:58 08.04.2020
5123 Clouds 18 1023 82 10000 6.7 190 10:39 08.04.2020
5124 Clouds 18 1022 77 10000 4.6 170 10:20 08.04.2020
5125 Clouds 18 1022 72 10000 4.6 170 09:57 08.04.2020
5126 Clouds 18 1022 72 10000 4.6 170 09:39 08.04.2020
5127 Clouds 18 1022 77 10000 5.7 170 09:18 08.04.2020
5128 Clouds 18 1022 77 10000 5.7 170 09:18 08.04.2020
5129 Clouds 18 1022 77 10000 5.7 170 09:18 08.04.2020
5130 Clouds 18 1022 77 10000 5.7 170 08:56 08.04.2020
5131 Clouds 18 1022 77 10000 5.7 180 08:38 08.04.2020
5132 Clouds 18 1022 77 10000 6.7 170 08:20 08.04.2020
5133 Clouds 19 1022 72 10000 5.7 170 07:42 08.04.2020
5134 Rain 18 1021 77 10000 6.7 170 07:20 08.04.2020
5135 Rain 18 1021 68 10000 5.7 140 06:23 08.04.2020
5136 Clouds 18 1022 77 10000 5.1 170 04:54 08.04.2020
5137 Clouds 18 1022 72 10000 2.6 120 02:50 08.04.2020
5138 Clouds 18 1022 72 10000 3.1 130 02:21 08.04.2020
5139 Clouds 17 1022 77 10000 4.1 140 01:56 08.04.2020
5140 Clouds 17 1022 82 10000 5.7 140 01:27 08.04.2020
5141 Rain 16 1022 82 10000 7.2 150 00:45 08.04.2020
5142 Rain 16 1021 88 10000 7.7 160 00:25 08.04.2020
5143 Drizzle 16 1021 88 10000 6.7 160 23:41 07.04.2020
5144 Drizzle 15 1021 88 10000 5.1 150 23:23 07.04.2020
5145 Rain 15 1020 88 10000 7.7 160 22:59 07.04.2020
5146 Clouds 15 1020 100 10000 1.01 143 22:40 07.04.2020
5147 Clouds 15 1020 100 10000 1.01 143 22:21 07.04.2020
5148 Clouds 15 1020 100 10000 1.01 143 22:00 07.04.2020
5149 Clouds 15 1020 100 10000 1.01 143 21:41 07.04.2020
5150 Clouds 15 1020 100 10000 0.95 232 21:21 07.04.2020
5151 Clouds 15 1020 93 10000 0.95 232 21:21 07.04.2020
5152 Clouds 15 1020 93 10000 0.95 232 20:58 07.04.2020
5153 Clouds 15 1020 93 10000 0.95 232 20:39 07.04.2020
5154 Clouds 15 1020 93 10000 1.5 280 20:21 07.04.2020
5155 Clouds 15 1019 93 10000 3.1 220 19:57 07.04.2020
5156 Clouds 15 1020 100 10000 1.5 290 19:37 07.04.2020
5157 Rain 15 1020 93 10000 2.6 140 19:19 07.04.2020
5158 Rain 15 1020 93 10000 2.6 140 18:58 07.04.2020
5159 Rain 15 1020 93 10000 4.1 110 18:39 07.04.2020
5160 Rain 15 1020 93 10000 4.1 110 18:20 07.04.2020
5161 Rain 15 1020 93 9000 1.5 330 17:46 07.04.2020
5162 Drizzle 15 1020 88 7000 5.1 10 17:24 07.04.2020
5163 Rain 15 1020 88 8000 4.1 330 16:54 07.04.2020
5164 Rain 15 1020 88 8000 4.1 330 16:36 07.04.2020
5165 Rain 15 1020 88 10000 5.1 340 16:18 07.04.2020
5166 Rain 15 1021 100 10000 2.1 270 15:42 07.04.2020
5167 Rain 15 1021 100 10000 2.1 270 15:23 07.04.2020
5168 Rain 15 1021 93 10000 1.5 240 14:42 07.04.2020
5169 Rain 15 1021 87 10000 0.5 270 14:23 07.04.2020
5170 Clouds 15 1021 87 10000 0.5 270 13:57 07.04.2020
5171 Rain 15 1021 93 10000 1.55 125 13:39 07.04.2020
5172 Clouds 15 1020 72 10000 3.6 150 13:19 07.04.2020
5173 Clouds 16 1021 72 10000 3.1 160 12:56 07.04.2020
5174 Clouds 16 1021 72 10000 3.1 160 12:37 07.04.2020
5175 Clouds 16 1021 82 10000 3.04 137 12:18 07.04.2020
5176 Clouds 17 1021 77 10000 1.5 90 11:44 07.04.2020
5177 Clouds 17 1021 77 10000 1.5 90 11:26 07.04.2020
5178 Clouds 18 1020 68 10000 3.6 150 10:59 07.04.2020
5179 Clouds 18 1020 68 10000 3.6 150 10:39 07.04.2020
5180 Clouds 18 1020 63 10000 4.1 160 10:19 07.04.2020
5181 Clouds 19 1020 63 10000 4.1 150 09:46 07.04.2020
5182 Clouds 19 1020 60 10000 4.6 150 09:20 07.04.2020
5183 Clouds 19 1020 60 10000 4.6 150 08:59 07.04.2020
5184 Clouds 19 1020 60 10000 4.6 150 08:39 07.04.2020
5185 Clouds 20 1020 64 10000 5.1 160 08:19 07.04.2020
5186 Clouds 20 1020 56 10000 4.6 140 07:44 07.04.2020
5187 Clouds 20 1020 64 10000 5.1 140 07:26 07.04.2020
5188 Clouds 20 1020 68 10000 5.7 180 06:52 07.04.2020
5189 Clouds 20 1021 63 10000 5.7 160 06:25 07.04.2020
5190 Clouds 20 1021 72 10000 6.2 170 05:50 07.04.2020
5191 Clouds 20 1021 72 10000 6.2 170 05:24 07.04.2020
5192 Rain 20 1022 72 10000 4.6 190 03:34 07.04.2020
5193 Rain 19 1022 72 10000 6.7 190 02:59 07.04.2020
5194 Rain 19 1022 72 10000 7.7 180 02:35 07.04.2020
5195 Rain 18 1022 77 10000 5.7 190 01:34 07.04.2020
5196 Rain 17 1022 77 10000 5.1 200 00:53 07.04.2020
5197 Rain 17 1022 77 10000 6.7 180 00:25 07.04.2020
5198 Rain 16 1021 82 10000 4.6 210 23:41 06.04.2020
5199 Clouds 15 1022 82 10000 1.5 220 23:21 06.04.2020
5200 Clouds 15 1021 82 10000 2.1 230 22:54 06.04.2020
5201 Rain 15 1021 82 10000 2.1 230 22:36 06.04.2020
5202 Rain 15 1021 82 10000 2.1 230 22:36 06.04.2020
5203 Rain 15 1021 82 10000 2.1 230 22:18 06.04.2020
5204 Rain 15 1021 82 10000 2.1 230 21:42 06.04.2020
5205 Rain 15 1021 82 10000 2.1 210 21:20 06.04.2020
5206 Rain 15 1021 82 10000 2.1 210 20:57 06.04.2020
5207 Rain 15 1021 82 10000 2.6 230 20:39 06.04.2020
5208 Rain 15 1021 93 10000 2.1 240 20:21 06.04.2020
5209 Rain 15 1021 93 10000 2.1 240 19:57 06.04.2020
5210 Rain 15 1021 87 10000 1.5 210 19:38 06.04.2020
5211 Clouds 15 1021 82 10000 2.6 210 19:20 06.04.2020
5212 Clouds 16 1021 87 10000 2.6 200 18:43 06.04.2020
5213 Clouds 16 1021 87 10000 2.6 210 18:23 06.04.2020
5214 Clouds 16 1021 87 10000 2.6 210 17:58 06.04.2020
5215 Clouds 16 1021 87 10000 7.2 180 17:39 06.04.2020
5216 Rain 16 1021 88 10000 8.2 170 17:18 06.04.2020
5217 Rain 16 1021 88 10000 4.1 160 16:49 06.04.2020
5218 Rain 16 1021 88 10000 4.1 160 16:30 06.04.2020
5219 Clouds 17 1021 82 10000 6.2 200 14:57 06.04.2020
5220 Clouds 17 1021 82 10000 6.2 200 14:57 06.04.2020
5221 Clouds 17 1021 82 10000 6.2 200 14:57 06.04.2020
5222 Clouds 17 1021 82 10000 6.2 200 14:57 06.04.2020
5223 Rain 17 1020 82 10000 6.2 140 13:45 06.04.2020
5224 Rain 17 1020 88 10000 5.7 130 13:22 06.04.2020
5225 Rain 17 1020 88 10000 6.7 160 12:47 06.04.2020
5226 Rain 17 1019 72 10000 5.1 190 12:20 06.04.2020
5227 Clouds 18 1019 72 10000 5.1 140 11:43 06.04.2020
5228 Clouds 18 1019 72 10000 5.1 140 11:25 06.04.2020
5229 Clouds 18 1019 72 10000 5.1 140 11:25 06.04.2020
5230 Clouds 18 1019 72 10000 5.1 140 11:25 06.04.2020
5231 Clouds 18 1019 72 10000 5.1 140 11:25 06.04.2020
5232 Clouds 18 1019 72 10000 5.1 140 11:25 06.04.2020
5233 Clouds 18 1018 77 10000 7.2 140 10:43 06.04.2020
5234 Clouds 18 1018 77 10000 7.2 140 10:43 06.04.2020
5235 Clouds 18 1018 77 10000 7.2 140 10:43 06.04.2020
5236 Clouds 18 1018 77 10000 7.2 140 10:43 06.04.2020
5237 Clouds 18 1018 77 10000 7.2 140 10:43 06.04.2020
5238 Clouds 18 1018 77 10000 7.2 140 10:21 06.04.2020
5239 Clouds 18 1018 77 10000 7.2 140 10:21 06.04.2020
5240 Clouds 18 1018 77 10000 7.2 140 10:21 06.04.2020
5241 Clouds 18 1018 77 10000 7.2 140 10:21 06.04.2020
5242 Clouds 18 1018 77 10000 7.2 140 10:21 06.04.2020
5243 Clouds 18 1018 72 10000 6.2 140 09:41 06.04.2020
5244 Clouds 19 1018 77 10000 7.2 150 09:41 06.04.2020
5245 Clouds 19 1018 77 10000 7.2 150 09:41 06.04.2020
5246 Clouds 19 1018 77 10000 7.2 150 09:20 06.04.2020
5247 Clouds 20 1018 72 10000 7.2 150 08:49 06.04.2020
5248 Clouds 21 1017 77 10000 6.7 150 08:29 06.04.2020
5249 Clouds 21 1017 77 10000 6.7 150 08:29 06.04.2020
5250 Clouds 21 1017 77 10000 6.7 150 08:29 06.04.2020
5251 Clouds 21 1017 77 10000 6.7 150 08:29 06.04.2020
5252 Clouds 20 1017 77 10000 6.7 150 08:29 06.04.2020
5253 Clouds 22 1017 68 10000 7.7 170 07:23 06.04.2020
5254 Clouds 23 1016 53 10000 5.7 150 06:28 06.04.2020
5255 Clouds 23 1016 53 10000 4.6 140 05:57 06.04.2020
5256 Clouds 23 1016 53 10000 4.6 140 05:57 06.04.2020
5257 Clouds 23 1017 53 10000 5.7 150 04:18 06.04.2020
5258 Clouds 22 1018 46 10000 5.7 240 02:54 06.04.2020
5259 Clouds 20 1018 49 10000 4.1 260 01:57 06.04.2020
5260 Clouds 19 1018 52 10000 2.1 230 00:59 06.04.2020
5261 Clouds 16 1018 59 10000 2.6 240 00:29 06.04.2020
5262 Clouds 15 1018 63 10000 6.7 240 23:56 05.04.2020
5263 Clear 14 1017 62 10000 3.6 250 23:38 05.04.2020
5264 Clear 14 1017 62 10000 3.6 250 23:19 05.04.2020
5265 Clear 13 1016 62 10000 2.6 260 22:54 05.04.2020
5266 Clear 13 1016 67 10000 3.6 270 22:36 05.04.2020
5267 Clear 13 1016 62 10000 3.6 280 22:18 05.04.2020
5268 Clear 13 1016 76 10000 3.1 320 21:43 05.04.2020
5269 Clear 13 1015 59 10000 2.1 310 21:43 05.04.2020
5270 Clear 13 1015 59 10000 2.1 310 21:43 05.04.2020
5271 Clear 13 1016 76 10000 3.1 320 21:23 05.04.2020
5272 Clear 14 1015 76 10000 3.1 320 20:25 05.04.2020
5273 Clear 14 1015 55 10000 5.1 310 19:43 05.04.2020
5274 Clear 14 1015 55 10000 5.1 310 19:24 05.04.2020
5275 Clear 14 1015 55 10000 5.1 300 18:49 05.04.2020
5276 Clear 14 1015 55 10000 5.1 300 18:49 05.04.2020
5277 Clear 14 1016 76 10000 3.1 350 18:20 05.04.2020
5278 Clear 14 1016 71 10000 4.1 330 17:49 05.04.2020
5279 Clear 14 1016 81 10000 2.6 340 17:49 05.04.2020
5280 Clear 14 1016 81 10000 2.6 340 17:49 05.04.2020
5281 Clear 14 1016 71 10000 4.1 330 17:49 05.04.2020
5282 Clear 14 1016 71 10000 4.1 330 17:49 05.04.2020
5283 Clear 14 1016 81 10000 2.6 340 17:22 05.04.2020
5284 Clear 15 1016 51 10000 4.6 290 16:47 05.04.2020
5285 Clear 15 1016 51 10000 4.6 290 16:19 05.04.2020
5286 Clear 16 1016 51 10000 4.6 280 15:46 05.04.2020
5287 Clear 16 1016 51 10000 6.7 260 15:28 05.04.2020
5288 Clear 16 1016 51 10000 6.7 260 15:28 05.04.2020
5289 Clear 16 1016 48 10000 4.1 340 14:48 05.04.2020
5290 Clear 16 1016 48 10000 4.1 340 14:48 05.04.2020
5291 Clear 16 1016 48 10000 4.1 270 14:48 05.04.2020
5292 Clear 16 1016 48 10000 4.1 340 14:48 05.04.2020
5293 Clear 17 1015 48 10000 4.6 260 13:59 05.04.2020
5294 Clear 17 1015 48 10000 3.6 250 13:40 05.04.2020
5295 Clear 17 1015 48 10000 3.6 250 13:40 05.04.2020
5296 Clear 17 1015 48 10000 3.6 250 13:40 05.04.2020
5297 Clear 17 1015 48 10000 3.6 250 13:40 05.04.2020
5298 Clear 17 1015 48 10000 3.6 250 13:40 05.04.2020
5299 Clear 18 1014 40 10000 5.7 280 12:21 05.04.2020
5300 Clear 19 1014 45 10000 6.2 270 11:40 05.04.2020
5301 Clear 19 1014 45 10000 6.2 270 11:20 05.04.2020
5302 Clear 19 1013 35 10000 5.1 280 10:47 05.04.2020
5303 Clear 20 1013 48 10000 3.6 240 10:23 05.04.2020
5304 Clear 21 1012 33 10000 6.2 270 09:55 05.04.2020
5305 Clear 22 1011 31 10000 6.7 250 09:27 05.04.2020
5306 Clear 22 1011 31 10000 6.7 250 09:27 05.04.2020
5307 Clear 23 1011 29 10000 7.2 270 08:34 05.04.2020
5308 Clear 23 1011 29 10000 7.2 270 08:34 05.04.2020
5309 Clear 24 1011 27 10000 6.7 300 07:21 05.04.2020
5310 Clear 24 1011 27 10000 6.7 300 07:20 05.04.2020
5311 Clear 23 1012 31 10000 7.7 270 04:32 05.04.2020
5312 Clear 22 1013 35 10000 7.2 290 03:28 05.04.2020
5313 Clouds 21 1013 35 10000 5.7 310 02:46 05.04.2020
5314 Clouds 20 1014 42 10000 6.7 310 01:45 05.04.2020
5315 Clouds 19 1014 45 10000 7.2 320 01:23 05.04.2020
5316 Clouds 18 1014 48 10000 4.6 320 00:42 05.04.2020
5317 Clouds 17 1014 48 10000 4.6 320 00:21 05.04.2020
5318 Clouds 16 1013 55 10000 5.1 310 23:42 04.04.2020
5319 Clouds 15 1013 55 10000 5.1 310 23:22 04.04.2020
5320 Clouds 14 1013 58 10000 4.6 310 22:57 04.04.2020
5321 Clouds 13 1012 58 10000 5.1 310 22:39 04.04.2020
5322 Clear 13 1013 66 10000 3.6 320 22:20 04.04.2020
5323 Clear 13 1012 67 10000 4.6 350 21:58 04.04.2020
5324 Clear 13 1011 62 10000 3.6 360 21:39 04.04.2020
5325 Clear 13 1011 62 10000 3.6 360 21:19 04.04.2020
5326 Clear 13 1011 62 10000 2.6 350 20:56 04.04.2020
5327 Clear 13 1011 62 10000 2.6 320 20:37 04.04.2020
5328 Clear 13 1011 62 10000 1.5 340 20:19 04.04.2020
5329 Clear 13 1011 62 10000 1.5 340 19:55 04.04.2020
5330 Clear 13 1011 58 10000 2.6 350 19:36 04.04.2020
5331 Clear 13 1011 58 10000 2.6 350 19:36 04.04.2020
5332 Clear 14 1010 58 10000 3.1 350 19:18 04.04.2020
5333 Clear 14 1010 58 10000 3.1 350 18:55 04.04.2020
5334 Clear 14 1011 55 10000 4.1 330 18:37 04.04.2020
5335 Clear 14 1010 55 10000 4.1 330 18:18 04.04.2020
5336 Clear 15 1010 55 10000 3.6 350 17:40 04.04.2020
5337 Clear 15 1010 59 10000 3.1 10 17:20 04.04.2020
5338 Clear 15 1010 59 10000 3.1 10 16:55 04.04.2020
5339 Clear 15 1010 51 10000 3.6 320 16:37 04.04.2020
5340 Clear 15 1010 55 10000 4.1 310 16:18 04.04.2020
5341 Clear 16 1010 51 10000 2.6 270 15:40 04.04.2020
5342 Clear 16 1010 51 10000 2.6 270 15:22 04.04.2020
5343 Clear 17 1009 48 10000 2.6 270 14:57 04.04.2020
5344 Clear 17 1009 48 10000 2.6 270 14:57 04.04.2020
5345 Clear 17 1009 48 10000 3.1 280 14:39 04.04.2020
5346 Clear 17 1009 42 10000 4.1 280 14:20 04.04.2020
5347 Clear 17 1009 42 10000 4.1 280 13:55 04.04.2020
5348 Clear 18 1008 42 10000 6.7 300 13:37 04.04.2020
5349 Clear 18 1008 42 10000 6.7 300 13:18 04.04.2020
5350 Clear 18 1008 52 10000 3.6 300 12:44 04.04.2020
5351 Clear 18 1008 52 10000 3.6 300 12:23 04.04.2020
5352 Clear 19 1007 37 10000 8.2 300 11:58 04.04.2020
5353 Clear 19 1007 48 10000 5.7 290 11:38 04.04.2020
5354 Clear 19 1007 48 10000 5.7 290 11:19 04.04.2020
5355 Clear 20 1005 32 10000 9.3 300 10:55 04.04.2020
5356 Clear 20 1006 42 10000 8.2 290 10:37 04.04.2020
5357 Clear 20 1006 42 10000 8.2 290 10:18 04.04.2020
5358 Clear 21 1004 30 10000 10.8 290 09:54 04.04.2020
5359 Clear 21 1004 40 10000 6.7 270 09:36 04.04.2020
5360 Clouds 22 1004 38 10000 8.7 290 09:18 04.04.2020
5361 Clear 23 1002 29 10000 10.8 290 08:41 04.04.2020
5362 Clear 23 1002 29 10000 10.8 290 08:20 04.04.2020
5363 Clouds 24 1001 25 10000 12.3 280 07:44 04.04.2020
5364 Clouds 24 1001 25 10000 12.3 280 07:26 04.04.2020
5365 Clear 24 1001 29 10000 12.9 280 06:51 04.04.2020
5366 Clouds 24 1000 27 10000 11.3 290 06:19 04.04.2020
5367 Clouds 24 999 27 10000 13.9 290 05:42 04.04.2020
5368 Clouds 25 999 27 10000 13.9 290 05:24 04.04.2020
5369 Clouds 25 999 29 10000 14.4 290 04:31 04.04.2020
5370 Rain 25 998 34 10000 12.9 310 03:51 04.04.2020
5371 Rain 25 998 50 10000 8.7 320 02:52 04.04.2020
5372 Rain 25 998 53 10000 8.2 320 02:33 04.04.2020
5373 Rain 23 999 64 10000 8.2 330 01:55 04.04.2020
5374 Clouds 22 999 78 10000 7.7 340 01:25 04.04.2020
5375 Clouds 21 999 78 10000 7.7 320 00:49 04.04.2020
5376 Clouds 20 998 83 10000 8.2 340 00:30 04.04.2020
5377 Rain 20 997 94 10000 5.7 350 23:40 03.04.2020
5378 Rain 19 997 94 10000 5.7 350 23:21 03.04.2020
5379 Rain 19 997 94 10000 9.3 360 22:59 03.04.2020
5380 Rain 20 997 100 10000 5.7 20 22:39 03.04.2020
5381 Rain 20 997 100 10000 5.7 20 22:39 03.04.2020
5382 Rain 20 997 100 10000 5.7 20 22:19 03.04.2020
5383 Rain 20 996 94 10000 7.2 10 21:45 03.04.2020
5384 Rain 20 996 94 10000 7.2 10 21:26 03.04.2020
5385 Clouds 21 996 78 10000 7.2 10 20:57 03.04.2020
5386 Clouds 21 996 83 10000 7.2 10 20:39 03.04.2020
5387 Clouds 21 996 83 10000 7.2 10 20:21 03.04.2020
5388 Clouds 21 996 78 10000 7.7 10 19:58 03.04.2020
5389 Clouds 21 997 83 10000 5.7 10 19:39 03.04.2020
5390 Clouds 20 998 83 10000 5.7 360 19:21 03.04.2020
5391 Clouds 20 998 83 10000 5.7 360 18:59 03.04.2020
5392 Clouds 20 998 83 10000 5.7 360 18:59 03.04.2020
5393 Rain 20 998 83 10000 4.6 20 18:41 03.04.2020
5394 Rain 20 998 83 10000 4.6 20 18:23 03.04.2020
5395 Rain 20 999 83 10000 5.7 10 17:58 03.04.2020
5396 Clouds 20 999 83 10000 7.7 360 17:39 03.04.2020
5397 Clouds 20 999 83 10000 7.7 360 17:19 03.04.2020
5398 Clouds 20 1000 88 10000 7.7 10 16:46 03.04.2020
5399 Clouds 20 1000 88 10000 7.7 10 16:22 03.04.2020
5400 Clouds 20 1000 88 10000 7.7 10 16:22 03.04.2020
5401 Clouds 20 1001 94 10000 2.1 10 15:59 03.04.2020
5402 Clouds 20 1002 94 10000 3.1 40 15:40 03.04.2020
5403 Rain 20 1002 94 10000 3.1 40 15:22 03.04.2020
5404 Rain 20 995 91 0 3.13 315 14:57 03.04.2020
5405 Rain 20 1003 94 10000 7.7 30 14:39 03.04.2020
5406 Rain 20 1003 100 10000 4.1 40 14:21 03.04.2020
5407 Rain 20 1003 100 10000 4.1 40 13:46 03.04.2020
5408 Rain 20 1003 100 10000 4.1 40 13:26 03.04.2020
5409 Rain 20 1003 100 10000 5.1 30 12:56 03.04.2020
5410 Rain 20 1003 100 10000 4.1 40 12:38 03.04.2020
5411 Rain 20 1004 100 10000 3.1 50 12:18 03.04.2020
5412 Rain 20 1004 94 10000 7.7 20 11:55 03.04.2020
5413 Rain 20 1004 94 10000 7.7 20 11:55 03.04.2020
5414 Rain 20 1004 94 10000 6.7 30 11:37 03.04.2020
5415 Rain 20 1004 94 10000 6.7 30 11:18 03.04.2020
5416 Rain 20 1004 94 10000 5.1 340 10:56 03.04.2020
5417 Rain 20 1004 100 10000 2.6 40 10:37 03.04.2020
5418 Rain 20 1004 100 10000 2.6 40 10:37 03.04.2020
5419 Rain 20 1004 100 10000 2.6 40 10:18 03.04.2020
5420 Rain 20 1004 94 10000 3.1 30 10:18 03.04.2020
5421 Rain 21 1004 94 10000 3.1 30 09:55 03.04.2020
5422 Rain 21 1005 100 10000 2.6 340 09:37 03.04.2020
5423 Rain 21 1005 100 10000 2.6 340 09:18 03.04.2020
5424 Rain 21 1005 100 10000 1.5 20 08:43 03.04.2020
5425 Rain 22 1005 94 10000 2.1 360 08:23 03.04.2020
5426 Clouds 23 1005 61 10000 5.7 30 07:51 03.04.2020
5427 Clouds 23 1005 61 10000 5.7 30 07:33 03.04.2020
5428 Clouds 24 1005 61 10000 4.6 20 06:57 03.04.2020
5429 Clouds 25 1006 57 10000 4.1 30 06:27 03.04.2020
5430 Clouds 25 1007 64 10000 4.1 20 05:42 03.04.2020
5431 Clouds 24 1009 69 10000 2.6 140 04:18 03.04.2020
5432 Clouds 24 1009 65 10000 1.5 230 03:32 03.04.2020
5433 Clouds 24 1009 78 10000 0.5 300 02:31 03.04.2020
5434 Clouds 23 1009 83 10000 2.1 70 01:25 03.04.2020
5435 Rain 22 1010 82 10000 1.92 328 00:46 03.04.2020
5436 Rain 21 1010 82 10000 1.92 328 00:27 03.04.2020
5437 Clouds 18 1010 88 10000 2.6 60 23:54 02.04.2020
5438 Clouds 18 1010 88 10000 1.94 312 23:36 02.04.2020
5439 Clouds 17 1009 93 10000 2.6 360 23:18 02.04.2020
5440 Clouds 17 1009 93 10000 1 310 22:41 02.04.2020
5441 Clouds 17 1009 93 10000 1 310 22:22 02.04.2020
5442 Clouds 17 1009 100 10000 2.6 250 21:58 02.04.2020
5443 Mist 17 1009 93 8000 1 280 21:37 02.04.2020
5444 Mist 17 1009 93 8000 1 280 21:18 02.04.2020
5445 Mist 17 1009 93 10000 1.5 360 20:44 02.04.2020
5446 Mist 17 1009 93 10000 1.5 360 20:25 02.04.2020
5447 Clouds 17 1009 93 8000 2.1 10 19:57 02.04.2020
5448 Clear 17 1009 93 10000 2.6 320 19:39 02.04.2020
5449 Clear 17 1009 93 10000 2.1 290 19:20 02.04.2020
5450 Clear 18 1009 93 10000 2.1 290 18:55 02.04.2020
5451 Clear 18 1009 93 10000 2.6 300 18:36 02.04.2020
5452 Clear 18 1009 93 10000 3.6 260 18:18 02.04.2020
5453 Clear 18 1009 93 10000 3.6 260 17:43 02.04.2020
5454 Clear 18 1009 88 10000 3.6 280 17:24 02.04.2020
5455 Clear 18 1009 93 10000 3.1 260 16:58 02.04.2020
5456 Clear 18 1009 93 10000 3.1 250 16:40 02.04.2020
5457 Clear 19 1009 93 10000 3.1 250 16:22 02.04.2020
5458 Clear 19 1010 93 10000 3.6 40 15:57 02.04.2020
5459 Clear 19 1010 93 10000 2.6 30 15:39 02.04.2020
5460 Rain 19 1010 88 10000 3.6 350 15:19 02.04.2020
5461 Rain 19 1010 88 10000 3.6 340 14:57 02.04.2020
5462 Rain 19 1010 88 10000 5.1 330 14:38 02.04.2020
5463 Rain 19 1010 100 10000 4.1 60 14:19 02.04.2020
5464 Rain 19 1010 100 10000 4.1 60 13:55 02.04.2020
5465 Rain 19 1010 94 10000 2.1 10 13:37 02.04.2020
5466 Rain 19 1010 94 10000 2.1 10 13:18 02.04.2020
5467 Rain 20 1010 94 10000 2.6 30 12:45 02.04.2020
5468 Rain 20 1010 100 10000 1.5 40 12:20 02.04.2020
5469 Rain 20 1010 100 10000 1.5 40 12:20 02.04.2020
5470 Rain 20 1010 100 10000 1.5 40 11:58 02.04.2020
5471 Rain 20 1010 100 10000 1.5 40 11:58 02.04.2020
5472 Rain 20 1010 100 10000 3.6 30 11:39 02.04.2020
5473 Rain 20 1010 100 10000 3.6 30 11:20 02.04.2020
5474 Rain 20 1010 100 10000 2.6 50 10:57 02.04.2020
5475 Rain 20 1010 100 10000 3.6 50 10:38 02.04.2020
5476 Rain 20 1010 100 10000 3.6 50 10:20 02.04.2020
5477 Rain 20 1010 100 10000 3.6 50 09:59 02.04.2020
5478 Rain 20 1010 94 10000 3.1 40 09:41 02.04.2020
5479 Rain 21 1010 94 10000 3.1 40 09:21 02.04.2020
5480 Rain 21 1010 100 10000 3.1 60 08:47 02.04.2020
5481 Rain 21 1010 100 10000 3.1 60 08:28 02.04.2020
5482 Rain 21 1011 88 9000 3.6 20 07:57 02.04.2020
5483 Rain 21 1011 83 9000 4.6 40 07:38 02.04.2020
5484 Rain 21 1011 83 8000 4.1 20 07:19 02.04.2020
5485 Rain 22 1011 73 10000 5.1 20 06:24 02.04.2020
5486 Clouds 23 1011 69 10000 6.7 30 05:46 02.04.2020
5487 Clouds 23 1011 64 10000 6.7 20 04:55 02.04.2020
5488 Clouds 22 1014 100 4500 1 60 02:21 02.04.2020
5489 Clouds 22 1014 64 10000 7.7 30 01:27 02.04.2020
5490 Clouds 21 1015 78 10000 3.1 360 00:41 02.04.2020
5491 Rain 20 1015 83 10000 3.1 300 00:20 02.04.2020
5492 Clouds 19 1015 88 10000 2.1 330 23:39 01.04.2020
5493 Clouds 18 1015 93 6000 3.54 14 23:19 01.04.2020
5494 Clouds 18 1015 100 500 3.54 14 22:57 01.04.2020
5495 Clouds 18 1015 100 500 3.54 14 22:57 01.04.2020
5496 Clouds 18 1015 100 200 3.54 14 22:38 01.04.2020
5497 Clouds 18 1015 100 200 3.54 14 22:19 01.04.2020
5498 Clouds 18 1015 100 200 3.54 14 22:19 01.04.2020
5499 Clouds 17 1015 88 10000 0.5 340 21:41 01.04.2020
5500 Clouds 18 1015 88 10000 0.5 340 21:19 01.04.2020
5501 Clouds 17 1015 93 1100 3.01 28 20:57 01.04.2020
5502 Clouds 18 1015 100 150 3.01 28 20:38 01.04.2020
5503 Clouds 18 1015 100 150 3.01 28 20:20 01.04.2020
5504 Clouds 18 1015 88 10000 2.6 20 19:58 01.04.2020
5505 Clouds 18 1015 88 10000 1 30 19:40 01.04.2020
5506 Clouds 18 1015 88 10000 2.1 10 19:19 01.04.2020
5507 Clouds 19 1016 88 10000 1.5 10 18:42 01.04.2020
5508 Clouds 19 1016 88 10000 1.5 10 18:24 01.04.2020
5509 Rain 19 1016 93 10000 3.01 17 17:58 01.04.2020
5510 Clouds 19 1016 100 6000 3.01 17 17:38 01.04.2020
5511 Clouds 20 1017 83 10000 3.6 360 17:19 01.04.2020
5512 Clouds 20 1017 83 10000 3.6 360 16:58 01.04.2020
5513 Clouds 20 1017 83 10000 3.6 10 16:39 01.04.2020
5514 Clouds 20 1017 83 10000 3.6 10 16:21 01.04.2020
5515 Clouds 20 1017 83 10000 4.1 20 15:57 01.04.2020
5516 Clouds 20 1017 83 10000 4.1 20 15:57 01.04.2020
5517 Clouds 20 1017 100 10000 3.01 17 15:38 01.04.2020
5518 Clouds 20 1018 94 10000 3.78 33 15:18 01.04.2020
5519 Clouds 20 1018 94 10000 3.78 33 14:55 01.04.2020
5520 Clouds 20 1018 94 10000 3.78 33 14:55 01.04.2020
5521 Rain 21 1018 83 10000 3.6 30 14:37 01.04.2020
5522 Rain 21 1018 83 10000 3.6 30 14:19 01.04.2020
5523 Clouds 21 1018 94 10000 4.01 32 13:56 01.04.2020
5524 Rain 21 1018 78 10000 6.7 50 13:37 01.04.2020
5525 Clouds 21 1018 78 10000 5.7 50 13:18 01.04.2020
5526 Clouds 21 1018 78 10000 5.7 50 12:42 01.04.2020
5527 Clouds 21 1018 78 10000 5.7 50 12:24 01.04.2020
5528 Clouds 21 1018 78 10000 5.1 50 11:59 01.04.2020
5529 Clouds 22 1018 78 10000 6.2 50 11:39 01.04.2020
5530 Clouds 22 1017 78 10000 7.2 70 11:20 01.04.2020
5531 Clouds 22 1017 78 10000 7.2 70 10:56 01.04.2020
5532 Clouds 22 1017 78 10000 6.2 50 10:37 01.04.2020
5533 Clouds 22 1017 78 10000 6.2 50 10:18 01.04.2020
5534 Clouds 22 1017 73 10000 6.7 60 09:40 01.04.2020
5535 Clouds 23 1017 73 10000 6.7 60 09:22 01.04.2020
5536 Clouds 23 1017 64 10000 6.7 60 08:59 01.04.2020
5537 Clouds 23 1017 69 10000 7.7 50 08:40 01.04.2020
5538 Clouds 23 1017 69 10000 7.7 50 08:40 01.04.2020
5539 Clouds 23 1017 69 10000 7.7 50 08:18 01.04.2020
5540 Clouds 23 1017 73 10000 7.7 50 07:42 01.04.2020
5541 Clouds 23 1017 73 10000 7.7 50 07:20 01.04.2020
5542 Clouds 23 1017 73 10000 7.2 40 06:47 01.04.2020
5543 Rain 22 1017 73 10000 7.2 60 06:23 01.04.2020
5544 Rain 22 1017 73 10000 7.2 60 05:55 01.04.2020
5545 Clouds 22 1018 73 10000 7.7 80 04:30 01.04.2020
5546 Rain 22 1019 73 10000 7.2 80 03:28 01.04.2020
5547 Clouds 22 1020 73 10000 6.2 70 02:49 01.04.2020
5548 Clouds 21 1020 83 10000 0.5 20 01:56 01.04.2020
5549 Clouds 21 1020 78 10000 5.7 80 01:37 01.04.2020
5550 Clouds 21 1020 78 10000 4.6 80 01:18 01.04.2020
5551 Clouds 21 1020 100 10000 3.79 79 00:45 01.04.2020
5552 Clouds 20 1019 83 10000 3.6 80 00:19 01.04.2020
5553 Clouds 20 1019 83 10000 3.1 80 23:42 31.03.2020
5554 Clouds 20 1019 100 10000 2.12 92 23:23 31.03.2020
5555 Clouds 19 1018 88 10000 3.1 80 22:58 31.03.2020
5556 Clouds 19 1018 88 10000 3.1 80 22:37 31.03.2020
5557 Clouds 19 1018 88 10000 3.1 80 22:19 31.03.2020
5558 Clouds 19 1018 88 10000 2.6 80 21:56 31.03.2020
5559 Clouds 19 1018 88 10000 2.6 80 21:38 31.03.2020
5560 Clouds 19 1018 88 10000 1.5 70 21:19 31.03.2020
5561 Clouds 19 1018 88 10000 1.5 70 20:55 31.03.2020
5562 Clouds 19 1018 88 10000 1.5 70 20:36 31.03.2020
5563 Rain 19 1018 88 10000 2.1 60 20:18 31.03.2020
5564 Clouds 19 1018 100 10000 1.5 170 19:42 31.03.2020
5565 Clouds 19 1018 100 10000 1.5 170 19:42 31.03.2020
5566 Clouds 19 1018 100 10000 2.1 150 19:23 31.03.2020
5567 Clouds 19 1018 100 10000 2.1 150 18:58 31.03.2020
5568 Clouds 19 1018 88 10000 2.6 90 18:40 31.03.2020
5569 Clouds 19 1018 83 10000 3.1 90 18:19 31.03.2020
5570 Clouds 19 1018 88 10000 3.1 90 17:55 31.03.2020
5571 Clouds 19 1018 88 10000 3.1 90 17:37 31.03.2020
5572 Clouds 19 1018 88 10000 3.1 70 17:19 31.03.2020
5573 Clouds 20 1018 83 10000 3.1 80 16:41 31.03.2020
5574 Clouds 20 1018 83 10000 3.1 80 16:20 31.03.2020
5575 Rain 20 1018 78 10000 3.1 80 15:58 31.03.2020
5576 Rain 20 1018 78 10000 3.6 80 15:40 31.03.2020
5577 Rain 20 1018 78 10000 3.6 80 15:22 31.03.2020
5578 Clouds 21 1018 78 10000 3.6 80 14:57 31.03.2020
5579 Clouds 21 1018 78 10000 3.1 70 14:39 31.03.2020
5580 Clouds 21 1018 78 10000 3.6 90 14:21 31.03.2020
5581 Clouds 21 1018 78 10000 3.6 90 13:43 31.03.2020
5582 Clouds 21 1018 78 10000 3.6 110 13:20 31.03.2020
5583 Clouds 21 1018 78 10000 4.1 100 12:59 31.03.2020
5584 Clouds 21 1018 78 10000 4.6 110 12:40 31.03.2020
5585 Clouds 21 1018 78 10000 4.6 110 12:19 31.03.2020
5586 Clouds 21 1017 83 10000 4.6 110 11:41 31.03.2020
5587 Clouds 21 1017 83 10000 4.6 110 11:20 31.03.2020
5588 Clouds 22 1017 78 10000 4.6 120 10:59 31.03.2020
5589 Clouds 22 1016 78 10000 5.1 120 10:41 31.03.2020
5590 Clouds 22 1016 78 10000 5.1 120 10:22 31.03.2020
5591 Clouds 22 1016 78 10000 5.1 120 09:59 31.03.2020
5592 Clouds 23 1016 78 10000 5.7 130 09:41 31.03.2020
5593 Clouds 23 1016 78 10000 5.7 130 09:22 31.03.2020
5594 Clouds 23 1016 73 10000 6.2 120 08:57 31.03.2020
5595 Clouds 24 1015 73 10000 5.7 130 08:39 31.03.2020
5596 Clouds 24 1015 73 10000 5.7 130 08:19 31.03.2020
5597 Clouds 24 1015 73 10000 5.7 130 07:56 31.03.2020
5598 Clouds 24 1015 73 10000 5.7 130 07:38 31.03.2020
5599 Clouds 25 1015 73 10000 5.7 130 07:19 31.03.2020
5600 Clouds 26 1015 78 10000 5.7 130 06:47 31.03.2020
5601 Clouds 26 1015 69 10000 4.6 140 06:22 31.03.2020
5602 Clouds 26 1015 54 10000 2.1 70 05:39 31.03.2020
5603 Clouds 26 1016 61 10000 1 20 03:43 31.03.2020
5604 Clouds 24 1016 64 10000 6.2 140 02:19 31.03.2020
5605 Clouds 23 1016 64 10000 4.1 230 01:45 31.03.2020
5606 Clouds 21 1016 82 10000 3.6 280 00:49 31.03.2020
5607 Clouds 20 1016 82 10000 3.6 280 00:25 31.03.2020
5608 Clouds 18 1016 77 10000 4.6 280 23:58 30.03.2020
5609 Clouds 18 1016 82 10000 4.6 280 23:38 30.03.2020
5610 Clouds 17 1016 82 10000 4.6 280 23:18 30.03.2020
5611 Clouds 17 1015 88 10000 4.1 260 22:55 30.03.2020
5612 Clouds 16 1015 88 10000 3.6 290 22:36 30.03.2020
5613 Clouds 16 1015 88 10000 3.6 290 22:18 30.03.2020
5614 Clouds 16 1014 93 10000 3.6 290 21:55 30.03.2020
5615 Clear 16 1014 88 10000 3.1 290 21:36 30.03.2020
5616 Clouds 16 1014 100 10000 3.6 213 21:18 30.03.2020
5617 Clouds 16 1014 100 10000 3.6 213 20:42 30.03.2020
5618 Clouds 16 1014 100 10000 3.6 213 20:24 30.03.2020
5619 Clouds 16 1014 100 10000 3.6 213 20:24 30.03.2020
5620 Clouds 16 1014 100 10000 3.6 213 20:24 30.03.2020
5621 Clouds 16 1014 88 10000 2.6 290 19:59 30.03.2020
5622 Clouds 16 1014 88 10000 2.6 290 19:59 30.03.2020
5623 Clouds 16 1014 88 10000 2.6 320 19:40 30.03.2020
5624 Clouds 17 1014 88 10000 2.6 320 19:21 30.03.2020
5625 Clouds 17 1013 88 10000 3.1 340 18:57 30.03.2020
5626 Clouds 17 1013 82 10000 3.6 213 18:38 30.03.2020
5627 Clear 17 1013 82 10000 2.1 360 18:20 30.03.2020
5628 Clear 17 1013 82 10000 2.1 360 17:57 30.03.2020
5629 Clear 17 1013 100 10000 2 239 17:38 30.03.2020
5630 Clear 17 1013 100 10000 2 239 17:38 30.03.2020
5631 Clear 17 1013 100 10000 2 239 17:19 30.03.2020
5632 Clear 17 1013 100 10000 2 239 16:55 30.03.2020
5633 Clear 18 1013 82 10000 3.6 240 16:37 30.03.2020
5634 Clear 18 1013 82 10000 3.6 240 16:18 30.03.2020
5635 Clear 18 1013 82 10000 3.1 290 15:54 30.03.2020
5636 Clear 19 1013 77 10000 3.6 310 15:36 30.03.2020
5637 Clouds 19 1013 77 10000 3.6 310 15:18 30.03.2020
5638 Clouds 19 1013 77 10000 4.6 300 14:39 30.03.2020
5639 Clouds 19 1013 77 10000 3.6 300 14:19 30.03.2020
5640 Clouds 19 1013 77 10000 3.6 300 13:59 30.03.2020
5641 Clouds 20 1013 100 10000 2.91 320 13:40 30.03.2020
5642 Clouds 20 1013 93 10000 2.6 310 13:21 30.03.2020
5643 Clouds 20 1013 93 10000 2.6 310 12:57 30.03.2020
5644 Clouds 20 1013 88 10000 1.5 330 12:38 30.03.2020
5645 Clouds 20 1013 88 10000 1.5 330 12:38 30.03.2020
5646 Clouds 20 1013 88 10000 1.5 330 12:19 30.03.2020
5647 Clouds 20 1013 88 10000 3.21 327 11:56 30.03.2020
5648 Clouds 21 1012 88 10000 1 280 11:38 30.03.2020
5649 Clouds 21 1012 88 10000 1 280 11:20 30.03.2020
5650 Clouds 22 1011 69 10000 3.21 327 10:39 30.03.2020
5651 Clouds 23 1011 69 10000 3.21 327 10:21 30.03.2020
5652 Clouds 23 1011 61 10000 3.1 310 09:56 30.03.2020
5653 Clouds 24 1011 57 10000 3.1 310 09:37 30.03.2020
5654 Clouds 24 1011 57 10000 3.1 310 09:18 30.03.2020
5655 Clouds 24 1004 67 0 0.89 264 08:41 30.03.2020
5656 Clouds 25 1011 54 10000 5.7 300 08:22 30.03.2020
5657 Clouds 25 1011 57 10000 4.1 300 07:49 30.03.2020
5658 Clouds 25 1011 57 10000 4.6 290 07:27 30.03.2020
5659 Clouds 24 1012 61 10000 3.1 350 06:54 30.03.2020
5660 Clouds 24 1011 57 10000 5.7 300 06:31 30.03.2020
5661 Clouds 24 1011 57 10000 5.7 300 06:31 30.03.2020
5662 Rain 24 1012 61 10000 5.1 300 05:52 30.03.2020
5663 Rain 23 1012 64 10000 4.6 290 05:22 30.03.2020
5664 Rain 22 1013 69 10000 5.1 310 04:23 30.03.2020
5665 Clouds 21 1013 73 10000 4.1 310 03:38 30.03.2020
5666 Rain 20 1014 88 10000 3.1 30 02:38 30.03.2020
5667 Rain 20 1014 100 10000 3.6 30 01:44 30.03.2020
5668 Rain 20 1014 100 10000 2.1 40 00:49 30.03.2020
5669 Rain 19 1014 94 10000 2.6 280 00:22 30.03.2020
5670 Rain 19 1013 93 10000 3.1 50 23:42 29.03.2020
5671 Rain 19 1013 93 10000 3.1 50 23:23 29.03.2020
5672 Rain 19 1013 93 10000 2.6 40 22:58 29.03.2020
5673 Rain 19 1013 100 10000 1.5 10 22:38 29.03.2020
5674 Rain 19 1013 100 10000 1.5 10 22:19 29.03.2020
5675 Clouds 19 1014 100 10000 2.6 30 21:57 29.03.2020
5676 Rain 19 1014 100 10000 0.5 10 21:36 29.03.2020
5677 Rain 19 1014 100 10000 1 300 21:18 29.03.2020
5678 Rain 19 1014 100 10000 1 300 20:55 29.03.2020
5679 Rain 19 1013 100 10000 2.6 290 20:37 29.03.2020
5680 Rain 19 1013 100 10000 2.6 290 20:37 29.03.2020
5681 Rain 19 1013 100 10000 2.6 290 20:37 29.03.2020
5682 Rain 19 1013 100 10000 1.5 70 20:18 29.03.2020
5683 Rain 18 1013 100 10000 1.5 70 19:54 29.03.2020
5684 Rain 18 1014 100 10000 1.5 230 19:36 29.03.2020
5685 Clouds 18 1014 91 0 1.79 276 19:18 29.03.2020
5686 Clouds 18 1014 100 10000 0.5 220 18:54 29.03.2020
5687 Clouds 18 1014 100 10000 0.5 220 18:36 29.03.2020
5688 Rain 19 1014 100 10000 4.16 7 18:18 29.03.2020
5689 Rain 19 1014 100 10000 4.16 7 18:18 29.03.2020
5690 Rain 19 1014 88 10000 4.16 7 17:42 29.03.2020
5691 Rain 19 1014 88 10000 4.16 7 17:22 29.03.2020
5692 Rain 18 1014 93 5000 4.16 7 16:59 29.03.2020
5693 Rain 19 1015 88 10000 2.6 270 16:40 29.03.2020
5694 Rain 19 1015 88 10000 2.6 270 16:21 29.03.2020
5695 Rain 19 1015 100 5000 1 320 15:58 29.03.2020
5696 Rain 19 1015 100 2000 4.16 7 15:40 29.03.2020
5697 Rain 19 1016 83 10000 3.1 10 15:20 29.03.2020
5698 Rain 19 1016 83 10000 3.1 10 14:56 29.03.2020
5699 Rain 19 1016 93 10000 0.5 30 14:37 29.03.2020
5700 Rain 20 1016 93 10000 5.35 13 14:19 29.03.2020
5701 Rain 20 1016 93 10000 5.35 13 13:55 29.03.2020
5702 Rain 20 1016 94 10000 5.35 13 13:37 29.03.2020
5703 Rain 20 1016 94 10000 5.35 13 13:19 29.03.2020
5704 Rain 21 1016 88 10000 5.35 13 12:54 29.03.2020
5705 Rain 21 1016 83 10000 6.7 20 12:36 29.03.2020
5706 Clouds 21 1016 83 10000 7.7 10 12:18 29.03.2020
5707 Clouds 21 1016 83 10000 8.2 20 11:39 29.03.2020
5708 Clouds 21 1016 83 10000 8.2 20 11:21 29.03.2020
5709 Clouds 22 1016 78 10000 6.7 30 10:40 29.03.2020
5710 Clouds 22 1016 78 10000 6.7 30 10:21 29.03.2020
5711 Clouds 22 1016 73 10000 8.7 30 09:59 29.03.2020
5712 Clouds 23 1016 69 10000 8.7 30 09:38 29.03.2020
5713 Clouds 23 1016 69 10000 8.7 30 09:19 29.03.2020
5714 Clouds 23 1016 69 10000 8.7 30 08:48 29.03.2020
5715 Clouds 23 1016 69 10000 9.3 20 08:27 29.03.2020
5716 Clouds 24 1016 69 10000 8.2 30 07:56 29.03.2020
5717 Clouds 24 1016 64 10000 6.7 30 07:38 29.03.2020
5718 Clouds 24 1016 61 10000 9.3 30 07:19 29.03.2020
5719 Clouds 24 1018 64 10000 9.3 30 04:59 29.03.2020
5720 Clouds 23 1020 60 10000 9.8 20 03:48 29.03.2020
5721 Clouds 23 1020 60 10000 9.8 20 03:26 29.03.2020
5722 Clouds 22 1020 69 10000 6.2 10 01:50 29.03.2020
5723 Rain 22 1021 78 10000 7.2 30 01:23 29.03.2020
5724 Rain 21 1021 78 10000 7.2 30 00:53 29.03.2020
5725 Rain 20 1021 88 10000 2.6 210 00:30 29.03.2020
5726 Clouds 19 1020 93 10000 5.05 34 23:42 28.03.2020
5727 Clouds 19 1020 93 10000 5.05 34 23:23 28.03.2020
5728 Rain 18 1020 100 10000 4.05 38 22:58 28.03.2020
5729 Rain 18 1020 93 10000 4.05 38 22:38 28.03.2020
5730 Rain 18 1020 100 10000 0.5 280 22:20 28.03.2020
5731 Clouds 17 1020 100 10000 0.5 280 21:54 28.03.2020
5732 Clouds 17 1020 100 10000 1.5 220 21:36 28.03.2020
5733 Clouds 17 1019 93 10000 3.1 230 21:18 28.03.2020
5734 Clouds 17 1019 93 10000 3.1 230 20:41 28.03.2020
5735 Clouds 17 1019 100 10000 3.88 33 20:23 28.03.2020
5736 Rain 17 1020 93 10000 2.6 320 19:57 28.03.2020
5737 Rain 17 1020 93 10000 2.6 320 19:39 28.03.2020
5738 Rain 17 1020 93 10000 2.1 330 19:20 28.03.2020
5739 Rain 17 1020 93 10000 2.1 330 18:58 28.03.2020
5740 Rain 17 1020 93 3000 1 280 18:38 28.03.2020
5741 Rain 17 1020 93 5000 2.1 270 18:19 28.03.2020
5742 Rain 17 1020 93 5000 2.1 270 17:39 28.03.2020
5743 Rain 17 1021 93 10000 1.5 10 17:20 28.03.2020
5744 Clouds 17 1021 93 10000 2.6 270 16:43 28.03.2020
5745 -273 0 0 0 0 0 16:20 28.03.2020
5746 Rain 17 1021 93 10000 3.6 280 15:59 28.03.2020
5747 Rain 18 1021 88 10000 2.1 260 15:39 28.03.2020
5748 Rain 18 1021 88 10000 2.1 260 15:19 28.03.2020
5749 Rain 18 1022 93 10000 2.6 270 14:55 28.03.2020
5750 Clouds 18 1022 100 10000 1 220 14:37 28.03.2020
5751 Clouds 18 1022 100 10000 1 210 14:18 28.03.2020
5752 Rain 18 1022 100 10000 3.6 300 13:39 28.03.2020
5753 Rain 18 1022 100 10000 3.6 300 13:21 28.03.2020
5754 Rain 18 1022 93 10000 3.6 240 12:40 28.03.2020
5755 Rain 18 1023 93 10000 2.6 250 12:22 28.03.2020
5756 Rain 18 1023 93 10000 2.6 250 11:43 28.03.2020
5757 Rain 18 1022 93 6000 4.1 230 11:23 28.03.2020
5758 Rain 18 1022 93 6000 4.1 230 10:58 28.03.2020
5759 Rain 18 1022 93 10000 3.1 200 10:38 28.03.2020
5760 Rain 18 1023 93 7000 2.1 140 10:18 28.03.2020
5761 Rain 19 1022 93 4000 2.1 140 09:42 28.03.2020
5762 Rain 19 1022 88 10000 2.1 130 09:23 28.03.2020
5763 Rain 19 1022 88 10000 2.1 130 08:55 28.03.2020
5764 Rain 20 1022 88 4000 6.7 90 08:37 28.03.2020
5765 Rain 21 1022 60 10000 3.6 110 08:18 28.03.2020
5766 Rain 21 1022 56 10000 5.7 70 07:41 28.03.2020
5767 Rain 22 1022 49 10000 5.1 90 06:58 28.03.2020
5768 Clouds 22 1022 49 10000 5.1 70 06:35 28.03.2020
5769 Clouds 23 1023 47 10000 5.7 80 05:42 28.03.2020
5770 Clouds 23 1023 47 10000 5.1 90 05:21 28.03.2020
5771 Clouds 23 1023 50 10000 5.7 70 04:40 28.03.2020
5772 Clouds 23 1024 50 10000 5.1 90 03:42 28.03.2020
5773 Clouds 23 1025 50 10000 3.6 110 01:57 28.03.2020
5774 Clouds 22 1025 77 10000 3.1 150 01:26 28.03.2020
5775 Clouds 21 1025 77 10000 2.1 190 00:57 28.03.2020
5776 Clouds 21 1025 72 10000 2.1 220 00:36 28.03.2020
5777 Clouds 20 1025 72 10000 0.5 310 23:56 27.03.2020
5778 Clouds 19 1025 77 10000 2.1 310 23:38 27.03.2020
5779 Clouds 19 1025 77 10000 2.1 310 23:38 27.03.2020
5780 Clouds 17 1025 77 10000 3.6 330 23:19 27.03.2020
5781 Clouds 16 1025 82 10000 2.6 330 22:56 27.03.2020
5782 Clouds 16 1025 82 10000 2.6 330 22:37 27.03.2020
5783 Clouds 15 1025 82 10000 2.6 330 22:19 27.03.2020
5784 Clouds 14 1025 100 400 0.5 20 21:44 27.03.2020
5785 Clouds 14 1025 100 400 0.5 20 21:25 27.03.2020
5786 Clouds 14 1024 100 5000 0.38 205 20:59 27.03.2020
5787 Clouds 14 1024 100 10000 1.01 112 20:41 27.03.2020
5788 Rain 14 1024 88 10000 3.1 330 20:20 27.03.2020
5789 Clouds 14 1024 88 10000 3.1 320 19:58 27.03.2020
5790 Rain 14 1024 88 10000 2.6 340 19:40 27.03.2020
5791 Rain 14 1024 88 10000 2.6 340 19:21 27.03.2020
5792 Rain 15 1024 88 10000 3.1 330 18:45 27.03.2020
5793 Clouds 15 1024 82 10000 3.1 310 18:25 27.03.2020
5794 Clouds 15 1024 100 10000 0.71 83 17:59 27.03.2020
5795 Clouds 15 1024 100 10000 0.71 83 17:40 27.03.2020
5796 Clouds 15 1025 100 10000 1 330 17:20 27.03.2020
5797 Clouds 15 1025 100 10000 1.27 90 16:44 27.03.2020
5798 Clouds 15 1025 100 10000 1.27 90 16:26 27.03.2020
5799 Clouds 15 1025 100 10000 1.27 90 15:57 27.03.2020
5800 Clouds 15 1025 100 10000 1.27 90 15:39 27.03.2020
5801 Clouds 16 1025 77 10000 5.1 130 15:21 27.03.2020
5802 Clouds 17 1025 77 10000 4.1 140 14:45 27.03.2020
5803 Rain 17 1026 72 10000 3.1 110 14:24 27.03.2020
5804 Rain 16 1026 72 10000 3.1 110 13:56 27.03.2020
5805 Rain 17 1026 77 10000 3.6 110 13:37 27.03.2020
5806 Rain 17 1026 72 10000 3.6 120 13:18 27.03.2020
5807 Clouds 17 1026 68 10000 3.6 110 12:49 27.03.2020
5808 Clouds 17 1026 68 10000 3.1 110 12:21 27.03.2020
5809 Clouds 17 1026 68 10000 3.1 110 11:59 27.03.2020
5810 Clouds 17 1026 68 10000 3.1 110 11:59 27.03.2020
5811 Clouds 17 1026 68 10000 3.1 110 11:59 27.03.2020
5812 Clouds 18 1026 68 10000 3.1 110 11:41 27.03.2020
5813 Clouds 18 1026 63 10000 2.1 100 11:22 27.03.2020
5814 Clouds 18 1025 68 10000 3.1 140 10:54 27.03.2020
5815 Clouds 18 1025 68 10000 3.1 140 10:36 27.03.2020
5816 Clouds 19 1025 68 10000 3.1 140 10:18 27.03.2020
5817 Clouds 19 1025 64 10000 3.6 140 09:55 27.03.2020
5818 Clouds 19 1025 60 10000 3.6 120 09:36 27.03.2020
5819 Clouds 19 1025 60 10000 4.1 130 09:18 27.03.2020
5820 Clouds 20 1025 60 10000 4.1 130 08:54 27.03.2020
5821 Clouds 20 1025 52 10000 4.1 130 08:36 27.03.2020
5822 Clouds 20 1025 52 10000 4.1 130 08:18 27.03.2020
5823 Clouds 21 1025 53 10000 4.6 130 07:43 27.03.2020
5824 Clouds 21 1025 53 10000 4.6 130 07:21 27.03.2020
5825 Clouds 21 1025 53 10000 4.6 130 06:41 27.03.2020
5826 Clouds 21 1025 49 10000 4.1 130 06:18 27.03.2020
5827 Clouds 21 1027 53 10000 5.1 130 03:42 27.03.2020
5828 Clouds 21 1027 56 10000 5.7 140 02:25 27.03.2020
5829 Clouds 21 1027 56 10000 5.1 130 01:21 27.03.2020
5830 Clouds 21 1027 56 10000 5.7 120 00:47 27.03.2020
5831 Clouds 21 1027 56 10000 6.7 120 00:23 27.03.2020
5832 Rain 20 1027 64 10000 4.6 120 23:42 26.03.2020
5833 Clouds 19 1026 64 10000 5.1 110 23:19 26.03.2020
5834 Clouds 19 1026 64 10000 5.1 110 22:58 26.03.2020
5835 Clouds 19 1026 64 10000 5.1 110 22:58 26.03.2020
5836 Clouds 18 1026 72 10000 5.1 110 22:37 26.03.2020
5837 Clouds 18 1026 72 10000 5.1 110 22:19 26.03.2020
5838 Clouds 18 1026 72 10000 4.6 110 21:55 26.03.2020
5839 Clouds 18 1025 68 10000 5.1 110 21:36 26.03.2020
5840 Clouds 18 1025 68 10000 5.1 110 21:18 26.03.2020
5841 Clouds 18 1025 72 10000 6.7 100 20:41 26.03.2020
5842 Clouds 18 1025 72 10000 6.7 100 20:23 26.03.2020
5843 Clouds 17 1025 72 10000 6.7 100 20:23 26.03.2020
5844 Rain 18 1025 72 10000 6.7 100 19:58 26.03.2020
5845 Rain 17 1024 72 10000 6.2 100 19:40 26.03.2020
5846 Rain 18 1024 77 10000 6.7 100 19:22 26.03.2020
5847 Rain 18 1024 77 10000 6.7 100 18:59 26.03.2020
5848 Rain 17 1025 82 10000 3.1 100 18:41 26.03.2020
5849 Rain 17 1025 82 10000 3.1 100 18:23 26.03.2020
5850 Rain 17 1025 82 10000 5.7 80 17:45 26.03.2020
5851 Rain 18 1025 82 10000 6.7 80 17:20 26.03.2020
5852 Rain 17 1025 82 10000 6.7 80 16:59 26.03.2020
5853 Rain 17 1025 82 10000 5.7 110 16:39 26.03.2020
5854 Rain 17 1025 82 10000 5.7 110 16:39 26.03.2020
5855 Rain 17 1025 82 10000 5.7 110 16:21 26.03.2020
5856 Rain 17 1025 82 10000 6.2 110 15:56 26.03.2020
5857 Rain 18 1025 82 10000 4.6 110 15:38 26.03.2020
5858 Rain 18 1025 82 10000 4.6 110 15:20 26.03.2020
5859 Rain 18 1026 88 10000 4.6 140 14:43 26.03.2020
5860 Rain 17 1026 88 10000 4.6 140 14:25 26.03.2020
5861 Rain 18 1026 82 9000 3.1 160 13:59 26.03.2020
5862 Clouds 18 1026 82 10000 3.6 110 13:40 26.03.2020
5863 Clouds 19 1026 77 10000 4.6 120 13:21 26.03.2020
5864 Clouds 19 1026 77 10000 4.6 120 12:54 26.03.2020
5865 Clouds 19 1026 77 10000 5.1 130 12:36 26.03.2020
5866 Clouds 19 1026 77 10000 6.2 120 12:18 26.03.2020
5867 Clouds 19 1026 72 10000 5.7 120 11:43 26.03.2020
5868 Clouds 19 1025 72 10000 4.6 110 11:19 26.03.2020
5869 Clouds 19 1025 72 10000 5.7 120 10:42 26.03.2020
5870 Clouds 19 1025 72 10000 5.7 120 10:42 26.03.2020
5871 Clouds 20 1025 77 10000 6.2 130 10:20 26.03.2020
5872 Clouds 20 1025 77 10000 6.2 130 09:59 26.03.2020
5873 Clouds 20 1025 72 10000 6.2 120 09:41 26.03.2020
5874 Clouds 20 1025 72 10000 6.2 120 09:19 26.03.2020
5875 Clouds 20 1024 82 10000 8.2 180 08:44 26.03.2020
5876 Clouds 20 1024 82 10000 8.2 180 08:26 26.03.2020
5877 Clouds 20 1024 82 10000 7.7 190 07:57 26.03.2020
5878 Clouds 20 1024 88 10000 5.7 200 07:38 26.03.2020
5879 Rain 20 1016 76 0 0.45 192 07:20 26.03.2020
5880 Rain 20 1017 75 0 0.89 178 06:38 26.03.2020
5881 Clouds 21 1025 73 10000 9.3 180 05:52 26.03.2020
5882 Clouds 20 1025 77 10000 10.3 180 03:52 26.03.2020
5883 Clouds 20 1025 77 10000 8.7 190 03:33 26.03.2020
5884 Clouds 20 1025 72 10000 10.8 190 02:53 26.03.2020
5885 Rain 18 1026 77 10000 8.7 200 01:20 26.03.2020
5886 Clouds 18 1026 77 10000 9.8 190 00:43 26.03.2020
5887 Rain 18 1025 77 10000 11.8 180 23:45 25.03.2020
5888 Clouds 18 1024 72 10000 11.3 170 23:27 25.03.2020
5889 Clouds 18 1024 72 10000 11.3 170 22:57 25.03.2020
5890 Rain 18 1024 77 10000 11.8 170 22:38 25.03.2020
5891 Rain 18 1024 77 10000 11.8 170 22:38 25.03.2020
5892 Rain 19 1023 77 10000 11.8 170 22:19 25.03.2020
5893 Rain 18 1023 77 10000 11.8 170 21:55 25.03.2020
5894 Rain 18 1023 77 10000 10.8 170 21:37 25.03.2020
5895 Rain 18 1016 72 0 1.79 164 21:18 25.03.2020
5896 Rain 18 1015 69 0 2.24 167 20:40 25.03.2020
5897 Rain 18 1015 69 0 1.34 164 20:20 25.03.2020
5898 Rain 18 1015 72 0 2.24 169 19:59 25.03.2020
5899 Drizzle 18 1022 72 10000 10.3 160 19:41 25.03.2020
5900 Rain 18 1022 72 10000 10.8 160 19:21 25.03.2020
5901 Rain 18 1021 77 10000 12.3 160 18:56 25.03.2020
5902 Rain 18 1021 77 10000 12.3 160 18:37 25.03.2020
5903 Rain 17 1021 77 10000 12.9 160 18:19 25.03.2020
5904 Rain 17 1021 88 8000 11.8 160 17:54 25.03.2020
5905 Rain 17 1021 88 8000 11.8 160 17:36 25.03.2020
5906 Rain 17 1022 93 5000 10.8 170 17:18 25.03.2020
5907 Rain 18 1022 93 4500 8.7 180 16:41 25.03.2020
5908 Rain 18 1022 93 9000 9.3 200 16:22 25.03.2020
5909 Rain 19 1022 93 9000 9.3 200 15:57 25.03.2020
5910 Rain 19 1022 82 10000 8.7 160 15:38 25.03.2020
5911 Drizzle 19 1022 82 10000 8.2 150 15:19 25.03.2020
5912 Rain 19 1021 82 10000 7.7 150 14:42 25.03.2020
5913 Rain 19 1021 82 10000 7.7 150 14:21 25.03.2020
5914 Rain 19 1021 88 10000 7.2 160 13:46 25.03.2020
5915 Rain 19 1021 88 10000 7.2 160 13:27 25.03.2020
5916 Rain 19 1014 83 0 1.34 162 12:57 25.03.2020
5917 Rain 19 1014 83 0 0.89 160 12:37 25.03.2020
5918 Rain 19 1014 84 0 1.34 158 12:19 25.03.2020
5919 Rain 19 1014 84 0 0.45 164 11:55 25.03.2020
5920 Rain 19 1014 86 0 0.45 163 11:36 25.03.2020
5921 Drizzle 19 1021 88 10000 5.1 150 11:18 25.03.2020
5922 Rain 19 1020 88 10000 5.7 150 10:55 25.03.2020
5923 Rain 19 1020 88 10000 5.7 150 10:36 25.03.2020
5924 Rain 20 1020 94 10000 3.6 140 10:18 25.03.2020
5925 Rain 19 1020 94 5000 3.6 150 09:42 25.03.2020
5926 Rain 19 1020 94 5000 3.6 150 09:22 25.03.2020
5927 Rain 20 1019 94 9000 3.6 150 08:56 25.03.2020
5928 Rain 20 1019 94 9000 4.1 150 08:38 25.03.2020
5929 Rain 20 1019 94 9000 4.1 150 08:38 25.03.2020
5930 Rain 20 1019 94 9000 4.1 150 08:19 25.03.2020
5931 Rain 20 1018 88 10000 7.2 160 07:39 25.03.2020
5932 Rain 20 1018 88 10000 7.2 160 07:20 25.03.2020
5933 Rain 20 1018 94 8000 7.7 170 06:47 25.03.2020
5934 Rain 20 1018 88 9000 8.2 170 06:26 25.03.2020
5935 Thunderstorm 22 1018 83 10000 8.2 170 05:53 25.03.2020
5936 Clouds 23 1018 78 10000 8.2 170 04:59 25.03.2020
5937 Clouds 23 1018 78 10000 8.2 170 04:39 25.03.2020
5938 Clouds 24 1018 73 10000 8.2 170 03:36 25.03.2020
5939 Rain 23 1010 67 0 0.45 113 02:31 25.03.2020
5940 Rain 23 1018 69 10000 4.1 210 01:21 25.03.2020
5941 Rain 22 1018 64 10000 4.1 210 00:48 25.03.2020
5942 Rain 22 1019 68 10000 4.1 210 00:23 25.03.2020
5943 Clouds 21 1019 64 10000 2.6 320 23:45 24.03.2020
5944 Clouds 21 1019 64 10000 2.6 320 23:26 24.03.2020
5945 Clouds 19 1019 72 10000 3.6 290 22:56 24.03.2020
5946 Clouds 19 1018 72 10000 2.1 330 22:37 24.03.2020
5947 Clouds 18 1018 72 10000 3.6 330 22:19 24.03.2020
5948 Clouds 19 1018 72 10000 2.1 330 22:19 24.03.2020
5949 Clouds 18 1018 76 0 2.68 340 21:56 24.03.2020
5950 Clouds 18 1018 77 10000 3.1 340 21:37 24.03.2020
5951 Clouds 18 1018 77 10000 3.1 340 21:18 24.03.2020
5952 Clouds 18 1018 72 10000 3.6 350 20:56 24.03.2020
5953 Clouds 18 1018 77 10000 3.6 360 20:38 24.03.2020
5954 Clouds 18 1010 78 0 0.89 305 20:19 24.03.2020
5955 Clouds 18 1018 77 10000 3.1 330 19:41 24.03.2020
5956 Clouds 18 1018 77 10000 4.1 350 19:19 24.03.2020
5957 Clouds 19 1018 77 10000 3.1 360 18:56 24.03.2020
5958 Clouds 19 1018 77 10000 3.1 360 18:37 24.03.2020
5959 Clouds 19 1019 72 10000 2.6 330 18:18 24.03.2020
5960 Clouds 19 1019 71 0 0.45 290 17:42 24.03.2020
5961 Clouds 19 1019 72 10000 2.6 320 17:42 24.03.2020
5962 Clouds 19 1019 72 10000 3.6 340 17:24 24.03.2020
5963 Clouds 18 1019 72 10000 3.6 340 16:59 24.03.2020
5964 Clouds 18 1020 72 10000 3.6 320 16:41 24.03.2020
5965 Clouds 18 1020 72 10000 3.6 320 16:23 24.03.2020
5966 Clouds 18 1020 72 10000 3.6 320 16:23 24.03.2020
5967 Clouds 18 1020 100 10000 1.81 351 15:59 24.03.2020
5968 Clouds 18 1020 100 10000 1.81 351 15:40 24.03.2020
5969 Clouds 19 1020 100 10000 1.81 351 15:22 24.03.2020
5970 Clouds 19 1021 64 10000 5.1 10 14:43 24.03.2020
5971 Clouds 19 1020 64 10000 4.6 10 14:43 24.03.2020
5972 Clouds 19 1021 64 10000 5.1 10 14:43 24.03.2020
5973 Clouds 20 1021 64 10000 5.1 10 14:22 24.03.2020
5974 Clouds 20 1021 64 10000 5.1 10 13:56 24.03.2020
5975 Clouds 20 1021 64 10000 5.7 10 13:38 24.03.2020
5976 Clouds 20 1021 64 10000 5.7 10 13:20 24.03.2020
5977 Clouds 21 1021 68 10000 5.1 20 12:42 24.03.2020
5978 Clouds 21 1021 68 10000 5.1 30 12:23 24.03.2020
5979 Clouds 20 1021 82 10000 2.1 70 11:41 24.03.2020
5980 Clouds 20 1021 68 10000 4.1 20 11:21 24.03.2020
5981 Clouds 20 1021 68 10000 4.1 20 10:59 24.03.2020
5982 Clouds 20 1021 64 10000 4.6 30 10:40 24.03.2020
5983 Clouds 21 1021 64 10000 4.6 30 10:18 24.03.2020
5984 Clouds 21 1020 68 10000 6.2 30 09:46 24.03.2020
5985 Clouds 21 1020 68 10000 6.2 30 09:46 24.03.2020
5986 Clouds 21 1020 68 10000 6.2 30 09:26 24.03.2020
5987 Clouds 21 1020 64 10000 6.2 30 08:57 24.03.2020
5988 Clouds 21 1021 68 10000 6.7 20 08:38 24.03.2020
5989 Clouds 21 1020 64 10000 4.6 50 08:19 24.03.2020
5990 Clouds 21 1020 64 10000 5.7 40 07:44 24.03.2020
5991 Clouds 22 1020 64 10000 5.7 40 07:22 24.03.2020
5992 Clouds 22 1020 64 10000 5.7 40 07:22 24.03.2020
5993 Clouds 21 1021 68 10000 6.7 50 06:42 24.03.2020
5994 Clouds 21 1021 68 10000 5.7 50 06:21 24.03.2020
5995 Clouds 21 1022 77 10000 6.7 50 04:52 24.03.2020
5996 Rain 21 1023 68 10000 5.1 30 03:41 24.03.2020
5997 Clouds 21 1023 64 10000 4.6 30 02:44 24.03.2020
5998 Rain 20 1024 73 10000 4.1 20 01:22 24.03.2020
5999 Rain 20 1024 82 10000 3.6 360 00:41 24.03.2020
6000 Rain 19 1024 88 10000 4.1 350 00:22 24.03.2020
6001 Rain 18 1024 93 8000 4.6 340 23:38 23.03.2020
6002 Rain 18 1024 82 10000 2.1 0 23:20 23.03.2020
6003 Rain 17 1024 88 10000 1.45 344 22:45 23.03.2020
6004 Rain 17 1024 88 10000 1.45 344 22:24 23.03.2020
6005 Rain 16 1024 100 10000 1 10 21:58 23.03.2020
6006 Rain 15 1024 93 10000 1.45 344 21:40 23.03.2020
6007 Clouds 15 1024 93 10000 1.45 344 21:20 23.03.2020
6008 Clouds 15 1024 100 10000 1.45 344 20:57 23.03.2020
6009 Rain 16 1023 100 10000 1.06 60 20:38 23.03.2020
6010 Rain 15 1023 100 10000 1.29 81 20:19 23.03.2020
6011 Rain 15 1023 100 10000 0.5 190 19:45 23.03.2020
6012 Rain 15 1023 100 10000 0.5 190 19:26 23.03.2020
6013 Rain 16 1023 88 10000 3.1 230 18:57 23.03.2020
6014 Rain 16 1023 88 10000 3.1 230 18:39 23.03.2020
6015 Rain 16 1023 88 10000 3.1 230 18:20 23.03.2020
6016 Clouds 16 1024 93 10000 2.6 230 17:42 23.03.2020
6017 Clouds 16 1024 93 10000 2.1 190 17:21 23.03.2020
6018 Clouds 16 1024 93 10000 2.1 190 16:57 23.03.2020
6019 Clouds 16 1024 82 10000 0.5 100 16:39 23.03.2020
6020 Clouds 16 1024 82 10000 0.5 100 16:20 23.03.2020
6021 Rain 16 1025 93 10000 2.1 230 15:41 23.03.2020
6022 Clouds 17 1025 93 10000 1.5 240 15:20 23.03.2020
6023 Clouds 17 1025 93 10000 1.75 93 14:38 23.03.2020
6024 Rain 17 1025 93 10000 1.8 119 14:20 23.03.2020
6025 Rain 17 1025 93 10000 1.8 119 14:20 23.03.2020
6026 Rain 17 1025 88 10000 1.5 220 13:59 23.03.2020
6027 Rain 17 1025 88 10000 1.5 250 13:40 23.03.2020
6028 Rain 17 1025 88 10000 1.5 250 13:21 23.03.2020
6029 Rain 17 1025 72 10000 3.6 100 12:45 23.03.2020
6030 Rain 17 1025 72 10000 3.6 100 12:45 23.03.2020
6031 Rain 17 1025 72 10000 3.6 100 12:26 23.03.2020
6032 Clouds 18 1025 68 10000 5.1 120 11:59 23.03.2020
6033 Clouds 18 1025 68 10000 5.1 120 11:40 23.03.2020
6034 Clouds 18 1025 77 10000 3.6 130 11:20 23.03.2020
6035 Rain 18 1025 68 10000 4.1 130 10:58 23.03.2020
6036 Rain 18 1025 68 10000 4.1 140 10:39 23.03.2020
6037 Rain 18 1025 68 10000 4.1 140 10:21 23.03.2020
6038 Rain 19 1024 68 10000 4.6 130 09:46 23.03.2020
6039 Rain 19 1024 77 10000 5.1 130 09:21 23.03.2020
6040 Rain 19 1024 77 10000 5.1 130 08:58 23.03.2020
6041 Rain 20 1024 72 10000 6.7 120 08:36 23.03.2020
6042 Rain 20 1024 72 10000 6.7 120 08:18 23.03.2020
6043 Rain 20 1024 72 10000 7.7 160 07:47 23.03.2020
6044 Rain 20 1024 72 10000 7.7 160 07:29 23.03.2020
6045 Rain 21 1024 72 10000 7.2 140 06:52 23.03.2020
6046 Rain 21 1024 64 10000 7.2 140 05:55 23.03.2020
6047 Clouds 21 1024 68 10000 7.7 120 05:29 23.03.2020
6048 Rain 21 1025 68 10000 6.7 150 03:45 23.03.2020
6049 Rain 21 1025 64 10000 8.2 150 02:37 23.03.2020
6050 Clouds 20 1026 68 10000 7.7 180 01:34 23.03.2020
6051 Clouds 20 1025 72 10000 9.3 180 00:40 23.03.2020
6052 Clouds 20 1025 72 10000 9.8 170 23:53 22.03.2020
6053 Clouds 19 1025 72 10000 9.8 170 23:27 22.03.2020
6054 Clouds 19 1024 68 10000 8.7 170 22:59 22.03.2020
6055 Clouds 19 1024 68 10000 8.7 170 22:39 22.03.2020
6056 Clouds 18 1024 68 10000 9.8 180 22:18 22.03.2020
6057 Clouds 18 1024 68 10000 9.8 180 21:40 22.03.2020
6058 Clouds 18 1024 77 10000 3.6 230 21:20 22.03.2020
6059 Clouds 18 1023 64 10000 9.8 170 20:58 22.03.2020
6060 Clouds 18 1023 68 10000 9.8 170 20:39 22.03.2020
6061 Clouds 18 1024 82 10000 3.6 230 20:21 22.03.2020
6062 Clouds 18 1023 88 10000 3.1 230 19:55 22.03.2020
6063 Clouds 18 1023 88 10000 2.1 250 19:37 22.03.2020
6064 Clouds 18 1023 88 10000 2.6 190 19:18 22.03.2020
6065 Clouds 18 1023 88 10000 2.6 190 18:56 22.03.2020
6066 Clouds 18 1023 93 10000 3.1 220 18:37 22.03.2020
6067 Clouds 18 1022 68 10000 11.3 170 18:18 22.03.2020
6068 Clouds 18 1023 93 10000 2.6 210 17:56 22.03.2020
6069 Clouds 18 1023 93 10000 2.6 210 17:36 22.03.2020
6070 Clouds 18 1023 93 10000 2.6 210 17:36 22.03.2020
6071 Clouds 18 1023 88 6000 3.6 190 17:18 22.03.2020
6072 Rain 18 1023 88 6000 3.6 190 16:54 22.03.2020
6073 Rain 18 1023 88 10000 5.1 170 16:36 22.03.2020
6074 Rain 18 1023 88 10000 5.1 170 16:18 22.03.2020
6075 Rain 19 1023 88 10000 9.3 190 15:39 22.03.2020
6076 Rain 20 1022 68 10000 8.2 160 14:48 22.03.2020
6077 Rain 20 1022 68 10000 8.2 160 14:20 22.03.2020
6078 Rain 20 1022 68 10000 8.2 150 13:58 22.03.2020
6079 Clouds 21 1022 64 10000 4.1 160 13:40 22.03.2020
6080 Clouds 21 1022 64 10000 8.2 160 13:19 22.03.2020
6081 Clouds 21 1022 60 10000 8.2 160 12:47 22.03.2020
6082 Clouds 21 1022 73 10000 6.7 140 12:23 22.03.2020
6083 Clouds 21 1022 73 10000 6.7 140 11:59 22.03.2020
6084 Clouds 21 1021 77 10000 4.6 150 11:41 22.03.2020
6085 Clouds 21 1020 64 10000 9.8 160 11:23 22.03.2020
6086 Clouds 21 1020 64 10000 9.8 160 10:56 22.03.2020
6087 Clouds 21 1019 77 10000 10.8 160 10:38 22.03.2020
6088 Clouds 21 1019 77 10000 10.8 160 10:20 22.03.2020
6089 Clouds 21 1018 78 10000 9.3 150 09:42 22.03.2020
6090 Clouds 22 1018 78 10000 8.2 160 09:22 22.03.2020
6091 Clouds 22 1018 78 10000 8.2 160 08:44 22.03.2020
6092 Clouds 23 1017 73 10000 8.7 170 08:24 22.03.2020
6093 Clouds 24 1017 69 10000 8.7 160 07:52 22.03.2020
6094 Clouds 26 1016 60 10000 8.2 170 07:26 22.03.2020
6095 Clouds 28 1016 50 10000 7.2 130 06:40 22.03.2020
6096 Clouds 29 1015 42 10000 5.7 140 05:35 22.03.2020
6097 Clouds 28 1016 57 10000 2.6 150 03:46 22.03.2020
6098 Clouds 25 1017 54 10000 3.6 350 01:35 22.03.2020
6099 Clear 24 1018 60 10000 3.6 310 00:48 22.03.2020
6100 Clear 24 1018 60 10000 3.6 310 00:29 22.03.2020
6101 Clouds 22 1018 69 10000 3.6 320 23:44 21.03.2020
6102 Clear 20 1018 100 10000 1.87 293 23:21 21.03.2020
6103 Clouds 20 1018 73 10000 3.1 330 22:58 21.03.2020
6104 Clouds 19 1018 73 10000 2.6 330 22:37 21.03.2020
6105 Clear 18 1018 100 10000 1.87 293 22:18 21.03.2020
6106 Clouds 17 1018 100 10000 1.5 270 21:56 21.03.2020
6107 Clouds 17 1018 93 2200 1.87 293 21:37 21.03.2020
6108 Clear 17 1018 100 2300 1.87 293 21:18 21.03.2020
6109 Clouds 17 1018 100 6000 1.87 293 20:42 21.03.2020
6110 Clouds 17 1018 100 10000 1.74 339 20:20 21.03.2020
6111 Clouds 18 1018 100 10000 1.74 339 19:54 21.03.2020
6112 Clouds 18 1018 100 10000 1.74 339 19:36 21.03.2020
6113 Clouds 18 1018 93 10000 2.1 60 19:18 21.03.2020
6114 Clouds 18 1018 93 10000 1.74 339 18:40 21.03.2020
6115 Clouds 18 1018 93 10000 1.5 360 18:20 21.03.2020
6116 Clouds 18 1019 100 10000 1.74 339 17:57 21.03.2020
6117 Clouds 18 1019 100 10000 1.74 339 17:39 21.03.2020
6118 Clouds 18 1019 93 10000 1.91 346 17:21 21.03.2020
6119 Clouds 19 1020 93 10000 1.5 340 16:42 21.03.2020
6120 Clouds 19 1019 73 10000 2.1 280 16:23 21.03.2020
6121 Clouds 19 1020 77 10000 2.1 320 15:58 21.03.2020
6122 Clouds 19 1020 88 10000 1.5 330 15:39 21.03.2020
6123 Clouds 19 1020 88 10000 1.5 330 15:21 21.03.2020
6124 Rain 20 1020 77 10000 2.1 190 14:55 21.03.2020
6125 Rain 20 1021 73 10000 1.91 346 14:37 21.03.2020
6126 Rain 20 1021 73 10000 0.88 57 14:19 21.03.2020
6127 Clouds 20 1021 68 10000 0.88 57 13:57 21.03.2020
6128 Clouds 20 1021 68 10000 0.88 57 13:57 21.03.2020
6129 Clouds 20 1020 68 10000 0.5 40 13:38 21.03.2020
6130 Clouds 20 1020 68 10000 0.5 40 13:38 21.03.2020
6131 Clouds 20 1020 73 10000 2.1 130 13:20 21.03.2020
6132 Clouds 20 1020 68 10000 2.6 120 12:54 21.03.2020
6133 Clouds 20 1020 68 10000 2.6 120 12:36 21.03.2020
6134 Clouds 20 1020 73 10000 3.1 120 12:18 21.03.2020
6135 Clouds 20 1020 73 10000 3.6 130 11:54 21.03.2020
6136 Clouds 20 1020 73 10000 3.6 130 11:36 21.03.2020
6137 Clouds 20 1020 68 10000 3.6 120 11:18 21.03.2020
6138 Clouds 20 1020 68 10000 4.6 120 10:55 21.03.2020
6139 Clouds 21 1020 68 10000 4.6 120 10:37 21.03.2020
6140 Clouds 21 1020 68 10000 3.6 130 10:18 21.03.2020
6141 Clouds 21 1019 64 10000 4.1 130 09:39 21.03.2020
6142 Clouds 21 1019 64 10000 4.1 130 09:21 21.03.2020
6143 Clouds 21 1019 64 10000 4.6 140 08:56 21.03.2020
6144 Clouds 21 1019 64 10000 5.7 130 08:38 21.03.2020
6145 Clouds 22 1019 64 10000 6.2 130 08:19 21.03.2020
6146 Clouds 22 1019 60 10000 5.7 130 07:39 21.03.2020
6147 Clouds 22 1019 60 10000 6.2 140 07:20 21.03.2020
6148 Clouds 23 1019 64 10000 7.2 150 06:45 21.03.2020
6149 Clouds 23 1019 64 10000 7.2 150 06:25 21.03.2020
6150 Clouds 23 1019 68 10000 7.2 160 05:41 21.03.2020
6151 Clouds 24 1020 68 10000 7.7 160 04:34 21.03.2020
6152 Rain 25 1020 73 10000 8.2 170 02:39 21.03.2020
6153 Rain 24 1020 69 10000 6.2 160 01:54 21.03.2020
6154 Rain 24 1020 64 10000 5.1 160 01:28 21.03.2020
6155 Clouds 23 1020 64 10000 2.6 300 00:43 21.03.2020
6156 Clouds 23 1020 64 10000 2.6 300 00:43 21.03.2020
6157 Clouds 23 1020 64 10000 2.6 300 00:24 21.03.2020
6158 Clouds 22 1019 73 10000 5.1 160 23:45 20.03.2020
6159 Clouds 20 1019 73 10000 7.2 160 23:23 20.03.2020
6160 Clouds 19 1019 77 10000 3.6 280 22:44 20.03.2020
6161 Clouds 18 1019 77 10000 3.6 280 22:25 20.03.2020
6162 Clouds 17 1019 82 10000 3.6 290 21:59 20.03.2020
6163 Clouds 17 1018 88 10000 3.6 300 21:41 20.03.2020
6164 Clouds 17 1018 88 10000 3.6 300 21:20 20.03.2020
6165 Clouds 17 1018 82 10000 2.6 300 20:59 20.03.2020
6166 Clear 17 1018 100 10000 1.32 247 20:41 20.03.2020
6167 Clear 17 1018 100 10000 1.89 179 20:21 20.03.2020
6168 Clear 17 1017 93 3900 1.72 186 19:58 20.03.2020
6169 Clouds 17 1017 88 10000 4.1 190 19:40 20.03.2020
6170 Clouds 17 1016 88 10000 4.6 190 19:18 20.03.2020
6171 Clear 18 1017 100 10000 1.72 186 18:39 20.03.2020
6172 Clear 18 1016 88 10000 5.1 190 18:39 20.03.2020
6173 Clear 18 1017 100 10000 1.72 186 18:39 20.03.2020
6174 Clear 18 1016 82 10000 5.1 190 18:20 20.03.2020
6175 Clouds 18 1016 88 10000 4.6 190 17:57 20.03.2020
6176 Clouds 19 1016 88 10000 4.6 190 17:39 20.03.2020
6177 Clear 19 1016 93 10000 3.26 169 17:21 20.03.2020
6178 Clear 19 1016 93 10000 3.26 169 16:57 20.03.2020
6179 Clear 19 1016 88 10000 3.26 169 16:39 20.03.2020
6180 Clear 19 1016 88 10000 3.26 169 16:18 20.03.2020
6181 Clouds 20 1016 83 10000 6.7 190 15:42 20.03.2020
6182 Clouds 20 1016 83 10000 5.1 200 15:21 20.03.2020
6183 Clouds 21 1016 83 10000 5.1 200 14:54 20.03.2020
6184 Clouds 21 1016 83 10000 8.7 180 14:36 20.03.2020
6185 Clouds 21 1016 83 10000 8.7 180 14:18 20.03.2020
6186 Clouds 21 1015 88 10000 10.3 180 13:40 20.03.2020
6187 Clouds 22 1014 83 10000 12.3 180 13:19 20.03.2020
6188 Clouds 23 1014 83 10000 12.9 180 12:39 20.03.2020
6189 Clouds 23 1014 83 10000 8.7 190 12:20 20.03.2020
6190 Clouds 24 1013 83 10000 7.7 160 11:57 20.03.2020
6191 Clouds 26 1013 83 10000 7.7 160 11:38 20.03.2020
6192 Clear 28 1012 34 10000 4.6 260 11:19 20.03.2020
6193 Haze 28 1011 47 10000 10.3 180 10:41 20.03.2020
6194 Clear 29 1011 32 10000 5.1 270 10:21 20.03.2020
6195 Clear 30 1011 27 10000 6.2 270 09:57 20.03.2020
6196 Clear 31 1010 29 10000 6.2 280 09:39 20.03.2020
6197 Clear 32 1010 25 10000 5.7 280 09:19 20.03.2020
6198 Clear 33 1010 23 10000 5.7 280 08:42 20.03.2020
6199 Haze 34 1009 19 10000 10.3 180 08:22 20.03.2020
6200 Haze 34 1009 19 10000 10.3 180 08:22 20.03.2020
6201 Haze 34 1009 17 10000 10.3 180 07:55 20.03.2020
6202 Clear 34 1009 18 10000 8.7 310 07:37 20.03.2020
6203 Clear 34 1009 18 10000 8.7 310 07:18 20.03.2020
6204 Clear 35 1009 19 10000 8.2 310 06:41 20.03.2020
6205 Clouds 35 1011 23 10000 5.7 300 04:52 20.03.2020
6206 Clouds 34 1012 23 10000 7.7 300 03:40 20.03.2020
6207 Clear 31 1014 37 10000 7.7 300 02:21 20.03.2020
6208 Clear 29 1015 42 10000 7.7 300 01:33 20.03.2020
6209 Clear 27 1015 47 10000 7.7 300 00:33 20.03.2020
6210 Clear 24 1015 57 10000 7.7 300 23:49 19.03.2020
6211 Clear 24 1015 57 10000 7.7 300 23:30 19.03.2020
6212 Clouds 22 1015 57 10000 7.7 300 22:58 19.03.2020
6213 Clouds 21 1015 60 10000 2.6 300 22:38 19.03.2020
6214 Clouds 20 1015 68 10000 3.6 310 22:20 19.03.2020
6215 Clouds 20 1015 68 10000 3.6 310 21:56 19.03.2020
6216 Clouds 19 1015 68 10000 3.6 340 21:37 19.03.2020
6217 Clouds 20 1015 68 10000 3.6 340 21:18 19.03.2020
6218 Clouds 19 1015 64 10000 3.1 330 20:42 19.03.2020
6219 Clear 19 1015 73 10000 3.1 320 20:23 19.03.2020
6220 Clear 19 1015 73 10000 3.1 320 19:57 19.03.2020
6221 Clear 19 1015 93 10000 1.88 282 19:38 19.03.2020
6222 Clear 19 1015 73 10000 2.1 250 19:20 19.03.2020
6223 Clear 19 1015 68 10000 1.88 282 18:56 19.03.2020
6224 Clear 19 1015 68 10000 1.88 282 18:38 19.03.2020
6225 Clear 20 1015 68 10000 1.88 282 18:19 19.03.2020
6226 Clear 20 1016 73 10000 1.88 282 17:42 19.03.2020
6227 Clear 20 1016 73 10000 2.6 220 17:19 19.03.2020
6228 Clear 20 1016 68 10000 2.1 10 16:55 19.03.2020
6229 Clear 21 1016 68 10000 2.1 10 16:37 19.03.2020
6230 Clear 20 1016 68 10000 2.1 10 16:19 19.03.2020
6231 Clear 21 1017 64 10000 2.1 10 15:41 19.03.2020
6232 Clear 21 1017 64 10000 3.1 60 15:22 19.03.2020
6233 Clear 21 1018 60 10000 2.1 270 14:43 19.03.2020
6234 Clear 22 1018 60 10000 3.1 360 14:21 19.03.2020
6235 Clear 22 1018 60 10000 3.1 360 13:56 19.03.2020
6236 Clear 22 1018 57 10000 2.6 20 13:37 19.03.2020
6237 Clear 23 1018 61 10000 4.1 20 13:18 19.03.2020
6238 Clear 23 1018 64 10000 4.6 30 12:40 19.03.2020
6239 Clear 23 1018 64 10000 4.6 30 12:22 19.03.2020
6240 Clear 23 1019 61 10000 6.7 30 11:57 19.03.2020
6241 Clear 23 1019 61 10000 6.7 30 11:38 19.03.2020
6242 Clear 24 1018 57 10000 6.7 30 11:19 19.03.2020
6243 Clear 24 1018 47 10000 5.7 30 10:41 19.03.2020
6244 Clear 25 1018 47 10000 5.7 30 10:20 19.03.2020
6245 Clear 25 1018 47 10000 5.7 30 09:57 19.03.2020
6246 Clear 26 1018 44 10000 4.6 30 09:37 19.03.2020
6247 Clear 27 1018 44 10000 4.6 30 09:18 19.03.2020
6248 Clear 30 1018 37 10000 5.7 40 08:42 19.03.2020
6249 Clear 30 1018 37 10000 5.7 40 08:21 19.03.2020
6250 Clear 31 1018 37 10000 5.7 80 07:46 19.03.2020
6251 Clear 32 1018 37 10000 5.7 80 07:28 19.03.2020
6252 Clear 32 1018 35 10000 5.1 80 06:48 19.03.2020
6253 Clear 33 1019 35 10000 3.6 100 05:52 19.03.2020
6254 Clear 32 1019 35 10000 3.1 90 04:59 19.03.2020
6255 Clear 32 1019 42 10000 2.6 120 04:40 19.03.2020
6256 Clear 30 1021 32 10000 2.6 270 03:20 19.03.2020
6257 Clouds 27 1022 39 10000 3.6 290 01:27 19.03.2020
6258 Clouds 24 1022 57 10000 3.6 300 00:35 19.03.2020
6259 Clouds 23 1022 73 10000 4.1 310 23:57 18.03.2020
6260 Clouds 21 1022 73 10000 4.1 310 23:36 18.03.2020
6261 Clear 18 1022 72 10000 4.1 310 23:18 18.03.2020
6262 Clear 17 1021 77 10000 4.1 310 22:42 18.03.2020
6263 Clear 17 1021 77 10000 4.1 310 22:22 18.03.2020
6264 Clear 16 1021 77 10000 4.1 310 21:54 18.03.2020
6265 Clear 15 1021 77 10000 4.1 300 21:36 18.03.2020
6266 Clear 15 1020 77 10000 4.1 320 21:18 18.03.2020
6267 Clear 15 1020 77 10000 3.1 310 20:41 18.03.2020
6268 Clear 15 1021 93 10000 2.3 278 20:21 18.03.2020
6269 Clear 15 1020 100 10000 1.5 30 19:59 18.03.2020
6270 Clear 15 1021 100 10000 2.3 278 19:40 18.03.2020
6271 Clear 15 1021 100 10000 2.3 278 19:21 18.03.2020
6272 Clear 15 1020 100 10000 2.3 278 18:56 18.03.2020
6273 Clear 15 1021 100 6000 2.3 278 18:37 18.03.2020
6274 Clear 16 1021 100 6000 2.3 278 18:18 18.03.2020
6275 Clear 16 1021 93 10000 1 240 17:41 18.03.2020
6276 Clear 16 1021 93 10000 2.18 303 17:22 18.03.2020
6277 Clear 16 1021 93 10000 2.18 303 16:59 18.03.2020
6278 Clear 16 1021 93 10000 2.18 303 16:59 18.03.2020
6279 Clear 16 1021 100 10000 2.18 303 16:40 18.03.2020
6280 Clear 17 1021 100 10000 2.18 303 16:20 18.03.2020
6281 Clear 17 1022 93 10000 2.18 303 15:56 18.03.2020
6282 Clear 17 1022 93 10000 1.5 360 15:37 18.03.2020
6283 Clear 17 1022 77 10000 3.1 350 15:18 18.03.2020
6284 Clear 18 1022 77 10000 4.1 10 14:42 18.03.2020
6285 Clouds 18 1022 77 10000 4.1 10 14:21 18.03.2020
6286 Clouds 18 1023 88 10000 1.86 355 13:40 18.03.2020
6287 Clouds 18 1023 88 10000 1.5 200 13:19 18.03.2020
6288 Clouds 19 1023 82 10000 2.1 60 12:43 18.03.2020
6289 Clouds 19 1022 77 10000 3.1 80 12:21 18.03.2020
6290 Clouds 19 1022 77 10000 3.1 80 11:59 18.03.2020
6291 Clouds 20 1022 68 10000 6.7 20 11:37 18.03.2020
6292 Clouds 20 1022 68 10000 6.7 20 11:37 18.03.2020
6293 Clear 20 1022 68 10000 6.7 20 11:18 18.03.2020
6294 Clear 20 1022 68 10000 6.7 20 10:56 18.03.2020
6295 Clear 20 1022 68 10000 6.7 20 10:56 18.03.2020
6296 Clear 20 1022 68 10000 6.7 20 10:36 18.03.2020
6297 Clear 21 1022 68 10000 6.7 20 10:18 18.03.2020
6298 Clear 22 1021 64 10000 8.7 30 09:42 18.03.2020
6299 Clear 22 1021 64 10000 8.7 30 09:23 18.03.2020
6300 Clear 23 1021 60 10000 8.7 30 08:55 18.03.2020
6301 Clear 24 1021 60 10000 8.7 30 08:36 18.03.2020
6302 Clear 24 1021 53 10000 7.7 30 08:18 18.03.2020
6303 Clear 25 1021 50 10000 8.7 40 07:40 18.03.2020
6304 Clear 25 1021 47 10000 8.2 30 07:22 18.03.2020
6305 Clear 26 1021 47 10000 7.7 40 06:42 18.03.2020
6306 Clear 26 1022 44 10000 6.7 40 05:53 18.03.2020
6307 Clear 26 1022 44 10000 5.7 30 05:19 18.03.2020
6308 Clear 26 1023 36 10000 6.2 30 03:53 18.03.2020
6309 Clear 24 1025 44 10000 3.1 360 02:40 18.03.2020
6310 Clouds 23 1026 47 10000 4.1 350 01:46 18.03.2020
6311 Clouds 22 1026 56 10000 3.6 300 01:21 18.03.2020
6312 Clouds 21 1026 60 10000 3.1 320 00:23 18.03.2020
6313 Clouds 19 1027 68 10000 3.6 320 23:47 17.03.2020
6314 Clouds 18 1027 72 10000 3.1 310 23:26 17.03.2020
6315 Clouds 16 1027 100 250 0.5 40 22:47 17.03.2020
6316 Clouds 15 1026 87 10000 2.1 290 22:29 17.03.2020
6317 Clouds 14 1026 87 10000 2.1 290 21:59 17.03.2020
6318 Clouds 13 1026 100 500 1.77 286 21:37 17.03.2020
6319 Clouds 13 1025 100 200 1.77 286 21:19 17.03.2020
6320 Clouds 13 1025 100 150 1.76 294 20:38 17.03.2020
6321 Clouds 13 1025 100 150 1.52 304 20:20 17.03.2020
6322 Clouds 14 1025 93 250 1.46 308 19:54 17.03.2020
6323 Clouds 13 1025 100 200 1.46 308 19:36 17.03.2020
6324 Clouds 13 1025 100 200 1.46 308 19:18 17.03.2020
6325 Clouds 13 1025 100 200 1.46 308 18:54 17.03.2020
6326 Rain 14 1025 100 200 1.46 308 18:36 17.03.2020
6327 Rain 14 1025 100 250 1.46 308 18:18 17.03.2020
6328 Rain 14 1025 100 250 1.46 308 18:18 17.03.2020
6329 Clouds 14 1025 100 6000 1.46 308 17:40 17.03.2020
6330 Clear 14 1026 93 450 1.22 281 17:20 17.03.2020
6331 Clear 15 1026 100 5000 1.22 281 16:44 17.03.2020
6332 Clear 15 1026 93 10000 1.22 281 16:20 17.03.2020
6333 Clouds 15 1026 82 10000 1.5 350 15:58 17.03.2020
6334 Clear 15 1026 93 10000 1.22 281 15:39 17.03.2020
6335 Clear 15 1026 93 10000 1.22 281 15:18 17.03.2020
6336 Clouds 15 1027 77 10000 1.5 290 14:41 17.03.2020
6337 Clouds 16 1027 77 10000 1.5 290 14:21 17.03.2020
6338 Clouds 16 1027 77 10000 1.5 290 14:21 17.03.2020
6339 Clouds 16 1027 68 10000 1.01 336 13:43 17.03.2020
6340 Clouds 16 1027 68 10000 1.01 336 13:25 17.03.2020
6341 Clouds 16 1027 88 10000 0.98 337 12:58 17.03.2020
6342 Clear 16 1027 68 10000 2.6 30 12:39 17.03.2020
6343 Clouds 16 1027 82 10000 2.1 50 12:21 17.03.2020
6344 Clouds 17 1027 72 10000 1.5 60 11:45 17.03.2020
6345 Clear 17 1027 68 10000 2.1 80 11:27 17.03.2020
6346 Clouds 17 1027 72 10000 1.5 60 11:27 17.03.2020
6347 Clouds 17 1026 82 10000 0.5 50 10:58 17.03.2020
6348 Clear 18 1026 68 10000 2.6 70 10:37 17.03.2020
6349 Rain 18 1026 68 10000 2.1 100 10:19 17.03.2020
6350 Rain 19 1026 68 10000 2.1 100 09:55 17.03.2020
6351 Rain 19 1026 68 10000 3.1 120 09:36 17.03.2020
6352 Rain 20 1026 64 10000 3.6 150 09:18 17.03.2020
6353 Clouds 21 1026 72 10000 4.1 170 08:42 17.03.2020
6354 Clouds 21 1026 68 10000 5.7 170 08:21 17.03.2020
6355 Clouds 21 1026 68 10000 5.7 170 07:50 17.03.2020
6356 Clouds 21 1026 68 10000 4.6 170 07:25 17.03.2020
6357 Clouds 22 1026 68 10000 4.6 170 06:58 17.03.2020
6358 Clouds 22 1026 68 10000 4.6 170 06:33 17.03.2020
6359 Clouds 22 1026 60 10000 5.1 160 05:46 17.03.2020
6360 Clouds 22 1027 68 10000 4.1 200 03:36 17.03.2020
6361 Clouds 21 1028 77 10000 5.1 200 02:45 17.03.2020
6362 Clouds 20 1028 77 10000 5.7 210 01:42 17.03.2020
6363 Clouds 20 1028 77 10000 5.7 210 01:24 17.03.2020
6364 Rain 19 1028 82 10000 3.6 230 00:31 17.03.2020
6365 Rain 18 1027 88 10000 5.1 210 23:45 16.03.2020
6366 Drizzle 18 1027 88 10000 3.6 190 23:25 16.03.2020
6367 Rain 16 1027 82 10000 2.6 300 22:41 16.03.2020
6368 Clouds 16 1027 100 10000 1.96 201 22:23 16.03.2020
6369 Drizzle 15 1027 93 10000 3.6 300 21:57 16.03.2020
6370 Clouds 15 1027 87 10000 3.6 320 21:39 16.03.2020
6371 Clouds 15 1027 87 10000 3.6 320 21:21 16.03.2020
6372 Clouds 15 1026 93 10000 4.1 290 20:55 16.03.2020
6373 Clouds 15 1026 93 10000 3.1 270 20:37 16.03.2020
6374 Clouds 15 1026 93 10000 3.1 290 20:18 16.03.2020
6375 Rain 15 1026 93 10000 3.6 270 19:41 16.03.2020
6376 Clouds 15 1026 93 10000 2.6 260 19:20 16.03.2020
6377 Clouds 15 1026 93 10000 1.5 230 18:43 16.03.2020
6378 Clouds 15 1026 93 10000 2.24 185 18:21 16.03.2020
6379 Clouds 15 1026 93 10000 2.24 185 17:55 16.03.2020
6380 Clouds 15 1026 100 10000 1 230 17:37 16.03.2020
6381 Clouds 15 1027 93 10000 2.6 240 17:18 16.03.2020
6382 Clouds 16 1027 88 10000 6.7 210 16:44 16.03.2020
6383 Clouds 16 1027 88 10000 6.7 210 16:24 16.03.2020
6384 Clouds 16 1027 88 10000 6.2 210 15:45 16.03.2020
6385 Rain 16 1027 93 10000 4.6 200 15:27 16.03.2020
6386 Rain 16 1027 88 10000 7.2 200 14:49 16.03.2020
6387 Rain 16 1027 88 10000 7.2 200 14:28 16.03.2020
6388 Clouds 16 1027 88 10000 2.6 230 13:59 16.03.2020
6389 Clouds 16 1027 88 10000 4.1 150 13:41 16.03.2020
6390 Clouds 16 1027 88 10000 4.1 150 13:22 16.03.2020
6391 Rain 17 1027 77 10000 9.3 150 12:45 16.03.2020
6392 Rain 17 1027 82 10000 10.8 180 12:24 16.03.2020
6393 Clouds 17 1027 77 10000 12.9 160 11:56 16.03.2020
6394 Rain 17 1026 82 10000 9.3 130 11:37 16.03.2020
6395 Rain 17 1026 82 10000 9.3 130 11:18 16.03.2020
6396 Rain 17 1026 82 10000 7.7 150 10:40 16.03.2020
6397 Rain 18 1026 77 10000 9.8 160 10:19 16.03.2020
6398 Rain 18 1025 82 10000 5.7 170 09:42 16.03.2020
6399 Rain 18 1025 82 10000 7.7 180 09:24 16.03.2020
6400 Rain 19 1025 82 10000 7.7 180 08:54 16.03.2020
6401 Rain 20 1025 77 10000 8.7 150 08:25 16.03.2020
6402 Rain 21 1025 77 10000 10.8 160 07:50 16.03.2020
6403 Rain 21 1024 68 10000 11.3 180 07:27 16.03.2020
6404 Rain 21 1024 68 10000 10.8 180 06:54 16.03.2020
6405 Rain 20 1024 68 10000 9.8 180 06:25 16.03.2020
6406 Rain 19 1025 82 10000 5.7 100 05:42 16.03.2020
6407 Rain 19 1025 88 10000 9.8 180 02:44 16.03.2020
6408 Rain 18 1025 100 6000 10.8 180 01:20 16.03.2020
6409 Rain 18 1025 93 10000 8.2 170 00:39 16.03.2020
6410 Rain 17 1024 93 10000 8.7 190 23:48 15.03.2020
6411 Rain 17 1024 93 10000 8.7 190 23:20 15.03.2020
6412 Rain 16 1024 100 10000 4.1 210 22:43 15.03.2020
6413 Rain 16 1024 100 10000 4.1 210 22:23 15.03.2020
6414 Rain 15 1024 100 3900 4.1 210 21:59 15.03.2020
6415 Rain 15 1024 93 8000 3.6 210 21:39 15.03.2020
6416 Rain 15 1024 93 8000 3.6 210 21:19 15.03.2020
6417 Rain 15 1023 93 6000 3.6 210 20:43 15.03.2020
6418 Rain 15 1023 93 9000 8.2 180 20:22 15.03.2020
6419 Rain 15 1022 93 10000 7.7 190 19:58 15.03.2020
6420 Rain 15 1022 93 9000 6.7 190 19:40 15.03.2020
6421 Rain 15 1022 93 9000 6.7 190 19:22 15.03.2020
6422 Rain 15 1022 93 10000 7.7 180 18:57 15.03.2020
6423 Rain 15 1023 77 10000 2.1 170 18:38 15.03.2020
6424 Rain 15 1022 93 6000 7.7 170 18:20 15.03.2020
6425 Rain 15 1022 88 10000 9.8 160 17:42 15.03.2020
6426 Rain 15 1023 72 10000 3.1 200 17:22 15.03.2020
6427 Rain 15 1023 72 10000 3.1 200 16:59 15.03.2020
6428 Rain 15 1023 88 10000 4.6 170 16:41 15.03.2020
6429 Rain 15 1023 88 10000 4.6 170 16:22 15.03.2020
6430 Rain 15 1023 82 10000 7.7 200 15:57 15.03.2020
6431 Rain 16 1023 87 10000 2.6 240 15:38 15.03.2020
6432 Rain 16 1023 87 10000 2.6 240 15:19 15.03.2020
6433 Rain 16 1024 87 10000 2.1 250 14:43 15.03.2020
6434 Rain 16 1024 87 10000 2.1 250 14:24 15.03.2020
6435 Clouds 16 1023 82 10000 5.1 230 13:57 15.03.2020
6436 Clouds 16 1024 87 10000 3.1 230 13:38 15.03.2020
6437 Clouds 16 1024 87 10000 4.1 200 13:19 15.03.2020
6438 Clouds 16 1024 87 10000 5.7 190 12:41 15.03.2020
6439 Clouds 16 1023 82 10000 8.2 180 12:23 15.03.2020
6440 Clouds 16 1023 88 10000 9.3 170 11:45 15.03.2020
6441 Clouds 17 1023 82 10000 10.3 170 11:26 15.03.2020
6442 Clouds 17 1023 82 10000 10.3 170 11:00 15.03.2020
6443 Clouds 17 1023 72 10000 3.1 180 10:41 15.03.2020
6444 Clouds 17 1023 72 10000 3.1 180 10:23 15.03.2020
6445 Clouds 17 1023 88 10000 7.2 200 09:59 15.03.2020
6446 Rain 17 1022 82 10000 7.7 190 09:39 15.03.2020
6447 Rain 17 1022 82 10000 7.7 190 09:20 15.03.2020
6448 Rain 18 1022 82 10000 10.3 190 08:42 15.03.2020
6449 Rain 18 1022 82 10000 10.3 190 08:20 15.03.2020
6450 Rain 19 1022 82 10000 8.7 190 07:50 15.03.2020
6451 Rain 19 1022 88 9000 9.8 190 07:23 15.03.2020
6452 Clouds 19 1021 72 10000 9.8 180 06:45 15.03.2020
6453 Rain 19 1021 77 10000 10.3 180 05:50 15.03.2020
6454 Rain 18 1021 82 8000 9.8 190 05:18 15.03.2020
6455 Rain 19 1022 77 6000 9.3 190 04:41 15.03.2020
6456 Rain 19 1022 77 6000 9.3 190 04:23 15.03.2020
6457 Rain 18 1022 88 6000 7.7 180 03:30 15.03.2020
6458 Rain 19 1022 82 5000 10.3 190 02:37 15.03.2020
6459 Rain 19 1022 77 10000 9.8 180 01:34 15.03.2020
6460 Rain 18 1022 72 10000 11.3 180 00:45 15.03.2020
6461 Rain 18 1021 72 10000 10.8 180 00:22 15.03.2020
6462 Rain 17 1021 68 10000 7.2 160 23:42 14.03.2020
6463 Rain 17 1021 68 10000 7.2 160 23:22 14.03.2020
6464 Rain 15 1021 77 10000 7.2 160 22:59 14.03.2020
6465 Clouds 15 1021 72 10000 2.6 220 22:41 14.03.2020
6466 Clouds 14 1021 72 10000 2.6 220 22:23 14.03.2020
6467 Rain 14 1021 72 10000 7.2 160 21:56 14.03.2020
6468 Rain 14 1020 72 10000 7.2 160 21:36 14.03.2020
6469 Rain 14 1020 72 10000 7.2 160 21:36 14.03.2020
6470 Rain 14 1020 77 10000 7.2 160 21:18 14.03.2020
6471 Rain 14 1020 77 10000 7.2 160 20:58 14.03.2020
6472 Rain 14 1020 77 10000 8.2 200 20:40 14.03.2020
6473 Clouds 14 1019 77 10000 9.8 200 20:19 14.03.2020
6474 Clouds 14 1019 72 10000 10.3 190 19:43 14.03.2020
6475 Rain 14 1020 76 10000 2.6 220 19:25 14.03.2020
6476 Clouds 15 1019 68 10000 10.8 180 18:42 14.03.2020
6477 Clouds 15 1019 68 10000 10.8 180 18:24 14.03.2020
6478 Clouds 15 1020 72 10000 3.6 220 17:58 14.03.2020
6479 Clouds 15 1020 72 10000 3.6 220 17:38 14.03.2020
6480 Clouds 15 1020 72 10000 3.6 220 17:38 14.03.2020
6481 Clouds 15 1020 72 10000 4.6 210 17:20 14.03.2020
6482 Clouds 15 1020 72 10000 4.6 210 17:20 14.03.2020
6483 Clouds 15 1020 72 10000 4.1 220 16:41 14.03.2020
6484 Clouds 15 1020 72 10000 4.1 220 16:23 14.03.2020
6485 Clouds 15 1020 72 10000 4.1 220 15:58 14.03.2020
6486 Clouds 15 1020 77 10000 3.1 230 15:27 14.03.2020
6487 Clouds 15 1020 59 10000 9.3 160 14:58 14.03.2020
6488 Clouds 16 1020 72 10000 5.1 220 14:37 14.03.2020
6489 Clouds 16 1020 55 10000 8.7 160 14:18 14.03.2020
6490 Clouds 16 1020 55 10000 8.7 160 13:42 14.03.2020
6491 Clouds 16 1020 77 10000 3.6 230 13:23 14.03.2020
6492 Clouds 16 1020 55 10000 9.3 160 12:57 14.03.2020
6493 Clouds 16 1020 55 10000 9.3 160 12:38 14.03.2020
6494 Clouds 16 1020 55 10000 9.3 160 12:19 14.03.2020
6495 Clouds 15 1020 82 10000 3.6 240 11:40 14.03.2020
6496 Clouds 15 1020 82 10000 3.6 240 11:20 14.03.2020
6497 Clouds 15 1019 82 10000 4.1 230 10:46 14.03.2020
6498 Clouds 15 1019 82 10000 4.1 230 10:27 14.03.2020
6499 Clouds 14 1019 82 10000 4.6 230 09:58 14.03.2020
6500 Clouds 14 1019 82 10000 4.6 230 09:40 14.03.2020
6501 Clouds 14 1019 93 10000 3.6 240 09:20 14.03.2020
6502 Rain 14 1019 93 10000 3.6 240 08:46 14.03.2020
6503 Rain 14 1019 100 10000 2.1 230 08:24 14.03.2020
6504 Rain 13 1018 93 8000 9.3 180 07:40 14.03.2020
6505 Rain 13 1018 93 8000 7.7 180 07:21 14.03.2020
6506 Rain 13 1018 93 8000 7.7 210 06:41 14.03.2020
6507 Rain 13 1018 100 7000 8.2 220 05:58 14.03.2020
6508 Rain 13 1018 93 9000 10.3 200 04:53 14.03.2020
6509 Rain 15 1018 87 10000 12.9 170 03:34 14.03.2020
6510 Clouds 15 1018 82 10000 11.8 190 02:43 14.03.2020
6511 Rain 16 1018 87 10000 6.77 185 01:42 14.03.2020
6512 Rain 16 1017 77 8000 14.9 170 00:23 14.03.2020
6513 Rain 16 1016 82 8000 15.9 170 23:42 13.03.2020
6514 Rain 16 1016 88 10000 5.1 170 23:23 13.03.2020
6515 Rain 17 1016 82 10000 6.7 180 22:44 13.03.2020
6516 Drizzle 18 1015 72 10000 15.4 170 22:22 13.03.2020
6517 Rain 18 1014 77 9000 15.9 170 21:41 13.03.2020
6518 Clouds 18 1013 82 10000 14.4 200 21:19 13.03.2020
6519 Clouds 18 1013 82 10000 14.4 200 21:19 13.03.2020
6520 Clouds 17 1013 100 10000 3.6 210 20:42 13.03.2020
6521 Clouds 16 1013 100 10000 3.6 210 20:22 13.03.2020
6522 Clouds 16 1012 100 10000 2.4 194 19:58 13.03.2020
6523 Clouds 16 1011 82 10000 2.6 20 19:39 13.03.2020
6524 Clouds 16 1011 93 10000 1.5 220 19:19 13.03.2020
6525 Clouds 16 1011 93 10000 2.4 194 18:43 13.03.2020
6526 Clouds 16 1011 93 10000 2.4 194 18:23 13.03.2020
6527 Clouds 16 1012 100 10000 2.4 194 17:43 13.03.2020
6528 Clouds 16 1012 100 10000 2.22 337 17:21 13.03.2020
6529 Clouds 16 1012 100 10000 2.22 337 16:59 13.03.2020
6530 Clouds 17 1012 100 10000 2.22 337 16:39 13.03.2020
6531 Clouds 17 1013 100 10000 2.22 337 16:20 13.03.2020
6532 Clouds 17 1013 100 10000 2.22 337 15:46 13.03.2020
6533 Clouds 17 1013 100 10000 2.22 337 15:23 13.03.2020
6534 Clouds 18 1013 77 10000 4.1 320 14:59 13.03.2020
6535 Clouds 18 1013 93 10000 2.22 337 14:40 13.03.2020
6536 Clear 18 1014 88 10000 2.98 352 14:22 13.03.2020
6537 Clear 18 1014 88 10000 2.98 352 13:55 13.03.2020
6538 Clear 19 1014 88 10000 2.1 60 13:36 13.03.2020
6539 Clear 19 1014 88 10000 1.5 60 13:18 13.03.2020
6540 Clear 19 1014 82 10000 2.1 60 12:39 13.03.2020
6541 Clear 19 1014 82 10000 2.1 60 12:20 13.03.2020
6542 Clear 20 1014 82 10000 2.6 70 11:57 13.03.2020
6543 Clear 20 1014 77 10000 2.1 70 11:37 13.03.2020
6544 Clear 20 1014 77 10000 2.1 70 11:19 13.03.2020
6545 Clear 20 1014 68 10000 4.1 70 10:47 13.03.2020
6546 Clear 21 1014 68 10000 4.1 70 10:26 13.03.2020
6547 Clear 21 1014 64 10000 7.2 30 09:56 13.03.2020
6548 Clear 21 1014 64 10000 7.2 30 09:56 13.03.2020
6549 Clear 21 1014 64 10000 8.2 40 09:38 13.03.2020
6550 Clear 22 1014 64 10000 8.2 40 09:19 13.03.2020
6551 Clear 23 1014 50 10000 8.7 50 08:42 13.03.2020
6552 Clear 24 1014 50 10000 8.7 50 08:22 13.03.2020
6553 Clouds 24 1014 50 10000 8.2 50 07:47 13.03.2020
6554 Clouds 25 1014 44 10000 8.2 50 07:27 13.03.2020
6555 Clouds 26 1015 47 10000 7.2 60 06:46 13.03.2020
6556 Clouds 26 1015 47 10000 7.2 60 06:24 13.03.2020
6557 Clouds 26 1016 44 10000 7.2 30 05:46 13.03.2020
6558 Clouds 26 1016 44 10000 9.3 70 05:20 13.03.2020
6559 Clouds 26 1016 44 10000 7.2 70 04:37 13.03.2020
6560 Clouds 25 1018 44 10000 2.6 310 02:58 13.03.2020
6561 Clear 24 1020 47 10000 3.1 310 01:43 13.03.2020
6562 Clear 23 1020 53 10000 3.6 290 01:18 13.03.2020
6563 Clouds 22 1020 60 10000 3.1 290 00:47 13.03.2020
6564 Clouds 21 1020 60 10000 3.1 290 00:23 13.03.2020
6565 Clouds 20 1020 64 10000 2.6 290 23:48 12.03.2020
6566 Clouds 19 1020 64 10000 2.6 290 23:26 12.03.2020
6567 Rain 16 1021 100 10000 1.82 268 22:56 12.03.2020
6568 Rain 16 1021 72 10000 3.1 310 22:38 12.03.2020
6569 Clear 15 1021 72 10000 3.1 310 22:19 12.03.2020
6570 Clouds 14 1021 100 1600 1.82 268 21:43 12.03.2020
6571 Clouds 14 1021 100 1600 1.82 268 21:24 12.03.2020
6572 Clouds 13 1021 100 200 1.82 268 20:56 12.03.2020
6573 Clouds 14 1021 100 200 1.82 268 20:37 12.03.2020
6574 Clouds 13 1021 100 200 1.68 267 20:18 12.03.2020
6575 Clouds 14 1021 100 600 1.68 267 19:39 12.03.2020
6576 Clouds 14 1021 100 10000 1.68 267 19:20 12.03.2020
6577 Clouds 14 1021 100 5000 1.68 267 18:43 12.03.2020
6578 Clouds 14 1021 100 5000 1.68 267 18:43 12.03.2020
6579 Clouds 14 1021 93 500 1.68 267 18:24 12.03.2020
6580 Clouds 14 1022 100 10000 1.68 267 17:57 12.03.2020
6581 Clouds 14 1022 100 10000 1.68 267 17:38 12.03.2020
6582 Clouds 15 1022 100 10000 1.91 254 17:19 12.03.2020
6583 Clouds 15 1022 100 10000 1.91 254 16:54 12.03.2020
6584 Clouds 15 1022 100 10000 1.91 254 16:36 12.03.2020
6585 Clouds 15 1022 100 10000 1.91 254 16:18 12.03.2020
6586 Clouds 15 1023 93 10000 1.91 254 15:43 12.03.2020
6587 Clouds 15 1023 87 10000 1.91 254 15:24 12.03.2020
6588 Clouds 16 1023 93 10000 1.91 254 14:40 12.03.2020
6589 Clear 17 1023 87 10000 2.1 250 14:21 12.03.2020
6590 Clear 17 1023 87 10000 2.1 250 14:21 12.03.2020
6591 Clear 17 1023 87 10000 2.1 250 13:56 12.03.2020
6592 Clear 17 1023 87 10000 1.5 270 13:36 12.03.2020
6593 Clear 17 1023 87 10000 0.97 16 13:18 12.03.2020
6594 Clear 18 1023 82 10000 0.97 16 12:41 12.03.2020
6595 Clear 18 1023 77 10000 1 80 12:21 12.03.2020
6596 Clear 18 1023 72 10000 1.5 70 11:56 12.03.2020
6597 Clear 19 1023 72 10000 1.5 70 11:38 12.03.2020
6598 Clouds 19 1023 64 10000 3.1 40 11:19 12.03.2020
6599 Clouds 19 1023 64 10000 3.1 40 10:58 12.03.2020
6600 Clouds 20 1022 60 10000 4.1 50 10:40 12.03.2020
6601 Clouds 20 1022 53 10000 4.6 50 10:22 12.03.2020
6602 Clouds 21 1022 53 10000 4.6 50 09:46 12.03.2020
6603 Clouds 21 1022 56 10000 6.2 60 09:25 12.03.2020
6604 Clouds 22 1022 53 10000 6.2 50 08:44 12.03.2020
6605 Clouds 23 1022 53 10000 6.7 70 08:20 12.03.2020
6606 Clouds 23 1022 53 10000 6.7 70 07:59 12.03.2020
6607 Clouds 23 1022 53 10000 6.7 70 07:40 12.03.2020
6608 Clouds 24 1022 53 10000 6.7 70 07:21 12.03.2020
6609 Clouds 24 1023 41 10000 5.7 80 05:51 12.03.2020
6610 Clouds 25 1023 44 10000 5.1 90 05:25 12.03.2020
6611 Clouds 24 1025 50 10000 5.1 90 02:41 12.03.2020
6612 Clouds 23 1025 53 10000 7.2 80 01:36 12.03.2020
6613 Clouds 23 1025 53 10000 7.2 80 01:18 12.03.2020
6614 Clouds 22 1025 57 10000 6.2 80 00:40 12.03.2020
6615 Clouds 20 1025 73 10000 2.31 66 23:51 11.03.2020
6616 Clouds 19 1025 77 10000 4.1 100 23:26 11.03.2020
6617 Clouds 18 1025 100 10000 0.5 220 22:55 11.03.2020
6618 Rain 18 1025 82 10000 4.1 100 22:37 11.03.2020
6619 Rain 18 1025 82 10000 4.1 100 22:37 11.03.2020
6620 Rain 17 1024 82 10000 0.5 250 22:18 11.03.2020
6621 Rain 16 1024 100 10000 1.5 140 21:41 11.03.2020
6622 Rain 16 1024 100 10000 1.5 140 21:23 11.03.2020
6623 Rain 15 1024 93 10000 1.22 244 20:59 11.03.2020
6624 Rain 16 1024 93 10000 1.22 244 20:40 11.03.2020
6625 Rain 15 1024 93 10000 1.26 240 20:20 11.03.2020
6626 Rain 15 1023 100 10000 1.26 240 19:58 11.03.2020
6627 Rain 15 1023 100 10000 1.26 240 19:39 11.03.2020
6628 Clouds 15 1023 100 10000 1.26 240 19:21 11.03.2020
6629 Clouds 15 1023 100 10000 1.26 240 18:56 11.03.2020
6630 Rain 15 1023 93 10000 2.1 230 18:36 11.03.2020
6631 Rain 16 1023 93 10000 2.1 230 18:18 11.03.2020
6632 Clouds 16 1024 100 10000 2.1 260 17:40 11.03.2020
6633 Clouds 16 1024 93 10000 1 270 17:21 11.03.2020
6634 Clouds 17 1024 82 10000 0.9 295 16:55 11.03.2020
6635 Clouds 17 1024 93 10000 2.6 130 16:37 11.03.2020
6636 Clouds 17 1024 93 10000 2.6 130 16:19 11.03.2020
6637 Clouds 17 1024 93 10000 1.5 70 15:42 11.03.2020
6638 Clouds 17 1024 93 10000 1.5 70 15:22 11.03.2020
6639 Clouds 17 1024 93 10000 0.9 295 14:44 11.03.2020
6640 Clouds 17 1024 93 10000 0.9 295 14:23 11.03.2020
6641 Clouds 17 1024 88 10000 1.96 51 13:59 11.03.2020
6642 Clouds 17 1024 93 10000 2.1 57 13:40 11.03.2020
6643 Clouds 17 1024 93 10000 2.1 57 13:21 11.03.2020
6644 Clouds 18 1024 88 10000 2.1 57 12:55 11.03.2020
6645 Clouds 18 1024 88 10000 2.1 57 12:37 11.03.2020
6646 Clear 18 1024 82 10000 2.1 57 12:18 11.03.2020
6647 Clouds 19 1024 60 10000 3.6 90 11:40 11.03.2020
6648 Clouds 19 1024 64 10000 3.6 90 11:20 11.03.2020
6649 Clouds 20 1024 64 10000 4.1 90 10:46 11.03.2020
6650 Clear 20 1023 72 10000 3.1 80 10:20 11.03.2020
6651 Clouds 21 1023 60 10000 4.6 90 09:55 11.03.2020
6652 Clouds 21 1023 56 10000 5.1 90 09:36 11.03.2020
6653 Clouds 22 1023 53 10000 5.1 90 09:18 11.03.2020
6654 Clouds 22 1023 56 10000 4.6 80 08:42 11.03.2020
6655 Clouds 22 1023 56 10000 4.6 80 08:42 11.03.2020
6656 Clouds 23 1023 56 10000 4.6 80 08:23 11.03.2020
6657 Clouds 23 1023 53 10000 5.1 110 07:47 11.03.2020
6658 Clouds 24 1023 57 10000 5.7 100 07:20 11.03.2020
6659 Clouds 24 1023 53 10000 6.7 110 06:49 11.03.2020
6660 Clouds 24 1023 53 10000 6.7 110 06:30 11.03.2020
6661 Clouds 24 1023 50 10000 5.1 110 05:32 11.03.2020
6662 Clouds 23 1023 56 10000 6.2 130 02:45 11.03.2020
6663 Rain 23 1023 73 10000 6.7 190 01:52 11.03.2020
6664 Clouds 23 1024 73 10000 5.7 180 01:23 11.03.2020
6665 Clouds 23 1023 73 10000 5.1 190 00:37 11.03.2020
6666 Clouds 20 1023 72 10000 4.1 160 23:50 10.03.2020
6667 Clouds 19 1023 72 10000 4.1 160 23:28 10.03.2020
6668 Clouds 17 1023 72 10000 4.1 160 22:58 10.03.2020
6669 Clouds 17 1022 77 10000 1.66 239 22:37 10.03.2020
6670 Clouds 16 1022 77 10000 1.66 239 22:19 10.03.2020
6671 Clouds 15 1022 77 10000 1.66 239 21:56 10.03.2020
6672 Clouds 15 1022 82 10000 0.5 300 21:38 10.03.2020
6673 Clear 14 1022 100 10000 1.66 239 21:18 10.03.2020
6674 Clouds 14 1021 87 10000 1 310 20:43 10.03.2020
6675 Clouds 15 1021 87 10000 1 310 20:21 10.03.2020
6676 Clouds 14 1021 82 10000 1.91 238 19:59 10.03.2020
6677 Clouds 15 1021 88 10000 1.91 238 19:41 10.03.2020
6678 Clouds 15 1021 93 10000 1.91 238 19:23 10.03.2020
6679 Clouds 15 1021 82 10000 1.91 238 18:58 10.03.2020
6680 Clouds 15 1021 88 10000 1.91 238 18:40 10.03.2020
6681 Clouds 15 1021 88 10000 1.91 238 18:21 10.03.2020